<?xml version="1.0" encoding="UTF-8" standalone="no" ?>
<gpx xmlns="http://www.topografix.com/GPX/1/1" xmlns:xsi="http://www.w3.org/2001/XMLSchema-instance" xsi:schemaLocation="http://www.topografix.com/GPX/1/1 http://www.topografix.com/GPX/1/1/gpx.xsd" version="1.1" creator="VisuGPX - https://www.visugpx.com">
  <metadata>
    <name>Magny en Vexin - Lierville</name>
    <desc><![CDATA[Rando Rif effectuée avec JJL. Parcours varié et vraiment très plaisant en plein coeur du Vexin]]></desc>
  </metadata>
  <trk>
    <name><![CDATA[SityTrail - Magny en Vexin - Lierville]]></name>
    <desc><![CDATA[Rando Rif effectuée avec JJL. Parcours varié et vraiment très plaisant en plein coeur du Vexin]]></desc>
    <trkseg>
      <trkpt lat="49.15495" lon="1.79053">
        <ele>76</ele>
        <time>2024-02-05T08:32:32.665+00:00</time>
      </trkpt>
      <trkpt lat="49.15495" lon="1.79053">
        <ele>76</ele>
        <time>2024-02-05T08:32:32.665+00:00</time>
      </trkpt>
      <trkpt lat="49.15494" lon="1.79055">
        <ele>76</ele>
        <time>2024-02-05T08:32:57.685+00:00</time>
      </trkpt>
      <trkpt lat="49.15492" lon="1.79053">
        <ele>76</ele>
        <time>2024-02-05T08:33:02.687+00:00</time>
      </trkpt>
      <trkpt lat="49.15487" lon="1.79049">
        <ele>76</ele>
        <time>2024-02-05T08:33:07.645+00:00</time>
      </trkpt>
      <trkpt lat="49.15484" lon="1.79043">
        <ele>75</ele>
        <time>2024-02-05T08:33:11.684+00:00</time>
      </trkpt>
      <trkpt lat="49.15484" lon="1.79042">
        <ele>75</ele>
        <time>2024-02-05T08:33:15.683+00:00</time>
      </trkpt>
      <trkpt lat="49.1548" lon="1.79037">
        <ele>76</ele>
        <time>2024-02-05T08:34:30.686+00:00</time>
      </trkpt>
      <trkpt lat="49.1548" lon="1.79035">
        <ele>76</ele>
        <time>2024-02-05T08:34:35.436+00:00</time>
      </trkpt>
      <trkpt lat="49.15484" lon="1.7903">
        <ele>76</ele>
        <time>2024-02-05T08:34:39.694+00:00</time>
      </trkpt>
      <trkpt lat="49.15486" lon="1.79026">
        <ele>76</ele>
        <time>2024-02-05T08:34:44.171+00:00</time>
      </trkpt>
      <trkpt lat="49.1549" lon="1.7902">
        <ele>77</ele>
        <time>2024-02-05T08:34:48.393+00:00</time>
      </trkpt>
      <trkpt lat="49.15493" lon="1.79015">
        <ele>77</ele>
        <time>2024-02-05T08:34:52.594+00:00</time>
      </trkpt>
      <trkpt lat="49.15495" lon="1.7901">
        <ele>78</ele>
        <time>2024-02-05T08:34:56.697+00:00</time>
      </trkpt>
      <trkpt lat="49.15498" lon="1.79005">
        <ele>78</ele>
        <time>2024-02-05T08:35:01.129+00:00</time>
      </trkpt>
      <trkpt lat="49.155" lon="1.79002">
        <ele>78</ele>
        <time>2024-02-05T08:35:05.663+00:00</time>
      </trkpt>
      <trkpt lat="49.15502" lon="1.78999">
        <ele>78</ele>
        <time>2024-02-05T08:35:09.694+00:00</time>
      </trkpt>
      <trkpt lat="49.15505" lon="1.78996">
        <ele>78</ele>
        <time>2024-02-05T08:35:14.071+00:00</time>
      </trkpt>
      <trkpt lat="49.1551" lon="1.78999">
        <ele>78</ele>
        <time>2024-02-05T08:35:18.309+00:00</time>
      </trkpt>
      <trkpt lat="49.15515" lon="1.79003">
        <ele>79</ele>
        <time>2024-02-05T08:35:22.329+00:00</time>
      </trkpt>
      <trkpt lat="49.1552" lon="1.7901">
        <ele>79</ele>
        <time>2024-02-05T08:35:26.966+00:00</time>
      </trkpt>
      <trkpt lat="49.15524" lon="1.79011">
        <ele>79</ele>
        <time>2024-02-05T08:35:31.374+00:00</time>
      </trkpt>
      <trkpt lat="49.15526" lon="1.79006">
        <ele>79</ele>
        <time>2024-02-05T08:35:35.514+00:00</time>
      </trkpt>
      <trkpt lat="49.1553" lon="1.78999">
        <ele>79</ele>
        <time>2024-02-05T08:35:39.553+00:00</time>
      </trkpt>
      <trkpt lat="49.15534" lon="1.78993">
        <ele>79</ele>
        <time>2024-02-05T08:35:44.092+00:00</time>
      </trkpt>
      <trkpt lat="49.15536" lon="1.7899">
        <ele>79</ele>
        <time>2024-02-05T08:35:48.214+00:00</time>
      </trkpt>
      <trkpt lat="49.15538" lon="1.78987">
        <ele>79</ele>
        <time>2024-02-05T08:35:52.234+00:00</time>
      </trkpt>
      <trkpt lat="49.15541" lon="1.78985">
        <ele>80</ele>
        <time>2024-02-05T08:35:56.475+00:00</time>
      </trkpt>
      <trkpt lat="49.15543" lon="1.78979">
        <ele>80</ele>
        <time>2024-02-05T08:36:00.654+00:00</time>
      </trkpt>
      <trkpt lat="49.15544" lon="1.78976">
        <ele>80</ele>
        <time>2024-02-05T08:36:04.988+00:00</time>
      </trkpt>
      <trkpt lat="49.15546" lon="1.78976">
        <ele>80</ele>
        <time>2024-02-05T08:36:09.071+00:00</time>
      </trkpt>
      <trkpt lat="49.1555" lon="1.78971">
        <ele>80</ele>
        <time>2024-02-05T08:36:13.547+00:00</time>
      </trkpt>
      <trkpt lat="49.15554" lon="1.78966">
        <ele>80</ele>
        <time>2024-02-05T08:36:18.052+00:00</time>
      </trkpt>
      <trkpt lat="49.15559" lon="1.78961">
        <ele>80</ele>
        <time>2024-02-05T08:36:22.462+00:00</time>
      </trkpt>
      <trkpt lat="49.15564" lon="1.78955">
        <ele>81</ele>
        <time>2024-02-05T08:36:26.589+00:00</time>
      </trkpt>
      <trkpt lat="49.15568" lon="1.7895">
        <ele>81</ele>
        <time>2024-02-05T08:36:30.594+00:00</time>
      </trkpt>
      <trkpt lat="49.15573" lon="1.78945">
        <ele>80</ele>
        <time>2024-02-05T08:36:35.048+00:00</time>
      </trkpt>
      <trkpt lat="49.15577" lon="1.7894">
        <ele>80</ele>
        <time>2024-02-05T08:36:39.150+00:00</time>
      </trkpt>
      <trkpt lat="49.1558" lon="1.78935">
        <ele>80</ele>
        <time>2024-02-05T08:36:43.333+00:00</time>
      </trkpt>
      <trkpt lat="49.15584" lon="1.78931">
        <ele>80</ele>
        <time>2024-02-05T08:36:47.613+00:00</time>
      </trkpt>
      <trkpt lat="49.15588" lon="1.78927">
        <ele>82</ele>
        <time>2024-02-05T08:36:52.117+00:00</time>
      </trkpt>
      <trkpt lat="49.15591" lon="1.78924">
        <ele>82</ele>
        <time>2024-02-05T08:36:56.486+00:00</time>
      </trkpt>
      <trkpt lat="49.15595" lon="1.7892">
        <ele>82</ele>
        <time>2024-02-05T08:37:00.978+00:00</time>
      </trkpt>
      <trkpt lat="49.15596" lon="1.78913">
        <ele>82</ele>
        <time>2024-02-05T08:37:05.177+00:00</time>
      </trkpt>
      <trkpt lat="49.15594" lon="1.78904">
        <ele>82</ele>
        <time>2024-02-05T08:37:09.661+00:00</time>
      </trkpt>
      <trkpt lat="49.15592" lon="1.78898">
        <ele>83</ele>
        <time>2024-02-05T08:37:13.679+00:00</time>
      </trkpt>
      <trkpt lat="49.1559" lon="1.78892">
        <ele>83</ele>
        <time>2024-02-05T08:37:18.408+00:00</time>
      </trkpt>
      <trkpt lat="49.15588" lon="1.78884">
        <ele>83</ele>
        <time>2024-02-05T08:37:22.889+00:00</time>
      </trkpt>
      <trkpt lat="49.15587" lon="1.78877">
        <ele>83</ele>
        <time>2024-02-05T08:37:27.111+00:00</time>
      </trkpt>
      <trkpt lat="49.15585" lon="1.78872">
        <ele>82</ele>
        <time>2024-02-05T08:37:31.177+00:00</time>
      </trkpt>
      <trkpt lat="49.15582" lon="1.78869">
        <ele>82</ele>
        <time>2024-02-05T08:37:35.654+00:00</time>
      </trkpt>
      <trkpt lat="49.15582" lon="1.78867">
        <ele>82</ele>
        <time>2024-02-05T08:37:40.207+00:00</time>
      </trkpt>
      <trkpt lat="49.1558" lon="1.78861">
        <ele>82</ele>
        <time>2024-02-05T08:37:44.628+00:00</time>
      </trkpt>
      <trkpt lat="49.15577" lon="1.78856">
        <ele>82</ele>
        <time>2024-02-05T08:37:49.150+00:00</time>
      </trkpt>
      <trkpt lat="49.15573" lon="1.78849">
        <ele>82</ele>
        <time>2024-02-05T08:37:53.513+00:00</time>
      </trkpt>
      <trkpt lat="49.15569" lon="1.78842">
        <ele>81</ele>
        <time>2024-02-05T08:37:57.935+00:00</time>
      </trkpt>
      <trkpt lat="49.15566" lon="1.78836">
        <ele>81</ele>
        <time>2024-02-05T08:38:01.971+00:00</time>
      </trkpt>
      <trkpt lat="49.15562" lon="1.7883">
        <ele>81</ele>
        <time>2024-02-05T08:38:06.572+00:00</time>
      </trkpt>
      <trkpt lat="49.15559" lon="1.7882">
        <ele>81</ele>
        <time>2024-02-05T08:38:11.231+00:00</time>
      </trkpt>
      <trkpt lat="49.1556" lon="1.78811">
        <ele>81</ele>
        <time>2024-02-05T08:38:15.864+00:00</time>
      </trkpt>
      <trkpt lat="49.1556" lon="1.78795">
        <ele>81</ele>
        <time>2024-02-05T08:38:20.527+00:00</time>
      </trkpt>
      <trkpt lat="49.15563" lon="1.7879">
        <ele>81</ele>
        <time>2024-02-05T08:38:25.147+00:00</time>
      </trkpt>
      <trkpt lat="49.15563" lon="1.78785">
        <ele>81</ele>
        <time>2024-02-05T08:38:29.632+00:00</time>
      </trkpt>
      <trkpt lat="49.15565" lon="1.78787">
        <ele>81</ele>
        <time>2024-02-05T08:38:33.766+00:00</time>
      </trkpt>
      <trkpt lat="49.1557" lon="1.78781">
        <ele>79</ele>
        <time>2024-02-05T08:38:38.247+00:00</time>
      </trkpt>
      <trkpt lat="49.15569" lon="1.78777">
        <ele>81</ele>
        <time>2024-02-05T08:38:42.530+00:00</time>
      </trkpt>
      <trkpt lat="49.15565" lon="1.78764">
        <ele>81</ele>
        <time>2024-02-05T08:38:47.034+00:00</time>
      </trkpt>
      <trkpt lat="49.15565" lon="1.78754">
        <ele>81</ele>
        <time>2024-02-05T08:38:51.082+00:00</time>
      </trkpt>
      <trkpt lat="49.15568" lon="1.78745">
        <ele>81</ele>
        <time>2024-02-05T08:38:55.188+00:00</time>
      </trkpt>
      <trkpt lat="49.15571" lon="1.78736">
        <ele>79</ele>
        <time>2024-02-05T08:38:59.640+00:00</time>
      </trkpt>
      <trkpt lat="49.15574" lon="1.78727">
        <ele>79</ele>
        <time>2024-02-05T08:39:03.733+00:00</time>
      </trkpt>
      <trkpt lat="49.15576" lon="1.78721">
        <ele>79</ele>
        <time>2024-02-05T08:39:08.176+00:00</time>
      </trkpt>
      <trkpt lat="49.15578" lon="1.78718">
        <ele>79</ele>
        <time>2024-02-05T08:39:12.194+00:00</time>
      </trkpt>
      <trkpt lat="49.15583" lon="1.78714">
        <ele>79</ele>
        <time>2024-02-05T08:39:16.653+00:00</time>
      </trkpt>
      <trkpt lat="49.15588" lon="1.78713">
        <ele>79</ele>
        <time>2024-02-05T08:39:21.195+00:00</time>
      </trkpt>
      <trkpt lat="49.15591" lon="1.78721">
        <ele>79</ele>
        <time>2024-02-05T08:39:25.413+00:00</time>
      </trkpt>
      <trkpt lat="49.15595" lon="1.78724">
        <ele>79</ele>
        <time>2024-02-05T08:39:29.673+00:00</time>
      </trkpt>
      <trkpt lat="49.15604" lon="1.78717">
        <ele>76</ele>
        <time>2024-02-05T08:39:34.173+00:00</time>
      </trkpt>
      <trkpt lat="49.15609" lon="1.78709">
        <ele>76</ele>
        <time>2024-02-05T08:39:38.617+00:00</time>
      </trkpt>
      <trkpt lat="49.156" lon="1.78694">
        <ele>76</ele>
        <time>2024-02-05T08:39:43.069+00:00</time>
      </trkpt>
      <trkpt lat="49.15611" lon="1.78685">
        <ele>76</ele>
        <time>2024-02-05T08:39:47.545+00:00</time>
      </trkpt>
      <trkpt lat="49.15617" lon="1.78681">
        <ele>76</ele>
        <time>2024-02-05T08:39:51.652+00:00</time>
      </trkpt>
      <trkpt lat="49.15623" lon="1.78674">
        <ele>76</ele>
        <time>2024-02-05T08:39:56.149+00:00</time>
      </trkpt>
      <trkpt lat="49.15625" lon="1.7867">
        <ele>74</ele>
        <time>2024-02-05T08:40:00.546+00:00</time>
      </trkpt>
      <trkpt lat="49.15628" lon="1.78668">
        <ele>74</ele>
        <time>2024-02-05T08:40:04.649+00:00</time>
      </trkpt>
      <trkpt lat="49.15633" lon="1.78671">
        <ele>74</ele>
        <time>2024-02-05T08:40:09.655+00:00</time>
      </trkpt>
      <trkpt lat="49.15635" lon="1.7867">
        <ele>74</ele>
        <time>2024-02-05T08:40:14.288+00:00</time>
      </trkpt>
      <trkpt lat="49.15636" lon="1.78673">
        <ele>74</ele>
        <time>2024-02-05T08:40:18.475+00:00</time>
      </trkpt>
      <trkpt lat="49.1564" lon="1.78675">
        <ele>74</ele>
        <time>2024-02-05T08:40:23.112+00:00</time>
      </trkpt>
      <trkpt lat="49.15644" lon="1.78678">
        <ele>74</ele>
        <time>2024-02-05T08:40:27.411+00:00</time>
      </trkpt>
      <trkpt lat="49.15649" lon="1.78681">
        <ele>74</ele>
        <time>2024-02-05T08:40:31.827+00:00</time>
      </trkpt>
      <trkpt lat="49.15651" lon="1.78679">
        <ele>74</ele>
        <time>2024-02-05T08:40:41.668+00:00</time>
      </trkpt>
      <trkpt lat="49.15652" lon="1.78677">
        <ele>74</ele>
        <time>2024-02-05T08:40:45.663+00:00</time>
      </trkpt>
      <trkpt lat="49.15654" lon="1.78675">
        <ele>73</ele>
        <time>2024-02-05T08:40:50.274+00:00</time>
      </trkpt>
      <trkpt lat="49.15658" lon="1.78673">
        <ele>73</ele>
        <time>2024-02-05T08:40:54.697+00:00</time>
      </trkpt>
      <trkpt lat="49.15663" lon="1.78672">
        <ele>73</ele>
        <time>2024-02-05T08:40:59.391+00:00</time>
      </trkpt>
      <trkpt lat="49.15665" lon="1.78673">
        <ele>73</ele>
        <time>2024-02-05T08:41:03.630+00:00</time>
      </trkpt>
      <trkpt lat="49.15668" lon="1.78676">
        <ele>73</ele>
        <time>2024-02-05T08:41:07.670+00:00</time>
      </trkpt>
      <trkpt lat="49.15671" lon="1.78681">
        <ele>72</ele>
        <time>2024-02-05T08:41:11.807+00:00</time>
      </trkpt>
      <trkpt lat="49.15673" lon="1.78689">
        <ele>72</ele>
        <time>2024-02-05T08:41:16.369+00:00</time>
      </trkpt>
      <trkpt lat="49.15677" lon="1.78693">
        <ele>72</ele>
        <time>2024-02-05T08:41:20.671+00:00</time>
      </trkpt>
      <trkpt lat="49.15682" lon="1.78692">
        <ele>71</ele>
        <time>2024-02-05T08:41:25.290+00:00</time>
      </trkpt>
      <trkpt lat="49.15686" lon="1.78692">
        <ele>71</ele>
        <time>2024-02-05T08:41:29.930+00:00</time>
      </trkpt>
      <trkpt lat="49.1569" lon="1.78693">
        <ele>71</ele>
        <time>2024-02-05T08:41:33.973+00:00</time>
      </trkpt>
      <trkpt lat="49.15694" lon="1.78692">
        <ele>71</ele>
        <time>2024-02-05T08:41:38.046+00:00</time>
      </trkpt>
      <trkpt lat="49.157" lon="1.7869">
        <ele>71</ele>
        <time>2024-02-05T08:41:42.512+00:00</time>
      </trkpt>
      <trkpt lat="49.15704" lon="1.78688">
        <ele>71</ele>
        <time>2024-02-05T08:41:46.575+00:00</time>
      </trkpt>
      <trkpt lat="49.1571" lon="1.78687">
        <ele>70</ele>
        <time>2024-02-05T08:41:50.668+00:00</time>
      </trkpt>
      <trkpt lat="49.15714" lon="1.78685">
        <ele>70</ele>
        <time>2024-02-05T08:41:55.288+00:00</time>
      </trkpt>
      <trkpt lat="49.15719" lon="1.78684">
        <ele>70</ele>
        <time>2024-02-05T08:41:59.476+00:00</time>
      </trkpt>
      <trkpt lat="49.15724" lon="1.78682">
        <ele>70</ele>
        <time>2024-02-05T08:42:03.694+00:00</time>
      </trkpt>
      <trkpt lat="49.15728" lon="1.78679">
        <ele>71</ele>
        <time>2024-02-05T08:42:08.086+00:00</time>
      </trkpt>
      <trkpt lat="49.15731" lon="1.78673">
        <ele>71</ele>
        <time>2024-02-05T08:42:12.269+00:00</time>
      </trkpt>
      <trkpt lat="49.15733" lon="1.78665">
        <ele>71</ele>
        <time>2024-02-05T08:42:16.691+00:00</time>
      </trkpt>
      <trkpt lat="49.15734" lon="1.78659">
        <ele>71</ele>
        <time>2024-02-05T08:42:20.931+00:00</time>
      </trkpt>
      <trkpt lat="49.15736" lon="1.78654">
        <ele>71</ele>
        <time>2024-02-05T08:42:24.994+00:00</time>
      </trkpt>
      <trkpt lat="49.15737" lon="1.78646">
        <ele>71</ele>
        <time>2024-02-05T08:42:29.434+00:00</time>
      </trkpt>
      <trkpt lat="49.15739" lon="1.78639">
        <ele>71</ele>
        <time>2024-02-05T08:42:33.954+00:00</time>
      </trkpt>
      <trkpt lat="49.1574" lon="1.78632">
        <ele>71</ele>
        <time>2024-02-05T08:42:38.634+00:00</time>
      </trkpt>
      <trkpt lat="49.15745" lon="1.78625">
        <ele>72</ele>
        <time>2024-02-05T08:42:43.134+00:00</time>
      </trkpt>
      <trkpt lat="49.15747" lon="1.78612">
        <ele>72</ele>
        <time>2024-02-05T08:42:47.530+00:00</time>
      </trkpt>
      <trkpt lat="49.15751" lon="1.78603">
        <ele>72</ele>
        <time>2024-02-05T08:42:51.647+00:00</time>
      </trkpt>
      <trkpt lat="49.15754" lon="1.78595">
        <ele>73</ele>
        <time>2024-02-05T08:42:56.530+00:00</time>
      </trkpt>
      <trkpt lat="49.15753" lon="1.78594">
        <ele>73</ele>
        <time>2024-02-05T08:43:00.645+00:00</time>
      </trkpt>
      <trkpt lat="49.15753" lon="1.78591">
        <ele>73</ele>
        <time>2024-02-05T08:43:05.645+00:00</time>
      </trkpt>
      <trkpt lat="49.15751" lon="1.7858">
        <ele>73</ele>
        <time>2024-02-05T08:43:10.052+00:00</time>
      </trkpt>
      <trkpt lat="49.1575" lon="1.78575">
        <ele>73</ele>
        <time>2024-02-05T08:43:14.173+00:00</time>
      </trkpt>
      <trkpt lat="49.15751" lon="1.78569">
        <ele>73</ele>
        <time>2024-02-05T08:43:18.489+00:00</time>
      </trkpt>
      <trkpt lat="49.1575" lon="1.78563">
        <ele>73</ele>
        <time>2024-02-05T08:43:22.965+00:00</time>
      </trkpt>
      <trkpt lat="49.15749" lon="1.78557">
        <ele>73</ele>
        <time>2024-02-05T08:43:27.113+00:00</time>
      </trkpt>
      <trkpt lat="49.15748" lon="1.78551">
        <ele>73</ele>
        <time>2024-02-05T08:43:31.533+00:00</time>
      </trkpt>
      <trkpt lat="49.15748" lon="1.78547">
        <ele>73</ele>
        <time>2024-02-05T08:43:35.887+00:00</time>
      </trkpt>
      <trkpt lat="49.15747" lon="1.78543">
        <ele>73</ele>
        <time>2024-02-05T08:43:40.389+00:00</time>
      </trkpt>
      <trkpt lat="49.15747" lon="1.78538">
        <ele>73</ele>
        <time>2024-02-05T08:43:44.804+00:00</time>
      </trkpt>
      <trkpt lat="49.15747" lon="1.78531">
        <ele>73</ele>
        <time>2024-02-05T08:43:49.334+00:00</time>
      </trkpt>
      <trkpt lat="49.15747" lon="1.78526">
        <ele>73</ele>
        <time>2024-02-05T08:43:53.657+00:00</time>
      </trkpt>
      <trkpt lat="49.15746" lon="1.7852">
        <ele>73</ele>
        <time>2024-02-05T08:43:58.113+00:00</time>
      </trkpt>
      <trkpt lat="49.15745" lon="1.78515">
        <ele>73</ele>
        <time>2024-02-05T08:44:02.450+00:00</time>
      </trkpt>
      <trkpt lat="49.15745" lon="1.78509">
        <ele>72</ele>
        <time>2024-02-05T08:44:06.849+00:00</time>
      </trkpt>
      <trkpt lat="49.15744" lon="1.78501">
        <ele>72</ele>
        <time>2024-02-05T08:44:11.275+00:00</time>
      </trkpt>
      <trkpt lat="49.15743" lon="1.78494">
        <ele>72</ele>
        <time>2024-02-05T08:44:15.670+00:00</time>
      </trkpt>
      <trkpt lat="49.15743" lon="1.78487">
        <ele>72</ele>
        <time>2024-02-05T08:44:20.208+00:00</time>
      </trkpt>
      <trkpt lat="49.15741" lon="1.78478">
        <ele>73</ele>
        <time>2024-02-05T08:44:24.668+00:00</time>
      </trkpt>
      <trkpt lat="49.15739" lon="1.7847">
        <ele>73</ele>
        <time>2024-02-05T08:44:28.668+00:00</time>
      </trkpt>
      <trkpt lat="49.15736" lon="1.78461">
        <ele>73</ele>
        <time>2024-02-05T08:44:33.393+00:00</time>
      </trkpt>
      <trkpt lat="49.15734" lon="1.78449">
        <ele>72</ele>
        <time>2024-02-05T08:44:38.672+00:00</time>
      </trkpt>
      <trkpt lat="49.15732" lon="1.78437">
        <ele>72</ele>
        <time>2024-02-05T08:44:43.150+00:00</time>
      </trkpt>
      <trkpt lat="49.15729" lon="1.78426">
        <ele>72</ele>
        <time>2024-02-05T08:44:47.329+00:00</time>
      </trkpt>
      <trkpt lat="49.15728" lon="1.78415">
        <ele>72</ele>
        <time>2024-02-05T08:44:51.551+00:00</time>
      </trkpt>
      <trkpt lat="49.15726" lon="1.78406">
        <ele>72</ele>
        <time>2024-02-05T08:44:56.006+00:00</time>
      </trkpt>
      <trkpt lat="49.15725" lon="1.78398">
        <ele>72</ele>
        <time>2024-02-05T08:45:00.517+00:00</time>
      </trkpt>
      <trkpt lat="49.15723" lon="1.78391">
        <ele>72</ele>
        <time>2024-02-05T08:45:04.915+00:00</time>
      </trkpt>
      <trkpt lat="49.15721" lon="1.78383">
        <ele>72</ele>
        <time>2024-02-05T08:45:08.970+00:00</time>
      </trkpt>
      <trkpt lat="49.15719" lon="1.78375">
        <ele>72</ele>
        <time>2024-02-05T08:45:13.594+00:00</time>
      </trkpt>
      <trkpt lat="49.15719" lon="1.7837">
        <ele>72</ele>
        <time>2024-02-05T08:45:17.688+00:00</time>
      </trkpt>
      <trkpt lat="49.15717" lon="1.78365">
        <ele>72</ele>
        <time>2024-02-05T08:45:22.228+00:00</time>
      </trkpt>
      <trkpt lat="49.15716" lon="1.78359">
        <ele>72</ele>
        <time>2024-02-05T08:45:26.223+00:00</time>
      </trkpt>
      <trkpt lat="49.15711" lon="1.78354">
        <ele>72</ele>
        <time>2024-02-05T08:45:30.354+00:00</time>
      </trkpt>
      <trkpt lat="49.15707" lon="1.78348">
        <ele>70</ele>
        <time>2024-02-05T08:45:34.394+00:00</time>
      </trkpt>
      <trkpt lat="49.15704" lon="1.78342">
        <ele>71</ele>
        <time>2024-02-05T08:45:38.458+00:00</time>
      </trkpt>
      <trkpt lat="49.15701" lon="1.78337">
        <ele>71</ele>
        <time>2024-02-05T08:45:42.687+00:00</time>
      </trkpt>
      <trkpt lat="49.15696" lon="1.78337">
        <ele>71</ele>
        <time>2024-02-05T08:45:46.689+00:00</time>
      </trkpt>
      <trkpt lat="49.15693" lon="1.78335">
        <ele>71</ele>
        <time>2024-02-05T08:45:51.227+00:00</time>
      </trkpt>
      <trkpt lat="49.1569" lon="1.78333">
        <ele>71</ele>
        <time>2024-02-05T08:45:55.697+00:00</time>
      </trkpt>
      <trkpt lat="49.15686" lon="1.78331">
        <ele>71</ele>
        <time>2024-02-05T08:46:00.155+00:00</time>
      </trkpt>
      <trkpt lat="49.15683" lon="1.7833">
        <ele>71</ele>
        <time>2024-02-05T08:46:04.331+00:00</time>
      </trkpt>
      <trkpt lat="49.15678" lon="1.78326">
        <ele>70</ele>
        <time>2024-02-05T08:46:08.411+00:00</time>
      </trkpt>
      <trkpt lat="49.15675" lon="1.78324">
        <ele>70</ele>
        <time>2024-02-05T08:46:12.528+00:00</time>
      </trkpt>
      <trkpt lat="49.15669" lon="1.78321">
        <ele>70</ele>
        <time>2024-02-05T08:46:16.993+00:00</time>
      </trkpt>
      <trkpt lat="49.15665" lon="1.78318">
        <ele>71</ele>
        <time>2024-02-05T08:46:21.404+00:00</time>
      </trkpt>
      <trkpt lat="49.1566" lon="1.78316">
        <ele>71</ele>
        <time>2024-02-05T08:46:25.668+00:00</time>
      </trkpt>
      <trkpt lat="49.15657" lon="1.78314">
        <ele>71</ele>
        <time>2024-02-05T08:46:30.645+00:00</time>
      </trkpt>
      <trkpt lat="49.15654" lon="1.78313">
        <ele>71</ele>
        <time>2024-02-05T08:46:35.392+00:00</time>
      </trkpt>
      <trkpt lat="49.15646" lon="1.78312">
        <ele>70</ele>
        <time>2024-02-05T08:46:39.975+00:00</time>
      </trkpt>
      <trkpt lat="49.1564" lon="1.78318">
        <ele>70</ele>
        <time>2024-02-05T08:46:44.359+00:00</time>
      </trkpt>
      <trkpt lat="49.15634" lon="1.7832">
        <ele>69</ele>
        <time>2024-02-05T08:46:48.653+00:00</time>
      </trkpt>
      <trkpt lat="49.15629" lon="1.78322">
        <ele>69</ele>
        <time>2024-02-05T08:46:53.032+00:00</time>
      </trkpt>
      <trkpt lat="49.15623" lon="1.78323">
        <ele>68</ele>
        <time>2024-02-05T08:46:57.515+00:00</time>
      </trkpt>
      <trkpt lat="49.15617" lon="1.7832">
        <ele>68</ele>
        <time>2024-02-05T08:47:02.439+00:00</time>
      </trkpt>
      <trkpt lat="49.15608" lon="1.78321">
        <ele>68</ele>
        <time>2024-02-05T08:47:06.919+00:00</time>
      </trkpt>
      <trkpt lat="49.15601" lon="1.78322">
        <ele>68</ele>
        <time>2024-02-05T08:47:11.373+00:00</time>
      </trkpt>
      <trkpt lat="49.15594" lon="1.78323">
        <ele>67</ele>
        <time>2024-02-05T08:47:15.872+00:00</time>
      </trkpt>
      <trkpt lat="49.15587" lon="1.78324">
        <ele>67</ele>
        <time>2024-02-05T08:47:20.102+00:00</time>
      </trkpt>
      <trkpt lat="49.1558" lon="1.78326">
        <ele>67</ele>
        <time>2024-02-05T08:47:24.639+00:00</time>
      </trkpt>
      <trkpt lat="49.15572" lon="1.78331">
        <ele>67</ele>
        <time>2024-02-05T08:47:28.998+00:00</time>
      </trkpt>
      <trkpt lat="49.15568" lon="1.78331">
        <ele>68</ele>
        <time>2024-02-05T08:47:32.991+00:00</time>
      </trkpt>
      <trkpt lat="49.15562" lon="1.78333">
        <ele>68</ele>
        <time>2024-02-05T08:47:37.700+00:00</time>
      </trkpt>
      <trkpt lat="49.15558" lon="1.78335">
        <ele>68</ele>
        <time>2024-02-05T08:47:41.777+00:00</time>
      </trkpt>
      <trkpt lat="49.15554" lon="1.78336">
        <ele>68</ele>
        <time>2024-02-05T08:47:46.097+00:00</time>
      </trkpt>
      <trkpt lat="49.1555" lon="1.78341">
        <ele>68</ele>
        <time>2024-02-05T08:47:50.274+00:00</time>
      </trkpt>
      <trkpt lat="49.15542" lon="1.78345">
        <ele>68</ele>
        <time>2024-02-05T08:47:54.511+00:00</time>
      </trkpt>
      <trkpt lat="49.15537" lon="1.78349">
        <ele>69</ele>
        <time>2024-02-05T08:47:58.959+00:00</time>
      </trkpt>
      <trkpt lat="49.15532" lon="1.78351">
        <ele>69</ele>
        <time>2024-02-05T08:48:03.337+00:00</time>
      </trkpt>
      <trkpt lat="49.15527" lon="1.78348">
        <ele>69</ele>
        <time>2024-02-05T08:48:07.853+00:00</time>
      </trkpt>
      <trkpt lat="49.15524" lon="1.78341">
        <ele>68</ele>
        <time>2024-02-05T08:48:12.235+00:00</time>
      </trkpt>
      <trkpt lat="49.15522" lon="1.78334">
        <ele>68</ele>
        <time>2024-02-05T08:48:16.536+00:00</time>
      </trkpt>
      <trkpt lat="49.15519" lon="1.7833">
        <ele>68</ele>
        <time>2024-02-05T08:48:20.857+00:00</time>
      </trkpt>
      <trkpt lat="49.15517" lon="1.78324">
        <ele>68</ele>
        <time>2024-02-05T08:48:25.158+00:00</time>
      </trkpt>
      <trkpt lat="49.15515" lon="1.78318">
        <ele>67</ele>
        <time>2024-02-05T08:48:29.498+00:00</time>
      </trkpt>
      <trkpt lat="49.15513" lon="1.78314">
        <ele>67</ele>
        <time>2024-02-05T08:48:33.838+00:00</time>
      </trkpt>
      <trkpt lat="49.15511" lon="1.7831">
        <ele>67</ele>
        <time>2024-02-05T08:48:38.053+00:00</time>
      </trkpt>
      <trkpt lat="49.1551" lon="1.7831">
        <ele>67</ele>
        <time>2024-02-05T08:48:42.372+00:00</time>
      </trkpt>
      <trkpt lat="49.15507" lon="1.78306">
        <ele>67</ele>
        <time>2024-02-05T08:48:46.660+00:00</time>
      </trkpt>
      <trkpt lat="49.15503" lon="1.78305">
        <ele>67</ele>
        <time>2024-02-05T08:48:51.338+00:00</time>
      </trkpt>
      <trkpt lat="49.155" lon="1.78303">
        <ele>67</ele>
        <time>2024-02-05T08:48:55.419+00:00</time>
      </trkpt>
      <trkpt lat="49.15497" lon="1.78298">
        <ele>67</ele>
        <time>2024-02-05T08:48:59.675+00:00</time>
      </trkpt>
      <trkpt lat="49.15493" lon="1.78294">
        <ele>67</ele>
        <time>2024-02-05T08:49:04.094+00:00</time>
      </trkpt>
      <trkpt lat="49.15491" lon="1.78291">
        <ele>67</ele>
        <time>2024-02-05T08:49:08.136+00:00</time>
      </trkpt>
      <trkpt lat="49.15489" lon="1.78287">
        <ele>67</ele>
        <time>2024-02-05T08:49:12.397+00:00</time>
      </trkpt>
      <trkpt lat="49.15486" lon="1.78284">
        <ele>67</ele>
        <time>2024-02-05T08:49:16.683+00:00</time>
      </trkpt>
      <trkpt lat="49.15483" lon="1.7828">
        <ele>67</ele>
        <time>2024-02-05T08:49:20.998+00:00</time>
      </trkpt>
      <trkpt lat="49.15478" lon="1.78276">
        <ele>67</ele>
        <time>2024-02-05T08:49:25.158+00:00</time>
      </trkpt>
      <trkpt lat="49.15476" lon="1.78272">
        <ele>67</ele>
        <time>2024-02-05T08:49:29.398+00:00</time>
      </trkpt>
      <trkpt lat="49.15472" lon="1.78266">
        <ele>67</ele>
        <time>2024-02-05T08:49:33.779+00:00</time>
      </trkpt>
      <trkpt lat="49.15468" lon="1.78261">
        <ele>67</ele>
        <time>2024-02-05T08:49:38.077+00:00</time>
      </trkpt>
      <trkpt lat="49.15464" lon="1.78255">
        <ele>67</ele>
        <time>2024-02-05T08:49:42.415+00:00</time>
      </trkpt>
      <trkpt lat="49.15462" lon="1.78247">
        <ele>67</ele>
        <time>2024-02-05T08:49:46.681+00:00</time>
      </trkpt>
      <trkpt lat="49.1546" lon="1.7824">
        <ele>67</ele>
        <time>2024-02-05T08:49:51.081+00:00</time>
      </trkpt>
      <trkpt lat="49.15457" lon="1.78231">
        <ele>67</ele>
        <time>2024-02-05T08:49:55.498+00:00</time>
      </trkpt>
      <trkpt lat="49.15454" lon="1.78223">
        <ele>67</ele>
        <time>2024-02-05T08:49:59.817+00:00</time>
      </trkpt>
      <trkpt lat="49.15451" lon="1.78214">
        <ele>67</ele>
        <time>2024-02-05T08:50:04.016+00:00</time>
      </trkpt>
      <trkpt lat="49.15448" lon="1.78204">
        <ele>67</ele>
        <time>2024-02-05T08:50:08.374+00:00</time>
      </trkpt>
      <trkpt lat="49.15443" lon="1.78194">
        <ele>67</ele>
        <time>2024-02-05T08:50:12.665+00:00</time>
      </trkpt>
      <trkpt lat="49.15439" lon="1.78184">
        <ele>67</ele>
        <time>2024-02-05T08:50:17.117+00:00</time>
      </trkpt>
      <trkpt lat="49.15435" lon="1.78175">
        <ele>67</ele>
        <time>2024-02-05T08:50:21.314+00:00</time>
      </trkpt>
      <trkpt lat="49.1543" lon="1.78167">
        <ele>67</ele>
        <time>2024-02-05T08:50:25.661+00:00</time>
      </trkpt>
      <trkpt lat="49.15426" lon="1.78161">
        <ele>67</ele>
        <time>2024-02-05T08:50:29.917+00:00</time>
      </trkpt>
      <trkpt lat="49.15422" lon="1.78155">
        <ele>67</ele>
        <time>2024-02-05T08:50:34.294+00:00</time>
      </trkpt>
      <trkpt lat="49.15418" lon="1.78148">
        <ele>66</ele>
        <time>2024-02-05T08:50:38.670+00:00</time>
      </trkpt>
      <trkpt lat="49.15414" lon="1.78141">
        <ele>66</ele>
        <time>2024-02-05T08:50:42.976+00:00</time>
      </trkpt>
      <trkpt lat="49.15409" lon="1.78135">
        <ele>66</ele>
        <time>2024-02-05T08:50:47.475+00:00</time>
      </trkpt>
      <trkpt lat="49.15406" lon="1.78129">
        <ele>66</ele>
        <time>2024-02-05T08:50:51.675+00:00</time>
      </trkpt>
      <trkpt lat="49.15404" lon="1.78123">
        <ele>66</ele>
        <time>2024-02-05T08:50:55.675+00:00</time>
      </trkpt>
      <trkpt lat="49.15401" lon="1.78115">
        <ele>64</ele>
        <time>2024-02-05T08:51:00.070+00:00</time>
      </trkpt>
      <trkpt lat="49.15396" lon="1.78106">
        <ele>64</ele>
        <time>2024-02-05T08:51:04.572+00:00</time>
      </trkpt>
      <trkpt lat="49.15393" lon="1.78099">
        <ele>64</ele>
        <time>2024-02-05T08:51:08.675+00:00</time>
      </trkpt>
      <trkpt lat="49.15391" lon="1.78093">
        <ele>65</ele>
        <time>2024-02-05T08:51:12.673+00:00</time>
      </trkpt>
      <trkpt lat="49.15388" lon="1.78088">
        <ele>65</ele>
        <time>2024-02-05T08:51:16.997+00:00</time>
      </trkpt>
      <trkpt lat="49.15386" lon="1.78084">
        <ele>65</ele>
        <time>2024-02-05T08:51:21.448+00:00</time>
      </trkpt>
      <trkpt lat="49.15386" lon="1.78077">
        <ele>65</ele>
        <time>2024-02-05T08:51:25.674+00:00</time>
      </trkpt>
      <trkpt lat="49.15387" lon="1.7807">
        <ele>65</ele>
        <time>2024-02-05T08:51:29.676+00:00</time>
      </trkpt>
      <trkpt lat="49.15385" lon="1.78062">
        <ele>66</ele>
        <time>2024-02-05T08:51:34.380+00:00</time>
      </trkpt>
      <trkpt lat="49.15381" lon="1.78056">
        <ele>66</ele>
        <time>2024-02-05T08:51:38.453+00:00</time>
      </trkpt>
      <trkpt lat="49.1538" lon="1.7805">
        <ele>66</ele>
        <time>2024-02-05T08:51:42.832+00:00</time>
      </trkpt>
      <trkpt lat="49.1538" lon="1.78044">
        <ele>66</ele>
        <time>2024-02-05T08:51:46.874+00:00</time>
      </trkpt>
      <trkpt lat="49.1538" lon="1.78038">
        <ele>67</ele>
        <time>2024-02-05T08:51:50.895+00:00</time>
      </trkpt>
      <trkpt lat="49.15379" lon="1.78031">
        <ele>67</ele>
        <time>2024-02-05T08:51:55.137+00:00</time>
      </trkpt>
      <trkpt lat="49.15378" lon="1.78027">
        <ele>67</ele>
        <time>2024-02-05T08:51:59.217+00:00</time>
      </trkpt>
      <trkpt lat="49.15378" lon="1.78021">
        <ele>67</ele>
        <time>2024-02-05T08:52:03.237+00:00</time>
      </trkpt>
      <trkpt lat="49.15378" lon="1.78014">
        <ele>67</ele>
        <time>2024-02-05T08:52:07.318+00:00</time>
      </trkpt>
      <trkpt lat="49.15377" lon="1.78007">
        <ele>68</ele>
        <time>2024-02-05T08:52:11.379+00:00</time>
      </trkpt>
      <trkpt lat="49.15376" lon="1.78">
        <ele>68</ele>
        <time>2024-02-05T08:52:15.900+00:00</time>
      </trkpt>
      <trkpt lat="49.15374" lon="1.77993">
        <ele>67</ele>
        <time>2024-02-05T08:52:20.018+00:00</time>
      </trkpt>
      <trkpt lat="49.15371" lon="1.77986">
        <ele>67</ele>
        <time>2024-02-05T08:52:24.657+00:00</time>
      </trkpt>
      <trkpt lat="49.15368" lon="1.77979">
        <ele>67</ele>
        <time>2024-02-05T08:52:28.670+00:00</time>
      </trkpt>
      <trkpt lat="49.15365" lon="1.77972">
        <ele>67</ele>
        <time>2024-02-05T08:52:33.359+00:00</time>
      </trkpt>
      <trkpt lat="49.15362" lon="1.77963">
        <ele>67</ele>
        <time>2024-02-05T08:52:37.795+00:00</time>
      </trkpt>
      <trkpt lat="49.15359" lon="1.77955">
        <ele>68</ele>
        <time>2024-02-05T08:52:42.211+00:00</time>
      </trkpt>
      <trkpt lat="49.15357" lon="1.77946">
        <ele>68</ele>
        <time>2024-02-05T08:52:46.221+00:00</time>
      </trkpt>
      <trkpt lat="49.15354" lon="1.77935">
        <ele>68</ele>
        <time>2024-02-05T08:52:50.662+00:00</time>
      </trkpt>
      <trkpt lat="49.15351" lon="1.77928">
        <ele>68</ele>
        <time>2024-02-05T08:52:54.659+00:00</time>
      </trkpt>
      <trkpt lat="49.15348" lon="1.77919">
        <ele>68</ele>
        <time>2024-02-05T08:52:59.217+00:00</time>
      </trkpt>
      <trkpt lat="49.15345" lon="1.7791">
        <ele>66</ele>
        <time>2024-02-05T08:53:03.637+00:00</time>
      </trkpt>
      <trkpt lat="49.15342" lon="1.77903">
        <ele>66</ele>
        <time>2024-02-05T08:53:07.615+00:00</time>
      </trkpt>
      <trkpt lat="49.15339" lon="1.77895">
        <ele>66</ele>
        <time>2024-02-05T08:53:11.991+00:00</time>
      </trkpt>
      <trkpt lat="49.15334" lon="1.77887">
        <ele>66</ele>
        <time>2024-02-05T08:53:16.340+00:00</time>
      </trkpt>
      <trkpt lat="49.1533" lon="1.77882">
        <ele>66</ele>
        <time>2024-02-05T08:53:20.671+00:00</time>
      </trkpt>
      <trkpt lat="49.15325" lon="1.77874">
        <ele>66</ele>
        <time>2024-02-05T08:53:25.138+00:00</time>
      </trkpt>
      <trkpt lat="49.15322" lon="1.77868">
        <ele>66</ele>
        <time>2024-02-05T08:53:29.156+00:00</time>
      </trkpt>
      <trkpt lat="49.1532" lon="1.77859">
        <ele>66</ele>
        <time>2024-02-05T08:53:33.572+00:00</time>
      </trkpt>
      <trkpt lat="49.15319" lon="1.77852">
        <ele>66</ele>
        <time>2024-02-05T08:53:38.121+00:00</time>
      </trkpt>
      <trkpt lat="49.15317" lon="1.77844">
        <ele>67</ele>
        <time>2024-02-05T08:53:42.678+00:00</time>
      </trkpt>
      <trkpt lat="49.15315" lon="1.77838">
        <ele>67</ele>
        <time>2024-02-05T08:53:46.675+00:00</time>
      </trkpt>
      <trkpt lat="49.15312" lon="1.77834">
        <ele>67</ele>
        <time>2024-02-05T08:53:51.272+00:00</time>
      </trkpt>
      <trkpt lat="49.1531" lon="1.77831">
        <ele>67</ele>
        <time>2024-02-05T08:53:55.685+00:00</time>
      </trkpt>
      <trkpt lat="49.15307" lon="1.77825">
        <ele>67</ele>
        <time>2024-02-05T08:53:59.857+00:00</time>
      </trkpt>
      <trkpt lat="49.15306" lon="1.7782">
        <ele>67</ele>
        <time>2024-02-05T08:54:03.893+00:00</time>
      </trkpt>
      <trkpt lat="49.15305" lon="1.77814">
        <ele>68</ele>
        <time>2024-02-05T08:54:08.060+00:00</time>
      </trkpt>
      <trkpt lat="49.15303" lon="1.77807">
        <ele>68</ele>
        <time>2024-02-05T08:54:12.675+00:00</time>
      </trkpt>
      <trkpt lat="49.15299" lon="1.77802">
        <ele>68</ele>
        <time>2024-02-05T08:54:17.193+00:00</time>
      </trkpt>
      <trkpt lat="49.15295" lon="1.77795">
        <ele>68</ele>
        <time>2024-02-05T08:54:21.461+00:00</time>
      </trkpt>
      <trkpt lat="49.1529" lon="1.77789">
        <ele>68</ele>
        <time>2024-02-05T08:54:25.759+00:00</time>
      </trkpt>
      <trkpt lat="49.15286" lon="1.77782">
        <ele>68</ele>
        <time>2024-02-05T08:54:30.055+00:00</time>
      </trkpt>
      <trkpt lat="49.15281" lon="1.77777">
        <ele>68</ele>
        <time>2024-02-05T08:54:34.480+00:00</time>
      </trkpt>
      <trkpt lat="49.15279" lon="1.7776">
        <ele>67</ele>
        <time>2024-02-05T08:54:38.897+00:00</time>
      </trkpt>
      <trkpt lat="49.15276" lon="1.77744">
        <ele>67</ele>
        <time>2024-02-05T08:54:43.295+00:00</time>
      </trkpt>
      <trkpt lat="49.15272" lon="1.77732">
        <ele>65</ele>
        <time>2024-02-05T08:54:47.687+00:00</time>
      </trkpt>
      <trkpt lat="49.1527" lon="1.77723">
        <ele>65</ele>
        <time>2024-02-05T08:54:52.178+00:00</time>
      </trkpt>
      <trkpt lat="49.15268" lon="1.77715">
        <ele>65</ele>
        <time>2024-02-05T08:54:56.595+00:00</time>
      </trkpt>
      <trkpt lat="49.15266" lon="1.77707">
        <ele>64</ele>
        <time>2024-02-05T08:55:00.958+00:00</time>
      </trkpt>
      <trkpt lat="49.15263" lon="1.777">
        <ele>61</ele>
        <time>2024-02-05T08:55:05.375+00:00</time>
      </trkpt>
      <trkpt lat="49.15261" lon="1.77693">
        <ele>61</ele>
        <time>2024-02-05T08:55:09.683+00:00</time>
      </trkpt>
      <trkpt lat="49.15256" lon="1.77688">
        <ele>61</ele>
        <time>2024-02-05T08:55:14.117+00:00</time>
      </trkpt>
      <trkpt lat="49.15253" lon="1.77682">
        <ele>61</ele>
        <time>2024-02-05T08:55:18.581+00:00</time>
      </trkpt>
      <trkpt lat="49.1525" lon="1.77676">
        <ele>61</ele>
        <time>2024-02-05T08:55:23.014+00:00</time>
      </trkpt>
      <trkpt lat="49.15248" lon="1.77667">
        <ele>61</ele>
        <time>2024-02-05T08:55:27.360+00:00</time>
      </trkpt>
      <trkpt lat="49.15247" lon="1.77658">
        <ele>61</ele>
        <time>2024-02-05T08:55:31.682+00:00</time>
      </trkpt>
      <trkpt lat="49.15246" lon="1.77652">
        <ele>62</ele>
        <time>2024-02-05T08:55:35.998+00:00</time>
      </trkpt>
      <trkpt lat="49.15244" lon="1.77645">
        <ele>62</ele>
        <time>2024-02-05T08:55:40.372+00:00</time>
      </trkpt>
      <trkpt lat="49.15242" lon="1.77638">
        <ele>62</ele>
        <time>2024-02-05T08:55:44.674+00:00</time>
      </trkpt>
      <trkpt lat="49.1524" lon="1.77632">
        <ele>62</ele>
        <time>2024-02-05T08:55:49.279+00:00</time>
      </trkpt>
      <trkpt lat="49.15236" lon="1.77625">
        <ele>64</ele>
        <time>2024-02-05T08:55:53.681+00:00</time>
      </trkpt>
      <trkpt lat="49.15234" lon="1.77618">
        <ele>63</ele>
        <time>2024-02-05T08:55:57.800+00:00</time>
      </trkpt>
      <trkpt lat="49.15233" lon="1.7761">
        <ele>63</ele>
        <time>2024-02-05T08:56:02.171+00:00</time>
      </trkpt>
      <trkpt lat="49.15232" lon="1.77603">
        <ele>63</ele>
        <time>2024-02-05T08:56:06.579+00:00</time>
      </trkpt>
      <trkpt lat="49.1523" lon="1.77597">
        <ele>65</ele>
        <time>2024-02-05T08:56:10.892+00:00</time>
      </trkpt>
      <trkpt lat="49.15228" lon="1.77589">
        <ele>65</ele>
        <time>2024-02-05T08:56:15.396+00:00</time>
      </trkpt>
      <trkpt lat="49.15227" lon="1.77581">
        <ele>65</ele>
        <time>2024-02-05T08:56:19.699+00:00</time>
      </trkpt>
      <trkpt lat="49.15225" lon="1.77573">
        <ele>65</ele>
        <time>2024-02-05T08:56:24.195+00:00</time>
      </trkpt>
      <trkpt lat="49.15224" lon="1.77564">
        <ele>66</ele>
        <time>2024-02-05T08:56:28.659+00:00</time>
      </trkpt>
      <trkpt lat="49.15224" lon="1.77556">
        <ele>66</ele>
        <time>2024-02-05T08:56:33.055+00:00</time>
      </trkpt>
      <trkpt lat="49.15223" lon="1.77548">
        <ele>66</ele>
        <time>2024-02-05T08:56:37.668+00:00</time>
      </trkpt>
      <trkpt lat="49.15222" lon="1.7754">
        <ele>65</ele>
        <time>2024-02-05T08:56:42.112+00:00</time>
      </trkpt>
      <trkpt lat="49.1522" lon="1.77533">
        <ele>65</ele>
        <time>2024-02-05T08:56:46.537+00:00</time>
      </trkpt>
      <trkpt lat="49.15218" lon="1.77524">
        <ele>65</ele>
        <time>2024-02-05T08:56:51.002+00:00</time>
      </trkpt>
      <trkpt lat="49.15214" lon="1.77516">
        <ele>65</ele>
        <time>2024-02-05T08:56:55.078+00:00</time>
      </trkpt>
      <trkpt lat="49.15211" lon="1.77506">
        <ele>65</ele>
        <time>2024-02-05T08:56:59.552+00:00</time>
      </trkpt>
      <trkpt lat="49.15208" lon="1.77496">
        <ele>62</ele>
        <time>2024-02-05T08:57:03.975+00:00</time>
      </trkpt>
      <trkpt lat="49.15205" lon="1.77487">
        <ele>62</ele>
        <time>2024-02-05T08:57:08.456+00:00</time>
      </trkpt>
      <trkpt lat="49.15203" lon="1.77479">
        <ele>63</ele>
        <time>2024-02-05T08:57:12.700+00:00</time>
      </trkpt>
      <trkpt lat="49.15201" lon="1.77471">
        <ele>63</ele>
        <time>2024-02-05T08:57:17.113+00:00</time>
      </trkpt>
      <trkpt lat="49.152" lon="1.77462">
        <ele>63</ele>
        <time>2024-02-05T08:57:21.700+00:00</time>
      </trkpt>
      <trkpt lat="49.15199" lon="1.77453">
        <ele>64</ele>
        <time>2024-02-05T08:57:26.399+00:00</time>
      </trkpt>
      <trkpt lat="49.15198" lon="1.77444">
        <ele>64</ele>
        <time>2024-02-05T08:57:30.952+00:00</time>
      </trkpt>
      <trkpt lat="49.15197" lon="1.77436">
        <ele>64</ele>
        <time>2024-02-05T08:57:35.017+00:00</time>
      </trkpt>
      <trkpt lat="49.15197" lon="1.77429">
        <ele>66</ele>
        <time>2024-02-05T08:57:39.200+00:00</time>
      </trkpt>
      <trkpt lat="49.15197" lon="1.77422">
        <ele>66</ele>
        <time>2024-02-05T08:57:43.557+00:00</time>
      </trkpt>
      <trkpt lat="49.15196" lon="1.77416">
        <ele>66</ele>
        <time>2024-02-05T08:57:48.060+00:00</time>
      </trkpt>
      <trkpt lat="49.15195" lon="1.77409">
        <ele>66</ele>
        <time>2024-02-05T08:57:52.183+00:00</time>
      </trkpt>
      <trkpt lat="49.15192" lon="1.77403">
        <ele>66</ele>
        <time>2024-02-05T08:57:56.621+00:00</time>
      </trkpt>
      <trkpt lat="49.1519" lon="1.77396">
        <ele>69</ele>
        <time>2024-02-05T08:58:00.933+00:00</time>
      </trkpt>
      <trkpt lat="49.15187" lon="1.77388">
        <ele>69</ele>
        <time>2024-02-05T08:58:05.598+00:00</time>
      </trkpt>
      <trkpt lat="49.15186" lon="1.77386">
        <ele>69</ele>
        <time>2024-02-05T08:58:09.691+00:00</time>
      </trkpt>
      <trkpt lat="49.15185" lon="1.77379">
        <ele>69</ele>
        <time>2024-02-05T08:58:14.236+00:00</time>
      </trkpt>
      <trkpt lat="49.15181" lon="1.77373">
        <ele>72</ele>
        <time>2024-02-05T08:58:18.461+00:00</time>
      </trkpt>
      <trkpt lat="49.15178" lon="1.77367">
        <ele>66</ele>
        <time>2024-02-05T08:58:22.573+00:00</time>
      </trkpt>
      <trkpt lat="49.15174" lon="1.7736">
        <ele>66</ele>
        <time>2024-02-05T08:58:27.138+00:00</time>
      </trkpt>
      <trkpt lat="49.15171" lon="1.77357">
        <ele>66</ele>
        <time>2024-02-05T08:58:31.174+00:00</time>
      </trkpt>
      <trkpt lat="49.15168" lon="1.77353">
        <ele>66</ele>
        <time>2024-02-05T08:58:35.282+00:00</time>
      </trkpt>
      <trkpt lat="49.15165" lon="1.7735">
        <ele>66</ele>
        <time>2024-02-05T08:58:39.394+00:00</time>
      </trkpt>
      <trkpt lat="49.15162" lon="1.77346">
        <ele>68</ele>
        <time>2024-02-05T08:58:43.860+00:00</time>
      </trkpt>
      <trkpt lat="49.15159" lon="1.7734">
        <ele>68</ele>
        <time>2024-02-05T08:58:48.313+00:00</time>
      </trkpt>
      <trkpt lat="49.15156" lon="1.77331">
        <ele>68</ele>
        <time>2024-02-05T08:58:52.900+00:00</time>
      </trkpt>
      <trkpt lat="49.15151" lon="1.77321">
        <ele>65</ele>
        <time>2024-02-05T08:58:57.649+00:00</time>
      </trkpt>
      <trkpt lat="49.15148" lon="1.77311">
        <ele>66</ele>
        <time>2024-02-05T08:59:02.058+00:00</time>
      </trkpt>
      <trkpt lat="49.15144" lon="1.77303">
        <ele>66</ele>
        <time>2024-02-05T08:59:06.648+00:00</time>
      </trkpt>
      <trkpt lat="49.1514" lon="1.77291">
        <ele>68</ele>
        <time>2024-02-05T08:59:11.641+00:00</time>
      </trkpt>
      <trkpt lat="49.15139" lon="1.77281">
        <ele>68</ele>
        <time>2024-02-05T08:59:16.651+00:00</time>
      </trkpt>
      <trkpt lat="49.15134" lon="1.77278">
        <ele>68</ele>
        <time>2024-02-05T08:59:21.141+00:00</time>
      </trkpt>
      <trkpt lat="49.15136" lon="1.7727">
        <ele>68</ele>
        <time>2024-02-05T08:59:25.493+00:00</time>
      </trkpt>
      <trkpt lat="49.15138" lon="1.77269">
        <ele>68</ele>
        <time>2024-02-05T08:59:29.667+00:00</time>
      </trkpt>
      <trkpt lat="49.15138" lon="1.77265">
        <ele>68</ele>
        <time>2024-02-05T08:59:33.836+00:00</time>
      </trkpt>
      <trkpt lat="49.15138" lon="1.77264">
        <ele>68</ele>
        <time>2024-02-05T08:59:38.139+00:00</time>
      </trkpt>
      <trkpt lat="49.15135" lon="1.77255">
        <ele>69</ele>
        <time>2024-02-05T08:59:42.520+00:00</time>
      </trkpt>
      <trkpt lat="49.15132" lon="1.77246">
        <ele>69</ele>
        <time>2024-02-05T08:59:46.955+00:00</time>
      </trkpt>
      <trkpt lat="49.1513" lon="1.77238">
        <ele>69</ele>
        <time>2024-02-05T08:59:51.111+00:00</time>
      </trkpt>
      <trkpt lat="49.15127" lon="1.77227">
        <ele>69</ele>
        <time>2024-02-05T08:59:55.420+00:00</time>
      </trkpt>
      <trkpt lat="49.15125" lon="1.77215">
        <ele>64</ele>
        <time>2024-02-05T08:59:59.859+00:00</time>
      </trkpt>
      <trkpt lat="49.15122" lon="1.77203">
        <ele>63</ele>
        <time>2024-02-05T09:00:04.381+00:00</time>
      </trkpt>
      <trkpt lat="49.1512" lon="1.77192">
        <ele>63</ele>
        <time>2024-02-05T09:00:08.781+00:00</time>
      </trkpt>
      <trkpt lat="49.15119" lon="1.77185">
        <ele>63</ele>
        <time>2024-02-05T09:00:13.197+00:00</time>
      </trkpt>
      <trkpt lat="49.15117" lon="1.77177">
        <ele>63</ele>
        <time>2024-02-05T09:00:17.277+00:00</time>
      </trkpt>
      <trkpt lat="49.15115" lon="1.7717">
        <ele>63</ele>
        <time>2024-02-05T09:00:21.593+00:00</time>
      </trkpt>
      <trkpt lat="49.15113" lon="1.77162">
        <ele>63</ele>
        <time>2024-02-05T09:00:26.142+00:00</time>
      </trkpt>
      <trkpt lat="49.15111" lon="1.77151">
        <ele>65</ele>
        <time>2024-02-05T09:00:30.661+00:00</time>
      </trkpt>
      <trkpt lat="49.1511" lon="1.77143">
        <ele>65</ele>
        <time>2024-02-05T09:00:35.155+00:00</time>
      </trkpt>
      <trkpt lat="49.15109" lon="1.77136">
        <ele>65</ele>
        <time>2024-02-05T09:00:39.674+00:00</time>
      </trkpt>
      <trkpt lat="49.15107" lon="1.77129">
        <ele>65</ele>
        <time>2024-02-05T09:00:44.120+00:00</time>
      </trkpt>
      <trkpt lat="49.15105" lon="1.77118">
        <ele>66</ele>
        <time>2024-02-05T09:00:48.650+00:00</time>
      </trkpt>
      <trkpt lat="49.15104" lon="1.77107">
        <ele>66</ele>
        <time>2024-02-05T09:00:53.252+00:00</time>
      </trkpt>
      <trkpt lat="49.15103" lon="1.77098">
        <ele>66</ele>
        <time>2024-02-05T09:00:57.677+00:00</time>
      </trkpt>
      <trkpt lat="49.15102" lon="1.77094">
        <ele>67</ele>
        <time>2024-02-05T09:01:01.654+00:00</time>
      </trkpt>
      <trkpt lat="49.151" lon="1.7709">
        <ele>67</ele>
        <time>2024-02-05T09:01:06.301+00:00</time>
      </trkpt>
      <trkpt lat="49.15099" lon="1.77085">
        <ele>67</ele>
        <time>2024-02-05T09:01:10.839+00:00</time>
      </trkpt>
      <trkpt lat="49.15097" lon="1.77079">
        <ele>63</ele>
        <time>2024-02-05T09:01:15.354+00:00</time>
      </trkpt>
      <trkpt lat="49.15094" lon="1.7707">
        <ele>63</ele>
        <time>2024-02-05T09:01:19.356+00:00</time>
      </trkpt>
      <trkpt lat="49.15091" lon="1.77063">
        <ele>63</ele>
        <time>2024-02-05T09:01:23.722+00:00</time>
      </trkpt>
      <trkpt lat="49.15089" lon="1.77054">
        <ele>63</ele>
        <time>2024-02-05T09:01:28.232+00:00</time>
      </trkpt>
      <trkpt lat="49.15089" lon="1.77044">
        <ele>63</ele>
        <time>2024-02-05T09:01:32.379+00:00</time>
      </trkpt>
      <trkpt lat="49.15087" lon="1.77034">
        <ele>63</ele>
        <time>2024-02-05T09:01:37+00:00</time>
      </trkpt>
      <trkpt lat="49.15084" lon="1.77026">
        <ele>63</ele>
        <time>2024-02-05T09:01:41.359+00:00</time>
      </trkpt>
      <trkpt lat="49.15081" lon="1.77019">
        <ele>63</ele>
        <time>2024-02-05T09:01:45.775+00:00</time>
      </trkpt>
      <trkpt lat="49.1508" lon="1.7701">
        <ele>62</ele>
        <time>2024-02-05T09:01:50.284+00:00</time>
      </trkpt>
      <trkpt lat="49.15079" lon="1.77002">
        <ele>62</ele>
        <time>2024-02-05T09:01:54.667+00:00</time>
      </trkpt>
      <trkpt lat="49.15077" lon="1.76997">
        <ele>62</ele>
        <time>2024-02-05T09:01:58.689+00:00</time>
      </trkpt>
      <trkpt lat="49.15074" lon="1.7699">
        <ele>62</ele>
        <time>2024-02-05T09:02:03.038+00:00</time>
      </trkpt>
      <trkpt lat="49.15071" lon="1.76983">
        <ele>65</ele>
        <time>2024-02-05T09:02:07.138+00:00</time>
      </trkpt>
      <trkpt lat="49.15068" lon="1.76974">
        <ele>61</ele>
        <time>2024-02-05T09:02:11.622+00:00</time>
      </trkpt>
      <trkpt lat="49.15066" lon="1.76965">
        <ele>61</ele>
        <time>2024-02-05T09:02:16.160+00:00</time>
      </trkpt>
      <trkpt lat="49.15064" lon="1.76958">
        <ele>63</ele>
        <time>2024-02-05T09:02:20.517+00:00</time>
      </trkpt>
      <trkpt lat="49.15062" lon="1.76951">
        <ele>63</ele>
        <time>2024-02-05T09:02:25.165+00:00</time>
      </trkpt>
      <trkpt lat="49.1506" lon="1.76944">
        <ele>63</ele>
        <time>2024-02-05T09:02:29.641+00:00</time>
      </trkpt>
      <trkpt lat="49.15058" lon="1.76935">
        <ele>63</ele>
        <time>2024-02-05T09:02:34.256+00:00</time>
      </trkpt>
      <trkpt lat="49.15056" lon="1.76928">
        <ele>65</ele>
        <time>2024-02-05T09:02:38.265+00:00</time>
      </trkpt>
      <trkpt lat="49.15054" lon="1.76918">
        <ele>65</ele>
        <time>2024-02-05T09:02:42.361+00:00</time>
      </trkpt>
      <trkpt lat="49.15051" lon="1.76909">
        <ele>65</ele>
        <time>2024-02-05T09:02:46.469+00:00</time>
      </trkpt>
      <trkpt lat="49.15048" lon="1.76901">
        <ele>64</ele>
        <time>2024-02-05T09:02:50.594+00:00</time>
      </trkpt>
      <trkpt lat="49.15045" lon="1.76895">
        <ele>64</ele>
        <time>2024-02-05T09:02:54.924+00:00</time>
      </trkpt>
      <trkpt lat="49.15044" lon="1.7689">
        <ele>64</ele>
        <time>2024-02-05T09:03:04.679+00:00</time>
      </trkpt>
      <trkpt lat="49.15044" lon="1.76889">
        <ele>64</ele>
        <time>2024-02-05T09:03:08.675+00:00</time>
      </trkpt>
      <trkpt lat="49.15043" lon="1.76888">
        <ele>64</ele>
        <time>2024-02-05T09:03:13.594+00:00</time>
      </trkpt>
      <trkpt lat="49.15046" lon="1.76882">
        <ele>64</ele>
        <time>2024-02-05T09:03:18.057+00:00</time>
      </trkpt>
      <trkpt lat="49.1505" lon="1.76877">
        <ele>64</ele>
        <time>2024-02-05T09:03:22.382+00:00</time>
      </trkpt>
      <trkpt lat="49.15054" lon="1.76873">
        <ele>65</ele>
        <time>2024-02-05T09:03:26.672+00:00</time>
      </trkpt>
      <trkpt lat="49.15058" lon="1.76869">
        <ele>65</ele>
        <time>2024-02-05T09:03:30.935+00:00</time>
      </trkpt>
      <trkpt lat="49.15061" lon="1.76865">
        <ele>65</ele>
        <time>2024-02-05T09:03:35.171+00:00</time>
      </trkpt>
      <trkpt lat="49.15065" lon="1.7686">
        <ele>65</ele>
        <time>2024-02-05T09:03:39.544+00:00</time>
      </trkpt>
      <trkpt lat="49.15069" lon="1.76857">
        <ele>65</ele>
        <time>2024-02-05T09:03:43.660+00:00</time>
      </trkpt>
      <trkpt lat="49.15073" lon="1.76854">
        <ele>70</ele>
        <time>2024-02-05T09:03:48.335+00:00</time>
      </trkpt>
      <trkpt lat="49.15076" lon="1.76852">
        <ele>70</ele>
        <time>2024-02-05T09:03:52.421+00:00</time>
      </trkpt>
      <trkpt lat="49.15079" lon="1.76847">
        <ele>71</ele>
        <time>2024-02-05T09:03:56.618+00:00</time>
      </trkpt>
      <trkpt lat="49.15082" lon="1.76844">
        <ele>71</ele>
        <time>2024-02-05T09:04:00.672+00:00</time>
      </trkpt>
      <trkpt lat="49.15084" lon="1.7684">
        <ele>71</ele>
        <time>2024-02-05T09:04:04.680+00:00</time>
      </trkpt>
      <trkpt lat="49.15087" lon="1.76836">
        <ele>71</ele>
        <time>2024-02-05T09:04:09.060+00:00</time>
      </trkpt>
      <trkpt lat="49.1509" lon="1.76832">
        <ele>71</ele>
        <time>2024-02-05T09:04:13.687+00:00</time>
      </trkpt>
      <trkpt lat="49.15095" lon="1.76828">
        <ele>71</ele>
        <time>2024-02-05T09:04:18.060+00:00</time>
      </trkpt>
      <trkpt lat="49.15099" lon="1.76824">
        <ele>79</ele>
        <time>2024-02-05T09:04:22.614+00:00</time>
      </trkpt>
      <trkpt lat="49.15103" lon="1.7682">
        <ele>79</ele>
        <time>2024-02-05T09:04:27.219+00:00</time>
      </trkpt>
      <trkpt lat="49.15106" lon="1.76816">
        <ele>80</ele>
        <time>2024-02-05T09:04:31.600+00:00</time>
      </trkpt>
      <trkpt lat="49.1511" lon="1.76812">
        <ele>80</ele>
        <time>2024-02-05T09:04:36.143+00:00</time>
      </trkpt>
      <trkpt lat="49.15112" lon="1.76809">
        <ele>80</ele>
        <time>2024-02-05T09:04:40.464+00:00</time>
      </trkpt>
      <trkpt lat="49.15116" lon="1.76807">
        <ele>80</ele>
        <time>2024-02-05T09:04:44.678+00:00</time>
      </trkpt>
      <trkpt lat="49.15119" lon="1.76805">
        <ele>80</ele>
        <time>2024-02-05T09:04:49.358+00:00</time>
      </trkpt>
      <trkpt lat="49.15127" lon="1.76801">
        <ele>85</ele>
        <time>2024-02-05T09:05:07.664+00:00</time>
      </trkpt>
      <trkpt lat="49.15132" lon="1.76799">
        <ele>85</ele>
        <time>2024-02-05T09:05:12.654+00:00</time>
      </trkpt>
      <trkpt lat="49.15141" lon="1.76792">
        <ele>85</ele>
        <time>2024-02-05T09:05:16.796+00:00</time>
      </trkpt>
      <trkpt lat="49.15146" lon="1.76794">
        <ele>85</ele>
        <time>2024-02-05T09:05:20.863+00:00</time>
      </trkpt>
      <trkpt lat="49.15146" lon="1.76795">
        <ele>85</ele>
        <time>2024-02-05T09:05:25.038+00:00</time>
      </trkpt>
      <trkpt lat="49.15149" lon="1.76799">
        <ele>85</ele>
        <time>2024-02-05T09:06:25.020+00:00</time>
      </trkpt>
      <trkpt lat="49.15153" lon="1.76793">
        <ele>85</ele>
        <time>2024-02-05T09:06:29.653+00:00</time>
      </trkpt>
      <trkpt lat="49.15155" lon="1.76789">
        <ele>90</ele>
        <time>2024-02-05T09:06:34.077+00:00</time>
      </trkpt>
      <trkpt lat="49.15156" lon="1.76787">
        <ele>90</ele>
        <time>2024-02-05T09:06:38.120+00:00</time>
      </trkpt>
      <trkpt lat="49.15158" lon="1.76786">
        <ele>90</ele>
        <time>2024-02-05T09:06:42.180+00:00</time>
      </trkpt>
      <trkpt lat="49.1516" lon="1.76783">
        <ele>90</ele>
        <time>2024-02-05T09:06:46.672+00:00</time>
      </trkpt>
      <trkpt lat="49.15161" lon="1.76781">
        <ele>90</ele>
        <time>2024-02-05T09:06:50.666+00:00</time>
      </trkpt>
      <trkpt lat="49.15162" lon="1.76781">
        <ele>90</ele>
        <time>2024-02-05T09:06:55.595+00:00</time>
      </trkpt>
      <trkpt lat="49.15166" lon="1.76781">
        <ele>90</ele>
        <time>2024-02-05T09:06:59.675+00:00</time>
      </trkpt>
      <trkpt lat="49.15169" lon="1.76779">
        <ele>90</ele>
        <time>2024-02-05T09:07:04.667+00:00</time>
      </trkpt>
      <trkpt lat="49.15177" lon="1.76772">
        <ele>90</ele>
        <time>2024-02-05T09:07:32.434+00:00</time>
      </trkpt>
      <trkpt lat="49.15177" lon="1.76771">
        <ele>90</ele>
        <time>2024-02-05T09:07:36.689+00:00</time>
      </trkpt>
      <trkpt lat="49.1518" lon="1.76768">
        <ele>90</ele>
        <time>2024-02-05T09:07:41.315+00:00</time>
      </trkpt>
      <trkpt lat="49.15183" lon="1.76765">
        <ele>92</ele>
        <time>2024-02-05T09:07:45.687+00:00</time>
      </trkpt>
      <trkpt lat="49.15186" lon="1.76761">
        <ele>93</ele>
        <time>2024-02-05T09:07:50.692+00:00</time>
      </trkpt>
      <trkpt lat="49.15189" lon="1.76758">
        <ele>93</ele>
        <time>2024-02-05T09:07:55.178+00:00</time>
      </trkpt>
      <trkpt lat="49.15191" lon="1.76756">
        <ele>93</ele>
        <time>2024-02-05T09:07:59.666+00:00</time>
      </trkpt>
      <trkpt lat="49.15194" lon="1.76755">
        <ele>93</ele>
        <time>2024-02-05T09:08:04.253+00:00</time>
      </trkpt>
      <trkpt lat="49.15198" lon="1.76754">
        <ele>93</ele>
        <time>2024-02-05T09:08:08.685+00:00</time>
      </trkpt>
      <trkpt lat="49.15204" lon="1.76751">
        <ele>93</ele>
        <time>2024-02-05T09:08:18.674+00:00</time>
      </trkpt>
      <trkpt lat="49.15206" lon="1.76749">
        <ele>93</ele>
        <time>2024-02-05T09:08:22.844+00:00</time>
      </trkpt>
      <trkpt lat="49.15208" lon="1.76748">
        <ele>93</ele>
        <time>2024-02-05T09:08:27.158+00:00</time>
      </trkpt>
      <trkpt lat="49.15209" lon="1.76745">
        <ele>95</ele>
        <time>2024-02-05T09:08:31.685+00:00</time>
      </trkpt>
      <trkpt lat="49.15211" lon="1.76743">
        <ele>95</ele>
        <time>2024-02-05T09:08:36.573+00:00</time>
      </trkpt>
      <trkpt lat="49.15214" lon="1.76741">
        <ele>95</ele>
        <time>2024-02-05T09:08:40.691+00:00</time>
      </trkpt>
      <trkpt lat="49.15217" lon="1.76738">
        <ele>95</ele>
        <time>2024-02-05T09:08:45.296+00:00</time>
      </trkpt>
      <trkpt lat="49.1522" lon="1.76735">
        <ele>97</ele>
        <time>2024-02-05T09:08:49.678+00:00</time>
      </trkpt>
      <trkpt lat="49.15222" lon="1.76733">
        <ele>97</ele>
        <time>2024-02-05T09:08:54.681+00:00</time>
      </trkpt>
      <trkpt lat="49.15229" lon="1.76727">
        <ele>97</ele>
        <time>2024-02-05T09:09:31.661+00:00</time>
      </trkpt>
      <trkpt lat="49.15228" lon="1.76727">
        <ele>97</ele>
        <time>2024-02-05T09:09:36.181+00:00</time>
      </trkpt>
      <trkpt lat="49.15228" lon="1.76726">
        <ele>97</ele>
        <time>2024-02-05T09:09:40.673+00:00</time>
      </trkpt>
      <trkpt lat="49.1523" lon="1.76724">
        <ele>97</ele>
        <time>2024-02-05T09:09:45.498+00:00</time>
      </trkpt>
      <trkpt lat="49.15236" lon="1.76718">
        <ele>97</ele>
        <time>2024-02-05T09:09:50.104+00:00</time>
      </trkpt>
      <trkpt lat="49.1524" lon="1.76713">
        <ele>98</ele>
        <time>2024-02-05T09:09:54.577+00:00</time>
      </trkpt>
      <trkpt lat="49.15243" lon="1.76709">
        <ele>98</ele>
        <time>2024-02-05T09:09:58.645+00:00</time>
      </trkpt>
      <trkpt lat="49.15246" lon="1.76706">
        <ele>99</ele>
        <time>2024-02-05T09:10:02.661+00:00</time>
      </trkpt>
      <trkpt lat="49.15249" lon="1.76702">
        <ele>99</ele>
        <time>2024-02-05T09:10:07.222+00:00</time>
      </trkpt>
      <trkpt lat="49.15253" lon="1.76697">
        <ele>99</ele>
        <time>2024-02-05T09:10:11.635+00:00</time>
      </trkpt>
      <trkpt lat="49.15257" lon="1.76693">
        <ele>99</ele>
        <time>2024-02-05T09:10:16.178+00:00</time>
      </trkpt>
      <trkpt lat="49.15262" lon="1.76689">
        <ele>99</ele>
        <time>2024-02-05T09:10:20.682+00:00</time>
      </trkpt>
      <trkpt lat="49.15266" lon="1.76685">
        <ele>99</ele>
        <time>2024-02-05T09:10:25.078+00:00</time>
      </trkpt>
      <trkpt lat="49.1527" lon="1.76681">
        <ele>100</ele>
        <time>2024-02-05T09:10:29.473+00:00</time>
      </trkpt>
      <trkpt lat="49.15273" lon="1.76676">
        <ele>100</ele>
        <time>2024-02-05T09:10:33.686+00:00</time>
      </trkpt>
      <trkpt lat="49.15277" lon="1.76671">
        <ele>100</ele>
        <time>2024-02-05T09:10:38.101+00:00</time>
      </trkpt>
      <trkpt lat="49.15281" lon="1.76667">
        <ele>100</ele>
        <time>2024-02-05T09:10:42.383+00:00</time>
      </trkpt>
      <trkpt lat="49.15285" lon="1.76663">
        <ele>100</ele>
        <time>2024-02-05T09:10:46.683+00:00</time>
      </trkpt>
      <trkpt lat="49.15289" lon="1.7666">
        <ele>100</ele>
        <time>2024-02-05T09:10:51.102+00:00</time>
      </trkpt>
      <trkpt lat="49.15292" lon="1.76657">
        <ele>100</ele>
        <time>2024-02-05T09:10:55.577+00:00</time>
      </trkpt>
      <trkpt lat="49.15297" lon="1.76653">
        <ele>100</ele>
        <time>2024-02-05T09:11:00.079+00:00</time>
      </trkpt>
      <trkpt lat="49.15301" lon="1.76649">
        <ele>100</ele>
        <time>2024-02-05T09:11:04.598+00:00</time>
      </trkpt>
      <trkpt lat="49.15306" lon="1.76645">
        <ele>100</ele>
        <time>2024-02-05T09:11:08.961+00:00</time>
      </trkpt>
      <trkpt lat="49.1531" lon="1.76641">
        <ele>100</ele>
        <time>2024-02-05T09:11:13.480+00:00</time>
      </trkpt>
      <trkpt lat="49.15313" lon="1.76637">
        <ele>100</ele>
        <time>2024-02-05T09:11:17.679+00:00</time>
      </trkpt>
      <trkpt lat="49.15317" lon="1.76632">
        <ele>100</ele>
        <time>2024-02-05T09:11:22.083+00:00</time>
      </trkpt>
      <trkpt lat="49.15321" lon="1.76628">
        <ele>100</ele>
        <time>2024-02-05T09:11:26.316+00:00</time>
      </trkpt>
      <trkpt lat="49.15325" lon="1.76624">
        <ele>101</ele>
        <time>2024-02-05T09:11:30.577+00:00</time>
      </trkpt>
      <trkpt lat="49.15329" lon="1.76619">
        <ele>101</ele>
        <time>2024-02-05T09:11:34.858+00:00</time>
      </trkpt>
      <trkpt lat="49.15333" lon="1.76616">
        <ele>101</ele>
        <time>2024-02-05T09:11:39.141+00:00</time>
      </trkpt>
      <trkpt lat="49.15337" lon="1.76612">
        <ele>101</ele>
        <time>2024-02-05T09:11:43.579+00:00</time>
      </trkpt>
      <trkpt lat="49.15341" lon="1.76609">
        <ele>101</ele>
        <time>2024-02-05T09:11:48.002+00:00</time>
      </trkpt>
      <trkpt lat="49.15345" lon="1.76605">
        <ele>101</ele>
        <time>2024-02-05T09:11:52.344+00:00</time>
      </trkpt>
      <trkpt lat="49.15349" lon="1.76601">
        <ele>102</ele>
        <time>2024-02-05T09:11:56.635+00:00</time>
      </trkpt>
      <trkpt lat="49.15353" lon="1.76597">
        <ele>102</ele>
        <time>2024-02-05T09:12:00.957+00:00</time>
      </trkpt>
      <trkpt lat="49.15358" lon="1.76596">
        <ele>102</ele>
        <time>2024-02-05T09:12:05.501+00:00</time>
      </trkpt>
      <trkpt lat="49.15363" lon="1.76588">
        <ele>102</ele>
        <time>2024-02-05T09:12:09.675+00:00</time>
      </trkpt>
      <trkpt lat="49.15367" lon="1.76583">
        <ele>102</ele>
        <time>2024-02-05T09:12:14.035+00:00</time>
      </trkpt>
      <trkpt lat="49.15371" lon="1.7658">
        <ele>102</ele>
        <time>2024-02-05T09:12:18.242+00:00</time>
      </trkpt>
      <trkpt lat="49.15375" lon="1.76576">
        <ele>102</ele>
        <time>2024-02-05T09:12:22.542+00:00</time>
      </trkpt>
      <trkpt lat="49.15379" lon="1.76573">
        <ele>102</ele>
        <time>2024-02-05T09:12:26.639+00:00</time>
      </trkpt>
      <trkpt lat="49.15383" lon="1.7657">
        <ele>102</ele>
        <time>2024-02-05T09:12:30.674+00:00</time>
      </trkpt>
      <trkpt lat="49.15386" lon="1.76566">
        <ele>103</ele>
        <time>2024-02-05T09:12:35.116+00:00</time>
      </trkpt>
      <trkpt lat="49.1539" lon="1.76562">
        <ele>103</ele>
        <time>2024-02-05T09:12:39.340+00:00</time>
      </trkpt>
      <trkpt lat="49.15393" lon="1.76558">
        <ele>103</ele>
        <time>2024-02-05T09:12:43.480+00:00</time>
      </trkpt>
      <trkpt lat="49.15397" lon="1.76555">
        <ele>103</ele>
        <time>2024-02-05T09:12:47.690+00:00</time>
      </trkpt>
      <trkpt lat="49.15401" lon="1.76551">
        <ele>103</ele>
        <time>2024-02-05T09:12:52.002+00:00</time>
      </trkpt>
      <trkpt lat="49.15406" lon="1.76549">
        <ele>102</ele>
        <time>2024-02-05T09:12:56.259+00:00</time>
      </trkpt>
      <trkpt lat="49.15411" lon="1.76546">
        <ele>102</ele>
        <time>2024-02-05T09:13:00.422+00:00</time>
      </trkpt>
      <trkpt lat="49.15415" lon="1.76543">
        <ele>102</ele>
        <time>2024-02-05T09:13:04.461+00:00</time>
      </trkpt>
      <trkpt lat="49.1542" lon="1.7654">
        <ele>103</ele>
        <time>2024-02-05T09:13:08.562+00:00</time>
      </trkpt>
      <trkpt lat="49.15425" lon="1.76537">
        <ele>103</ele>
        <time>2024-02-05T09:13:12.703+00:00</time>
      </trkpt>
      <trkpt lat="49.1543" lon="1.76533">
        <ele>103</ele>
        <time>2024-02-05T09:13:17.320+00:00</time>
      </trkpt>
      <trkpt lat="49.15435" lon="1.76531">
        <ele>101</ele>
        <time>2024-02-05T09:13:21.358+00:00</time>
      </trkpt>
      <trkpt lat="49.1544" lon="1.76528">
        <ele>101</ele>
        <time>2024-02-05T09:13:25.536+00:00</time>
      </trkpt>
      <trkpt lat="49.15445" lon="1.76525">
        <ele>101</ele>
        <time>2024-02-05T09:13:29.879+00:00</time>
      </trkpt>
      <trkpt lat="49.15449" lon="1.76524">
        <ele>101</ele>
        <time>2024-02-05T09:13:34.064+00:00</time>
      </trkpt>
      <trkpt lat="49.15453" lon="1.76521">
        <ele>101</ele>
        <time>2024-02-05T09:13:38.214+00:00</time>
      </trkpt>
      <trkpt lat="49.15458" lon="1.76519">
        <ele>101</ele>
        <time>2024-02-05T09:13:42.594+00:00</time>
      </trkpt>
      <trkpt lat="49.15463" lon="1.76516">
        <ele>99</ele>
        <time>2024-02-05T09:13:46.793+00:00</time>
      </trkpt>
      <trkpt lat="49.15468" lon="1.76513">
        <ele>100</ele>
        <time>2024-02-05T09:13:51.055+00:00</time>
      </trkpt>
      <trkpt lat="49.15472" lon="1.76511">
        <ele>100</ele>
        <time>2024-02-05T09:13:55.218+00:00</time>
      </trkpt>
      <trkpt lat="49.15477" lon="1.76508">
        <ele>100</ele>
        <time>2024-02-05T09:13:59.456+00:00</time>
      </trkpt>
      <trkpt lat="49.15482" lon="1.76506">
        <ele>100</ele>
        <time>2024-02-05T09:14:03.661+00:00</time>
      </trkpt>
      <trkpt lat="49.15487" lon="1.76503">
        <ele>100</ele>
        <time>2024-02-05T09:14:07.688+00:00</time>
      </trkpt>
      <trkpt lat="49.15492" lon="1.765">
        <ele>100</ele>
        <time>2024-02-05T09:14:11.904+00:00</time>
      </trkpt>
      <trkpt lat="49.15498" lon="1.76498">
        <ele>100</ele>
        <time>2024-02-05T09:14:16.135+00:00</time>
      </trkpt>
      <trkpt lat="49.15502" lon="1.76496">
        <ele>100</ele>
        <time>2024-02-05T09:14:20.239+00:00</time>
      </trkpt>
      <trkpt lat="49.15507" lon="1.76493">
        <ele>100</ele>
        <time>2024-02-05T09:14:24.539+00:00</time>
      </trkpt>
      <trkpt lat="49.15512" lon="1.7649">
        <ele>100</ele>
        <time>2024-02-05T09:14:28.677+00:00</time>
      </trkpt>
      <trkpt lat="49.15517" lon="1.76487">
        <ele>99</ele>
        <time>2024-02-05T09:14:33.284+00:00</time>
      </trkpt>
      <trkpt lat="49.15521" lon="1.76483">
        <ele>100</ele>
        <time>2024-02-05T09:14:37.435+00:00</time>
      </trkpt>
      <trkpt lat="49.15525" lon="1.7648">
        <ele>100</ele>
        <time>2024-02-05T09:14:41.695+00:00</time>
      </trkpt>
      <trkpt lat="49.1553" lon="1.76478">
        <ele>100</ele>
        <time>2024-02-05T09:14:45.954+00:00</time>
      </trkpt>
      <trkpt lat="49.15534" lon="1.76474">
        <ele>100</ele>
        <time>2024-02-05T09:14:50.119+00:00</time>
      </trkpt>
      <trkpt lat="49.15537" lon="1.7647">
        <ele>100</ele>
        <time>2024-02-05T09:14:54.199+00:00</time>
      </trkpt>
      <trkpt lat="49.15542" lon="1.76467">
        <ele>99</ele>
        <time>2024-02-05T09:14:58.424+00:00</time>
      </trkpt>
      <trkpt lat="49.15546" lon="1.76464">
        <ele>99</ele>
        <time>2024-02-05T09:15:02.576+00:00</time>
      </trkpt>
      <trkpt lat="49.1555" lon="1.7646">
        <ele>99</ele>
        <time>2024-02-05T09:15:06.687+00:00</time>
      </trkpt>
      <trkpt lat="49.15554" lon="1.76455">
        <ele>100</ele>
        <time>2024-02-05T09:15:11.058+00:00</time>
      </trkpt>
      <trkpt lat="49.15558" lon="1.76451">
        <ele>100</ele>
        <time>2024-02-05T09:15:15.241+00:00</time>
      </trkpt>
      <trkpt lat="49.15562" lon="1.76448">
        <ele>100</ele>
        <time>2024-02-05T09:15:19.422+00:00</time>
      </trkpt>
      <trkpt lat="49.15566" lon="1.76443">
        <ele>100</ele>
        <time>2024-02-05T09:15:23.475+00:00</time>
      </trkpt>
      <trkpt lat="49.1557" lon="1.76437">
        <ele>99</ele>
        <time>2024-02-05T09:15:28.076+00:00</time>
      </trkpt>
      <trkpt lat="49.15574" lon="1.76432">
        <ele>99</ele>
        <time>2024-02-05T09:15:32.136+00:00</time>
      </trkpt>
      <trkpt lat="49.15577" lon="1.76427">
        <ele>100</ele>
        <time>2024-02-05T09:15:36.179+00:00</time>
      </trkpt>
      <trkpt lat="49.15581" lon="1.76422">
        <ele>100</ele>
        <time>2024-02-05T09:15:40.676+00:00</time>
      </trkpt>
      <trkpt lat="49.15585" lon="1.76418">
        <ele>100</ele>
        <time>2024-02-05T09:15:44.884+00:00</time>
      </trkpt>
      <trkpt lat="49.15589" lon="1.76413">
        <ele>100</ele>
        <time>2024-02-05T09:15:48.976+00:00</time>
      </trkpt>
      <trkpt lat="49.15592" lon="1.76408">
        <ele>100</ele>
        <time>2024-02-05T09:15:53+00:00</time>
      </trkpt>
      <trkpt lat="49.15596" lon="1.76403">
        <ele>100</ele>
        <time>2024-02-05T09:15:57.083+00:00</time>
      </trkpt>
      <trkpt lat="49.156" lon="1.76397">
        <ele>100</ele>
        <time>2024-02-05T09:16:01.123+00:00</time>
      </trkpt>
      <trkpt lat="49.15604" lon="1.76392">
        <ele>100</ele>
        <time>2024-02-05T09:16:05.173+00:00</time>
      </trkpt>
      <trkpt lat="49.15609" lon="1.76387">
        <ele>100</ele>
        <time>2024-02-05T09:16:09.464+00:00</time>
      </trkpt>
      <trkpt lat="49.15613" lon="1.76383">
        <ele>100</ele>
        <time>2024-02-05T09:16:13.472+00:00</time>
      </trkpt>
      <trkpt lat="49.15617" lon="1.76378">
        <ele>100</ele>
        <time>2024-02-05T09:16:17.617+00:00</time>
      </trkpt>
      <trkpt lat="49.15621" lon="1.76374">
        <ele>100</ele>
        <time>2024-02-05T09:16:21.917+00:00</time>
      </trkpt>
      <trkpt lat="49.15627" lon="1.76366">
        <ele>100</ele>
        <time>2024-02-05T09:16:39.684+00:00</time>
      </trkpt>
      <trkpt lat="49.15627" lon="1.76366">
        <ele>100</ele>
        <time>2024-02-05T09:16:43.674+00:00</time>
      </trkpt>
      <trkpt lat="49.15629" lon="1.76364">
        <ele>100</ele>
        <time>2024-02-05T09:16:47.986+00:00</time>
      </trkpt>
      <trkpt lat="49.15633" lon="1.76358">
        <ele>100</ele>
        <time>2024-02-05T09:16:52.416+00:00</time>
      </trkpt>
      <trkpt lat="49.15635" lon="1.76352">
        <ele>100</ele>
        <time>2024-02-05T09:16:56.539+00:00</time>
      </trkpt>
      <trkpt lat="49.15636" lon="1.76346">
        <ele>100</ele>
        <time>2024-02-05T09:17:00.618+00:00</time>
      </trkpt>
      <trkpt lat="49.15637" lon="1.76339">
        <ele>100</ele>
        <time>2024-02-05T09:17:04.675+00:00</time>
      </trkpt>
      <trkpt lat="49.15639" lon="1.76335">
        <ele>100</ele>
        <time>2024-02-05T09:17:08.690+00:00</time>
      </trkpt>
      <trkpt lat="49.15643" lon="1.76331">
        <ele>100</ele>
        <time>2024-02-05T09:17:12.957+00:00</time>
      </trkpt>
      <trkpt lat="49.15648" lon="1.76332">
        <ele>100</ele>
        <time>2024-02-05T09:17:17.153+00:00</time>
      </trkpt>
      <trkpt lat="49.15653" lon="1.76328">
        <ele>100</ele>
        <time>2024-02-05T09:17:21.654+00:00</time>
      </trkpt>
      <trkpt lat="49.15654" lon="1.76317">
        <ele>101</ele>
        <time>2024-02-05T09:17:26.641+00:00</time>
      </trkpt>
      <trkpt lat="49.15659" lon="1.7631">
        <ele>101</ele>
        <time>2024-02-05T09:17:31.646+00:00</time>
      </trkpt>
      <trkpt lat="49.15662" lon="1.76303">
        <ele>101</ele>
        <time>2024-02-05T09:17:35.652+00:00</time>
      </trkpt>
      <trkpt lat="49.15664" lon="1.76297">
        <ele>101</ele>
        <time>2024-02-05T09:17:39.903+00:00</time>
      </trkpt>
      <trkpt lat="49.15665" lon="1.76291">
        <ele>102</ele>
        <time>2024-02-05T09:17:44.019+00:00</time>
      </trkpt>
      <trkpt lat="49.15667" lon="1.76285">
        <ele>102</ele>
        <time>2024-02-05T09:17:48.047+00:00</time>
      </trkpt>
      <trkpt lat="49.1567" lon="1.76279">
        <ele>102</ele>
        <time>2024-02-05T09:17:52.541+00:00</time>
      </trkpt>
      <trkpt lat="49.15673" lon="1.76276">
        <ele>102</ele>
        <time>2024-02-05T09:17:57.019+00:00</time>
      </trkpt>
      <trkpt lat="49.15676" lon="1.76272">
        <ele>102</ele>
        <time>2024-02-05T09:18:01.057+00:00</time>
      </trkpt>
      <trkpt lat="49.15678" lon="1.76266">
        <ele>102</ele>
        <time>2024-02-05T09:18:05.144+00:00</time>
      </trkpt>
      <trkpt lat="49.15679" lon="1.76259">
        <ele>103</ele>
        <time>2024-02-05T09:18:09.178+00:00</time>
      </trkpt>
      <trkpt lat="49.15681" lon="1.76252">
        <ele>104</ele>
        <time>2024-02-05T09:18:13.656+00:00</time>
      </trkpt>
      <trkpt lat="49.15683" lon="1.76246">
        <ele>104</ele>
        <time>2024-02-05T09:18:18.206+00:00</time>
      </trkpt>
      <trkpt lat="49.15685" lon="1.76239">
        <ele>104</ele>
        <time>2024-02-05T09:18:22.652+00:00</time>
      </trkpt>
      <trkpt lat="49.15687" lon="1.76232">
        <ele>105</ele>
        <time>2024-02-05T09:18:27.199+00:00</time>
      </trkpt>
      <trkpt lat="49.1569" lon="1.76223">
        <ele>105</ele>
        <time>2024-02-05T09:18:31.642+00:00</time>
      </trkpt>
      <trkpt lat="49.15693" lon="1.76214">
        <ele>105</ele>
        <time>2024-02-05T09:18:36.177+00:00</time>
      </trkpt>
      <trkpt lat="49.15694" lon="1.76206">
        <ele>106</ele>
        <time>2024-02-05T09:18:40.663+00:00</time>
      </trkpt>
      <trkpt lat="49.15695" lon="1.76198">
        <ele>106</ele>
        <time>2024-02-05T09:18:45.200+00:00</time>
      </trkpt>
      <trkpt lat="49.15697" lon="1.76191">
        <ele>106</ele>
        <time>2024-02-05T09:18:49.265+00:00</time>
      </trkpt>
      <trkpt lat="49.15697" lon="1.76184">
        <ele>106</ele>
        <time>2024-02-05T09:18:53.318+00:00</time>
      </trkpt>
      <trkpt lat="49.15699" lon="1.76178">
        <ele>107</ele>
        <time>2024-02-05T09:18:57.462+00:00</time>
      </trkpt>
      <trkpt lat="49.157" lon="1.76171">
        <ele>107</ele>
        <time>2024-02-05T09:19:01.660+00:00</time>
      </trkpt>
      <trkpt lat="49.15702" lon="1.76165">
        <ele>107</ele>
        <time>2024-02-05T09:19:06.182+00:00</time>
      </trkpt>
      <trkpt lat="49.15703" lon="1.76159">
        <ele>107</ele>
        <time>2024-02-05T09:19:10.305+00:00</time>
      </trkpt>
      <trkpt lat="49.15704" lon="1.76154">
        <ele>107</ele>
        <time>2024-02-05T09:19:14.421+00:00</time>
      </trkpt>
      <trkpt lat="49.15707" lon="1.76147">
        <ele>108</ele>
        <time>2024-02-05T09:19:18.557+00:00</time>
      </trkpt>
      <trkpt lat="49.15707" lon="1.76137">
        <ele>108</ele>
        <time>2024-02-05T09:19:22.700+00:00</time>
      </trkpt>
      <trkpt lat="49.15707" lon="1.76126">
        <ele>108</ele>
        <time>2024-02-05T09:19:27.159+00:00</time>
      </trkpt>
      <trkpt lat="49.15708" lon="1.76115">
        <ele>109</ele>
        <time>2024-02-05T09:19:31.651+00:00</time>
      </trkpt>
      <trkpt lat="49.15709" lon="1.76102">
        <ele>108</ele>
        <time>2024-02-05T09:19:36.652+00:00</time>
      </trkpt>
      <trkpt lat="49.1571" lon="1.76095">
        <ele>109</ele>
        <time>2024-02-05T09:19:41.225+00:00</time>
      </trkpt>
      <trkpt lat="49.15712" lon="1.76094">
        <ele>109</ele>
        <time>2024-02-05T09:19:45.652+00:00</time>
      </trkpt>
      <trkpt lat="49.15713" lon="1.76093">
        <ele>109</ele>
        <time>2024-02-05T09:19:49.658+00:00</time>
      </trkpt>
      <trkpt lat="49.15713" lon="1.76087">
        <ele>109</ele>
        <time>2024-02-05T09:19:54.643+00:00</time>
      </trkpt>
      <trkpt lat="49.15712" lon="1.76085">
        <ele>109</ele>
        <time>2024-02-05T09:19:58.656+00:00</time>
      </trkpt>
      <trkpt lat="49.15716" lon="1.76074">
        <ele>109</ele>
        <time>2024-02-05T09:20:02.667+00:00</time>
      </trkpt>
      <trkpt lat="49.15721" lon="1.76067">
        <ele>110</ele>
        <time>2024-02-05T09:20:07.649+00:00</time>
      </trkpt>
      <trkpt lat="49.15724" lon="1.76062">
        <ele>110</ele>
        <time>2024-02-05T09:20:11.646+00:00</time>
      </trkpt>
      <trkpt lat="49.15726" lon="1.76052">
        <ele>110</ele>
        <time>2024-02-05T09:20:15.820+00:00</time>
      </trkpt>
      <trkpt lat="49.15732" lon="1.76046">
        <ele>110</ele>
        <time>2024-02-05T09:20:20.461+00:00</time>
      </trkpt>
      <trkpt lat="49.15736" lon="1.76046">
        <ele>108</ele>
        <time>2024-02-05T09:20:24.982+00:00</time>
      </trkpt>
      <trkpt lat="49.15739" lon="1.76036">
        <ele>109</ele>
        <time>2024-02-05T09:20:29.376+00:00</time>
      </trkpt>
      <trkpt lat="49.15742" lon="1.76026">
        <ele>109</ele>
        <time>2024-02-05T09:20:33.779+00:00</time>
      </trkpt>
      <trkpt lat="49.15744" lon="1.7602">
        <ele>109</ele>
        <time>2024-02-05T09:20:38.163+00:00</time>
      </trkpt>
      <trkpt lat="49.15745" lon="1.76012">
        <ele>110</ele>
        <time>2024-02-05T09:20:42.626+00:00</time>
      </trkpt>
      <trkpt lat="49.15745" lon="1.76006">
        <ele>110</ele>
        <time>2024-02-05T09:20:47.005+00:00</time>
      </trkpt>
      <trkpt lat="49.15743" lon="1.75999">
        <ele>110</ele>
        <time>2024-02-05T09:20:51.420+00:00</time>
      </trkpt>
      <trkpt lat="49.15746" lon="1.75991">
        <ele>110</ele>
        <time>2024-02-05T09:20:56.465+00:00</time>
      </trkpt>
      <trkpt lat="49.15752" lon="1.75985">
        <ele>112</ele>
        <time>2024-02-05T09:21:00.505+00:00</time>
      </trkpt>
      <trkpt lat="49.15757" lon="1.75979">
        <ele>112</ele>
        <time>2024-02-05T09:21:04.670+00:00</time>
      </trkpt>
      <trkpt lat="49.15761" lon="1.75972">
        <ele>112</ele>
        <time>2024-02-05T09:21:25.679+00:00</time>
      </trkpt>
      <trkpt lat="49.15761" lon="1.75971">
        <ele>112</ele>
        <time>2024-02-05T09:21:29.824+00:00</time>
      </trkpt>
      <trkpt lat="49.15762" lon="1.75969">
        <ele>112</ele>
        <time>2024-02-05T09:21:34.673+00:00</time>
      </trkpt>
      <trkpt lat="49.15763" lon="1.75967">
        <ele>112</ele>
        <time>2024-02-05T09:21:38.676+00:00</time>
      </trkpt>
      <trkpt lat="49.15766" lon="1.75964">
        <ele>112</ele>
        <time>2024-02-05T09:21:43.672+00:00</time>
      </trkpt>
      <trkpt lat="49.15769" lon="1.7596">
        <ele>112</ele>
        <time>2024-02-05T09:21:48.223+00:00</time>
      </trkpt>
      <trkpt lat="49.15771" lon="1.75955">
        <ele>113</ele>
        <time>2024-02-05T09:21:52.446+00:00</time>
      </trkpt>
      <trkpt lat="49.15773" lon="1.75947">
        <ele>113</ele>
        <time>2024-02-05T09:21:57.057+00:00</time>
      </trkpt>
      <trkpt lat="49.15775" lon="1.75942">
        <ele>113</ele>
        <time>2024-02-05T09:22:01.143+00:00</time>
      </trkpt>
      <trkpt lat="49.15777" lon="1.75938">
        <ele>113</ele>
        <time>2024-02-05T09:22:05.224+00:00</time>
      </trkpt>
      <trkpt lat="49.15779" lon="1.75934">
        <ele>113</ele>
        <time>2024-02-05T09:22:09.220+00:00</time>
      </trkpt>
      <trkpt lat="49.1578" lon="1.7593">
        <ele>114</ele>
        <time>2024-02-05T09:22:13.691+00:00</time>
      </trkpt>
      <trkpt lat="49.15782" lon="1.75925">
        <ele>114</ele>
        <time>2024-02-05T09:22:17.759+00:00</time>
      </trkpt>
      <trkpt lat="49.15785" lon="1.75919">
        <ele>114</ele>
        <time>2024-02-05T09:22:22.381+00:00</time>
      </trkpt>
      <trkpt lat="49.15788" lon="1.75915">
        <ele>114</ele>
        <time>2024-02-05T09:22:26.424+00:00</time>
      </trkpt>
      <trkpt lat="49.1579" lon="1.75909">
        <ele>114</ele>
        <time>2024-02-05T09:22:30.578+00:00</time>
      </trkpt>
      <trkpt lat="49.15792" lon="1.75904">
        <ele>115</ele>
        <time>2024-02-05T09:22:34.676+00:00</time>
      </trkpt>
      <trkpt lat="49.15795" lon="1.759">
        <ele>117</ele>
        <time>2024-02-05T09:22:39.363+00:00</time>
      </trkpt>
      <trkpt lat="49.15798" lon="1.75898">
        <ele>117</ele>
        <time>2024-02-05T09:22:43.685+00:00</time>
      </trkpt>
      <trkpt lat="49.15799" lon="1.75895">
        <ele>117</ele>
        <time>2024-02-05T09:22:48.674+00:00</time>
      </trkpt>
      <trkpt lat="49.15802" lon="1.75892">
        <ele>117</ele>
        <time>2024-02-05T09:22:52.777+00:00</time>
      </trkpt>
      <trkpt lat="49.15804" lon="1.75888">
        <ele>117</ele>
        <time>2024-02-05T09:22:57.663+00:00</time>
      </trkpt>
      <trkpt lat="49.15804" lon="1.75884">
        <ele>117</ele>
        <time>2024-02-05T09:23:02.017+00:00</time>
      </trkpt>
      <trkpt lat="49.15805" lon="1.75881">
        <ele>117</ele>
        <time>2024-02-05T09:23:06.203+00:00</time>
      </trkpt>
      <trkpt lat="49.15807" lon="1.75876">
        <ele>117</ele>
        <time>2024-02-05T09:23:10.454+00:00</time>
      </trkpt>
      <trkpt lat="49.15808" lon="1.75871">
        <ele>119</ele>
        <time>2024-02-05T09:23:14.484+00:00</time>
      </trkpt>
      <trkpt lat="49.1581" lon="1.75867">
        <ele>119</ele>
        <time>2024-02-05T09:23:18.577+00:00</time>
      </trkpt>
      <trkpt lat="49.15811" lon="1.75864">
        <ele>119</ele>
        <time>2024-02-05T09:23:22.670+00:00</time>
      </trkpt>
      <trkpt lat="49.15813" lon="1.7586">
        <ele>119</ele>
        <time>2024-02-05T09:23:26.966+00:00</time>
      </trkpt>
      <trkpt lat="49.15815" lon="1.75854">
        <ele>119</ele>
        <time>2024-02-05T09:23:31.580+00:00</time>
      </trkpt>
      <trkpt lat="49.15817" lon="1.75851">
        <ele>119</ele>
        <time>2024-02-05T09:23:35.664+00:00</time>
      </trkpt>
      <trkpt lat="49.1582" lon="1.75846">
        <ele>125</ele>
        <time>2024-02-05T09:23:39.672+00:00</time>
      </trkpt>
      <trkpt lat="49.15824" lon="1.75841">
        <ele>125</ele>
        <time>2024-02-05T09:23:44.401+00:00</time>
      </trkpt>
      <trkpt lat="49.15826" lon="1.75835">
        <ele>125</ele>
        <time>2024-02-05T09:23:49.161+00:00</time>
      </trkpt>
      <trkpt lat="49.15827" lon="1.7583">
        <ele>125</ele>
        <time>2024-02-05T09:23:53.268+00:00</time>
      </trkpt>
      <trkpt lat="49.15828" lon="1.75825">
        <ele>125</ele>
        <time>2024-02-05T09:23:57.841+00:00</time>
      </trkpt>
      <trkpt lat="49.1583" lon="1.75823">
        <ele>125</ele>
        <time>2024-02-05T09:24:01.961+00:00</time>
      </trkpt>
      <trkpt lat="49.15832" lon="1.75819">
        <ele>128</ele>
        <time>2024-02-05T09:24:06.163+00:00</time>
      </trkpt>
      <trkpt lat="49.15833" lon="1.75813">
        <ele>128</ele>
        <time>2024-02-05T09:24:10.325+00:00</time>
      </trkpt>
      <trkpt lat="49.15835" lon="1.75808">
        <ele>128</ele>
        <time>2024-02-05T09:24:14.527+00:00</time>
      </trkpt>
      <trkpt lat="49.15837" lon="1.75803">
        <ele>128</ele>
        <time>2024-02-05T09:24:19.204+00:00</time>
      </trkpt>
      <trkpt lat="49.15839" lon="1.75797">
        <ele>128</ele>
        <time>2024-02-05T09:24:23.678+00:00</time>
      </trkpt>
      <trkpt lat="49.1584" lon="1.75792">
        <ele>128</ele>
        <time>2024-02-05T09:24:28.183+00:00</time>
      </trkpt>
      <trkpt lat="49.15841" lon="1.75787">
        <ele>131</ele>
        <time>2024-02-05T09:24:32.473+00:00</time>
      </trkpt>
      <trkpt lat="49.15843" lon="1.75782">
        <ele>131</ele>
        <time>2024-02-05T09:24:36.596+00:00</time>
      </trkpt>
      <trkpt lat="49.15846" lon="1.75776">
        <ele>131</ele>
        <time>2024-02-05T09:24:40.858+00:00</time>
      </trkpt>
      <trkpt lat="49.15847" lon="1.75769">
        <ele>131</ele>
        <time>2024-02-05T09:24:45.647+00:00</time>
      </trkpt>
      <trkpt lat="49.15849" lon="1.75762">
        <ele>133</ele>
        <time>2024-02-05T09:24:50.243+00:00</time>
      </trkpt>
      <trkpt lat="49.1585" lon="1.75755">
        <ele>133</ele>
        <time>2024-02-05T09:24:54.686+00:00</time>
      </trkpt>
      <trkpt lat="49.15851" lon="1.75749">
        <ele>133</ele>
        <time>2024-02-05T09:24:59.117+00:00</time>
      </trkpt>
      <trkpt lat="49.15852" lon="1.75745">
        <ele>133</ele>
        <time>2024-02-05T09:25:03.748+00:00</time>
      </trkpt>
      <trkpt lat="49.15853" lon="1.75739">
        <ele>133</ele>
        <time>2024-02-05T09:25:08.203+00:00</time>
      </trkpt>
      <trkpt lat="49.15852" lon="1.75731">
        <ele>134</ele>
        <time>2024-02-05T09:25:12.585+00:00</time>
      </trkpt>
      <trkpt lat="49.1585" lon="1.75724">
        <ele>134</ele>
        <time>2024-02-05T09:25:17.124+00:00</time>
      </trkpt>
      <trkpt lat="49.15849" lon="1.75719">
        <ele>134</ele>
        <time>2024-02-05T09:25:21.397+00:00</time>
      </trkpt>
      <trkpt lat="49.15849" lon="1.75714">
        <ele>134</ele>
        <time>2024-02-05T09:25:25.759+00:00</time>
      </trkpt>
      <trkpt lat="49.15849" lon="1.75708">
        <ele>134</ele>
        <time>2024-02-05T09:25:29.866+00:00</time>
      </trkpt>
      <trkpt lat="49.15848" lon="1.75702">
        <ele>134</ele>
        <time>2024-02-05T09:25:34.136+00:00</time>
      </trkpt>
      <trkpt lat="49.15848" lon="1.75695">
        <ele>134</ele>
        <time>2024-02-05T09:25:38.157+00:00</time>
      </trkpt>
      <trkpt lat="49.15849" lon="1.75689">
        <ele>134</ele>
        <time>2024-02-05T09:25:42.480+00:00</time>
      </trkpt>
      <trkpt lat="49.15848" lon="1.75683">
        <ele>134</ele>
        <time>2024-02-05T09:25:46.680+00:00</time>
      </trkpt>
      <trkpt lat="49.15848" lon="1.75676">
        <ele>135</ele>
        <time>2024-02-05T09:25:51.124+00:00</time>
      </trkpt>
      <trkpt lat="49.15849" lon="1.75669">
        <ele>135</ele>
        <time>2024-02-05T09:25:55.324+00:00</time>
      </trkpt>
      <trkpt lat="49.15849" lon="1.75662">
        <ele>135</ele>
        <time>2024-02-05T09:25:59.685+00:00</time>
      </trkpt>
      <trkpt lat="49.15849" lon="1.75654">
        <ele>135</ele>
        <time>2024-02-05T09:26:03.943+00:00</time>
      </trkpt>
      <trkpt lat="49.15848" lon="1.75648">
        <ele>137</ele>
        <time>2024-02-05T09:26:08.358+00:00</time>
      </trkpt>
      <trkpt lat="49.15849" lon="1.75641">
        <ele>137</ele>
        <time>2024-02-05T09:26:12.824+00:00</time>
      </trkpt>
      <trkpt lat="49.15849" lon="1.75634">
        <ele>137</ele>
        <time>2024-02-05T09:26:17.461+00:00</time>
      </trkpt>
      <trkpt lat="49.15849" lon="1.75626">
        <ele>137</ele>
        <time>2024-02-05T09:26:21.599+00:00</time>
      </trkpt>
      <trkpt lat="49.15851" lon="1.75616">
        <ele>138</ele>
        <time>2024-02-05T09:26:25.858+00:00</time>
      </trkpt>
      <trkpt lat="49.15851" lon="1.75605">
        <ele>138</ele>
        <time>2024-02-05T09:26:30.304+00:00</time>
      </trkpt>
      <trkpt lat="49.15851" lon="1.75596">
        <ele>139</ele>
        <time>2024-02-05T09:26:34.469+00:00</time>
      </trkpt>
      <trkpt lat="49.15851" lon="1.75588">
        <ele>139</ele>
        <time>2024-02-05T09:26:38.542+00:00</time>
      </trkpt>
      <trkpt lat="49.15851" lon="1.7558">
        <ele>139</ele>
        <time>2024-02-05T09:26:42.693+00:00</time>
      </trkpt>
      <trkpt lat="49.15852" lon="1.75574">
        <ele>139</ele>
        <time>2024-02-05T09:26:47.463+00:00</time>
      </trkpt>
      <trkpt lat="49.15853" lon="1.75568">
        <ele>140</ele>
        <time>2024-02-05T09:26:51.722+00:00</time>
      </trkpt>
      <trkpt lat="49.15855" lon="1.7556">
        <ele>140</ele>
        <time>2024-02-05T09:26:56.078+00:00</time>
      </trkpt>
      <trkpt lat="49.15857" lon="1.75552">
        <ele>140</ele>
        <time>2024-02-05T09:27:00.266+00:00</time>
      </trkpt>
      <trkpt lat="49.15858" lon="1.75544">
        <ele>140</ele>
        <time>2024-02-05T09:27:04.605+00:00</time>
      </trkpt>
      <trkpt lat="49.15859" lon="1.75539">
        <ele>141</ele>
        <time>2024-02-05T09:27:08.704+00:00</time>
      </trkpt>
      <trkpt lat="49.1586" lon="1.75532">
        <ele>141</ele>
        <time>2024-02-05T09:27:13.239+00:00</time>
      </trkpt>
      <trkpt lat="49.15861" lon="1.75525">
        <ele>141</ele>
        <time>2024-02-05T09:27:17.683+00:00</time>
      </trkpt>
      <trkpt lat="49.15861" lon="1.75519">
        <ele>141</ele>
        <time>2024-02-05T09:27:21.961+00:00</time>
      </trkpt>
      <trkpt lat="49.15863" lon="1.75514">
        <ele>142</ele>
        <time>2024-02-05T09:27:26.142+00:00</time>
      </trkpt>
      <trkpt lat="49.15863" lon="1.75505">
        <ele>142</ele>
        <time>2024-02-05T09:27:30.699+00:00</time>
      </trkpt>
      <trkpt lat="49.15865" lon="1.75498">
        <ele>142</ele>
        <time>2024-02-05T09:27:35.367+00:00</time>
      </trkpt>
      <trkpt lat="49.15867" lon="1.75489">
        <ele>142</ele>
        <time>2024-02-05T09:27:39.883+00:00</time>
      </trkpt>
      <trkpt lat="49.15869" lon="1.75481">
        <ele>144</ele>
        <time>2024-02-05T09:27:44.400+00:00</time>
      </trkpt>
      <trkpt lat="49.15869" lon="1.75474">
        <ele>144</ele>
        <time>2024-02-05T09:27:48.559+00:00</time>
      </trkpt>
      <trkpt lat="49.1587" lon="1.75466">
        <ele>144</ele>
        <time>2024-02-05T09:27:52.562+00:00</time>
      </trkpt>
      <trkpt lat="49.15872" lon="1.75459">
        <ele>144</ele>
        <time>2024-02-05T09:27:56.621+00:00</time>
      </trkpt>
      <trkpt lat="49.15872" lon="1.75453">
        <ele>145</ele>
        <time>2024-02-05T09:28:00.699+00:00</time>
      </trkpt>
      <trkpt lat="49.15872" lon="1.75447">
        <ele>145</ele>
        <time>2024-02-05T09:28:05.081+00:00</time>
      </trkpt>
      <trkpt lat="49.15872" lon="1.75441">
        <ele>145</ele>
        <time>2024-02-05T09:28:09.639+00:00</time>
      </trkpt>
      <trkpt lat="49.15871" lon="1.75436">
        <ele>145</ele>
        <time>2024-02-05T09:28:13.712+00:00</time>
      </trkpt>
      <trkpt lat="49.15873" lon="1.75429">
        <ele>147</ele>
        <time>2024-02-05T09:28:18.103+00:00</time>
      </trkpt>
      <trkpt lat="49.15876" lon="1.75422">
        <ele>145</ele>
        <time>2024-02-05T09:28:22.481+00:00</time>
      </trkpt>
      <trkpt lat="49.15876" lon="1.75416">
        <ele>145</ele>
        <time>2024-02-05T09:28:26.709+00:00</time>
      </trkpt>
      <trkpt lat="49.15875" lon="1.75414">
        <ele>147</ele>
        <time>2024-02-05T09:28:31.107+00:00</time>
      </trkpt>
      <trkpt lat="49.15876" lon="1.75401">
        <ele>146</ele>
        <time>2024-02-05T09:28:35.207+00:00</time>
      </trkpt>
      <trkpt lat="49.15877" lon="1.75391">
        <ele>146</ele>
        <time>2024-02-05T09:28:39.483+00:00</time>
      </trkpt>
      <trkpt lat="49.15877" lon="1.75382">
        <ele>146</ele>
        <time>2024-02-05T09:28:43.804+00:00</time>
      </trkpt>
      <trkpt lat="49.15877" lon="1.75374">
        <ele>146</ele>
        <time>2024-02-05T09:28:47.946+00:00</time>
      </trkpt>
      <trkpt lat="49.15878" lon="1.75368">
        <ele>146</ele>
        <time>2024-02-05T09:28:52.267+00:00</time>
      </trkpt>
      <trkpt lat="49.15879" lon="1.75359">
        <ele>146</ele>
        <time>2024-02-05T09:28:56.923+00:00</time>
      </trkpt>
      <trkpt lat="49.1588" lon="1.7535">
        <ele>146</ele>
        <time>2024-02-05T09:29:01.425+00:00</time>
      </trkpt>
      <trkpt lat="49.1588" lon="1.75342">
        <ele>146</ele>
        <time>2024-02-05T09:29:05.687+00:00</time>
      </trkpt>
      <trkpt lat="49.1588" lon="1.75333">
        <ele>146</ele>
        <time>2024-02-05T09:29:10.124+00:00</time>
      </trkpt>
      <trkpt lat="49.15882" lon="1.75325">
        <ele>146</ele>
        <time>2024-02-05T09:29:14.202+00:00</time>
      </trkpt>
      <trkpt lat="49.15884" lon="1.75317">
        <ele>146</ele>
        <time>2024-02-05T09:29:18.674+00:00</time>
      </trkpt>
      <trkpt lat="49.15886" lon="1.7531">
        <ele>146</ele>
        <time>2024-02-05T09:29:22.698+00:00</time>
      </trkpt>
      <trkpt lat="49.15887" lon="1.75302">
        <ele>146</ele>
        <time>2024-02-05T09:29:27.208+00:00</time>
      </trkpt>
      <trkpt lat="49.15889" lon="1.75294">
        <ele>146</ele>
        <time>2024-02-05T09:29:31.697+00:00</time>
      </trkpt>
      <trkpt lat="49.15891" lon="1.75286">
        <ele>146</ele>
        <time>2024-02-05T09:29:36.224+00:00</time>
      </trkpt>
      <trkpt lat="49.15893" lon="1.75278">
        <ele>146</ele>
        <time>2024-02-05T09:29:40.687+00:00</time>
      </trkpt>
      <trkpt lat="49.15896" lon="1.7527">
        <ele>146</ele>
        <time>2024-02-05T09:29:45.301+00:00</time>
      </trkpt>
      <trkpt lat="49.15898" lon="1.75262">
        <ele>147</ele>
        <time>2024-02-05T09:29:49.819+00:00</time>
      </trkpt>
      <trkpt lat="49.159" lon="1.75254">
        <ele>147</ele>
        <time>2024-02-05T09:29:54.347+00:00</time>
      </trkpt>
      <trkpt lat="49.15901" lon="1.75247">
        <ele>147</ele>
        <time>2024-02-05T09:29:58.347+00:00</time>
      </trkpt>
      <trkpt lat="49.15903" lon="1.7524">
        <ele>146</ele>
        <time>2024-02-05T09:30:02.693+00:00</time>
      </trkpt>
      <trkpt lat="49.15905" lon="1.75232">
        <ele>147</ele>
        <time>2024-02-05T09:30:07.385+00:00</time>
      </trkpt>
      <trkpt lat="49.15907" lon="1.75224">
        <ele>147</ele>
        <time>2024-02-05T09:30:12.059+00:00</time>
      </trkpt>
      <trkpt lat="49.1591" lon="1.75217">
        <ele>147</ele>
        <time>2024-02-05T09:30:16.476+00:00</time>
      </trkpt>
      <trkpt lat="49.15913" lon="1.7521">
        <ele>147</ele>
        <time>2024-02-05T09:30:20.965+00:00</time>
      </trkpt>
      <trkpt lat="49.15916" lon="1.75202">
        <ele>147</ele>
        <time>2024-02-05T09:30:25.523+00:00</time>
      </trkpt>
      <trkpt lat="49.15919" lon="1.75195">
        <ele>147</ele>
        <time>2024-02-05T09:30:29.902+00:00</time>
      </trkpt>
      <trkpt lat="49.15922" lon="1.75186">
        <ele>147</ele>
        <time>2024-02-05T09:30:34.478+00:00</time>
      </trkpt>
      <trkpt lat="49.15925" lon="1.75179">
        <ele>146</ele>
        <time>2024-02-05T09:30:38.506+00:00</time>
      </trkpt>
      <trkpt lat="49.15927" lon="1.75172">
        <ele>146</ele>
        <time>2024-02-05T09:30:42.921+00:00</time>
      </trkpt>
      <trkpt lat="49.1593" lon="1.75166">
        <ele>146</ele>
        <time>2024-02-05T09:30:47.041+00:00</time>
      </trkpt>
      <trkpt lat="49.15928" lon="1.75159">
        <ele>146</ele>
        <time>2024-02-05T09:30:51.157+00:00</time>
      </trkpt>
      <trkpt lat="49.15928" lon="1.75154">
        <ele>146</ele>
        <time>2024-02-05T09:30:55.247+00:00</time>
      </trkpt>
      <trkpt lat="49.15929" lon="1.75151">
        <ele>144</ele>
        <time>2024-02-05T09:30:59.481+00:00</time>
      </trkpt>
      <trkpt lat="49.15934" lon="1.75147">
        <ele>145</ele>
        <time>2024-02-05T09:31:03.686+00:00</time>
      </trkpt>
      <trkpt lat="49.1594" lon="1.75143">
        <ele>145</ele>
        <time>2024-02-05T09:31:08.085+00:00</time>
      </trkpt>
      <trkpt lat="49.15943" lon="1.75138">
        <ele>145</ele>
        <time>2024-02-05T09:32:48.674+00:00</time>
      </trkpt>
      <trkpt lat="49.15944" lon="1.75138">
        <ele>145</ele>
        <time>2024-02-05T09:32:53.364+00:00</time>
      </trkpt>
      <trkpt lat="49.15948" lon="1.75139">
        <ele>145</ele>
        <time>2024-02-05T09:32:57.676+00:00</time>
      </trkpt>
      <trkpt lat="49.15951" lon="1.75138">
        <ele>145</ele>
        <time>2024-02-05T09:33:02.214+00:00</time>
      </trkpt>
      <trkpt lat="49.15955" lon="1.75136">
        <ele>145</ele>
        <time>2024-02-05T09:33:06.599+00:00</time>
      </trkpt>
      <trkpt lat="49.15958" lon="1.75136">
        <ele>145</ele>
        <time>2024-02-05T09:33:10.660+00:00</time>
      </trkpt>
      <trkpt lat="49.15962" lon="1.75134">
        <ele>146</ele>
        <time>2024-02-05T09:33:15.163+00:00</time>
      </trkpt>
      <trkpt lat="49.15967" lon="1.75134">
        <ele>146</ele>
        <time>2024-02-05T09:33:19.580+00:00</time>
      </trkpt>
      <trkpt lat="49.15972" lon="1.75133">
        <ele>146</ele>
        <time>2024-02-05T09:33:24.329+00:00</time>
      </trkpt>
      <trkpt lat="49.15978" lon="1.7513">
        <ele>146</ele>
        <time>2024-02-05T09:33:28.775+00:00</time>
      </trkpt>
      <trkpt lat="49.15985" lon="1.75129">
        <ele>146</ele>
        <time>2024-02-05T09:33:33.696+00:00</time>
      </trkpt>
      <trkpt lat="49.15991" lon="1.75128">
        <ele>147</ele>
        <time>2024-02-05T09:33:38.577+00:00</time>
      </trkpt>
      <trkpt lat="49.15997" lon="1.75127">
        <ele>147</ele>
        <time>2024-02-05T09:33:42.873+00:00</time>
      </trkpt>
      <trkpt lat="49.16002" lon="1.75127">
        <ele>147</ele>
        <time>2024-02-05T09:33:47.081+00:00</time>
      </trkpt>
      <trkpt lat="49.16007" lon="1.75126">
        <ele>147</ele>
        <time>2024-02-05T09:33:51.494+00:00</time>
      </trkpt>
      <trkpt lat="49.16012" lon="1.75124">
        <ele>146</ele>
        <time>2024-02-05T09:33:56.297+00:00</time>
      </trkpt>
      <trkpt lat="49.16016" lon="1.75123">
        <ele>147</ele>
        <time>2024-02-05T09:34:00.293+00:00</time>
      </trkpt>
      <trkpt lat="49.16021" lon="1.75122">
        <ele>147</ele>
        <time>2024-02-05T09:34:04.540+00:00</time>
      </trkpt>
      <trkpt lat="49.16026" lon="1.75121">
        <ele>147</ele>
        <time>2024-02-05T09:34:08.693+00:00</time>
      </trkpt>
      <trkpt lat="49.16031" lon="1.7512">
        <ele>147</ele>
        <time>2024-02-05T09:34:12.977+00:00</time>
      </trkpt>
      <trkpt lat="49.16036" lon="1.75119">
        <ele>147</ele>
        <time>2024-02-05T09:34:17.102+00:00</time>
      </trkpt>
      <trkpt lat="49.16041" lon="1.75118">
        <ele>147</ele>
        <time>2024-02-05T09:34:21.418+00:00</time>
      </trkpt>
      <trkpt lat="49.16047" lon="1.75117">
        <ele>147</ele>
        <time>2024-02-05T09:34:25.619+00:00</time>
      </trkpt>
      <trkpt lat="49.16052" lon="1.75113">
        <ele>147</ele>
        <time>2024-02-05T09:34:29.817+00:00</time>
      </trkpt>
      <trkpt lat="49.16057" lon="1.7511">
        <ele>147</ele>
        <time>2024-02-05T09:34:33.974+00:00</time>
      </trkpt>
      <trkpt lat="49.16063" lon="1.75108">
        <ele>147</ele>
        <time>2024-02-05T09:34:38.164+00:00</time>
      </trkpt>
      <trkpt lat="49.16069" lon="1.75107">
        <ele>147</ele>
        <time>2024-02-05T09:34:42.377+00:00</time>
      </trkpt>
      <trkpt lat="49.16074" lon="1.75106">
        <ele>148</ele>
        <time>2024-02-05T09:34:46.541+00:00</time>
      </trkpt>
      <trkpt lat="49.1608" lon="1.75105">
        <ele>148</ele>
        <time>2024-02-05T09:34:50.679+00:00</time>
      </trkpt>
      <trkpt lat="49.16085" lon="1.75104">
        <ele>148</ele>
        <time>2024-02-05T09:34:54.992+00:00</time>
      </trkpt>
      <trkpt lat="49.1609" lon="1.75103">
        <ele>148</ele>
        <time>2024-02-05T09:34:59.217+00:00</time>
      </trkpt>
      <trkpt lat="49.16096" lon="1.75102">
        <ele>148</ele>
        <time>2024-02-05T09:35:03.533+00:00</time>
      </trkpt>
      <trkpt lat="49.16102" lon="1.75099">
        <ele>149</ele>
        <time>2024-02-05T09:35:07.679+00:00</time>
      </trkpt>
      <trkpt lat="49.16107" lon="1.75094">
        <ele>148</ele>
        <time>2024-02-05T09:35:11.974+00:00</time>
      </trkpt>
      <trkpt lat="49.16112" lon="1.75087">
        <ele>148</ele>
        <time>2024-02-05T09:35:16.040+00:00</time>
      </trkpt>
      <trkpt lat="49.16117" lon="1.75082">
        <ele>148</ele>
        <time>2024-02-05T09:35:20.248+00:00</time>
      </trkpt>
      <trkpt lat="49.16123" lon="1.75077">
        <ele>148</ele>
        <time>2024-02-05T09:35:24.516+00:00</time>
      </trkpt>
      <trkpt lat="49.16128" lon="1.75072">
        <ele>148</ele>
        <time>2024-02-05T09:35:28.717+00:00</time>
      </trkpt>
      <trkpt lat="49.16133" lon="1.75066">
        <ele>148</ele>
        <time>2024-02-05T09:35:32.961+00:00</time>
      </trkpt>
      <trkpt lat="49.16138" lon="1.75062">
        <ele>148</ele>
        <time>2024-02-05T09:35:37.115+00:00</time>
      </trkpt>
      <trkpt lat="49.16142" lon="1.75056">
        <ele>148</ele>
        <time>2024-02-05T09:35:41.316+00:00</time>
      </trkpt>
      <trkpt lat="49.16147" lon="1.75049">
        <ele>148</ele>
        <time>2024-02-05T09:35:45.556+00:00</time>
      </trkpt>
      <trkpt lat="49.16151" lon="1.75042">
        <ele>148</ele>
        <time>2024-02-05T09:35:49.690+00:00</time>
      </trkpt>
      <trkpt lat="49.16156" lon="1.75036">
        <ele>148</ele>
        <time>2024-02-05T09:35:53.999+00:00</time>
      </trkpt>
      <trkpt lat="49.16161" lon="1.75031">
        <ele>148</ele>
        <time>2024-02-05T09:35:58.360+00:00</time>
      </trkpt>
      <trkpt lat="49.16165" lon="1.75026">
        <ele>148</ele>
        <time>2024-02-05T09:36:02.513+00:00</time>
      </trkpt>
      <trkpt lat="49.16167" lon="1.75025">
        <ele>148</ele>
        <time>2024-02-05T09:36:06.662+00:00</time>
      </trkpt>
      <trkpt lat="49.16171" lon="1.75021">
        <ele>148</ele>
        <time>2024-02-05T09:36:11.036+00:00</time>
      </trkpt>
      <trkpt lat="49.16175" lon="1.75017">
        <ele>148</ele>
        <time>2024-02-05T09:36:15.459+00:00</time>
      </trkpt>
      <trkpt lat="49.16178" lon="1.7501">
        <ele>147</ele>
        <time>2024-02-05T09:36:19.707+00:00</time>
      </trkpt>
      <trkpt lat="49.16181" lon="1.75005">
        <ele>147</ele>
        <time>2024-02-05T09:36:24.256+00:00</time>
      </trkpt>
      <trkpt lat="49.16184" lon="1.75">
        <ele>148</ele>
        <time>2024-02-05T09:36:28.664+00:00</time>
      </trkpt>
      <trkpt lat="49.16187" lon="1.74996">
        <ele>148</ele>
        <time>2024-02-05T09:36:32.706+00:00</time>
      </trkpt>
      <trkpt lat="49.16191" lon="1.74989">
        <ele>148</ele>
        <time>2024-02-05T09:36:37.636+00:00</time>
      </trkpt>
      <trkpt lat="49.16195" lon="1.74984">
        <ele>149</ele>
        <time>2024-02-05T09:36:41.707+00:00</time>
      </trkpt>
      <trkpt lat="49.16198" lon="1.74978">
        <ele>149</ele>
        <time>2024-02-05T09:36:45.704+00:00</time>
      </trkpt>
      <trkpt lat="49.16202" lon="1.74971">
        <ele>149</ele>
        <time>2024-02-05T09:36:50.423+00:00</time>
      </trkpt>
      <trkpt lat="49.16205" lon="1.74966">
        <ele>149</ele>
        <time>2024-02-05T09:36:54.476+00:00</time>
      </trkpt>
      <trkpt lat="49.16209" lon="1.74961">
        <ele>150</ele>
        <time>2024-02-05T09:36:58.559+00:00</time>
      </trkpt>
      <trkpt lat="49.16212" lon="1.74954">
        <ele>151</ele>
        <time>2024-02-05T09:37:02.881+00:00</time>
      </trkpt>
      <trkpt lat="49.16216" lon="1.74948">
        <ele>151</ele>
        <time>2024-02-05T09:37:07.374+00:00</time>
      </trkpt>
      <trkpt lat="49.16219" lon="1.74942">
        <ele>151</ele>
        <time>2024-02-05T09:37:11.708+00:00</time>
      </trkpt>
      <trkpt lat="49.16221" lon="1.74937">
        <ele>151</ele>
        <time>2024-02-05T09:37:15.898+00:00</time>
      </trkpt>
      <trkpt lat="49.16225" lon="1.74933">
        <ele>151</ele>
        <time>2024-02-05T09:37:20.256+00:00</time>
      </trkpt>
      <trkpt lat="49.16228" lon="1.74928">
        <ele>152</ele>
        <time>2024-02-05T09:37:24.619+00:00</time>
      </trkpt>
      <trkpt lat="49.16231" lon="1.74922">
        <ele>152</ele>
        <time>2024-02-05T09:37:28.902+00:00</time>
      </trkpt>
      <trkpt lat="49.16235" lon="1.74916">
        <ele>152</ele>
        <time>2024-02-05T09:37:33.488+00:00</time>
      </trkpt>
      <trkpt lat="49.16239" lon="1.74911">
        <ele>152</ele>
        <time>2024-02-05T09:37:37.696+00:00</time>
      </trkpt>
      <trkpt lat="49.16242" lon="1.74905">
        <ele>152</ele>
        <time>2024-02-05T09:37:41.995+00:00</time>
      </trkpt>
      <trkpt lat="49.16245" lon="1.749">
        <ele>152</ele>
        <time>2024-02-05T09:37:46.233+00:00</time>
      </trkpt>
      <trkpt lat="49.1625" lon="1.74895">
        <ele>152</ele>
        <time>2024-02-05T09:37:50.716+00:00</time>
      </trkpt>
      <trkpt lat="49.16253" lon="1.74891">
        <ele>152</ele>
        <time>2024-02-05T09:37:54.703+00:00</time>
      </trkpt>
      <trkpt lat="49.16255" lon="1.74887">
        <ele>152</ele>
        <time>2024-02-05T09:37:59.042+00:00</time>
      </trkpt>
      <trkpt lat="49.16259" lon="1.74885">
        <ele>152</ele>
        <time>2024-02-05T09:38:03.646+00:00</time>
      </trkpt>
      <trkpt lat="49.16261" lon="1.74882">
        <ele>152</ele>
        <time>2024-02-05T09:38:07.879+00:00</time>
      </trkpt>
      <trkpt lat="49.16265" lon="1.7488">
        <ele>152</ele>
        <time>2024-02-05T09:38:12.397+00:00</time>
      </trkpt>
      <trkpt lat="49.1627" lon="1.74877">
        <ele>152</ele>
        <time>2024-02-05T09:38:16.689+00:00</time>
      </trkpt>
      <trkpt lat="49.16274" lon="1.74874">
        <ele>153</ele>
        <time>2024-02-05T09:38:20.983+00:00</time>
      </trkpt>
      <trkpt lat="49.16279" lon="1.74872">
        <ele>153</ele>
        <time>2024-02-05T09:38:25.277+00:00</time>
      </trkpt>
      <trkpt lat="49.16283" lon="1.74869">
        <ele>153</ele>
        <time>2024-02-05T09:38:29.561+00:00</time>
      </trkpt>
      <trkpt lat="49.16287" lon="1.74866">
        <ele>153</ele>
        <time>2024-02-05T09:38:33.707+00:00</time>
      </trkpt>
      <trkpt lat="49.16292" lon="1.74865">
        <ele>153</ele>
        <time>2024-02-05T09:38:38.098+00:00</time>
      </trkpt>
      <trkpt lat="49.16296" lon="1.74863">
        <ele>153</ele>
        <time>2024-02-05T09:38:42.520+00:00</time>
      </trkpt>
      <trkpt lat="49.16301" lon="1.74861">
        <ele>153</ele>
        <time>2024-02-05T09:38:46.684+00:00</time>
      </trkpt>
      <trkpt lat="49.16307" lon="1.7486">
        <ele>153</ele>
        <time>2024-02-05T09:38:51.201+00:00</time>
      </trkpt>
      <trkpt lat="49.16312" lon="1.74857">
        <ele>153</ele>
        <time>2024-02-05T09:38:55.295+00:00</time>
      </trkpt>
      <trkpt lat="49.16318" lon="1.74855">
        <ele>153</ele>
        <time>2024-02-05T09:38:59.580+00:00</time>
      </trkpt>
      <trkpt lat="49.16323" lon="1.74852">
        <ele>151</ele>
        <time>2024-02-05T09:39:03.701+00:00</time>
      </trkpt>
      <trkpt lat="49.16328" lon="1.74851">
        <ele>151</ele>
        <time>2024-02-05T09:39:07.975+00:00</time>
      </trkpt>
      <trkpt lat="49.16334" lon="1.74849">
        <ele>151</ele>
        <time>2024-02-05T09:39:12.159+00:00</time>
      </trkpt>
      <trkpt lat="49.16339" lon="1.74847">
        <ele>151</ele>
        <time>2024-02-05T09:39:16.640+00:00</time>
      </trkpt>
      <trkpt lat="49.16344" lon="1.74845">
        <ele>151</ele>
        <time>2024-02-05T09:39:21.159+00:00</time>
      </trkpt>
      <trkpt lat="49.1635" lon="1.74845">
        <ele>150</ele>
        <time>2024-02-05T09:39:25.577+00:00</time>
      </trkpt>
      <trkpt lat="49.16355" lon="1.74845">
        <ele>150</ele>
        <time>2024-02-05T09:39:29.995+00:00</time>
      </trkpt>
      <trkpt lat="49.1636" lon="1.74846">
        <ele>150</ele>
        <time>2024-02-05T09:39:34.233+00:00</time>
      </trkpt>
      <trkpt lat="49.16364" lon="1.74848">
        <ele>150</ele>
        <time>2024-02-05T09:39:38.261+00:00</time>
      </trkpt>
      <trkpt lat="49.1637" lon="1.7485">
        <ele>150</ele>
        <time>2024-02-05T09:39:42.638+00:00</time>
      </trkpt>
      <trkpt lat="49.16375" lon="1.74854">
        <ele>150</ele>
        <time>2024-02-05T09:39:47.183+00:00</time>
      </trkpt>
      <trkpt lat="49.16379" lon="1.74859">
        <ele>149</ele>
        <time>2024-02-05T09:39:51.495+00:00</time>
      </trkpt>
      <trkpt lat="49.16382" lon="1.74864">
        <ele>149</ele>
        <time>2024-02-05T09:39:56.041+00:00</time>
      </trkpt>
      <trkpt lat="49.16386" lon="1.7487">
        <ele>149</ele>
        <time>2024-02-05T09:40:00.543+00:00</time>
      </trkpt>
      <trkpt lat="49.16389" lon="1.74875">
        <ele>150</ele>
        <time>2024-02-05T09:40:05.114+00:00</time>
      </trkpt>
      <trkpt lat="49.16393" lon="1.74881">
        <ele>150</ele>
        <time>2024-02-05T09:40:09.581+00:00</time>
      </trkpt>
      <trkpt lat="49.16396" lon="1.74887">
        <ele>150</ele>
        <time>2024-02-05T09:40:14.104+00:00</time>
      </trkpt>
      <trkpt lat="49.164" lon="1.74892">
        <ele>150</ele>
        <time>2024-02-05T09:40:18.716+00:00</time>
      </trkpt>
      <trkpt lat="49.16404" lon="1.74897">
        <ele>150</ele>
        <time>2024-02-05T09:40:23.257+00:00</time>
      </trkpt>
      <trkpt lat="49.16409" lon="1.749">
        <ele>150</ele>
        <time>2024-02-05T09:40:27.361+00:00</time>
      </trkpt>
      <trkpt lat="49.16413" lon="1.74902">
        <ele>150</ele>
        <time>2024-02-05T09:40:31.523+00:00</time>
      </trkpt>
      <trkpt lat="49.16419" lon="1.74905">
        <ele>151</ele>
        <time>2024-02-05T09:40:35.697+00:00</time>
      </trkpt>
      <trkpt lat="49.16424" lon="1.74907">
        <ele>151</ele>
        <time>2024-02-05T09:40:39.705+00:00</time>
      </trkpt>
      <trkpt lat="49.1643" lon="1.74907">
        <ele>151</ele>
        <time>2024-02-05T09:40:44.297+00:00</time>
      </trkpt>
      <trkpt lat="49.16435" lon="1.74905">
        <ele>151</ele>
        <time>2024-02-05T09:40:48.621+00:00</time>
      </trkpt>
      <trkpt lat="49.16439" lon="1.74902">
        <ele>150</ele>
        <time>2024-02-05T09:40:52.702+00:00</time>
      </trkpt>
      <trkpt lat="49.16445" lon="1.74899">
        <ele>150</ele>
        <time>2024-02-05T09:40:57.019+00:00</time>
      </trkpt>
      <trkpt lat="49.1645" lon="1.74896">
        <ele>150</ele>
        <time>2024-02-05T09:41:01.480+00:00</time>
      </trkpt>
      <trkpt lat="49.16454" lon="1.74891">
        <ele>150</ele>
        <time>2024-02-05T09:41:05.657+00:00</time>
      </trkpt>
      <trkpt lat="49.16458" lon="1.74883">
        <ele>150</ele>
        <time>2024-02-05T09:41:10.256+00:00</time>
      </trkpt>
      <trkpt lat="49.16461" lon="1.74877">
        <ele>151</ele>
        <time>2024-02-05T09:41:14.519+00:00</time>
      </trkpt>
      <trkpt lat="49.16464" lon="1.74871">
        <ele>151</ele>
        <time>2024-02-05T09:41:18.593+00:00</time>
      </trkpt>
      <trkpt lat="49.16468" lon="1.74865">
        <ele>151</ele>
        <time>2024-02-05T09:41:23.057+00:00</time>
      </trkpt>
      <trkpt lat="49.16471" lon="1.74859">
        <ele>151</ele>
        <time>2024-02-05T09:41:27.578+00:00</time>
      </trkpt>
      <trkpt lat="49.16476" lon="1.74853">
        <ele>151</ele>
        <time>2024-02-05T09:41:32.102+00:00</time>
      </trkpt>
      <trkpt lat="49.16479" lon="1.74848">
        <ele>151</ele>
        <time>2024-02-05T09:41:36.085+00:00</time>
      </trkpt>
      <trkpt lat="49.16484" lon="1.74842">
        <ele>149</ele>
        <time>2024-02-05T09:41:40.474+00:00</time>
      </trkpt>
      <trkpt lat="49.16487" lon="1.74835">
        <ele>152</ele>
        <time>2024-02-05T09:41:44.837+00:00</time>
      </trkpt>
      <trkpt lat="49.1649" lon="1.74829">
        <ele>152</ele>
        <time>2024-02-05T09:41:49.204+00:00</time>
      </trkpt>
      <trkpt lat="49.16494" lon="1.74822">
        <ele>152</ele>
        <time>2024-02-05T09:41:53.701+00:00</time>
      </trkpt>
      <trkpt lat="49.16497" lon="1.74817">
        <ele>150</ele>
        <time>2024-02-05T09:41:57.699+00:00</time>
      </trkpt>
      <trkpt lat="49.16501" lon="1.74809">
        <ele>150</ele>
        <time>2024-02-05T09:42:02.300+00:00</time>
      </trkpt>
      <trkpt lat="49.16504" lon="1.74802">
        <ele>150</ele>
        <time>2024-02-05T09:42:06.533+00:00</time>
      </trkpt>
      <trkpt lat="49.16508" lon="1.74797">
        <ele>150</ele>
        <time>2024-02-05T09:42:11.113+00:00</time>
      </trkpt>
      <trkpt lat="49.16512" lon="1.74792">
        <ele>150</ele>
        <time>2024-02-05T09:42:15.555+00:00</time>
      </trkpt>
      <trkpt lat="49.16515" lon="1.74787">
        <ele>150</ele>
        <time>2024-02-05T09:42:19.713+00:00</time>
      </trkpt>
      <trkpt lat="49.1652" lon="1.74783">
        <ele>150</ele>
        <time>2024-02-05T09:42:24.395+00:00</time>
      </trkpt>
      <trkpt lat="49.16523" lon="1.74777">
        <ele>150</ele>
        <time>2024-02-05T09:42:28.703+00:00</time>
      </trkpt>
      <trkpt lat="49.16528" lon="1.74772">
        <ele>150</ele>
        <time>2024-02-05T09:42:33.577+00:00</time>
      </trkpt>
      <trkpt lat="49.16533" lon="1.74766">
        <ele>150</ele>
        <time>2024-02-05T09:42:37.937+00:00</time>
      </trkpt>
      <trkpt lat="49.16538" lon="1.74762">
        <ele>147</ele>
        <time>2024-02-05T09:42:42.220+00:00</time>
      </trkpt>
      <trkpt lat="49.16543" lon="1.74757">
        <ele>147</ele>
        <time>2024-02-05T09:42:46.273+00:00</time>
      </trkpt>
      <trkpt lat="49.16547" lon="1.74752">
        <ele>147</ele>
        <time>2024-02-05T09:42:50.397+00:00</time>
      </trkpt>
      <trkpt lat="49.16552" lon="1.74746">
        <ele>147</ele>
        <time>2024-02-05T09:42:54.697+00:00</time>
      </trkpt>
      <trkpt lat="49.16557" lon="1.74742">
        <ele>147</ele>
        <time>2024-02-05T09:42:59.082+00:00</time>
      </trkpt>
      <trkpt lat="49.16562" lon="1.74738">
        <ele>147</ele>
        <time>2024-02-05T09:43:03.501+00:00</time>
      </trkpt>
      <trkpt lat="49.16567" lon="1.74733">
        <ele>144</ele>
        <time>2024-02-05T09:43:07.686+00:00</time>
      </trkpt>
      <trkpt lat="49.16572" lon="1.7473">
        <ele>144</ele>
        <time>2024-02-05T09:43:11.957+00:00</time>
      </trkpt>
      <trkpt lat="49.16577" lon="1.74725">
        <ele>144</ele>
        <time>2024-02-05T09:43:16.420+00:00</time>
      </trkpt>
      <trkpt lat="49.16582" lon="1.7472">
        <ele>144</ele>
        <time>2024-02-05T09:43:21.058+00:00</time>
      </trkpt>
      <trkpt lat="49.16586" lon="1.74713">
        <ele>144</ele>
        <time>2024-02-05T09:43:25.604+00:00</time>
      </trkpt>
      <trkpt lat="49.16591" lon="1.74707">
        <ele>142</ele>
        <time>2024-02-05T09:43:29.957+00:00</time>
      </trkpt>
      <trkpt lat="49.16595" lon="1.74701">
        <ele>142</ele>
        <time>2024-02-05T09:43:34.497+00:00</time>
      </trkpt>
      <trkpt lat="49.16597" lon="1.74693">
        <ele>142</ele>
        <time>2024-02-05T09:43:39.021+00:00</time>
      </trkpt>
      <trkpt lat="49.16599" lon="1.74686">
        <ele>144</ele>
        <time>2024-02-05T09:43:43.053+00:00</time>
      </trkpt>
      <trkpt lat="49.16602" lon="1.74679">
        <ele>144</ele>
        <time>2024-02-05T09:43:47.594+00:00</time>
      </trkpt>
      <trkpt lat="49.16604" lon="1.74674">
        <ele>144</ele>
        <time>2024-02-05T09:43:51.976+00:00</time>
      </trkpt>
      <trkpt lat="49.16606" lon="1.74667">
        <ele>144</ele>
        <time>2024-02-05T09:43:55.997+00:00</time>
      </trkpt>
      <trkpt lat="49.16607" lon="1.74661">
        <ele>144</ele>
        <time>2024-02-05T09:44:00.468+00:00</time>
      </trkpt>
      <trkpt lat="49.16609" lon="1.74658">
        <ele>144</ele>
        <time>2024-02-05T09:44:04.561+00:00</time>
      </trkpt>
      <trkpt lat="49.16612" lon="1.74652">
        <ele>144</ele>
        <time>2024-02-05T09:44:09.040+00:00</time>
      </trkpt>
      <trkpt lat="49.16614" lon="1.74646">
        <ele>144</ele>
        <time>2024-02-05T09:44:13.121+00:00</time>
      </trkpt>
      <trkpt lat="49.16617" lon="1.74641">
        <ele>144</ele>
        <time>2024-02-05T09:44:17.703+00:00</time>
      </trkpt>
      <trkpt lat="49.16621" lon="1.74637">
        <ele>144</ele>
        <time>2024-02-05T09:44:22.200+00:00</time>
      </trkpt>
      <trkpt lat="49.16623" lon="1.74629">
        <ele>144</ele>
        <time>2024-02-05T09:44:26.581+00:00</time>
      </trkpt>
      <trkpt lat="49.16626" lon="1.74625">
        <ele>146</ele>
        <time>2024-02-05T09:44:30.591+00:00</time>
      </trkpt>
      <trkpt lat="49.16629" lon="1.74617">
        <ele>146</ele>
        <time>2024-02-05T09:44:34.915+00:00</time>
      </trkpt>
      <trkpt lat="49.16632" lon="1.74607">
        <ele>146</ele>
        <time>2024-02-05T09:44:39.419+00:00</time>
      </trkpt>
      <trkpt lat="49.16634" lon="1.74597">
        <ele>145</ele>
        <time>2024-02-05T09:44:43.476+00:00</time>
      </trkpt>
      <trkpt lat="49.16637" lon="1.7459">
        <ele>145</ele>
        <time>2024-02-05T09:44:47.853+00:00</time>
      </trkpt>
      <trkpt lat="49.16641" lon="1.74584">
        <ele>145</ele>
        <time>2024-02-05T09:44:52.614+00:00</time>
      </trkpt>
      <trkpt lat="49.16645" lon="1.74575">
        <ele>145</ele>
        <time>2024-02-05T09:44:56.880+00:00</time>
      </trkpt>
      <trkpt lat="49.16649" lon="1.74568">
        <ele>145</ele>
        <time>2024-02-05T09:45:00.939+00:00</time>
      </trkpt>
      <trkpt lat="49.16652" lon="1.74561">
        <ele>145</ele>
        <time>2024-02-05T09:45:05.559+00:00</time>
      </trkpt>
      <trkpt lat="49.16654" lon="1.74555">
        <ele>148</ele>
        <time>2024-02-05T09:45:10.062+00:00</time>
      </trkpt>
      <trkpt lat="49.16656" lon="1.7455">
        <ele>148</ele>
        <time>2024-02-05T09:45:14.678+00:00</time>
      </trkpt>
      <trkpt lat="49.1666" lon="1.74543">
        <ele>148</ele>
        <time>2024-02-05T09:45:19.677+00:00</time>
      </trkpt>
      <trkpt lat="49.16663" lon="1.74536">
        <ele>147</ele>
        <time>2024-02-05T09:45:23.835+00:00</time>
      </trkpt>
      <trkpt lat="49.16667" lon="1.74528">
        <ele>147</ele>
        <time>2024-02-05T09:45:28.449+00:00</time>
      </trkpt>
      <trkpt lat="49.16668" lon="1.74522">
        <ele>147</ele>
        <time>2024-02-05T09:45:32.621+00:00</time>
      </trkpt>
      <trkpt lat="49.16672" lon="1.74515">
        <ele>147</ele>
        <time>2024-02-05T09:45:36.641+00:00</time>
      </trkpt>
      <trkpt lat="49.16676" lon="1.74507">
        <ele>147</ele>
        <time>2024-02-05T09:45:41.134+00:00</time>
      </trkpt>
      <trkpt lat="49.16679" lon="1.745">
        <ele>147</ele>
        <time>2024-02-05T09:45:45.695+00:00</time>
      </trkpt>
      <trkpt lat="49.16683" lon="1.74494">
        <ele>148</ele>
        <time>2024-02-05T09:45:49.936+00:00</time>
      </trkpt>
      <trkpt lat="49.16687" lon="1.74486">
        <ele>147</ele>
        <time>2024-02-05T09:45:54.731+00:00</time>
      </trkpt>
      <trkpt lat="49.1669" lon="1.74479">
        <ele>147</ele>
        <time>2024-02-05T09:45:58.933+00:00</time>
      </trkpt>
      <trkpt lat="49.16693" lon="1.74473">
        <ele>147</ele>
        <time>2024-02-05T09:46:03.309+00:00</time>
      </trkpt>
      <trkpt lat="49.16695" lon="1.74466">
        <ele>147</ele>
        <time>2024-02-05T09:46:07.342+00:00</time>
      </trkpt>
      <trkpt lat="49.16698" lon="1.74459">
        <ele>147</ele>
        <time>2024-02-05T09:46:11.712+00:00</time>
      </trkpt>
      <trkpt lat="49.167" lon="1.74454">
        <ele>146</ele>
        <time>2024-02-05T09:46:15.921+00:00</time>
      </trkpt>
      <trkpt lat="49.16703" lon="1.74447">
        <ele>146</ele>
        <time>2024-02-05T09:46:20.476+00:00</time>
      </trkpt>
      <trkpt lat="49.16706" lon="1.7444">
        <ele>146</ele>
        <time>2024-02-05T09:46:24.537+00:00</time>
      </trkpt>
      <trkpt lat="49.16709" lon="1.74432">
        <ele>147</ele>
        <time>2024-02-05T09:46:29.197+00:00</time>
      </trkpt>
      <trkpt lat="49.16712" lon="1.74425">
        <ele>146</ele>
        <time>2024-02-05T09:46:33.682+00:00</time>
      </trkpt>
      <trkpt lat="49.16715" lon="1.74419">
        <ele>146</ele>
        <time>2024-02-05T09:46:37.701+00:00</time>
      </trkpt>
      <trkpt lat="49.16718" lon="1.74415">
        <ele>146</ele>
        <time>2024-02-05T09:46:41.713+00:00</time>
      </trkpt>
      <trkpt lat="49.16721" lon="1.74407">
        <ele>146</ele>
        <time>2024-02-05T09:46:45.915+00:00</time>
      </trkpt>
      <trkpt lat="49.16723" lon="1.74399">
        <ele>146</ele>
        <time>2024-02-05T09:46:50.394+00:00</time>
      </trkpt>
      <trkpt lat="49.16725" lon="1.74393">
        <ele>146</ele>
        <time>2024-02-05T09:46:54.413+00:00</time>
      </trkpt>
      <trkpt lat="49.16727" lon="1.74385">
        <ele>146</ele>
        <time>2024-02-05T09:46:58.891+00:00</time>
      </trkpt>
      <trkpt lat="49.1673" lon="1.74378">
        <ele>146</ele>
        <time>2024-02-05T09:47:03.408+00:00</time>
      </trkpt>
      <trkpt lat="49.16733" lon="1.74371">
        <ele>146</ele>
        <time>2024-02-05T09:47:07.489+00:00</time>
      </trkpt>
      <trkpt lat="49.16734" lon="1.74364">
        <ele>146</ele>
        <time>2024-02-05T09:47:12.315+00:00</time>
      </trkpt>
      <trkpt lat="49.16736" lon="1.74357">
        <ele>146</ele>
        <time>2024-02-05T09:47:16.683+00:00</time>
      </trkpt>
      <trkpt lat="49.16737" lon="1.7435">
        <ele>146</ele>
        <time>2024-02-05T09:47:20.690+00:00</time>
      </trkpt>
      <trkpt lat="49.16739" lon="1.74343">
        <ele>146</ele>
        <time>2024-02-05T09:47:24.704+00:00</time>
      </trkpt>
      <trkpt lat="49.16742" lon="1.74335">
        <ele>146</ele>
        <time>2024-02-05T09:47:28.704+00:00</time>
      </trkpt>
      <trkpt lat="49.16744" lon="1.74328">
        <ele>146</ele>
        <time>2024-02-05T09:47:33.190+00:00</time>
      </trkpt>
      <trkpt lat="49.16744" lon="1.74319">
        <ele>146</ele>
        <time>2024-02-05T09:47:37.548+00:00</time>
      </trkpt>
      <trkpt lat="49.16745" lon="1.7431">
        <ele>146</ele>
        <time>2024-02-05T09:47:41.699+00:00</time>
      </trkpt>
      <trkpt lat="49.16743" lon="1.74303">
        <ele>146</ele>
        <time>2024-02-05T09:47:46.093+00:00</time>
      </trkpt>
      <trkpt lat="49.16745" lon="1.74296">
        <ele>146</ele>
        <time>2024-02-05T09:47:50.451+00:00</time>
      </trkpt>
      <trkpt lat="49.16748" lon="1.74285">
        <ele>144</ele>
        <time>2024-02-05T09:47:55.554+00:00</time>
      </trkpt>
      <trkpt lat="49.1675" lon="1.74274">
        <ele>144</ele>
        <time>2024-02-05T09:48:00.307+00:00</time>
      </trkpt>
      <trkpt lat="49.16751" lon="1.74268">
        <ele>144</ele>
        <time>2024-02-05T09:48:04.659+00:00</time>
      </trkpt>
      <trkpt lat="49.16752" lon="1.7426">
        <ele>143</ele>
        <time>2024-02-05T09:48:09.230+00:00</time>
      </trkpt>
      <trkpt lat="49.16754" lon="1.74253">
        <ele>143</ele>
        <time>2024-02-05T09:48:13.510+00:00</time>
      </trkpt>
      <trkpt lat="49.16754" lon="1.74245">
        <ele>143</ele>
        <time>2024-02-05T09:48:17.848+00:00</time>
      </trkpt>
      <trkpt lat="49.16755" lon="1.74238">
        <ele>143</ele>
        <time>2024-02-05T09:48:22.111+00:00</time>
      </trkpt>
      <trkpt lat="49.16757" lon="1.74229">
        <ele>142</ele>
        <time>2024-02-05T09:48:26.509+00:00</time>
      </trkpt>
      <trkpt lat="49.16758" lon="1.74219">
        <ele>142</ele>
        <time>2024-02-05T09:48:30.657+00:00</time>
      </trkpt>
      <trkpt lat="49.16756" lon="1.74212">
        <ele>142</ele>
        <time>2024-02-05T09:48:35.629+00:00</time>
      </trkpt>
      <trkpt lat="49.16754" lon="1.74204">
        <ele>141</ele>
        <time>2024-02-05T09:48:40.121+00:00</time>
      </trkpt>
      <trkpt lat="49.16751" lon="1.742">
        <ele>141</ele>
        <time>2024-02-05T09:48:44.149+00:00</time>
      </trkpt>
      <trkpt lat="49.16751" lon="1.74193">
        <ele>141</ele>
        <time>2024-02-05T09:48:48.546+00:00</time>
      </trkpt>
      <trkpt lat="49.16751" lon="1.74186">
        <ele>141</ele>
        <time>2024-02-05T09:48:52.628+00:00</time>
      </trkpt>
      <trkpt lat="49.16751" lon="1.74178">
        <ele>140</ele>
        <time>2024-02-05T09:48:56.657+00:00</time>
      </trkpt>
      <trkpt lat="49.16752" lon="1.74172">
        <ele>140</ele>
        <time>2024-02-05T09:49:01.653+00:00</time>
      </trkpt>
      <trkpt lat="49.16754" lon="1.74169">
        <ele>140</ele>
        <time>2024-02-05T09:49:05.659+00:00</time>
      </trkpt>
      <trkpt lat="49.16755" lon="1.74159">
        <ele>140</ele>
        <time>2024-02-05T09:49:09.774+00:00</time>
      </trkpt>
      <trkpt lat="49.16754" lon="1.7415">
        <ele>140</ele>
        <time>2024-02-05T09:49:14.379+00:00</time>
      </trkpt>
      <trkpt lat="49.16754" lon="1.74141">
        <ele>140</ele>
        <time>2024-02-05T09:49:18.414+00:00</time>
      </trkpt>
      <trkpt lat="49.16755" lon="1.74133">
        <ele>140</ele>
        <time>2024-02-05T09:49:22.999+00:00</time>
      </trkpt>
      <trkpt lat="49.16756" lon="1.74126">
        <ele>140</ele>
        <time>2024-02-05T09:49:27.472+00:00</time>
      </trkpt>
      <trkpt lat="49.16756" lon="1.74117">
        <ele>140</ele>
        <time>2024-02-05T09:49:32.411+00:00</time>
      </trkpt>
      <trkpt lat="49.16757" lon="1.74109">
        <ele>140</ele>
        <time>2024-02-05T09:49:36.663+00:00</time>
      </trkpt>
      <trkpt lat="49.16757" lon="1.74101">
        <ele>140</ele>
        <time>2024-02-05T09:49:41.312+00:00</time>
      </trkpt>
      <trkpt lat="49.16758" lon="1.7409">
        <ele>140</ele>
        <time>2024-02-05T09:49:45.660+00:00</time>
      </trkpt>
      <trkpt lat="49.16759" lon="1.74082">
        <ele>140</ele>
        <time>2024-02-05T09:49:50.188+00:00</time>
      </trkpt>
      <trkpt lat="49.16761" lon="1.74072">
        <ele>140</ele>
        <time>2024-02-05T09:49:54.494+00:00</time>
      </trkpt>
      <trkpt lat="49.16762" lon="1.74063">
        <ele>141</ele>
        <time>2024-02-05T09:49:58.654+00:00</time>
      </trkpt>
      <trkpt lat="49.16761" lon="1.74056">
        <ele>141</ele>
        <time>2024-02-05T09:50:03.189+00:00</time>
      </trkpt>
      <trkpt lat="49.16763" lon="1.74048">
        <ele>141</ele>
        <time>2024-02-05T09:50:07.660+00:00</time>
      </trkpt>
      <trkpt lat="49.16764" lon="1.74042">
        <ele>141</ele>
        <time>2024-02-05T09:50:11.674+00:00</time>
      </trkpt>
      <trkpt lat="49.16761" lon="1.74037">
        <ele>142</ele>
        <time>2024-02-05T09:50:16.657+00:00</time>
      </trkpt>
      <trkpt lat="49.16762" lon="1.74031">
        <ele>142</ele>
        <time>2024-02-05T09:50:21.054+00:00</time>
      </trkpt>
      <trkpt lat="49.16762" lon="1.74026">
        <ele>142</ele>
        <time>2024-02-05T09:50:25.250+00:00</time>
      </trkpt>
      <trkpt lat="49.16762" lon="1.74022">
        <ele>142</ele>
        <time>2024-02-05T09:50:29.570+00:00</time>
      </trkpt>
      <trkpt lat="49.16762" lon="1.74015">
        <ele>142</ele>
        <time>2024-02-05T09:50:33.671+00:00</time>
      </trkpt>
      <trkpt lat="49.16762" lon="1.74007">
        <ele>143</ele>
        <time>2024-02-05T09:50:37.660+00:00</time>
      </trkpt>
      <trkpt lat="49.16759" lon="1.74">
        <ele>143</ele>
        <time>2024-02-05T09:50:42.269+00:00</time>
      </trkpt>
      <trkpt lat="49.16759" lon="1.73992">
        <ele>143</ele>
        <time>2024-02-05T09:50:46.673+00:00</time>
      </trkpt>
      <trkpt lat="49.1676" lon="1.73983">
        <ele>144</ele>
        <time>2024-02-05T09:50:51.397+00:00</time>
      </trkpt>
      <trkpt lat="49.16758" lon="1.73973">
        <ele>144</ele>
        <time>2024-02-05T09:50:56.655+00:00</time>
      </trkpt>
      <trkpt lat="49.16757" lon="1.73964">
        <ele>144</ele>
        <time>2024-02-05T09:51:01.048+00:00</time>
      </trkpt>
      <trkpt lat="49.16755" lon="1.73956">
        <ele>145</ele>
        <time>2024-02-05T09:51:05.368+00:00</time>
      </trkpt>
      <trkpt lat="49.16752" lon="1.73949">
        <ele>145</ele>
        <time>2024-02-05T09:51:09.947+00:00</time>
      </trkpt>
      <trkpt lat="49.1675" lon="1.73941">
        <ele>145</ele>
        <time>2024-02-05T09:51:14.286+00:00</time>
      </trkpt>
      <trkpt lat="49.16749" lon="1.73933">
        <ele>145</ele>
        <time>2024-02-05T09:51:18.655+00:00</time>
      </trkpt>
      <trkpt lat="49.16746" lon="1.73928">
        <ele>146</ele>
        <time>2024-02-05T09:51:22.652+00:00</time>
      </trkpt>
      <trkpt lat="49.16743" lon="1.73922">
        <ele>146</ele>
        <time>2024-02-05T09:51:26.671+00:00</time>
      </trkpt>
      <trkpt lat="49.16742" lon="1.73909">
        <ele>146</ele>
        <time>2024-02-05T09:51:31.433+00:00</time>
      </trkpt>
      <trkpt lat="49.16737" lon="1.73905">
        <ele>146</ele>
        <time>2024-02-05T09:51:35.654+00:00</time>
      </trkpt>
      <trkpt lat="49.16738" lon="1.73905">
        <ele>146</ele>
        <time>2024-02-05T09:51:40.447+00:00</time>
      </trkpt>
      <trkpt lat="49.16737" lon="1.73904">
        <ele>146</ele>
        <time>2024-02-05T09:51:44.666+00:00</time>
      </trkpt>
      <trkpt lat="49.16737" lon="1.73901">
        <ele>147</ele>
        <time>2024-02-05T09:51:49.109+00:00</time>
      </trkpt>
      <trkpt lat="49.16737" lon="1.73889">
        <ele>147</ele>
        <time>2024-02-05T09:51:53.652+00:00</time>
      </trkpt>
      <trkpt lat="49.16736" lon="1.73881">
        <ele>144</ele>
        <time>2024-02-05T09:51:57.974+00:00</time>
      </trkpt>
      <trkpt lat="49.16735" lon="1.73874">
        <ele>145</ele>
        <time>2024-02-05T09:52:02.188+00:00</time>
      </trkpt>
      <trkpt lat="49.16732" lon="1.73866">
        <ele>145</ele>
        <time>2024-02-05T09:52:06.573+00:00</time>
      </trkpt>
      <trkpt lat="49.16731" lon="1.73859">
        <ele>145</ele>
        <time>2024-02-05T09:52:10.648+00:00</time>
      </trkpt>
      <trkpt lat="49.16729" lon="1.73854">
        <ele>145</ele>
        <time>2024-02-05T09:52:15.194+00:00</time>
      </trkpt>
      <trkpt lat="49.16724" lon="1.73846">
        <ele>146</ele>
        <time>2024-02-05T09:52:19.434+00:00</time>
      </trkpt>
      <trkpt lat="49.16722" lon="1.73839">
        <ele>146</ele>
        <time>2024-02-05T09:52:23.650+00:00</time>
      </trkpt>
      <trkpt lat="49.16721" lon="1.73832">
        <ele>146</ele>
        <time>2024-02-05T09:52:27.889+00:00</time>
      </trkpt>
      <trkpt lat="49.16722" lon="1.73824">
        <ele>146</ele>
        <time>2024-02-05T09:52:32.334+00:00</time>
      </trkpt>
      <trkpt lat="49.16723" lon="1.73817">
        <ele>148</ele>
        <time>2024-02-05T09:52:36.669+00:00</time>
      </trkpt>
      <trkpt lat="49.16721" lon="1.73812">
        <ele>148</ele>
        <time>2024-02-05T09:52:41.490+00:00</time>
      </trkpt>
      <trkpt lat="49.16722" lon="1.73806">
        <ele>148</ele>
        <time>2024-02-05T09:52:45.651+00:00</time>
      </trkpt>
      <trkpt lat="49.16725" lon="1.73801">
        <ele>148</ele>
        <time>2024-02-05T09:52:50.343+00:00</time>
      </trkpt>
      <trkpt lat="49.16728" lon="1.73794">
        <ele>148</ele>
        <time>2024-02-05T09:52:54.556+00:00</time>
      </trkpt>
      <trkpt lat="49.16732" lon="1.73789">
        <ele>149</ele>
        <time>2024-02-05T09:52:58.655+00:00</time>
      </trkpt>
      <trkpt lat="49.16735" lon="1.73782">
        <ele>149</ele>
        <time>2024-02-05T09:53:03.130+00:00</time>
      </trkpt>
      <trkpt lat="49.16735" lon="1.73774">
        <ele>149</ele>
        <time>2024-02-05T09:53:07.471+00:00</time>
      </trkpt>
      <trkpt lat="49.16737" lon="1.73767">
        <ele>153</ele>
        <time>2024-02-05T09:53:11.656+00:00</time>
      </trkpt>
      <trkpt lat="49.16739" lon="1.7376">
        <ele>154</ele>
        <time>2024-02-05T09:53:15.868+00:00</time>
      </trkpt>
      <trkpt lat="49.1674" lon="1.73753">
        <ele>154</ele>
        <time>2024-02-05T09:53:20.195+00:00</time>
      </trkpt>
      <trkpt lat="49.16739" lon="1.73746">
        <ele>154</ele>
        <time>2024-02-05T09:53:24.573+00:00</time>
      </trkpt>
      <trkpt lat="49.16739" lon="1.73741">
        <ele>154</ele>
        <time>2024-02-05T09:53:28.777+00:00</time>
      </trkpt>
      <trkpt lat="49.1674" lon="1.73734">
        <ele>156</ele>
        <time>2024-02-05T09:53:33.371+00:00</time>
      </trkpt>
      <trkpt lat="49.16741" lon="1.73727">
        <ele>156</ele>
        <time>2024-02-05T09:53:37.658+00:00</time>
      </trkpt>
      <trkpt lat="49.16741" lon="1.73721">
        <ele>156</ele>
        <time>2024-02-05T09:53:42.173+00:00</time>
      </trkpt>
      <trkpt lat="49.16739" lon="1.73714">
        <ele>156</ele>
        <time>2024-02-05T09:53:46.645+00:00</time>
      </trkpt>
      <trkpt lat="49.16735" lon="1.73708">
        <ele>155</ele>
        <time>2024-02-05T09:53:51.333+00:00</time>
      </trkpt>
      <trkpt lat="49.16732" lon="1.73701">
        <ele>155</ele>
        <time>2024-02-05T09:53:56.466+00:00</time>
      </trkpt>
      <trkpt lat="49.16728" lon="1.73695">
        <ele>155</ele>
        <time>2024-02-05T09:54:01.431+00:00</time>
      </trkpt>
      <trkpt lat="49.16724" lon="1.7369">
        <ele>155</ele>
        <time>2024-02-05T09:54:06.431+00:00</time>
      </trkpt>
      <trkpt lat="49.1672" lon="1.73684">
        <ele>155</ele>
        <time>2024-02-05T09:54:10.691+00:00</time>
      </trkpt>
      <trkpt lat="49.16718" lon="1.73676">
        <ele>156</ele>
        <time>2024-02-05T09:54:15.417+00:00</time>
      </trkpt>
      <trkpt lat="49.16716" lon="1.73668">
        <ele>156</ele>
        <time>2024-02-05T09:54:19.689+00:00</time>
      </trkpt>
      <trkpt lat="49.16712" lon="1.7366">
        <ele>156</ele>
        <time>2024-02-05T09:54:24.465+00:00</time>
      </trkpt>
      <trkpt lat="49.16709" lon="1.73653">
        <ele>156</ele>
        <time>2024-02-05T09:54:28.696+00:00</time>
      </trkpt>
      <trkpt lat="49.16707" lon="1.73648">
        <ele>158</ele>
        <time>2024-02-05T09:54:32.870+00:00</time>
      </trkpt>
      <trkpt lat="49.16705" lon="1.73642">
        <ele>158</ele>
        <time>2024-02-05T09:54:37.257+00:00</time>
      </trkpt>
      <trkpt lat="49.16702" lon="1.73635">
        <ele>158</ele>
        <time>2024-02-05T09:54:41.679+00:00</time>
      </trkpt>
      <trkpt lat="49.16699" lon="1.73629">
        <ele>158</ele>
        <time>2024-02-05T09:54:45.696+00:00</time>
      </trkpt>
      <trkpt lat="49.16697" lon="1.73622">
        <ele>159</ele>
        <time>2024-02-05T09:54:50.329+00:00</time>
      </trkpt>
      <trkpt lat="49.16694" lon="1.73618">
        <ele>159</ele>
        <time>2024-02-05T09:54:54.377+00:00</time>
      </trkpt>
      <trkpt lat="49.16692" lon="1.73612">
        <ele>159</ele>
        <time>2024-02-05T09:54:58.972+00:00</time>
      </trkpt>
      <trkpt lat="49.16688" lon="1.73607">
        <ele>159</ele>
        <time>2024-02-05T09:55:03.458+00:00</time>
      </trkpt>
      <trkpt lat="49.16684" lon="1.73602">
        <ele>159</ele>
        <time>2024-02-05T09:55:07.687+00:00</time>
      </trkpt>
      <trkpt lat="49.16679" lon="1.73598">
        <ele>159</ele>
        <time>2024-02-05T09:55:12.226+00:00</time>
      </trkpt>
      <trkpt lat="49.16675" lon="1.73593">
        <ele>160</ele>
        <time>2024-02-05T09:55:16.546+00:00</time>
      </trkpt>
      <trkpt lat="49.16672" lon="1.73587">
        <ele>160</ele>
        <time>2024-02-05T09:55:20.608+00:00</time>
      </trkpt>
      <trkpt lat="49.16668" lon="1.73584">
        <ele>160</ele>
        <time>2024-02-05T09:55:24.813+00:00</time>
      </trkpt>
      <trkpt lat="49.16664" lon="1.7358">
        <ele>160</ele>
        <time>2024-02-05T09:55:28.831+00:00</time>
      </trkpt>
      <trkpt lat="49.16658" lon="1.7357">
        <ele>160</ele>
        <time>2024-02-05T09:56:00.691+00:00</time>
      </trkpt>
      <trkpt lat="49.16659" lon="1.7357">
        <ele>160</ele>
        <time>2024-02-05T09:56:05.685+00:00</time>
      </trkpt>
      <trkpt lat="49.1666" lon="1.7357">
        <ele>160</ele>
        <time>2024-02-05T09:56:10.688+00:00</time>
      </trkpt>
      <trkpt lat="49.16661" lon="1.73567">
        <ele>161</ele>
        <time>2024-02-05T09:56:15.682+00:00</time>
      </trkpt>
      <trkpt lat="49.1666" lon="1.73563">
        <ele>161</ele>
        <time>2024-02-05T09:56:19.687+00:00</time>
      </trkpt>
      <trkpt lat="49.16658" lon="1.7356">
        <ele>161</ele>
        <time>2024-02-05T10:02:35.693+00:00</time>
      </trkpt>
      <trkpt lat="49.16655" lon="1.73566">
        <ele>161</ele>
        <time>2024-02-05T10:02:40.656+00:00</time>
      </trkpt>
      <trkpt lat="49.16655" lon="1.73575">
        <ele>160</ele>
        <time>2024-02-05T10:02:44.657+00:00</time>
      </trkpt>
      <trkpt lat="49.16656" lon="1.73579">
        <ele>160</ele>
        <time>2024-02-05T10:02:48.843+00:00</time>
      </trkpt>
      <trkpt lat="49.16655" lon="1.7358">
        <ele>160</ele>
        <time>2024-02-05T10:02:53.654+00:00</time>
      </trkpt>
      <trkpt lat="49.16642" lon="1.73568">
        <ele>163</ele>
        <time>2024-02-05T10:03:17.126+00:00</time>
      </trkpt>
      <trkpt lat="49.16644" lon="1.73561">
        <ele>163</ele>
        <time>2024-02-05T10:03:21.124+00:00</time>
      </trkpt>
      <trkpt lat="49.1665" lon="1.73555">
        <ele>163</ele>
        <time>2024-02-05T10:03:25.541+00:00</time>
      </trkpt>
      <trkpt lat="49.16655" lon="1.73555">
        <ele>161</ele>
        <time>2024-02-05T10:03:30.347+00:00</time>
      </trkpt>
      <trkpt lat="49.16657" lon="1.73554">
        <ele>161</ele>
        <time>2024-02-05T10:03:34.654+00:00</time>
      </trkpt>
      <trkpt lat="49.16662" lon="1.73556">
        <ele>161</ele>
        <time>2024-02-05T10:11:08.704+00:00</time>
      </trkpt>
      <trkpt lat="49.16665" lon="1.73551">
        <ele>161</ele>
        <time>2024-02-05T10:11:13.704+00:00</time>
      </trkpt>
      <trkpt lat="49.16666" lon="1.73547">
        <ele>161</ele>
        <time>2024-02-05T10:11:18.284+00:00</time>
      </trkpt>
      <trkpt lat="49.16668" lon="1.73541">
        <ele>162</ele>
        <time>2024-02-05T10:11:22.571+00:00</time>
      </trkpt>
      <trkpt lat="49.16671" lon="1.73536">
        <ele>162</ele>
        <time>2024-02-05T10:11:27.130+00:00</time>
      </trkpt>
      <trkpt lat="49.16673" lon="1.73529">
        <ele>162</ele>
        <time>2024-02-05T10:11:31.589+00:00</time>
      </trkpt>
      <trkpt lat="49.16675" lon="1.73525">
        <ele>162</ele>
        <time>2024-02-05T10:11:35.685+00:00</time>
      </trkpt>
      <trkpt lat="49.16678" lon="1.73519">
        <ele>162</ele>
        <time>2024-02-05T10:11:39.849+00:00</time>
      </trkpt>
      <trkpt lat="49.16681" lon="1.73512">
        <ele>163</ele>
        <time>2024-02-05T10:11:44.409+00:00</time>
      </trkpt>
      <trkpt lat="49.16684" lon="1.73506">
        <ele>163</ele>
        <time>2024-02-05T10:11:48.868+00:00</time>
      </trkpt>
      <trkpt lat="49.16687" lon="1.735">
        <ele>163</ele>
        <time>2024-02-05T10:11:53.347+00:00</time>
      </trkpt>
      <trkpt lat="49.1669" lon="1.73493">
        <ele>163</ele>
        <time>2024-02-05T10:11:57.828+00:00</time>
      </trkpt>
      <trkpt lat="49.16693" lon="1.73487">
        <ele>163</ele>
        <time>2024-02-05T10:12:02.271+00:00</time>
      </trkpt>
      <trkpt lat="49.16696" lon="1.73482">
        <ele>163</ele>
        <time>2024-02-05T10:12:06.689+00:00</time>
      </trkpt>
      <trkpt lat="49.16699" lon="1.73475">
        <ele>163</ele>
        <time>2024-02-05T10:12:11.225+00:00</time>
      </trkpt>
      <trkpt lat="49.16702" lon="1.7347">
        <ele>163</ele>
        <time>2024-02-05T10:12:15.284+00:00</time>
      </trkpt>
      <trkpt lat="49.16706" lon="1.73464">
        <ele>163</ele>
        <time>2024-02-05T10:12:19.693+00:00</time>
      </trkpt>
      <trkpt lat="49.16709" lon="1.73457">
        <ele>163</ele>
        <time>2024-02-05T10:12:23.825+00:00</time>
      </trkpt>
      <trkpt lat="49.16713" lon="1.73451">
        <ele>163</ele>
        <time>2024-02-05T10:12:27.864+00:00</time>
      </trkpt>
      <trkpt lat="49.16717" lon="1.73445">
        <ele>163</ele>
        <time>2024-02-05T10:12:32.063+00:00</time>
      </trkpt>
      <trkpt lat="49.1672" lon="1.73438">
        <ele>163</ele>
        <time>2024-02-05T10:12:36.284+00:00</time>
      </trkpt>
      <trkpt lat="49.16723" lon="1.73431">
        <ele>163</ele>
        <time>2024-02-05T10:12:40.483+00:00</time>
      </trkpt>
      <trkpt lat="49.16726" lon="1.73426">
        <ele>163</ele>
        <time>2024-02-05T10:12:44.694+00:00</time>
      </trkpt>
      <trkpt lat="49.16729" lon="1.73419">
        <ele>163</ele>
        <time>2024-02-05T10:12:49.382+00:00</time>
      </trkpt>
      <trkpt lat="49.16733" lon="1.73413">
        <ele>163</ele>
        <time>2024-02-05T10:12:53.911+00:00</time>
      </trkpt>
      <trkpt lat="49.16735" lon="1.73407">
        <ele>163</ele>
        <time>2024-02-05T10:12:58.482+00:00</time>
      </trkpt>
      <trkpt lat="49.16739" lon="1.73401">
        <ele>162</ele>
        <time>2024-02-05T10:13:02.544+00:00</time>
      </trkpt>
      <trkpt lat="49.16742" lon="1.73396">
        <ele>162</ele>
        <time>2024-02-05T10:13:07.023+00:00</time>
      </trkpt>
      <trkpt lat="49.16744" lon="1.73388">
        <ele>162</ele>
        <time>2024-02-05T10:13:11.362+00:00</time>
      </trkpt>
      <trkpt lat="49.16747" lon="1.73382">
        <ele>162</ele>
        <time>2024-02-05T10:13:15.542+00:00</time>
      </trkpt>
      <trkpt lat="49.1675" lon="1.73376">
        <ele>162</ele>
        <time>2024-02-05T10:13:19.692+00:00</time>
      </trkpt>
      <trkpt lat="49.16753" lon="1.73371">
        <ele>162</ele>
        <time>2024-02-05T10:13:23.714+00:00</time>
      </trkpt>
      <trkpt lat="49.16756" lon="1.73364">
        <ele>162</ele>
        <time>2024-02-05T10:13:28.410+00:00</time>
      </trkpt>
      <trkpt lat="49.16759" lon="1.73359">
        <ele>162</ele>
        <time>2024-02-05T10:13:32.849+00:00</time>
      </trkpt>
      <trkpt lat="49.16763" lon="1.73353">
        <ele>162</ele>
        <time>2024-02-05T10:13:37.552+00:00</time>
      </trkpt>
      <trkpt lat="49.16766" lon="1.73347">
        <ele>161</ele>
        <time>2024-02-05T10:13:42.008+00:00</time>
      </trkpt>
      <trkpt lat="49.16769" lon="1.73341">
        <ele>161</ele>
        <time>2024-02-05T10:13:46.387+00:00</time>
      </trkpt>
      <trkpt lat="49.16772" lon="1.73335">
        <ele>161</ele>
        <time>2024-02-05T10:13:50.700+00:00</time>
      </trkpt>
      <trkpt lat="49.16775" lon="1.73329">
        <ele>161</ele>
        <time>2024-02-05T10:13:55.246+00:00</time>
      </trkpt>
      <trkpt lat="49.16779" lon="1.73322">
        <ele>161</ele>
        <time>2024-02-05T10:13:59.604+00:00</time>
      </trkpt>
      <trkpt lat="49.16782" lon="1.73315">
        <ele>161</ele>
        <time>2024-02-05T10:14:04.201+00:00</time>
      </trkpt>
      <trkpt lat="49.16786" lon="1.73309">
        <ele>161</ele>
        <time>2024-02-05T10:14:08.691+00:00</time>
      </trkpt>
      <trkpt lat="49.16789" lon="1.73303">
        <ele>161</ele>
        <time>2024-02-05T10:14:13.156+00:00</time>
      </trkpt>
      <trkpt lat="49.16793" lon="1.73297">
        <ele>158</ele>
        <time>2024-02-05T10:14:17.265+00:00</time>
      </trkpt>
      <trkpt lat="49.16796" lon="1.73293">
        <ele>158</ele>
        <time>2024-02-05T10:14:21.305+00:00</time>
      </trkpt>
      <trkpt lat="49.16799" lon="1.73286">
        <ele>158</ele>
        <time>2024-02-05T10:14:25.884+00:00</time>
      </trkpt>
      <trkpt lat="49.16802" lon="1.7328">
        <ele>158</ele>
        <time>2024-02-05T10:14:30.510+00:00</time>
      </trkpt>
      <trkpt lat="49.16804" lon="1.73274">
        <ele>158</ele>
        <time>2024-02-05T10:14:35.028+00:00</time>
      </trkpt>
      <trkpt lat="49.16807" lon="1.73268">
        <ele>158</ele>
        <time>2024-02-05T10:14:39.506+00:00</time>
      </trkpt>
      <trkpt lat="49.1681" lon="1.73262">
        <ele>158</ele>
        <time>2024-02-05T10:14:44.084+00:00</time>
      </trkpt>
      <trkpt lat="49.16814" lon="1.73255">
        <ele>158</ele>
        <time>2024-02-05T10:14:48.622+00:00</time>
      </trkpt>
      <trkpt lat="49.16818" lon="1.7325">
        <ele>158</ele>
        <time>2024-02-05T10:14:53.131+00:00</time>
      </trkpt>
      <trkpt lat="49.16821" lon="1.73244">
        <ele>155</ele>
        <time>2024-02-05T10:14:57.208+00:00</time>
      </trkpt>
      <trkpt lat="49.16825" lon="1.73238">
        <ele>155</ele>
        <time>2024-02-05T10:15:06.692+00:00</time>
      </trkpt>
      <trkpt lat="49.16827" lon="1.73241">
        <ele>155</ele>
        <time>2024-02-05T10:15:11.250+00:00</time>
      </trkpt>
      <trkpt lat="49.16828" lon="1.73242">
        <ele>155</ele>
        <time>2024-02-05T10:15:15.677+00:00</time>
      </trkpt>
      <trkpt lat="49.16829" lon="1.73242">
        <ele>155</ele>
        <time>2024-02-05T10:15:20.683+00:00</time>
      </trkpt>
      <trkpt lat="49.16833" lon="1.73239">
        <ele>155</ele>
        <time>2024-02-05T10:15:25.550+00:00</time>
      </trkpt>
      <trkpt lat="49.1684" lon="1.73247">
        <ele>155</ele>
        <time>2024-02-05T10:15:34.572+00:00</time>
      </trkpt>
      <trkpt lat="49.16843" lon="1.73242">
        <ele>155</ele>
        <time>2024-02-05T10:15:38.713+00:00</time>
      </trkpt>
      <trkpt lat="49.16843" lon="1.73238">
        <ele>155</ele>
        <time>2024-02-05T10:15:43.697+00:00</time>
      </trkpt>
      <trkpt lat="49.16843" lon="1.73234">
        <ele>154</ele>
        <time>2024-02-05T10:15:48.150+00:00</time>
      </trkpt>
      <trkpt lat="49.16843" lon="1.73229">
        <ele>154</ele>
        <time>2024-02-05T10:15:52.550+00:00</time>
      </trkpt>
      <trkpt lat="49.16844" lon="1.73224">
        <ele>154</ele>
        <time>2024-02-05T10:15:56.630+00:00</time>
      </trkpt>
      <trkpt lat="49.16845" lon="1.7322">
        <ele>154</ele>
        <time>2024-02-05T10:16:01.121+00:00</time>
      </trkpt>
      <trkpt lat="49.16846" lon="1.73214">
        <ele>154</ele>
        <time>2024-02-05T10:16:05.482+00:00</time>
      </trkpt>
      <trkpt lat="49.16846" lon="1.73209">
        <ele>154</ele>
        <time>2024-02-05T10:16:09.582+00:00</time>
      </trkpt>
      <trkpt lat="49.16846" lon="1.73202">
        <ele>152</ele>
        <time>2024-02-05T10:16:13.784+00:00</time>
      </trkpt>
      <trkpt lat="49.16847" lon="1.73194">
        <ele>152</ele>
        <time>2024-02-05T10:16:18.325+00:00</time>
      </trkpt>
      <trkpt lat="49.16846" lon="1.73185">
        <ele>152</ele>
        <time>2024-02-05T10:16:22.565+00:00</time>
      </trkpt>
      <trkpt lat="49.16846" lon="1.73179">
        <ele>150</ele>
        <time>2024-02-05T10:16:27.108+00:00</time>
      </trkpt>
      <trkpt lat="49.16845" lon="1.73173">
        <ele>150</ele>
        <time>2024-02-05T10:16:31.455+00:00</time>
      </trkpt>
      <trkpt lat="49.16844" lon="1.73167">
        <ele>150</ele>
        <time>2024-02-05T10:16:35.667+00:00</time>
      </trkpt>
      <trkpt lat="49.16845" lon="1.7316">
        <ele>150</ele>
        <time>2024-02-05T10:16:40.227+00:00</time>
      </trkpt>
      <trkpt lat="49.16846" lon="1.73152">
        <ele>149</ele>
        <time>2024-02-05T10:16:44.689+00:00</time>
      </trkpt>
      <trkpt lat="49.16846" lon="1.73144">
        <ele>149</ele>
        <time>2024-02-05T10:16:48.968+00:00</time>
      </trkpt>
      <trkpt lat="49.16846" lon="1.73137">
        <ele>149</ele>
        <time>2024-02-05T10:16:53.029+00:00</time>
      </trkpt>
      <trkpt lat="49.16846" lon="1.73129">
        <ele>149</ele>
        <time>2024-02-05T10:16:57.209+00:00</time>
      </trkpt>
      <trkpt lat="49.16847" lon="1.73121">
        <ele>147</ele>
        <time>2024-02-05T10:17:01.687+00:00</time>
      </trkpt>
      <trkpt lat="49.16848" lon="1.73112">
        <ele>144</ele>
        <time>2024-02-05T10:17:06.068+00:00</time>
      </trkpt>
      <trkpt lat="49.16848" lon="1.73105">
        <ele>144</ele>
        <time>2024-02-05T10:17:10.629+00:00</time>
      </trkpt>
      <trkpt lat="49.16849" lon="1.73099">
        <ele>144</ele>
        <time>2024-02-05T10:17:15.110+00:00</time>
      </trkpt>
      <trkpt lat="49.1685" lon="1.73095">
        <ele>142</ele>
        <time>2024-02-05T10:17:19.470+00:00</time>
      </trkpt>
      <trkpt lat="49.16852" lon="1.73093">
        <ele>142</ele>
        <time>2024-02-05T10:17:23.652+00:00</time>
      </trkpt>
      <trkpt lat="49.16855" lon="1.73085">
        <ele>142</ele>
        <time>2024-02-05T10:17:28.252+00:00</time>
      </trkpt>
      <trkpt lat="49.16858" lon="1.73079">
        <ele>142</ele>
        <time>2024-02-05T10:17:32.500+00:00</time>
      </trkpt>
      <trkpt lat="49.1686" lon="1.73071">
        <ele>142</ele>
        <time>2024-02-05T10:17:36.954+00:00</time>
      </trkpt>
      <trkpt lat="49.16861" lon="1.73062">
        <ele>141</ele>
        <time>2024-02-05T10:17:41.513+00:00</time>
      </trkpt>
      <trkpt lat="49.16862" lon="1.73056">
        <ele>141</ele>
        <time>2024-02-05T10:17:45.813+00:00</time>
      </trkpt>
      <trkpt lat="49.16864" lon="1.73048">
        <ele>141</ele>
        <time>2024-02-05T10:17:50.196+00:00</time>
      </trkpt>
      <trkpt lat="49.16867" lon="1.73043">
        <ele>141</ele>
        <time>2024-02-05T10:17:54.639+00:00</time>
      </trkpt>
      <trkpt lat="49.16867" lon="1.73035">
        <ele>140</ele>
        <time>2024-02-05T10:17:59.067+00:00</time>
      </trkpt>
      <trkpt lat="49.16867" lon="1.73027">
        <ele>140</ele>
        <time>2024-02-05T10:18:03.267+00:00</time>
      </trkpt>
      <trkpt lat="49.16867" lon="1.73021">
        <ele>140</ele>
        <time>2024-02-05T10:18:07.368+00:00</time>
      </trkpt>
      <trkpt lat="49.16867" lon="1.73015">
        <ele>140</ele>
        <time>2024-02-05T10:18:11.426+00:00</time>
      </trkpt>
      <trkpt lat="49.16867" lon="1.73008">
        <ele>137</ele>
        <time>2024-02-05T10:18:15.687+00:00</time>
      </trkpt>
      <trkpt lat="49.16869" lon="1.73003">
        <ele>137</ele>
        <time>2024-02-05T10:18:19.725+00:00</time>
      </trkpt>
      <trkpt lat="49.1687" lon="1.72995">
        <ele>137</ele>
        <time>2024-02-05T10:18:24.406+00:00</time>
      </trkpt>
      <trkpt lat="49.16871" lon="1.72987">
        <ele>137</ele>
        <time>2024-02-05T10:18:28.717+00:00</time>
      </trkpt>
      <trkpt lat="49.16871" lon="1.7298">
        <ele>134</ele>
        <time>2024-02-05T10:18:32.735+00:00</time>
      </trkpt>
      <trkpt lat="49.16871" lon="1.72971">
        <ele>134</ele>
        <time>2024-02-05T10:18:37.017+00:00</time>
      </trkpt>
      <trkpt lat="49.16871" lon="1.72961">
        <ele>134</ele>
        <time>2024-02-05T10:18:41.380+00:00</time>
      </trkpt>
      <trkpt lat="49.1687" lon="1.72951">
        <ele>133</ele>
        <time>2024-02-05T10:18:45.856+00:00</time>
      </trkpt>
      <trkpt lat="49.1687" lon="1.72942">
        <ele>133</ele>
        <time>2024-02-05T10:18:50.216+00:00</time>
      </trkpt>
      <trkpt lat="49.16869" lon="1.72932">
        <ele>133</ele>
        <time>2024-02-05T10:18:54.506+00:00</time>
      </trkpt>
      <trkpt lat="49.1687" lon="1.72923">
        <ele>132</ele>
        <time>2024-02-05T10:18:58.709+00:00</time>
      </trkpt>
      <trkpt lat="49.1687" lon="1.72914">
        <ele>132</ele>
        <time>2024-02-05T10:19:03.066+00:00</time>
      </trkpt>
      <trkpt lat="49.16872" lon="1.72902">
        <ele>130</ele>
        <time>2024-02-05T10:19:07.366+00:00</time>
      </trkpt>
      <trkpt lat="49.16873" lon="1.72893">
        <ele>130</ele>
        <time>2024-02-05T10:19:11.486+00:00</time>
      </trkpt>
      <trkpt lat="49.16874" lon="1.72884">
        <ele>130</ele>
        <time>2024-02-05T10:19:15.576+00:00</time>
      </trkpt>
      <trkpt lat="49.16876" lon="1.72877">
        <ele>127</ele>
        <time>2024-02-05T10:19:19.695+00:00</time>
      </trkpt>
      <trkpt lat="49.16877" lon="1.72869">
        <ele>125</ele>
        <time>2024-02-05T10:19:23.713+00:00</time>
      </trkpt>
      <trkpt lat="49.16879" lon="1.72863">
        <ele>125</ele>
        <time>2024-02-05T10:19:28.106+00:00</time>
      </trkpt>
      <trkpt lat="49.16879" lon="1.72859">
        <ele>125</ele>
        <time>2024-02-05T10:19:32.626+00:00</time>
      </trkpt>
      <trkpt lat="49.16882" lon="1.72852">
        <ele>125</ele>
        <time>2024-02-05T10:19:37.068+00:00</time>
      </trkpt>
      <trkpt lat="49.16884" lon="1.72845">
        <ele>122</ele>
        <time>2024-02-05T10:19:41.488+00:00</time>
      </trkpt>
      <trkpt lat="49.16886" lon="1.72837">
        <ele>122</ele>
        <time>2024-02-05T10:19:45.988+00:00</time>
      </trkpt>
      <trkpt lat="49.16889" lon="1.72832">
        <ele>122</ele>
        <time>2024-02-05T10:19:50.210+00:00</time>
      </trkpt>
      <trkpt lat="49.16893" lon="1.72825">
        <ele>122</ele>
        <time>2024-02-05T10:19:54.846+00:00</time>
      </trkpt>
      <trkpt lat="49.16897" lon="1.72818">
        <ele>120</ele>
        <time>2024-02-05T10:19:59.697+00:00</time>
      </trkpt>
      <trkpt lat="49.16901" lon="1.72813">
        <ele>120</ele>
        <time>2024-02-05T10:20:04.226+00:00</time>
      </trkpt>
      <trkpt lat="49.16905" lon="1.72808">
        <ele>117</ele>
        <time>2024-02-05T10:20:08.418+00:00</time>
      </trkpt>
      <trkpt lat="49.16906" lon="1.728">
        <ele>117</ele>
        <time>2024-02-05T10:20:12.726+00:00</time>
      </trkpt>
      <trkpt lat="49.16909" lon="1.72795">
        <ele>117</ele>
        <time>2024-02-05T10:20:16.748+00:00</time>
      </trkpt>
      <trkpt lat="49.16918" lon="1.72793">
        <ele>117</ele>
        <time>2024-02-05T10:20:21.354+00:00</time>
      </trkpt>
      <trkpt lat="49.16923" lon="1.72791">
        <ele>116</ele>
        <time>2024-02-05T10:20:25.702+00:00</time>
      </trkpt>
      <trkpt lat="49.16928" lon="1.72787">
        <ele>116</ele>
        <time>2024-02-05T10:20:30.457+00:00</time>
      </trkpt>
      <trkpt lat="49.16933" lon="1.72782">
        <ele>115</ele>
        <time>2024-02-05T10:20:35.088+00:00</time>
      </trkpt>
      <trkpt lat="49.16937" lon="1.72777">
        <ele>115</ele>
        <time>2024-02-05T10:20:39.568+00:00</time>
      </trkpt>
      <trkpt lat="49.16942" lon="1.72771">
        <ele>115</ele>
        <time>2024-02-05T10:20:44.418+00:00</time>
      </trkpt>
      <trkpt lat="49.16946" lon="1.72765">
        <ele>115</ele>
        <time>2024-02-05T10:20:48.703+00:00</time>
      </trkpt>
      <trkpt lat="49.16951" lon="1.72759">
        <ele>114</ele>
        <time>2024-02-05T10:20:53.210+00:00</time>
      </trkpt>
      <trkpt lat="49.16955" lon="1.72754">
        <ele>114</ele>
        <time>2024-02-05T10:20:57.310+00:00</time>
      </trkpt>
      <trkpt lat="49.1696" lon="1.7275">
        <ele>114</ele>
        <time>2024-02-05T10:21:01.713+00:00</time>
      </trkpt>
      <trkpt lat="49.16965" lon="1.72745">
        <ele>114</ele>
        <time>2024-02-05T10:21:06.109+00:00</time>
      </trkpt>
      <trkpt lat="49.16969" lon="1.72739">
        <ele>114</ele>
        <time>2024-02-05T10:21:10.233+00:00</time>
      </trkpt>
      <trkpt lat="49.16973" lon="1.72734">
        <ele>113</ele>
        <time>2024-02-05T10:21:14.410+00:00</time>
      </trkpt>
      <trkpt lat="49.16977" lon="1.72728">
        <ele>113</ele>
        <time>2024-02-05T10:21:18.509+00:00</time>
      </trkpt>
      <trkpt lat="49.16982" lon="1.72723">
        <ele>113</ele>
        <time>2024-02-05T10:21:22.989+00:00</time>
      </trkpt>
      <trkpt lat="49.16986" lon="1.72717">
        <ele>113</ele>
        <time>2024-02-05T10:21:27.189+00:00</time>
      </trkpt>
      <trkpt lat="49.16991" lon="1.72712">
        <ele>113</ele>
        <time>2024-02-05T10:21:31.450+00:00</time>
      </trkpt>
      <trkpt lat="49.16994" lon="1.72706">
        <ele>113</ele>
        <time>2024-02-05T10:21:35.829+00:00</time>
      </trkpt>
      <trkpt lat="49.16997" lon="1.72699">
        <ele>113</ele>
        <time>2024-02-05T10:21:39.969+00:00</time>
      </trkpt>
      <trkpt lat="49.17001" lon="1.72691">
        <ele>113</ele>
        <time>2024-02-05T10:21:44.487+00:00</time>
      </trkpt>
      <trkpt lat="49.17004" lon="1.72683">
        <ele>113</ele>
        <time>2024-02-05T10:21:48.767+00:00</time>
      </trkpt>
      <trkpt lat="49.17007" lon="1.72674">
        <ele>112</ele>
        <time>2024-02-05T10:21:53.547+00:00</time>
      </trkpt>
      <trkpt lat="49.17011" lon="1.72666">
        <ele>112</ele>
        <time>2024-02-05T10:21:57.975+00:00</time>
      </trkpt>
      <trkpt lat="49.17014" lon="1.72658">
        <ele>112</ele>
        <time>2024-02-05T10:22:02.335+00:00</time>
      </trkpt>
      <trkpt lat="49.17017" lon="1.7265">
        <ele>112</ele>
        <time>2024-02-05T10:22:06.628+00:00</time>
      </trkpt>
      <trkpt lat="49.1702" lon="1.72643">
        <ele>112</ele>
        <time>2024-02-05T10:22:11.090+00:00</time>
      </trkpt>
      <trkpt lat="49.17023" lon="1.72636">
        <ele>112</ele>
        <time>2024-02-05T10:22:15.438+00:00</time>
      </trkpt>
      <trkpt lat="49.17026" lon="1.72627">
        <ele>112</ele>
        <time>2024-02-05T10:22:19.749+00:00</time>
      </trkpt>
      <trkpt lat="49.17029" lon="1.72621">
        <ele>112</ele>
        <time>2024-02-05T10:22:23.947+00:00</time>
      </trkpt>
      <trkpt lat="49.17032" lon="1.72614">
        <ele>112</ele>
        <time>2024-02-05T10:22:28.206+00:00</time>
      </trkpt>
      <trkpt lat="49.17035" lon="1.72607">
        <ele>112</ele>
        <time>2024-02-05T10:22:32.312+00:00</time>
      </trkpt>
      <trkpt lat="49.17037" lon="1.72599">
        <ele>112</ele>
        <time>2024-02-05T10:22:36.706+00:00</time>
      </trkpt>
      <trkpt lat="49.1704" lon="1.72592">
        <ele>112</ele>
        <time>2024-02-05T10:22:41.046+00:00</time>
      </trkpt>
      <trkpt lat="49.17043" lon="1.72585">
        <ele>113</ele>
        <time>2024-02-05T10:22:45.476+00:00</time>
      </trkpt>
      <trkpt lat="49.17045" lon="1.72577">
        <ele>113</ele>
        <time>2024-02-05T10:22:49.702+00:00</time>
      </trkpt>
      <trkpt lat="49.17048" lon="1.7257">
        <ele>113</ele>
        <time>2024-02-05T10:22:54.209+00:00</time>
      </trkpt>
      <trkpt lat="49.17051" lon="1.72563">
        <ele>113</ele>
        <time>2024-02-05T10:22:58.673+00:00</time>
      </trkpt>
      <trkpt lat="49.17053" lon="1.72555">
        <ele>113</ele>
        <time>2024-02-05T10:23:03.187+00:00</time>
      </trkpt>
      <trkpt lat="49.17055" lon="1.72548">
        <ele>113</ele>
        <time>2024-02-05T10:23:07.547+00:00</time>
      </trkpt>
      <trkpt lat="49.17058" lon="1.72541">
        <ele>114</ele>
        <time>2024-02-05T10:23:11.627+00:00</time>
      </trkpt>
      <trkpt lat="49.17061" lon="1.72533">
        <ele>114</ele>
        <time>2024-02-05T10:23:16.047+00:00</time>
      </trkpt>
      <trkpt lat="49.17063" lon="1.72527">
        <ele>114</ele>
        <time>2024-02-05T10:23:20.147+00:00</time>
      </trkpt>
      <trkpt lat="49.17066" lon="1.7252">
        <ele>114</ele>
        <time>2024-02-05T10:23:24.314+00:00</time>
      </trkpt>
      <trkpt lat="49.17069" lon="1.72512">
        <ele>115</ele>
        <time>2024-02-05T10:23:28.482+00:00</time>
      </trkpt>
      <trkpt lat="49.17072" lon="1.72505">
        <ele>117</ele>
        <time>2024-02-05T10:23:33.038+00:00</time>
      </trkpt>
      <trkpt lat="49.17074" lon="1.72497">
        <ele>117</ele>
        <time>2024-02-05T10:23:37.494+00:00</time>
      </trkpt>
      <trkpt lat="49.17077" lon="1.7249">
        <ele>117</ele>
        <time>2024-02-05T10:23:41.613+00:00</time>
      </trkpt>
      <trkpt lat="49.17079" lon="1.72482">
        <ele>117</ele>
        <time>2024-02-05T10:23:45.731+00:00</time>
      </trkpt>
      <trkpt lat="49.17082" lon="1.72475">
        <ele>117</ele>
        <time>2024-02-05T10:23:50.033+00:00</time>
      </trkpt>
      <trkpt lat="49.17085" lon="1.72469">
        <ele>117</ele>
        <time>2024-02-05T10:23:54.333+00:00</time>
      </trkpt>
      <trkpt lat="49.17088" lon="1.72461">
        <ele>117</ele>
        <time>2024-02-05T10:23:58.724+00:00</time>
      </trkpt>
      <trkpt lat="49.1709" lon="1.72454">
        <ele>118</ele>
        <time>2024-02-05T10:24:03.136+00:00</time>
      </trkpt>
      <trkpt lat="49.17093" lon="1.72445">
        <ele>118</ele>
        <time>2024-02-05T10:24:07.692+00:00</time>
      </trkpt>
      <trkpt lat="49.17096" lon="1.72441">
        <ele>118</ele>
        <time>2024-02-05T10:24:12.192+00:00</time>
      </trkpt>
      <trkpt lat="49.17098" lon="1.72435">
        <ele>117</ele>
        <time>2024-02-05T10:24:16.195+00:00</time>
      </trkpt>
      <trkpt lat="49.17101" lon="1.7243">
        <ele>119</ele>
        <time>2024-02-05T10:24:20.293+00:00</time>
      </trkpt>
      <trkpt lat="49.17104" lon="1.72426">
        <ele>119</ele>
        <time>2024-02-05T10:24:24.843+00:00</time>
      </trkpt>
      <trkpt lat="49.17106" lon="1.72419">
        <ele>119</ele>
        <time>2024-02-05T10:24:29.505+00:00</time>
      </trkpt>
      <trkpt lat="49.17108" lon="1.72414">
        <ele>119</ele>
        <time>2024-02-05T10:24:33.688+00:00</time>
      </trkpt>
      <trkpt lat="49.17109" lon="1.72407">
        <ele>119</ele>
        <time>2024-02-05T10:24:37.723+00:00</time>
      </trkpt>
      <trkpt lat="49.17111" lon="1.724">
        <ele>121</ele>
        <time>2024-02-05T10:24:42.549+00:00</time>
      </trkpt>
      <trkpt lat="49.17112" lon="1.72394">
        <ele>121</ele>
        <time>2024-02-05T10:24:46.681+00:00</time>
      </trkpt>
      <trkpt lat="49.17114" lon="1.72388">
        <ele>121</ele>
        <time>2024-02-05T10:24:51.178+00:00</time>
      </trkpt>
      <trkpt lat="49.17115" lon="1.72383">
        <ele>121</ele>
        <time>2024-02-05T10:24:55.575+00:00</time>
      </trkpt>
      <trkpt lat="49.17117" lon="1.72378">
        <ele>121</ele>
        <time>2024-02-05T10:24:59.887+00:00</time>
      </trkpt>
      <trkpt lat="49.17118" lon="1.72372">
        <ele>125</ele>
        <time>2024-02-05T10:25:04.150+00:00</time>
      </trkpt>
      <trkpt lat="49.17119" lon="1.72366">
        <ele>125</ele>
        <time>2024-02-05T10:25:08.288+00:00</time>
      </trkpt>
      <trkpt lat="49.17121" lon="1.72361">
        <ele>125</ele>
        <time>2024-02-05T10:25:12.476+00:00</time>
      </trkpt>
      <trkpt lat="49.17123" lon="1.72354">
        <ele>125</ele>
        <time>2024-02-05T10:25:17.051+00:00</time>
      </trkpt>
      <trkpt lat="49.17124" lon="1.72348">
        <ele>125</ele>
        <time>2024-02-05T10:25:21.695+00:00</time>
      </trkpt>
      <trkpt lat="49.17125" lon="1.72343">
        <ele>128</ele>
        <time>2024-02-05T10:25:25.714+00:00</time>
      </trkpt>
      <trkpt lat="49.17127" lon="1.72336">
        <ele>132</ele>
        <time>2024-02-05T10:25:30.506+00:00</time>
      </trkpt>
      <trkpt lat="49.17129" lon="1.72331">
        <ele>132</ele>
        <time>2024-02-05T10:25:34.511+00:00</time>
      </trkpt>
      <trkpt lat="49.17131" lon="1.72327">
        <ele>132</ele>
        <time>2024-02-05T10:25:39.049+00:00</time>
      </trkpt>
      <trkpt lat="49.17133" lon="1.72325">
        <ele>132</ele>
        <time>2024-02-05T10:25:43.298+00:00</time>
      </trkpt>
      <trkpt lat="49.17135" lon="1.72321">
        <ele>132</ele>
        <time>2024-02-05T10:25:47.481+00:00</time>
      </trkpt>
      <trkpt lat="49.17138" lon="1.72319">
        <ele>136</ele>
        <time>2024-02-05T10:25:51.718+00:00</time>
      </trkpt>
      <trkpt lat="49.1714" lon="1.72317">
        <ele>136</ele>
        <time>2024-02-05T10:25:56.534+00:00</time>
      </trkpt>
      <trkpt lat="49.17143" lon="1.72315">
        <ele>136</ele>
        <time>2024-02-05T10:26:00.676+00:00</time>
      </trkpt>
      <trkpt lat="49.17145" lon="1.72312">
        <ele>136</ele>
        <time>2024-02-05T10:26:05.052+00:00</time>
      </trkpt>
      <trkpt lat="49.17146" lon="1.72309">
        <ele>136</ele>
        <time>2024-02-05T10:26:09.409+00:00</time>
      </trkpt>
      <trkpt lat="49.17148" lon="1.72305">
        <ele>136</ele>
        <time>2024-02-05T10:26:13.548+00:00</time>
      </trkpt>
      <trkpt lat="49.1715" lon="1.723">
        <ele>136</ele>
        <time>2024-02-05T10:26:17.712+00:00</time>
      </trkpt>
      <trkpt lat="49.17151" lon="1.72294">
        <ele>136</ele>
        <time>2024-02-05T10:26:21.972+00:00</time>
      </trkpt>
      <trkpt lat="49.17154" lon="1.72289">
        <ele>140</ele>
        <time>2024-02-05T10:26:26.089+00:00</time>
      </trkpt>
      <trkpt lat="49.17155" lon="1.72284">
        <ele>140</ele>
        <time>2024-02-05T10:26:30.648+00:00</time>
      </trkpt>
      <trkpt lat="49.17158" lon="1.72279">
        <ele>140</ele>
        <time>2024-02-05T10:26:34.654+00:00</time>
      </trkpt>
      <trkpt lat="49.17161" lon="1.72275">
        <ele>140</ele>
        <time>2024-02-05T10:26:38.975+00:00</time>
      </trkpt>
      <trkpt lat="49.17163" lon="1.72271">
        <ele>140</ele>
        <time>2024-02-05T10:26:43.170+00:00</time>
      </trkpt>
      <trkpt lat="49.17166" lon="1.72267">
        <ele>140</ele>
        <time>2024-02-05T10:26:47.407+00:00</time>
      </trkpt>
      <trkpt lat="49.17169" lon="1.72264">
        <ele>143</ele>
        <time>2024-02-05T10:26:51.482+00:00</time>
      </trkpt>
      <trkpt lat="49.17171" lon="1.72258">
        <ele>143</ele>
        <time>2024-02-05T10:26:56.053+00:00</time>
      </trkpt>
      <trkpt lat="49.17174" lon="1.72254">
        <ele>143</ele>
        <time>2024-02-05T10:27:00.421+00:00</time>
      </trkpt>
      <trkpt lat="49.17175" lon="1.7225">
        <ele>143</ele>
        <time>2024-02-05T10:27:04.703+00:00</time>
      </trkpt>
      <trkpt lat="49.17178" lon="1.72246">
        <ele>143</ele>
        <time>2024-02-05T10:27:09.056+00:00</time>
      </trkpt>
      <trkpt lat="49.1718" lon="1.72239">
        <ele>143</ele>
        <time>2024-02-05T10:27:13.190+00:00</time>
      </trkpt>
      <trkpt lat="49.17182" lon="1.72234">
        <ele>147</ele>
        <time>2024-02-05T10:27:17.524+00:00</time>
      </trkpt>
      <trkpt lat="49.17184" lon="1.72227">
        <ele>147</ele>
        <time>2024-02-05T10:27:22.036+00:00</time>
      </trkpt>
      <trkpt lat="49.17185" lon="1.72222">
        <ele>147</ele>
        <time>2024-02-05T10:27:26.173+00:00</time>
      </trkpt>
      <trkpt lat="49.17188" lon="1.72217">
        <ele>147</ele>
        <time>2024-02-05T10:27:30.234+00:00</time>
      </trkpt>
      <trkpt lat="49.17192" lon="1.72213">
        <ele>147</ele>
        <time>2024-02-05T10:27:34.372+00:00</time>
      </trkpt>
      <trkpt lat="49.17196" lon="1.72207">
        <ele>149</ele>
        <time>2024-02-05T10:27:38.571+00:00</time>
      </trkpt>
      <trkpt lat="49.17199" lon="1.72201">
        <ele>149</ele>
        <time>2024-02-05T10:27:42.689+00:00</time>
      </trkpt>
      <trkpt lat="49.17202" lon="1.72194">
        <ele>149</ele>
        <time>2024-02-05T10:27:46.969+00:00</time>
      </trkpt>
      <trkpt lat="49.17205" lon="1.72188">
        <ele>149</ele>
        <time>2024-02-05T10:27:51.449+00:00</time>
      </trkpt>
      <trkpt lat="49.17207" lon="1.72183">
        <ele>149</ele>
        <time>2024-02-05T10:27:55.694+00:00</time>
      </trkpt>
      <trkpt lat="49.1721" lon="1.72178">
        <ele>150</ele>
        <time>2024-02-05T10:28:00.195+00:00</time>
      </trkpt>
      <trkpt lat="49.17211" lon="1.72173">
        <ele>150</ele>
        <time>2024-02-05T10:28:04.397+00:00</time>
      </trkpt>
      <trkpt lat="49.17213" lon="1.72169">
        <ele>150</ele>
        <time>2024-02-05T10:28:08.712+00:00</time>
      </trkpt>
      <trkpt lat="49.17217" lon="1.72165">
        <ele>150</ele>
        <time>2024-02-05T10:28:13.272+00:00</time>
      </trkpt>
      <trkpt lat="49.17219" lon="1.72161">
        <ele>150</ele>
        <time>2024-02-05T10:28:17.712+00:00</time>
      </trkpt>
      <trkpt lat="49.17221" lon="1.72155">
        <ele>150</ele>
        <time>2024-02-05T10:28:22.356+00:00</time>
      </trkpt>
      <trkpt lat="49.17223" lon="1.7215">
        <ele>151</ele>
        <time>2024-02-05T10:28:26.713+00:00</time>
      </trkpt>
      <trkpt lat="49.17226" lon="1.72144">
        <ele>151</ele>
        <time>2024-02-05T10:28:31.680+00:00</time>
      </trkpt>
      <trkpt lat="49.17229" lon="1.7214">
        <ele>151</ele>
        <time>2024-02-05T10:28:35.933+00:00</time>
      </trkpt>
      <trkpt lat="49.17229" lon="1.72133">
        <ele>151</ele>
        <time>2024-02-05T10:28:40.170+00:00</time>
      </trkpt>
      <trkpt lat="49.17234" lon="1.72126">
        <ele>151</ele>
        <time>2024-02-05T10:28:44.408+00:00</time>
      </trkpt>
      <trkpt lat="49.17238" lon="1.7212">
        <ele>153</ele>
        <time>2024-02-05T10:28:48.707+00:00</time>
      </trkpt>
      <trkpt lat="49.17241" lon="1.72115">
        <ele>153</ele>
        <time>2024-02-05T10:28:53.193+00:00</time>
      </trkpt>
      <trkpt lat="49.17244" lon="1.72107">
        <ele>153</ele>
        <time>2024-02-05T10:28:57.691+00:00</time>
      </trkpt>
      <trkpt lat="49.17248" lon="1.721">
        <ele>153</ele>
        <time>2024-02-05T10:29:01.708+00:00</time>
      </trkpt>
      <trkpt lat="49.1725" lon="1.72093">
        <ele>154</ele>
        <time>2024-02-05T10:29:06.292+00:00</time>
      </trkpt>
      <trkpt lat="49.17252" lon="1.72086">
        <ele>154</ele>
        <time>2024-02-05T10:29:10.713+00:00</time>
      </trkpt>
      <trkpt lat="49.17255" lon="1.7208">
        <ele>154</ele>
        <time>2024-02-05T10:29:15.468+00:00</time>
      </trkpt>
      <trkpt lat="49.17258" lon="1.72074">
        <ele>154</ele>
        <time>2024-02-05T10:29:20.052+00:00</time>
      </trkpt>
      <trkpt lat="49.17258" lon="1.72069">
        <ele>155</ele>
        <time>2024-02-05T10:29:24.627+00:00</time>
      </trkpt>
      <trkpt lat="49.17262" lon="1.72068">
        <ele>155</ele>
        <time>2024-02-05T10:29:29.153+00:00</time>
      </trkpt>
      <trkpt lat="49.17265" lon="1.72059">
        <ele>155</ele>
        <time>2024-02-05T10:29:33.359+00:00</time>
      </trkpt>
      <trkpt lat="49.17268" lon="1.72049">
        <ele>155</ele>
        <time>2024-02-05T10:29:37.615+00:00</time>
      </trkpt>
      <trkpt lat="49.17268" lon="1.72042">
        <ele>155</ele>
        <time>2024-02-05T10:29:42.307+00:00</time>
      </trkpt>
      <trkpt lat="49.17272" lon="1.72034">
        <ele>157</ele>
        <time>2024-02-05T10:29:46.346+00:00</time>
      </trkpt>
      <trkpt lat="49.17272" lon="1.7203">
        <ele>157</ele>
        <time>2024-02-05T10:29:50.682+00:00</time>
      </trkpt>
      <trkpt lat="49.17273" lon="1.72025">
        <ele>157</ele>
        <time>2024-02-05T10:30:27.696+00:00</time>
      </trkpt>
      <trkpt lat="49.17274" lon="1.72023">
        <ele>157</ele>
        <time>2024-02-05T10:30:32.692+00:00</time>
      </trkpt>
      <trkpt lat="49.17275" lon="1.72022">
        <ele>157</ele>
        <time>2024-02-05T10:30:36.835+00:00</time>
      </trkpt>
      <trkpt lat="49.17277" lon="1.72018">
        <ele>157</ele>
        <time>2024-02-05T10:30:41.234+00:00</time>
      </trkpt>
      <trkpt lat="49.17278" lon="1.72014">
        <ele>158</ele>
        <time>2024-02-05T10:30:45.699+00:00</time>
      </trkpt>
      <trkpt lat="49.17279" lon="1.72009">
        <ele>158</ele>
        <time>2024-02-05T10:30:50.268+00:00</time>
      </trkpt>
      <trkpt lat="49.17282" lon="1.72004">
        <ele>158</ele>
        <time>2024-02-05T10:30:54.334+00:00</time>
      </trkpt>
      <trkpt lat="49.17283" lon="1.72">
        <ele>158</ele>
        <time>2024-02-05T10:30:58.713+00:00</time>
      </trkpt>
      <trkpt lat="49.17285" lon="1.71994">
        <ele>158</ele>
        <time>2024-02-05T10:31:03.166+00:00</time>
      </trkpt>
      <trkpt lat="49.17288" lon="1.71988">
        <ele>158</ele>
        <time>2024-02-05T10:31:07.681+00:00</time>
      </trkpt>
      <trkpt lat="49.1729" lon="1.71983">
        <ele>160</ele>
        <time>2024-02-05T10:31:12.370+00:00</time>
      </trkpt>
      <trkpt lat="49.17293" lon="1.71975">
        <ele>159</ele>
        <time>2024-02-05T10:31:16.996+00:00</time>
      </trkpt>
      <trkpt lat="49.17295" lon="1.71969">
        <ele>159</ele>
        <time>2024-02-05T10:31:21.431+00:00</time>
      </trkpt>
      <trkpt lat="49.17298" lon="1.71963">
        <ele>159</ele>
        <time>2024-02-05T10:31:25.708+00:00</time>
      </trkpt>
      <trkpt lat="49.17301" lon="1.71955">
        <ele>160</ele>
        <time>2024-02-05T10:31:30.715+00:00</time>
      </trkpt>
      <trkpt lat="49.17303" lon="1.71949">
        <ele>160</ele>
        <time>2024-02-05T10:31:35.253+00:00</time>
      </trkpt>
      <trkpt lat="49.17306" lon="1.71944">
        <ele>160</ele>
        <time>2024-02-05T10:31:39.612+00:00</time>
      </trkpt>
      <trkpt lat="49.17309" lon="1.71942">
        <ele>160</ele>
        <time>2024-02-05T10:31:44.011+00:00</time>
      </trkpt>
      <trkpt lat="49.17312" lon="1.71937">
        <ele>160</ele>
        <time>2024-02-05T10:31:48.462+00:00</time>
      </trkpt>
      <trkpt lat="49.17315" lon="1.71931">
        <ele>160</ele>
        <time>2024-02-05T10:31:52.678+00:00</time>
      </trkpt>
      <trkpt lat="49.17318" lon="1.71926">
        <ele>161</ele>
        <time>2024-02-05T10:31:57.023+00:00</time>
      </trkpt>
      <trkpt lat="49.17321" lon="1.71921">
        <ele>160</ele>
        <time>2024-02-05T10:32:01.129+00:00</time>
      </trkpt>
      <trkpt lat="49.17324" lon="1.71915">
        <ele>160</ele>
        <time>2024-02-05T10:32:05.247+00:00</time>
      </trkpt>
      <trkpt lat="49.17327" lon="1.71909">
        <ele>160</ele>
        <time>2024-02-05T10:32:09.385+00:00</time>
      </trkpt>
      <trkpt lat="49.1733" lon="1.71902">
        <ele>160</ele>
        <time>2024-02-05T10:32:13.601+00:00</time>
      </trkpt>
      <trkpt lat="49.17333" lon="1.71897">
        <ele>160</ele>
        <time>2024-02-05T10:32:17.970+00:00</time>
      </trkpt>
      <trkpt lat="49.17336" lon="1.71891">
        <ele>160</ele>
        <time>2024-02-05T10:32:22.289+00:00</time>
      </trkpt>
      <trkpt lat="49.17339" lon="1.71886">
        <ele>160</ele>
        <time>2024-02-05T10:32:26.418+00:00</time>
      </trkpt>
      <trkpt lat="49.17341" lon="1.7188">
        <ele>160</ele>
        <time>2024-02-05T10:32:30.524+00:00</time>
      </trkpt>
      <trkpt lat="49.17345" lon="1.71876">
        <ele>160</ele>
        <time>2024-02-05T10:32:34.562+00:00</time>
      </trkpt>
      <trkpt lat="49.17349" lon="1.71866">
        <ele>159</ele>
        <time>2024-02-05T10:32:38.657+00:00</time>
      </trkpt>
      <trkpt lat="49.1735" lon="1.71852">
        <ele>159</ele>
        <time>2024-02-05T10:32:43.668+00:00</time>
      </trkpt>
      <trkpt lat="49.17352" lon="1.71846">
        <ele>160</ele>
        <time>2024-02-05T10:32:47.683+00:00</time>
      </trkpt>
      <trkpt lat="49.17352" lon="1.7184">
        <ele>160</ele>
        <time>2024-02-05T10:32:51.889+00:00</time>
      </trkpt>
      <trkpt lat="49.17352" lon="1.71836">
        <ele>160</ele>
        <time>2024-02-05T10:32:56.389+00:00</time>
      </trkpt>
      <trkpt lat="49.17352" lon="1.71832">
        <ele>160</ele>
        <time>2024-02-05T10:33:00.672+00:00</time>
      </trkpt>
      <trkpt lat="49.17353" lon="1.71829">
        <ele>160</ele>
        <time>2024-02-05T10:33:05.165+00:00</time>
      </trkpt>
      <trkpt lat="49.17358" lon="1.71828">
        <ele>160</ele>
        <time>2024-02-05T10:33:09.347+00:00</time>
      </trkpt>
      <trkpt lat="49.17361" lon="1.7183">
        <ele>160</ele>
        <time>2024-02-05T10:33:13.540+00:00</time>
      </trkpt>
      <trkpt lat="49.17366" lon="1.71833">
        <ele>160</ele>
        <time>2024-02-05T10:33:17.564+00:00</time>
      </trkpt>
      <trkpt lat="49.1737" lon="1.71835">
        <ele>160</ele>
        <time>2024-02-05T10:33:21.694+00:00</time>
      </trkpt>
      <trkpt lat="49.17373" lon="1.71838">
        <ele>160</ele>
        <time>2024-02-05T10:33:26.028+00:00</time>
      </trkpt>
      <trkpt lat="49.17375" lon="1.71841">
        <ele>159</ele>
        <time>2024-02-05T10:33:30.349+00:00</time>
      </trkpt>
      <trkpt lat="49.17379" lon="1.71845">
        <ele>159</ele>
        <time>2024-02-05T10:33:34.702+00:00</time>
      </trkpt>
      <trkpt lat="49.17383" lon="1.71849">
        <ele>159</ele>
        <time>2024-02-05T10:33:39.361+00:00</time>
      </trkpt>
      <trkpt lat="49.17386" lon="1.71853">
        <ele>159</ele>
        <time>2024-02-05T10:33:43.400+00:00</time>
      </trkpt>
      <trkpt lat="49.17389" lon="1.71858">
        <ele>159</ele>
        <time>2024-02-05T10:33:47.523+00:00</time>
      </trkpt>
      <trkpt lat="49.17392" lon="1.71862">
        <ele>159</ele>
        <time>2024-02-05T10:33:51.862+00:00</time>
      </trkpt>
      <trkpt lat="49.17395" lon="1.71866">
        <ele>159</ele>
        <time>2024-02-05T10:33:56.043+00:00</time>
      </trkpt>
      <trkpt lat="49.17398" lon="1.71871">
        <ele>159</ele>
        <time>2024-02-05T10:34:00.626+00:00</time>
      </trkpt>
      <trkpt lat="49.174" lon="1.71876">
        <ele>159</ele>
        <time>2024-02-05T10:34:04.682+00:00</time>
      </trkpt>
      <trkpt lat="49.17403" lon="1.7188">
        <ele>159</ele>
        <time>2024-02-05T10:34:08.692+00:00</time>
      </trkpt>
      <trkpt lat="49.17406" lon="1.71885">
        <ele>160</ele>
        <time>2024-02-05T10:34:12.826+00:00</time>
      </trkpt>
      <trkpt lat="49.17408" lon="1.71889">
        <ele>160</ele>
        <time>2024-02-05T10:34:17.044+00:00</time>
      </trkpt>
      <trkpt lat="49.17412" lon="1.71893">
        <ele>160</ele>
        <time>2024-02-05T10:34:21.679+00:00</time>
      </trkpt>
      <trkpt lat="49.17416" lon="1.71896">
        <ele>160</ele>
        <time>2024-02-05T10:34:26.108+00:00</time>
      </trkpt>
      <trkpt lat="49.1742" lon="1.719">
        <ele>160</ele>
        <time>2024-02-05T10:34:30.309+00:00</time>
      </trkpt>
      <trkpt lat="49.17424" lon="1.71903">
        <ele>160</ele>
        <time>2024-02-05T10:34:34.693+00:00</time>
      </trkpt>
      <trkpt lat="49.17427" lon="1.71907">
        <ele>160</ele>
        <time>2024-02-05T10:34:39.267+00:00</time>
      </trkpt>
      <trkpt lat="49.17431" lon="1.71909">
        <ele>160</ele>
        <time>2024-02-05T10:34:43.363+00:00</time>
      </trkpt>
      <trkpt lat="49.17434" lon="1.71912">
        <ele>160</ele>
        <time>2024-02-05T10:34:47.689+00:00</time>
      </trkpt>
      <trkpt lat="49.17436" lon="1.71916">
        <ele>160</ele>
        <time>2024-02-05T10:34:52.063+00:00</time>
      </trkpt>
      <trkpt lat="49.17439" lon="1.71921">
        <ele>160</ele>
        <time>2024-02-05T10:34:56.605+00:00</time>
      </trkpt>
      <trkpt lat="49.17443" lon="1.71925">
        <ele>160</ele>
        <time>2024-02-05T10:35:01.694+00:00</time>
      </trkpt>
      <trkpt lat="49.17446" lon="1.71929">
        <ele>160</ele>
        <time>2024-02-05T10:35:06.284+00:00</time>
      </trkpt>
      <trkpt lat="49.1745" lon="1.71931">
        <ele>159</ele>
        <time>2024-02-05T10:35:10.680+00:00</time>
      </trkpt>
      <trkpt lat="49.17455" lon="1.71932">
        <ele>159</ele>
        <time>2024-02-05T10:35:14.986+00:00</time>
      </trkpt>
      <trkpt lat="49.17459" lon="1.71935">
        <ele>157</ele>
        <time>2024-02-05T10:35:19.142+00:00</time>
      </trkpt>
      <trkpt lat="49.17463" lon="1.71937">
        <ele>157</ele>
        <time>2024-02-05T10:35:23.321+00:00</time>
      </trkpt>
      <trkpt lat="49.17467" lon="1.71939">
        <ele>157</ele>
        <time>2024-02-05T10:35:27.628+00:00</time>
      </trkpt>
      <trkpt lat="49.17471" lon="1.71939">
        <ele>157</ele>
        <time>2024-02-05T10:35:31.909+00:00</time>
      </trkpt>
      <trkpt lat="49.17474" lon="1.71942">
        <ele>157</ele>
        <time>2024-02-05T10:35:36.108+00:00</time>
      </trkpt>
      <trkpt lat="49.17478" lon="1.71943">
        <ele>157</ele>
        <time>2024-02-05T10:35:40.486+00:00</time>
      </trkpt>
      <trkpt lat="49.17484" lon="1.71943">
        <ele>157</ele>
        <time>2024-02-05T10:35:44.693+00:00</time>
      </trkpt>
      <trkpt lat="49.17489" lon="1.71942">
        <ele>155</ele>
        <time>2024-02-05T10:35:49.547+00:00</time>
      </trkpt>
      <trkpt lat="49.17494" lon="1.71941">
        <ele>155</ele>
        <time>2024-02-05T10:35:53.706+00:00</time>
      </trkpt>
      <trkpt lat="49.17499" lon="1.71942">
        <ele>155</ele>
        <time>2024-02-05T10:35:57.721+00:00</time>
      </trkpt>
      <trkpt lat="49.17505" lon="1.71941">
        <ele>155</ele>
        <time>2024-02-05T10:36:02.388+00:00</time>
      </trkpt>
      <trkpt lat="49.17509" lon="1.71941">
        <ele>155</ele>
        <time>2024-02-05T10:36:06.408+00:00</time>
      </trkpt>
      <trkpt lat="49.17514" lon="1.71941">
        <ele>154</ele>
        <time>2024-02-05T10:36:10.694+00:00</time>
      </trkpt>
      <trkpt lat="49.17519" lon="1.71941">
        <ele>154</ele>
        <time>2024-02-05T10:36:14.985+00:00</time>
      </trkpt>
      <trkpt lat="49.17524" lon="1.7194">
        <ele>154</ele>
        <time>2024-02-05T10:36:19.005+00:00</time>
      </trkpt>
      <trkpt lat="49.17529" lon="1.71939">
        <ele>154</ele>
        <time>2024-02-05T10:36:23.187+00:00</time>
      </trkpt>
      <trkpt lat="49.17534" lon="1.71939">
        <ele>154</ele>
        <time>2024-02-05T10:36:27.471+00:00</time>
      </trkpt>
      <trkpt lat="49.17539" lon="1.71939">
        <ele>154</ele>
        <time>2024-02-05T10:36:31.569+00:00</time>
      </trkpt>
      <trkpt lat="49.17544" lon="1.71939">
        <ele>151</ele>
        <time>2024-02-05T10:36:35.727+00:00</time>
      </trkpt>
      <trkpt lat="49.17549" lon="1.71938">
        <ele>151</ele>
        <time>2024-02-05T10:36:39.784+00:00</time>
      </trkpt>
      <trkpt lat="49.17554" lon="1.71937">
        <ele>151</ele>
        <time>2024-02-05T10:36:44.022+00:00</time>
      </trkpt>
      <trkpt lat="49.17559" lon="1.71935">
        <ele>151</ele>
        <time>2024-02-05T10:36:48.281+00:00</time>
      </trkpt>
      <trkpt lat="49.17565" lon="1.71933">
        <ele>151</ele>
        <time>2024-02-05T10:36:52.716+00:00</time>
      </trkpt>
      <trkpt lat="49.1757" lon="1.71934">
        <ele>149</ele>
        <time>2024-02-05T10:36:56.965+00:00</time>
      </trkpt>
      <trkpt lat="49.17575" lon="1.71935">
        <ele>149</ele>
        <time>2024-02-05T10:37:01.588+00:00</time>
      </trkpt>
      <trkpt lat="49.1758" lon="1.71935">
        <ele>149</ele>
        <time>2024-02-05T10:37:05.970+00:00</time>
      </trkpt>
      <trkpt lat="49.17583" lon="1.71937">
        <ele>149</ele>
        <time>2024-02-05T10:37:10.190+00:00</time>
      </trkpt>
      <trkpt lat="49.17585" lon="1.71941">
        <ele>149</ele>
        <time>2024-02-05T10:37:14.392+00:00</time>
      </trkpt>
      <trkpt lat="49.17587" lon="1.71944">
        <ele>149</ele>
        <time>2024-02-05T10:37:18.560+00:00</time>
      </trkpt>
      <trkpt lat="49.1759" lon="1.71948">
        <ele>149</ele>
        <time>2024-02-05T10:37:22.943+00:00</time>
      </trkpt>
      <trkpt lat="49.17593" lon="1.71952">
        <ele>149</ele>
        <time>2024-02-05T10:37:27.245+00:00</time>
      </trkpt>
      <trkpt lat="49.17596" lon="1.71955">
        <ele>149</ele>
        <time>2024-02-05T10:37:31.584+00:00</time>
      </trkpt>
      <trkpt lat="49.176" lon="1.71958">
        <ele>147</ele>
        <time>2024-02-05T10:37:36.146+00:00</time>
      </trkpt>
      <trkpt lat="49.17603" lon="1.71961">
        <ele>147</ele>
        <time>2024-02-05T10:37:40.346+00:00</time>
      </trkpt>
      <trkpt lat="49.17605" lon="1.71967">
        <ele>147</ele>
        <time>2024-02-05T10:37:44.569+00:00</time>
      </trkpt>
      <trkpt lat="49.17607" lon="1.71972">
        <ele>147</ele>
        <time>2024-02-05T10:37:48.687+00:00</time>
      </trkpt>
      <trkpt lat="49.17609" lon="1.71978">
        <ele>147</ele>
        <time>2024-02-05T10:37:53.124+00:00</time>
      </trkpt>
      <trkpt lat="49.17611" lon="1.71982">
        <ele>147</ele>
        <time>2024-02-05T10:37:57.264+00:00</time>
      </trkpt>
      <trkpt lat="49.17612" lon="1.71987">
        <ele>146</ele>
        <time>2024-02-05T10:38:01.588+00:00</time>
      </trkpt>
      <trkpt lat="49.17613" lon="1.71991">
        <ele>146</ele>
        <time>2024-02-05T10:38:05.688+00:00</time>
      </trkpt>
      <trkpt lat="49.17614" lon="1.71996">
        <ele>146</ele>
        <time>2024-02-05T10:38:09.964+00:00</time>
      </trkpt>
      <trkpt lat="49.17615" lon="1.72002">
        <ele>146</ele>
        <time>2024-02-05T10:38:14.012+00:00</time>
      </trkpt>
      <trkpt lat="49.17616" lon="1.7201">
        <ele>146</ele>
        <time>2024-02-05T10:38:18.409+00:00</time>
      </trkpt>
      <trkpt lat="49.17617" lon="1.72018">
        <ele>143</ele>
        <time>2024-02-05T10:38:23.103+00:00</time>
      </trkpt>
      <trkpt lat="49.17617" lon="1.72024">
        <ele>143</ele>
        <time>2024-02-05T10:38:27.207+00:00</time>
      </trkpt>
      <trkpt lat="49.17618" lon="1.72031">
        <ele>143</ele>
        <time>2024-02-05T10:38:31.390+00:00</time>
      </trkpt>
      <trkpt lat="49.17619" lon="1.72038">
        <ele>143</ele>
        <time>2024-02-05T10:38:35.525+00:00</time>
      </trkpt>
      <trkpt lat="49.1762" lon="1.72046">
        <ele>140</ele>
        <time>2024-02-05T10:38:39.693+00:00</time>
      </trkpt>
      <trkpt lat="49.1762" lon="1.72052">
        <ele>140</ele>
        <time>2024-02-05T10:38:43.707+00:00</time>
      </trkpt>
      <trkpt lat="49.17621" lon="1.7206">
        <ele>140</ele>
        <time>2024-02-05T10:38:48.370+00:00</time>
      </trkpt>
      <trkpt lat="49.17622" lon="1.72066">
        <ele>140</ele>
        <time>2024-02-05T10:38:52.482+00:00</time>
      </trkpt>
      <trkpt lat="49.17622" lon="1.72073">
        <ele>138</ele>
        <time>2024-02-05T10:38:56.506+00:00</time>
      </trkpt>
      <trkpt lat="49.17624" lon="1.7208">
        <ele>138</ele>
        <time>2024-02-05T10:39:00.702+00:00</time>
      </trkpt>
      <trkpt lat="49.17624" lon="1.72089">
        <ele>138</ele>
        <time>2024-02-05T10:39:05.123+00:00</time>
      </trkpt>
      <trkpt lat="49.17624" lon="1.72097">
        <ele>138</ele>
        <time>2024-02-05T10:39:09.164+00:00</time>
      </trkpt>
      <trkpt lat="49.17624" lon="1.72104">
        <ele>136</ele>
        <time>2024-02-05T10:39:13.245+00:00</time>
      </trkpt>
      <trkpt lat="49.17625" lon="1.7211">
        <ele>136</ele>
        <time>2024-02-05T10:39:17.467+00:00</time>
      </trkpt>
      <trkpt lat="49.17626" lon="1.72116">
        <ele>132</ele>
        <time>2024-02-05T10:39:21.720+00:00</time>
      </trkpt>
      <trkpt lat="49.17627" lon="1.72123">
        <ele>132</ele>
        <time>2024-02-05T10:39:26.006+00:00</time>
      </trkpt>
      <trkpt lat="49.17629" lon="1.7213">
        <ele>130</ele>
        <time>2024-02-05T10:39:30.131+00:00</time>
      </trkpt>
      <trkpt lat="49.17631" lon="1.72139">
        <ele>130</ele>
        <time>2024-02-05T10:39:34.681+00:00</time>
      </trkpt>
      <trkpt lat="49.17633" lon="1.72147">
        <ele>130</ele>
        <time>2024-02-05T10:39:39.148+00:00</time>
      </trkpt>
      <trkpt lat="49.17636" lon="1.72154">
        <ele>127</ele>
        <time>2024-02-05T10:39:43.371+00:00</time>
      </trkpt>
      <trkpt lat="49.1764" lon="1.72163">
        <ele>127</ele>
        <time>2024-02-05T10:39:47.718+00:00</time>
      </trkpt>
      <trkpt lat="49.17643" lon="1.72174">
        <ele>127</ele>
        <time>2024-02-05T10:39:52.030+00:00</time>
      </trkpt>
      <trkpt lat="49.17646" lon="1.72182">
        <ele>125</ele>
        <time>2024-02-05T10:39:56.462+00:00</time>
      </trkpt>
      <trkpt lat="49.17649" lon="1.72192">
        <ele>125</ele>
        <time>2024-02-05T10:40:01.045+00:00</time>
      </trkpt>
      <trkpt lat="49.17653" lon="1.722">
        <ele>125</ele>
        <time>2024-02-05T10:40:05.528+00:00</time>
      </trkpt>
      <trkpt lat="49.17656" lon="1.72209">
        <ele>122</ele>
        <time>2024-02-05T10:40:09.950+00:00</time>
      </trkpt>
      <trkpt lat="49.17659" lon="1.72216">
        <ele>122</ele>
        <time>2024-02-05T10:40:14.007+00:00</time>
      </trkpt>
      <trkpt lat="49.17661" lon="1.72226">
        <ele>122</ele>
        <time>2024-02-05T10:40:18.351+00:00</time>
      </trkpt>
      <trkpt lat="49.17665" lon="1.72234">
        <ele>122</ele>
        <time>2024-02-05T10:40:22.949+00:00</time>
      </trkpt>
      <trkpt lat="49.17668" lon="1.72241">
        <ele>123</ele>
        <time>2024-02-05T10:40:27.544+00:00</time>
      </trkpt>
      <trkpt lat="49.17671" lon="1.72248">
        <ele>123</ele>
        <time>2024-02-05T10:40:31.689+00:00</time>
      </trkpt>
      <trkpt lat="49.17675" lon="1.72256">
        <ele>123</ele>
        <time>2024-02-05T10:40:36.676+00:00</time>
      </trkpt>
      <trkpt lat="49.17678" lon="1.72262">
        <ele>123</ele>
        <time>2024-02-05T10:40:40.688+00:00</time>
      </trkpt>
      <trkpt lat="49.1768" lon="1.72269">
        <ele>123</ele>
        <time>2024-02-05T10:40:45.205+00:00</time>
      </trkpt>
      <trkpt lat="49.17682" lon="1.72277">
        <ele>121</ele>
        <time>2024-02-05T10:40:49.345+00:00</time>
      </trkpt>
      <trkpt lat="49.17685" lon="1.72283">
        <ele>121</ele>
        <time>2024-02-05T10:40:53.346+00:00</time>
      </trkpt>
      <trkpt lat="49.17688" lon="1.7229">
        <ele>121</ele>
        <time>2024-02-05T10:40:57.405+00:00</time>
      </trkpt>
      <trkpt lat="49.17691" lon="1.72296">
        <ele>121</ele>
        <time>2024-02-05T10:41:01.685+00:00</time>
      </trkpt>
      <trkpt lat="49.17694" lon="1.72303">
        <ele>121</ele>
        <time>2024-02-05T10:41:06.423+00:00</time>
      </trkpt>
      <trkpt lat="49.17696" lon="1.72312">
        <ele>121</ele>
        <time>2024-02-05T10:41:11.129+00:00</time>
      </trkpt>
      <trkpt lat="49.17697" lon="1.72319">
        <ele>121</ele>
        <time>2024-02-05T10:41:15.162+00:00</time>
      </trkpt>
      <trkpt lat="49.177" lon="1.72326">
        <ele>121</ele>
        <time>2024-02-05T10:41:19.671+00:00</time>
      </trkpt>
      <trkpt lat="49.17703" lon="1.72333">
        <ele>121</ele>
        <time>2024-02-05T10:41:23.700+00:00</time>
      </trkpt>
      <trkpt lat="49.17706" lon="1.72339">
        <ele>121</ele>
        <time>2024-02-05T10:41:27.786+00:00</time>
      </trkpt>
      <trkpt lat="49.17709" lon="1.72348">
        <ele>121</ele>
        <time>2024-02-05T10:41:32.291+00:00</time>
      </trkpt>
      <trkpt lat="49.17712" lon="1.72356">
        <ele>121</ele>
        <time>2024-02-05T10:41:36.703+00:00</time>
      </trkpt>
      <trkpt lat="49.17715" lon="1.72363">
        <ele>121</ele>
        <time>2024-02-05T10:41:40.693+00:00</time>
      </trkpt>
      <trkpt lat="49.17718" lon="1.72371">
        <ele>121</ele>
        <time>2024-02-05T10:41:45.242+00:00</time>
      </trkpt>
      <trkpt lat="49.17721" lon="1.72379">
        <ele>122</ele>
        <time>2024-02-05T10:41:49.707+00:00</time>
      </trkpt>
      <trkpt lat="49.17723" lon="1.72386">
        <ele>122</ele>
        <time>2024-02-05T10:41:53.863+00:00</time>
      </trkpt>
      <trkpt lat="49.17725" lon="1.72393">
        <ele>122</ele>
        <time>2024-02-05T10:41:58.064+00:00</time>
      </trkpt>
      <trkpt lat="49.17728" lon="1.72399">
        <ele>122</ele>
        <time>2024-02-05T10:42:02.701+00:00</time>
      </trkpt>
      <trkpt lat="49.17731" lon="1.72407">
        <ele>123</ele>
        <time>2024-02-05T10:42:07.329+00:00</time>
      </trkpt>
      <trkpt lat="49.17734" lon="1.72414">
        <ele>123</ele>
        <time>2024-02-05T10:42:11.706+00:00</time>
      </trkpt>
      <trkpt lat="49.17737" lon="1.72421">
        <ele>125</ele>
        <time>2024-02-05T10:42:15.843+00:00</time>
      </trkpt>
      <trkpt lat="49.17739" lon="1.72428">
        <ele>125</ele>
        <time>2024-02-05T10:42:20.009+00:00</time>
      </trkpt>
      <trkpt lat="49.17741" lon="1.72434">
        <ele>127</ele>
        <time>2024-02-05T10:42:24.516+00:00</time>
      </trkpt>
      <trkpt lat="49.17744" lon="1.7244">
        <ele>127</ele>
        <time>2024-02-05T10:42:28.912+00:00</time>
      </trkpt>
      <trkpt lat="49.17746" lon="1.72445">
        <ele>127</ele>
        <time>2024-02-05T10:42:33.171+00:00</time>
      </trkpt>
      <trkpt lat="49.17749" lon="1.72452">
        <ele>127</ele>
        <time>2024-02-05T10:42:37.652+00:00</time>
      </trkpt>
      <trkpt lat="49.17751" lon="1.7246">
        <ele>129</ele>
        <time>2024-02-05T10:42:42.267+00:00</time>
      </trkpt>
      <trkpt lat="49.17755" lon="1.72466">
        <ele>129</ele>
        <time>2024-02-05T10:42:46.684+00:00</time>
      </trkpt>
      <trkpt lat="49.1776" lon="1.72471">
        <ele>129</ele>
        <time>2024-02-05T10:42:51.043+00:00</time>
      </trkpt>
      <trkpt lat="49.17764" lon="1.72477">
        <ele>129</ele>
        <time>2024-02-05T10:42:55.283+00:00</time>
      </trkpt>
      <trkpt lat="49.17767" lon="1.72481">
        <ele>130</ele>
        <time>2024-02-05T10:42:59.624+00:00</time>
      </trkpt>
      <trkpt lat="49.17769" lon="1.72484">
        <ele>130</ele>
        <time>2024-02-05T10:43:04.125+00:00</time>
      </trkpt>
      <trkpt lat="49.17772" lon="1.72488">
        <ele>133</ele>
        <time>2024-02-05T10:43:08.344+00:00</time>
      </trkpt>
      <trkpt lat="49.17774" lon="1.72492">
        <ele>133</ele>
        <time>2024-02-05T10:43:12.713+00:00</time>
      </trkpt>
      <trkpt lat="49.17777" lon="1.72496">
        <ele>133</ele>
        <time>2024-02-05T10:43:17.082+00:00</time>
      </trkpt>
      <trkpt lat="49.17779" lon="1.72501">
        <ele>133</ele>
        <time>2024-02-05T10:43:21.325+00:00</time>
      </trkpt>
      <trkpt lat="49.17782" lon="1.72505">
        <ele>133</ele>
        <time>2024-02-05T10:43:25.604+00:00</time>
      </trkpt>
      <trkpt lat="49.17783" lon="1.72509">
        <ele>133</ele>
        <time>2024-02-05T10:43:29.805+00:00</time>
      </trkpt>
      <trkpt lat="49.17786" lon="1.72515">
        <ele>136</ele>
        <time>2024-02-05T10:43:34.105+00:00</time>
      </trkpt>
      <trkpt lat="49.1779" lon="1.7252">
        <ele>136</ele>
        <time>2024-02-05T10:43:38.407+00:00</time>
      </trkpt>
      <trkpt lat="49.17794" lon="1.72526">
        <ele>136</ele>
        <time>2024-02-05T10:43:42.717+00:00</time>
      </trkpt>
      <trkpt lat="49.17796" lon="1.72531">
        <ele>136</ele>
        <time>2024-02-05T10:43:47.111+00:00</time>
      </trkpt>
      <trkpt lat="49.17797" lon="1.72539">
        <ele>136</ele>
        <time>2024-02-05T10:43:51.716+00:00</time>
      </trkpt>
      <trkpt lat="49.17799" lon="1.72545">
        <ele>139</ele>
        <time>2024-02-05T10:43:56.148+00:00</time>
      </trkpt>
      <trkpt lat="49.17803" lon="1.72552">
        <ele>139</ele>
        <time>2024-02-05T10:44:00.342+00:00</time>
      </trkpt>
      <trkpt lat="49.17807" lon="1.72557">
        <ele>139</ele>
        <time>2024-02-05T10:44:04.583+00:00</time>
      </trkpt>
      <trkpt lat="49.17811" lon="1.72562">
        <ele>139</ele>
        <time>2024-02-05T10:44:09.204+00:00</time>
      </trkpt>
      <trkpt lat="49.17815" lon="1.72566">
        <ele>139</ele>
        <time>2024-02-05T10:44:13.567+00:00</time>
      </trkpt>
      <trkpt lat="49.1782" lon="1.72571">
        <ele>141</ele>
        <time>2024-02-05T10:44:18.166+00:00</time>
      </trkpt>
      <trkpt lat="49.17823" lon="1.72576">
        <ele>141</ele>
        <time>2024-02-05T10:44:22.406+00:00</time>
      </trkpt>
      <trkpt lat="49.17827" lon="1.72581">
        <ele>141</ele>
        <time>2024-02-05T10:44:26.682+00:00</time>
      </trkpt>
      <trkpt lat="49.17831" lon="1.72586">
        <ele>141</ele>
        <time>2024-02-05T10:44:30.827+00:00</time>
      </trkpt>
      <trkpt lat="49.17835" lon="1.7259">
        <ele>141</ele>
        <time>2024-02-05T10:44:35.187+00:00</time>
      </trkpt>
      <trkpt lat="49.17838" lon="1.72594">
        <ele>141</ele>
        <time>2024-02-05T10:44:39.268+00:00</time>
      </trkpt>
      <trkpt lat="49.17842" lon="1.72598">
        <ele>144</ele>
        <time>2024-02-05T10:44:43.459+00:00</time>
      </trkpt>
      <trkpt lat="49.17845" lon="1.72602">
        <ele>144</ele>
        <time>2024-02-05T10:44:47.547+00:00</time>
      </trkpt>
      <trkpt lat="49.17849" lon="1.72606">
        <ele>140</ele>
        <time>2024-02-05T10:44:51.719+00:00</time>
      </trkpt>
      <trkpt lat="49.17853" lon="1.72612">
        <ele>140</ele>
        <time>2024-02-05T10:44:56.510+00:00</time>
      </trkpt>
      <trkpt lat="49.17856" lon="1.72617">
        <ele>140</ele>
        <time>2024-02-05T10:45:00.692+00:00</time>
      </trkpt>
      <trkpt lat="49.17858" lon="1.72622">
        <ele>140</ele>
        <time>2024-02-05T10:45:05.051+00:00</time>
      </trkpt>
      <trkpt lat="49.17861" lon="1.72627">
        <ele>143</ele>
        <time>2024-02-05T10:45:09.148+00:00</time>
      </trkpt>
      <trkpt lat="49.17863" lon="1.72633">
        <ele>143</ele>
        <time>2024-02-05T10:45:13.372+00:00</time>
      </trkpt>
      <trkpt lat="49.17866" lon="1.7264">
        <ele>143</ele>
        <time>2024-02-05T10:45:17.902+00:00</time>
      </trkpt>
      <trkpt lat="49.17869" lon="1.72647">
        <ele>143</ele>
        <time>2024-02-05T10:45:22.523+00:00</time>
      </trkpt>
      <trkpt lat="49.17871" lon="1.72655">
        <ele>144</ele>
        <time>2024-02-05T10:45:27.246+00:00</time>
      </trkpt>
      <trkpt lat="49.17874" lon="1.72662">
        <ele>144</ele>
        <time>2024-02-05T10:45:31.694+00:00</time>
      </trkpt>
      <trkpt lat="49.17878" lon="1.72669">
        <ele>141</ele>
        <time>2024-02-05T10:45:35.948+00:00</time>
      </trkpt>
      <trkpt lat="49.17881" lon="1.72675">
        <ele>141</ele>
        <time>2024-02-05T10:45:40.124+00:00</time>
      </trkpt>
      <trkpt lat="49.17885" lon="1.7268">
        <ele>141</ele>
        <time>2024-02-05T10:45:44.666+00:00</time>
      </trkpt>
      <trkpt lat="49.17884" lon="1.72687">
        <ele>143</ele>
        <time>2024-02-05T10:45:48.684+00:00</time>
      </trkpt>
      <trkpt lat="49.17889" lon="1.72695">
        <ele>143</ele>
        <time>2024-02-05T10:45:52.930+00:00</time>
      </trkpt>
      <trkpt lat="49.17892" lon="1.72703">
        <ele>143</ele>
        <time>2024-02-05T10:45:57.686+00:00</time>
      </trkpt>
      <trkpt lat="49.17895" lon="1.72711">
        <ele>146</ele>
        <time>2024-02-05T10:46:02.132+00:00</time>
      </trkpt>
      <trkpt lat="49.17901" lon="1.72718">
        <ele>146</ele>
        <time>2024-02-05T10:46:06.151+00:00</time>
      </trkpt>
      <trkpt lat="49.17904" lon="1.72726">
        <ele>142</ele>
        <time>2024-02-05T10:46:10.693+00:00</time>
      </trkpt>
      <trkpt lat="49.17908" lon="1.72734">
        <ele>142</ele>
        <time>2024-02-05T10:46:15.250+00:00</time>
      </trkpt>
      <trkpt lat="49.1791" lon="1.72742">
        <ele>145</ele>
        <time>2024-02-05T10:46:19.809+00:00</time>
      </trkpt>
      <trkpt lat="49.17913" lon="1.7275">
        <ele>145</ele>
        <time>2024-02-05T10:46:24.347+00:00</time>
      </trkpt>
      <trkpt lat="49.17916" lon="1.72758">
        <ele>145</ele>
        <time>2024-02-05T10:46:28.804+00:00</time>
      </trkpt>
      <trkpt lat="49.17919" lon="1.72764">
        <ele>147</ele>
        <time>2024-02-05T10:46:33.427+00:00</time>
      </trkpt>
      <trkpt lat="49.17922" lon="1.72769">
        <ele>147</ele>
        <time>2024-02-05T10:46:37.486+00:00</time>
      </trkpt>
      <trkpt lat="49.17924" lon="1.72775">
        <ele>147</ele>
        <time>2024-02-05T10:46:41.656+00:00</time>
      </trkpt>
      <trkpt lat="49.17927" lon="1.72781">
        <ele>147</ele>
        <time>2024-02-05T10:46:45.687+00:00</time>
      </trkpt>
      <trkpt lat="49.17925" lon="1.72789">
        <ele>147</ele>
        <time>2024-02-05T10:46:49.974+00:00</time>
      </trkpt>
      <trkpt lat="49.17929" lon="1.72798">
        <ele>149</ele>
        <time>2024-02-05T10:46:54.113+00:00</time>
      </trkpt>
      <trkpt lat="49.17933" lon="1.72804">
        <ele>147</ele>
        <time>2024-02-05T10:46:58.188+00:00</time>
      </trkpt>
      <trkpt lat="49.17936" lon="1.72811">
        <ele>147</ele>
        <time>2024-02-05T10:47:02.663+00:00</time>
      </trkpt>
      <trkpt lat="49.17939" lon="1.72818">
        <ele>147</ele>
        <time>2024-02-05T10:47:06.673+00:00</time>
      </trkpt>
      <trkpt lat="49.17942" lon="1.72825">
        <ele>148</ele>
        <time>2024-02-05T10:47:11.245+00:00</time>
      </trkpt>
      <trkpt lat="49.17945" lon="1.7283">
        <ele>148</ele>
        <time>2024-02-05T10:47:15.293+00:00</time>
      </trkpt>
      <trkpt lat="49.17948" lon="1.72837">
        <ele>148</ele>
        <time>2024-02-05T10:47:19.553+00:00</time>
      </trkpt>
      <trkpt lat="49.1795" lon="1.72843">
        <ele>148</ele>
        <time>2024-02-05T10:47:24.146+00:00</time>
      </trkpt>
      <trkpt lat="49.17954" lon="1.72848">
        <ele>149</ele>
        <time>2024-02-05T10:47:28.214+00:00</time>
      </trkpt>
      <trkpt lat="49.17957" lon="1.72853">
        <ele>149</ele>
        <time>2024-02-05T10:47:32.284+00:00</time>
      </trkpt>
      <trkpt lat="49.17961" lon="1.72858">
        <ele>146</ele>
        <time>2024-02-05T10:47:36.336+00:00</time>
      </trkpt>
      <trkpt lat="49.17964" lon="1.72863">
        <ele>146</ele>
        <time>2024-02-05T10:47:40.662+00:00</time>
      </trkpt>
      <trkpt lat="49.17964" lon="1.72871">
        <ele>146</ele>
        <time>2024-02-05T10:47:44.971+00:00</time>
      </trkpt>
      <trkpt lat="49.17969" lon="1.72878">
        <ele>148</ele>
        <time>2024-02-05T10:47:49.019+00:00</time>
      </trkpt>
      <trkpt lat="49.17974" lon="1.72883">
        <ele>148</ele>
        <time>2024-02-05T10:47:53.191+00:00</time>
      </trkpt>
      <trkpt lat="49.17977" lon="1.72891">
        <ele>148</ele>
        <time>2024-02-05T10:47:57.694+00:00</time>
      </trkpt>
      <trkpt lat="49.17981" lon="1.72897">
        <ele>148</ele>
        <time>2024-02-05T10:48:01.853+00:00</time>
      </trkpt>
      <trkpt lat="49.17986" lon="1.72902">
        <ele>144</ele>
        <time>2024-02-05T10:48:05.913+00:00</time>
      </trkpt>
      <trkpt lat="49.1799" lon="1.72909">
        <ele>146</ele>
        <time>2024-02-05T10:48:10.680+00:00</time>
      </trkpt>
      <trkpt lat="49.17994" lon="1.72917">
        <ele>146</ele>
        <time>2024-02-05T10:48:15.152+00:00</time>
      </trkpt>
      <trkpt lat="49.17997" lon="1.72924">
        <ele>146</ele>
        <time>2024-02-05T10:48:19.653+00:00</time>
      </trkpt>
      <trkpt lat="49.17999" lon="1.72931">
        <ele>146</ele>
        <time>2024-02-05T10:48:24.647+00:00</time>
      </trkpt>
      <trkpt lat="49.18006" lon="1.72932">
        <ele>148</ele>
        <time>2024-02-05T10:48:28.992+00:00</time>
      </trkpt>
      <trkpt lat="49.18012" lon="1.72934">
        <ele>148</ele>
        <time>2024-02-05T10:48:33.357+00:00</time>
      </trkpt>
      <trkpt lat="49.18016" lon="1.72936">
        <ele>146</ele>
        <time>2024-02-05T10:48:37.523+00:00</time>
      </trkpt>
      <trkpt lat="49.1802" lon="1.72941">
        <ele>146</ele>
        <time>2024-02-05T10:48:41.530+00:00</time>
      </trkpt>
      <trkpt lat="49.18025" lon="1.72946">
        <ele>146</ele>
        <time>2024-02-05T10:48:46.046+00:00</time>
      </trkpt>
      <trkpt lat="49.18029" lon="1.72952">
        <ele>146</ele>
        <time>2024-02-05T10:48:50.568+00:00</time>
      </trkpt>
      <trkpt lat="49.1803" lon="1.72961">
        <ele>148</ele>
        <time>2024-02-05T10:48:54.684+00:00</time>
      </trkpt>
      <trkpt lat="49.18033" lon="1.7297">
        <ele>148</ele>
        <time>2024-02-05T10:48:59.330+00:00</time>
      </trkpt>
      <trkpt lat="49.18038" lon="1.72974">
        <ele>148</ele>
        <time>2024-02-05T10:49:03.473+00:00</time>
      </trkpt>
      <trkpt lat="49.18042" lon="1.72977">
        <ele>146</ele>
        <time>2024-02-05T10:49:07.708+00:00</time>
      </trkpt>
      <trkpt lat="49.18046" lon="1.72982">
        <ele>146</ele>
        <time>2024-02-05T10:49:11.682+00:00</time>
      </trkpt>
      <trkpt lat="49.1805" lon="1.72988">
        <ele>148</ele>
        <time>2024-02-05T10:49:16.646+00:00</time>
      </trkpt>
      <trkpt lat="49.18053" lon="1.72993">
        <ele>148</ele>
        <time>2024-02-05T10:49:20.663+00:00</time>
      </trkpt>
      <trkpt lat="49.18058" lon="1.72999">
        <ele>148</ele>
        <time>2024-02-05T10:49:25.632+00:00</time>
      </trkpt>
      <trkpt lat="49.18062" lon="1.73">
        <ele>148</ele>
        <time>2024-02-05T10:49:29.662+00:00</time>
      </trkpt>
      <trkpt lat="49.18066" lon="1.73009">
        <ele>148</ele>
        <time>2024-02-05T10:49:34.564+00:00</time>
      </trkpt>
      <trkpt lat="49.1807" lon="1.73014">
        <ele>148</ele>
        <time>2024-02-05T10:49:39.153+00:00</time>
      </trkpt>
      <trkpt lat="49.18075" lon="1.73019">
        <ele>148</ele>
        <time>2024-02-05T10:49:43.229+00:00</time>
      </trkpt>
      <trkpt lat="49.18078" lon="1.73024">
        <ele>148</ele>
        <time>2024-02-05T10:49:47.665+00:00</time>
      </trkpt>
      <trkpt lat="49.18084" lon="1.7303">
        <ele>148</ele>
        <time>2024-02-05T10:49:52.074+00:00</time>
      </trkpt>
      <trkpt lat="49.18089" lon="1.73035">
        <ele>148</ele>
        <time>2024-02-05T10:49:56.249+00:00</time>
      </trkpt>
      <trkpt lat="49.18093" lon="1.73038">
        <ele>148</ele>
        <time>2024-02-05T10:50:00.672+00:00</time>
      </trkpt>
      <trkpt lat="49.18097" lon="1.73043">
        <ele>149</ele>
        <time>2024-02-05T10:50:04.827+00:00</time>
      </trkpt>
      <trkpt lat="49.18102" lon="1.73046">
        <ele>147</ele>
        <time>2024-02-05T10:50:09.033+00:00</time>
      </trkpt>
      <trkpt lat="49.18106" lon="1.7305">
        <ele>147</ele>
        <time>2024-02-05T10:50:13.031+00:00</time>
      </trkpt>
      <trkpt lat="49.1811" lon="1.73054">
        <ele>147</ele>
        <time>2024-02-05T10:50:17.108+00:00</time>
      </trkpt>
      <trkpt lat="49.18114" lon="1.7306">
        <ele>147</ele>
        <time>2024-02-05T10:50:21.532+00:00</time>
      </trkpt>
      <trkpt lat="49.18119" lon="1.73064">
        <ele>147</ele>
        <time>2024-02-05T10:50:25.949+00:00</time>
      </trkpt>
      <trkpt lat="49.18124" lon="1.73068">
        <ele>147</ele>
        <time>2024-02-05T10:50:30.342+00:00</time>
      </trkpt>
      <trkpt lat="49.18129" lon="1.73072">
        <ele>148</ele>
        <time>2024-02-05T10:50:34.831+00:00</time>
      </trkpt>
      <trkpt lat="49.18134" lon="1.73076">
        <ele>148</ele>
        <time>2024-02-05T10:50:39.253+00:00</time>
      </trkpt>
      <trkpt lat="49.18139" lon="1.7308">
        <ele>148</ele>
        <time>2024-02-05T10:50:43.663+00:00</time>
      </trkpt>
      <trkpt lat="49.18145" lon="1.73083">
        <ele>148</ele>
        <time>2024-02-05T10:50:47.766+00:00</time>
      </trkpt>
      <trkpt lat="49.1815" lon="1.73085">
        <ele>148</ele>
        <time>2024-02-05T10:50:52.307+00:00</time>
      </trkpt>
      <trkpt lat="49.18155" lon="1.73088">
        <ele>148</ele>
        <time>2024-02-05T10:50:56.806+00:00</time>
      </trkpt>
      <trkpt lat="49.1816" lon="1.73092">
        <ele>148</ele>
        <time>2024-02-05T10:51:00.923+00:00</time>
      </trkpt>
      <trkpt lat="49.18165" lon="1.73095">
        <ele>148</ele>
        <time>2024-02-05T10:51:05.052+00:00</time>
      </trkpt>
      <trkpt lat="49.1817" lon="1.731">
        <ele>149</ele>
        <time>2024-02-05T10:51:09.469+00:00</time>
      </trkpt>
      <trkpt lat="49.18174" lon="1.73104">
        <ele>149</ele>
        <time>2024-02-05T10:51:13.924+00:00</time>
      </trkpt>
      <trkpt lat="49.18177" lon="1.73111">
        <ele>149</ele>
        <time>2024-02-05T10:51:18.487+00:00</time>
      </trkpt>
      <trkpt lat="49.18182" lon="1.73113">
        <ele>149</ele>
        <time>2024-02-05T10:51:22.552+00:00</time>
      </trkpt>
      <trkpt lat="49.18187" lon="1.73115">
        <ele>149</ele>
        <time>2024-02-05T10:51:26.644+00:00</time>
      </trkpt>
      <trkpt lat="49.18192" lon="1.73119">
        <ele>149</ele>
        <time>2024-02-05T10:51:30.670+00:00</time>
      </trkpt>
      <trkpt lat="49.18198" lon="1.73123">
        <ele>149</ele>
        <time>2024-02-05T10:51:35.166+00:00</time>
      </trkpt>
      <trkpt lat="49.18203" lon="1.73127">
        <ele>151</ele>
        <time>2024-02-05T10:51:39.698+00:00</time>
      </trkpt>
      <trkpt lat="49.18209" lon="1.73132">
        <ele>150</ele>
        <time>2024-02-05T10:51:44.187+00:00</time>
      </trkpt>
      <trkpt lat="49.18214" lon="1.73134">
        <ele>150</ele>
        <time>2024-02-05T10:51:48.650+00:00</time>
      </trkpt>
      <trkpt lat="49.18219" lon="1.73136">
        <ele>150</ele>
        <time>2024-02-05T10:51:53.089+00:00</time>
      </trkpt>
      <trkpt lat="49.18224" lon="1.7314">
        <ele>150</ele>
        <time>2024-02-05T10:51:57.492+00:00</time>
      </trkpt>
      <trkpt lat="49.1823" lon="1.73142">
        <ele>150</ele>
        <time>2024-02-05T10:52:02.007+00:00</time>
      </trkpt>
      <trkpt lat="49.18236" lon="1.73144">
        <ele>150</ele>
        <time>2024-02-05T10:52:06.510+00:00</time>
      </trkpt>
      <trkpt lat="49.1824" lon="1.73146">
        <ele>146</ele>
        <time>2024-02-05T10:52:10.653+00:00</time>
      </trkpt>
      <trkpt lat="49.18245" lon="1.73149">
        <ele>146</ele>
        <time>2024-02-05T10:52:15.071+00:00</time>
      </trkpt>
      <trkpt lat="49.1825" lon="1.73152">
        <ele>146</ele>
        <time>2024-02-05T10:52:19.490+00:00</time>
      </trkpt>
      <trkpt lat="49.18256" lon="1.73154">
        <ele>147</ele>
        <time>2024-02-05T10:52:23.950+00:00</time>
      </trkpt>
      <trkpt lat="49.1826" lon="1.73161">
        <ele>147</ele>
        <time>2024-02-05T10:52:28.387+00:00</time>
      </trkpt>
      <trkpt lat="49.18267" lon="1.73161">
        <ele>144</ele>
        <time>2024-02-05T10:52:32.928+00:00</time>
      </trkpt>
      <trkpt lat="49.18273" lon="1.73164">
        <ele>144</ele>
        <time>2024-02-05T10:52:37.348+00:00</time>
      </trkpt>
      <trkpt lat="49.18278" lon="1.73169">
        <ele>144</ele>
        <time>2024-02-05T10:52:41.864+00:00</time>
      </trkpt>
      <trkpt lat="49.18283" lon="1.73172">
        <ele>144</ele>
        <time>2024-02-05T10:52:46.332+00:00</time>
      </trkpt>
      <trkpt lat="49.18288" lon="1.73175">
        <ele>144</ele>
        <time>2024-02-05T10:52:50.851+00:00</time>
      </trkpt>
      <trkpt lat="49.18293" lon="1.73177">
        <ele>145</ele>
        <time>2024-02-05T10:52:54.869+00:00</time>
      </trkpt>
      <trkpt lat="49.18298" lon="1.7318">
        <ele>145</ele>
        <time>2024-02-05T10:52:59.466+00:00</time>
      </trkpt>
      <trkpt lat="49.18302" lon="1.73183">
        <ele>145</ele>
        <time>2024-02-05T10:53:03.489+00:00</time>
      </trkpt>
      <trkpt lat="49.18306" lon="1.73184">
        <ele>145</ele>
        <time>2024-02-05T10:53:08.005+00:00</time>
      </trkpt>
      <trkpt lat="49.18309" lon="1.73183">
        <ele>145</ele>
        <time>2024-02-05T10:53:12.265+00:00</time>
      </trkpt>
      <trkpt lat="49.18311" lon="1.73178">
        <ele>145</ele>
        <time>2024-02-05T10:53:16.333+00:00</time>
      </trkpt>
      <trkpt lat="49.18314" lon="1.73178">
        <ele>145</ele>
        <time>2024-02-05T10:53:20.664+00:00</time>
      </trkpt>
      <trkpt lat="49.18318" lon="1.73182">
        <ele>145</ele>
        <time>2024-02-05T10:53:25.171+00:00</time>
      </trkpt>
      <trkpt lat="49.18326" lon="1.73182">
        <ele>145</ele>
        <time>2024-02-05T10:53:29.529+00:00</time>
      </trkpt>
      <trkpt lat="49.18331" lon="1.73183">
        <ele>145</ele>
        <time>2024-02-05T10:53:33.565+00:00</time>
      </trkpt>
      <trkpt lat="49.18337" lon="1.73185">
        <ele>145</ele>
        <time>2024-02-05T10:53:38.585+00:00</time>
      </trkpt>
      <trkpt lat="49.18342" lon="1.73186">
        <ele>145</ele>
        <time>2024-02-05T10:53:43.105+00:00</time>
      </trkpt>
      <trkpt lat="49.18348" lon="1.73189">
        <ele>145</ele>
        <time>2024-02-05T10:53:47.673+00:00</time>
      </trkpt>
      <trkpt lat="49.18352" lon="1.7319">
        <ele>145</ele>
        <time>2024-02-05T10:53:51.887+00:00</time>
      </trkpt>
      <trkpt lat="49.18358" lon="1.73191">
        <ele>145</ele>
        <time>2024-02-05T10:53:56.525+00:00</time>
      </trkpt>
      <trkpt lat="49.18363" lon="1.73193">
        <ele>145</ele>
        <time>2024-02-05T10:54:00.546+00:00</time>
      </trkpt>
      <trkpt lat="49.18368" lon="1.73194">
        <ele>145</ele>
        <time>2024-02-05T10:54:04.651+00:00</time>
      </trkpt>
      <trkpt lat="49.18374" lon="1.73196">
        <ele>145</ele>
        <time>2024-02-05T10:54:09.246+00:00</time>
      </trkpt>
      <trkpt lat="49.18378" lon="1.73197">
        <ele>142</ele>
        <time>2024-02-05T10:54:13.251+00:00</time>
      </trkpt>
      <trkpt lat="49.18383" lon="1.73199">
        <ele>142</ele>
        <time>2024-02-05T10:54:17.697+00:00</time>
      </trkpt>
      <trkpt lat="49.1839" lon="1.73202">
        <ele>142</ele>
        <time>2024-02-05T10:54:22.083+00:00</time>
      </trkpt>
      <trkpt lat="49.18396" lon="1.73205">
        <ele>142</ele>
        <time>2024-02-05T10:54:26.544+00:00</time>
      </trkpt>
      <trkpt lat="49.184" lon="1.73208">
        <ele>142</ele>
        <time>2024-02-05T10:54:30.566+00:00</time>
      </trkpt>
      <trkpt lat="49.18405" lon="1.73209">
        <ele>139</ele>
        <time>2024-02-05T10:54:34.680+00:00</time>
      </trkpt>
      <trkpt lat="49.18409" lon="1.73215">
        <ele>139</ele>
        <time>2024-02-05T10:54:39.605+00:00</time>
      </trkpt>
      <trkpt lat="49.18413" lon="1.73213">
        <ele>139</ele>
        <time>2024-02-05T10:54:43.696+00:00</time>
      </trkpt>
      <trkpt lat="49.18414" lon="1.7321">
        <ele>139</ele>
        <time>2024-02-05T10:54:48.701+00:00</time>
      </trkpt>
      <trkpt lat="49.18414" lon="1.7321">
        <ele>139</ele>
        <time>2024-02-05T10:54:53.695+00:00</time>
      </trkpt>
      <trkpt lat="49.18414" lon="1.73209">
        <ele>139</ele>
        <time>2024-02-05T10:54:58.324+00:00</time>
      </trkpt>
      <trkpt lat="49.18416" lon="1.73207">
        <ele>138</ele>
        <time>2024-02-05T10:55:02.676+00:00</time>
      </trkpt>
      <trkpt lat="49.18423" lon="1.73209">
        <ele>139</ele>
        <time>2024-02-05T10:55:06.699+00:00</time>
      </trkpt>
      <trkpt lat="49.18427" lon="1.7321">
        <ele>139</ele>
        <time>2024-02-05T10:55:11.229+00:00</time>
      </trkpt>
      <trkpt lat="49.18432" lon="1.73214">
        <ele>137</ele>
        <time>2024-02-05T10:55:15.681+00:00</time>
      </trkpt>
      <trkpt lat="49.18437" lon="1.73219">
        <ele>137</ele>
        <time>2024-02-05T10:55:20.271+00:00</time>
      </trkpt>
      <trkpt lat="49.18442" lon="1.73223">
        <ele>137</ele>
        <time>2024-02-05T10:55:24.410+00:00</time>
      </trkpt>
      <trkpt lat="49.18445" lon="1.73231">
        <ele>137</ele>
        <time>2024-02-05T10:55:28.965+00:00</time>
      </trkpt>
      <trkpt lat="49.18448" lon="1.73239">
        <ele>139</ele>
        <time>2024-02-05T10:55:33.151+00:00</time>
      </trkpt>
      <trkpt lat="49.18452" lon="1.73246">
        <ele>139</ele>
        <time>2024-02-05T10:55:37.651+00:00</time>
      </trkpt>
      <trkpt lat="49.18457" lon="1.73249">
        <ele>139</ele>
        <time>2024-02-05T10:55:41.848+00:00</time>
      </trkpt>
      <trkpt lat="49.18461" lon="1.73253">
        <ele>137</ele>
        <time>2024-02-05T10:55:46.046+00:00</time>
      </trkpt>
      <trkpt lat="49.18464" lon="1.73256">
        <ele>137</ele>
        <time>2024-02-05T10:55:50.113+00:00</time>
      </trkpt>
      <trkpt lat="49.18468" lon="1.73261">
        <ele>137</ele>
        <time>2024-02-05T10:55:54.269+00:00</time>
      </trkpt>
      <trkpt lat="49.18472" lon="1.73265">
        <ele>138</ele>
        <time>2024-02-05T10:55:58.461+00:00</time>
      </trkpt>
      <trkpt lat="49.18477" lon="1.73267">
        <ele>138</ele>
        <time>2024-02-05T10:56:02.548+00:00</time>
      </trkpt>
      <trkpt lat="49.18481" lon="1.73271">
        <ele>138</ele>
        <time>2024-02-05T10:56:06.713+00:00</time>
      </trkpt>
      <trkpt lat="49.18484" lon="1.73276">
        <ele>138</ele>
        <time>2024-02-05T10:56:10.701+00:00</time>
      </trkpt>
      <trkpt lat="49.18488" lon="1.73277">
        <ele>136</ele>
        <time>2024-02-05T10:56:14.795+00:00</time>
      </trkpt>
      <trkpt lat="49.18489" lon="1.73277">
        <ele>136</ele>
        <time>2024-02-05T10:56:19.667+00:00</time>
      </trkpt>
      <trkpt lat="49.18489" lon="1.73278">
        <ele>136</ele>
        <time>2024-02-05T10:56:24.492+00:00</time>
      </trkpt>
      <trkpt lat="49.18502" lon="1.73294">
        <ele>137</ele>
        <time>2024-02-05T10:56:42.649+00:00</time>
      </trkpt>
      <trkpt lat="49.18506" lon="1.73304">
        <ele>137</ele>
        <time>2024-02-05T10:56:46.670+00:00</time>
      </trkpt>
      <trkpt lat="49.18512" lon="1.73316">
        <ele>137</ele>
        <time>2024-02-05T10:56:51.270+00:00</time>
      </trkpt>
      <trkpt lat="49.18515" lon="1.73324">
        <ele>136</ele>
        <time>2024-02-05T10:56:55.672+00:00</time>
      </trkpt>
      <trkpt lat="49.1852" lon="1.73328">
        <ele>136</ele>
        <time>2024-02-05T10:56:59.668+00:00</time>
      </trkpt>
      <trkpt lat="49.18525" lon="1.73333">
        <ele>136</ele>
        <time>2024-02-05T10:57:03.667+00:00</time>
      </trkpt>
      <trkpt lat="49.18531" lon="1.73337">
        <ele>136</ele>
        <time>2024-02-05T10:57:08.290+00:00</time>
      </trkpt>
      <trkpt lat="49.18537" lon="1.7334">
        <ele>136</ele>
        <time>2024-02-05T10:57:12.690+00:00</time>
      </trkpt>
      <trkpt lat="49.18541" lon="1.73344">
        <ele>136</ele>
        <time>2024-02-05T10:57:17.130+00:00</time>
      </trkpt>
      <trkpt lat="49.18544" lon="1.73349">
        <ele>137</ele>
        <time>2024-02-05T10:57:21.249+00:00</time>
      </trkpt>
      <trkpt lat="49.1855" lon="1.73353">
        <ele>137</ele>
        <time>2024-02-05T10:57:25.668+00:00</time>
      </trkpt>
      <trkpt lat="49.18555" lon="1.73359">
        <ele>137</ele>
        <time>2024-02-05T10:57:30.684+00:00</time>
      </trkpt>
      <trkpt lat="49.1856" lon="1.73361">
        <ele>137</ele>
        <time>2024-02-05T10:57:35.328+00:00</time>
      </trkpt>
      <trkpt lat="49.18566" lon="1.73363">
        <ele>137</ele>
        <time>2024-02-05T10:57:39.415+00:00</time>
      </trkpt>
      <trkpt lat="49.18571" lon="1.7337">
        <ele>138</ele>
        <time>2024-02-05T10:57:43.705+00:00</time>
      </trkpt>
      <trkpt lat="49.18574" lon="1.73374">
        <ele>138</ele>
        <time>2024-02-05T10:57:47.912+00:00</time>
      </trkpt>
      <trkpt lat="49.18578" lon="1.73377">
        <ele>140</ele>
        <time>2024-02-05T10:57:52.029+00:00</time>
      </trkpt>
      <trkpt lat="49.18581" lon="1.73381">
        <ele>140</ele>
        <time>2024-02-05T10:57:56.332+00:00</time>
      </trkpt>
      <trkpt lat="49.18585" lon="1.73386">
        <ele>140</ele>
        <time>2024-02-05T10:58:00.674+00:00</time>
      </trkpt>
      <trkpt lat="49.18586" lon="1.73385">
        <ele>140</ele>
        <time>2024-02-05T10:58:04.731+00:00</time>
      </trkpt>
      <trkpt lat="49.18586" lon="1.73388">
        <ele>140</ele>
        <time>2024-02-05T10:58:09.260+00:00</time>
      </trkpt>
      <trkpt lat="49.18593" lon="1.73399">
        <ele>140</ele>
        <time>2024-02-05T10:58:13.454+00:00</time>
      </trkpt>
      <trkpt lat="49.18599" lon="1.73408">
        <ele>139</ele>
        <time>2024-02-05T10:58:31.216+00:00</time>
      </trkpt>
      <trkpt lat="49.18606" lon="1.73415">
        <ele>139</ele>
        <time>2024-02-05T10:58:35.327+00:00</time>
      </trkpt>
      <trkpt lat="49.1861" lon="1.73424">
        <ele>139</ele>
        <time>2024-02-05T10:58:39.769+00:00</time>
      </trkpt>
      <trkpt lat="49.18615" lon="1.73434">
        <ele>141</ele>
        <time>2024-02-05T10:58:44.269+00:00</time>
      </trkpt>
      <trkpt lat="49.18619" lon="1.73442">
        <ele>141</ele>
        <time>2024-02-05T10:58:48.353+00:00</time>
      </trkpt>
      <trkpt lat="49.18624" lon="1.73449">
        <ele>141</ele>
        <time>2024-02-05T10:58:52.707+00:00</time>
      </trkpt>
      <trkpt lat="49.18629" lon="1.73456">
        <ele>139</ele>
        <time>2024-02-05T10:58:57.087+00:00</time>
      </trkpt>
      <trkpt lat="49.18633" lon="1.73463">
        <ele>142</ele>
        <time>2024-02-05T10:59:01.209+00:00</time>
      </trkpt>
      <trkpt lat="49.18637" lon="1.7347">
        <ele>142</ele>
        <time>2024-02-05T10:59:05.408+00:00</time>
      </trkpt>
      <trkpt lat="49.1864" lon="1.73478">
        <ele>142</ele>
        <time>2024-02-05T10:59:09.931+00:00</time>
      </trkpt>
      <trkpt lat="49.18643" lon="1.73484">
        <ele>142</ele>
        <time>2024-02-05T10:59:14.166+00:00</time>
      </trkpt>
      <trkpt lat="49.18647" lon="1.73489">
        <ele>143</ele>
        <time>2024-02-05T10:59:18.689+00:00</time>
      </trkpt>
      <trkpt lat="49.18649" lon="1.73496">
        <ele>143</ele>
        <time>2024-02-05T10:59:22.699+00:00</time>
      </trkpt>
      <trkpt lat="49.1865" lon="1.73501">
        <ele>143</ele>
        <time>2024-02-05T10:59:27.145+00:00</time>
      </trkpt>
      <trkpt lat="49.1865" lon="1.73506">
        <ele>143</ele>
        <time>2024-02-05T10:59:31.509+00:00</time>
      </trkpt>
      <trkpt lat="49.18651" lon="1.73509">
        <ele>143</ele>
        <time>2024-02-05T10:59:36.104+00:00</time>
      </trkpt>
      <trkpt lat="49.18656" lon="1.73519">
        <ele>142</ele>
        <time>2024-02-05T10:59:40.414+00:00</time>
      </trkpt>
      <trkpt lat="49.18659" lon="1.73527">
        <ele>142</ele>
        <time>2024-02-05T10:59:44.452+00:00</time>
      </trkpt>
      <trkpt lat="49.18661" lon="1.73534">
        <ele>142</ele>
        <time>2024-02-05T10:59:48.947+00:00</time>
      </trkpt>
      <trkpt lat="49.18662" lon="1.73543">
        <ele>143</ele>
        <time>2024-02-05T10:59:53.468+00:00</time>
      </trkpt>
      <trkpt lat="49.18664" lon="1.7355">
        <ele>143</ele>
        <time>2024-02-05T10:59:57.932+00:00</time>
      </trkpt>
      <trkpt lat="49.18664" lon="1.73558">
        <ele>143</ele>
        <time>2024-02-05T11:00:02.069+00:00</time>
      </trkpt>
      <trkpt lat="49.18667" lon="1.73565">
        <ele>143</ele>
        <time>2024-02-05T11:00:06.130+00:00</time>
      </trkpt>
      <trkpt lat="49.18668" lon="1.73574">
        <ele>144</ele>
        <time>2024-02-05T11:00:10.682+00:00</time>
      </trkpt>
      <trkpt lat="49.1867" lon="1.73583">
        <ele>144</ele>
        <time>2024-02-05T11:00:15.573+00:00</time>
      </trkpt>
      <trkpt lat="49.18672" lon="1.7359">
        <ele>144</ele>
        <time>2024-02-05T11:00:19.671+00:00</time>
      </trkpt>
      <trkpt lat="49.18674" lon="1.73595">
        <ele>144</ele>
        <time>2024-02-05T11:00:23.688+00:00</time>
      </trkpt>
      <trkpt lat="49.18675" lon="1.73604">
        <ele>144</ele>
        <time>2024-02-05T11:00:28.509+00:00</time>
      </trkpt>
      <trkpt lat="49.18678" lon="1.73613">
        <ele>144</ele>
        <time>2024-02-05T11:00:33.011+00:00</time>
      </trkpt>
      <trkpt lat="49.1868" lon="1.7362">
        <ele>144</ele>
        <time>2024-02-05T11:00:37.549+00:00</time>
      </trkpt>
      <trkpt lat="49.18682" lon="1.73626">
        <ele>144</ele>
        <time>2024-02-05T11:00:41.648+00:00</time>
      </trkpt>
      <trkpt lat="49.18683" lon="1.73634">
        <ele>144</ele>
        <time>2024-02-05T11:00:45.683+00:00</time>
      </trkpt>
      <trkpt lat="49.18684" lon="1.73642">
        <ele>144</ele>
        <time>2024-02-05T11:00:49.926+00:00</time>
      </trkpt>
      <trkpt lat="49.18685" lon="1.73649">
        <ele>144</ele>
        <time>2024-02-05T11:00:54.269+00:00</time>
      </trkpt>
      <trkpt lat="49.18687" lon="1.73656">
        <ele>144</ele>
        <time>2024-02-05T11:00:58.385+00:00</time>
      </trkpt>
      <trkpt lat="49.18687" lon="1.73665">
        <ele>144</ele>
        <time>2024-02-05T11:01:03.047+00:00</time>
      </trkpt>
      <trkpt lat="49.18689" lon="1.73673">
        <ele>144</ele>
        <time>2024-02-05T11:01:07.485+00:00</time>
      </trkpt>
      <trkpt lat="49.18692" lon="1.73679">
        <ele>144</ele>
        <time>2024-02-05T11:01:11.674+00:00</time>
      </trkpt>
      <trkpt lat="49.18694" lon="1.73687">
        <ele>145</ele>
        <time>2024-02-05T11:01:16.045+00:00</time>
      </trkpt>
      <trkpt lat="49.18697" lon="1.73695">
        <ele>145</ele>
        <time>2024-02-05T11:01:20.554+00:00</time>
      </trkpt>
      <trkpt lat="49.18698" lon="1.73703">
        <ele>145</ele>
        <time>2024-02-05T11:01:25.254+00:00</time>
      </trkpt>
      <trkpt lat="49.18699" lon="1.7371">
        <ele>145</ele>
        <time>2024-02-05T11:01:29.689+00:00</time>
      </trkpt>
      <trkpt lat="49.18703" lon="1.73719">
        <ele>145</ele>
        <time>2024-02-05T11:01:34.147+00:00</time>
      </trkpt>
      <trkpt lat="49.18704" lon="1.73727">
        <ele>145</ele>
        <time>2024-02-05T11:01:38.187+00:00</time>
      </trkpt>
      <trkpt lat="49.18706" lon="1.73734">
        <ele>145</ele>
        <time>2024-02-05T11:01:42.229+00:00</time>
      </trkpt>
      <trkpt lat="49.18708" lon="1.73742">
        <ele>146</ele>
        <time>2024-02-05T11:01:46.728+00:00</time>
      </trkpt>
      <trkpt lat="49.1871" lon="1.73748">
        <ele>146</ele>
        <time>2024-02-05T11:01:51.067+00:00</time>
      </trkpt>
      <trkpt lat="49.18713" lon="1.73755">
        <ele>146</ele>
        <time>2024-02-05T11:01:55.324+00:00</time>
      </trkpt>
      <trkpt lat="49.18715" lon="1.73762">
        <ele>146</ele>
        <time>2024-02-05T11:01:59.726+00:00</time>
      </trkpt>
      <trkpt lat="49.18716" lon="1.73771">
        <ele>146</ele>
        <time>2024-02-05T11:02:04.489+00:00</time>
      </trkpt>
      <trkpt lat="49.18719" lon="1.73777">
        <ele>146</ele>
        <time>2024-02-05T11:02:08.647+00:00</time>
      </trkpt>
      <trkpt lat="49.18721" lon="1.73785">
        <ele>146</ele>
        <time>2024-02-05T11:02:12.704+00:00</time>
      </trkpt>
      <trkpt lat="49.18723" lon="1.73792">
        <ele>146</ele>
        <time>2024-02-05T11:02:17.248+00:00</time>
      </trkpt>
      <trkpt lat="49.18726" lon="1.73799">
        <ele>146</ele>
        <time>2024-02-05T11:02:21.324+00:00</time>
      </trkpt>
      <trkpt lat="49.18729" lon="1.73806">
        <ele>146</ele>
        <time>2024-02-05T11:02:25.474+00:00</time>
      </trkpt>
      <trkpt lat="49.18732" lon="1.73813">
        <ele>146</ele>
        <time>2024-02-05T11:02:29.669+00:00</time>
      </trkpt>
      <trkpt lat="49.18735" lon="1.73819">
        <ele>146</ele>
        <time>2024-02-05T11:02:34.048+00:00</time>
      </trkpt>
      <trkpt lat="49.18738" lon="1.73826">
        <ele>146</ele>
        <time>2024-02-05T11:02:38.242+00:00</time>
      </trkpt>
      <trkpt lat="49.1874" lon="1.73833">
        <ele>146</ele>
        <time>2024-02-05T11:02:42.528+00:00</time>
      </trkpt>
      <trkpt lat="49.18744" lon="1.7384">
        <ele>146</ele>
        <time>2024-02-05T11:02:47.048+00:00</time>
      </trkpt>
      <trkpt lat="49.18747" lon="1.73845">
        <ele>146</ele>
        <time>2024-02-05T11:02:51.181+00:00</time>
      </trkpt>
      <trkpt lat="49.18751" lon="1.73851">
        <ele>146</ele>
        <time>2024-02-05T11:02:55.265+00:00</time>
      </trkpt>
      <trkpt lat="49.18755" lon="1.73857">
        <ele>146</ele>
        <time>2024-02-05T11:02:59.399+00:00</time>
      </trkpt>
      <trkpt lat="49.18758" lon="1.73863">
        <ele>146</ele>
        <time>2024-02-05T11:03:03.524+00:00</time>
      </trkpt>
      <trkpt lat="49.18762" lon="1.73868">
        <ele>146</ele>
        <time>2024-02-05T11:03:07.692+00:00</time>
      </trkpt>
      <trkpt lat="49.18765" lon="1.73873">
        <ele>145</ele>
        <time>2024-02-05T11:03:11.702+00:00</time>
      </trkpt>
      <trkpt lat="49.18769" lon="1.7388">
        <ele>145</ele>
        <time>2024-02-05T11:03:15.884+00:00</time>
      </trkpt>
      <trkpt lat="49.18773" lon="1.73886">
        <ele>145</ele>
        <time>2024-02-05T11:03:20.129+00:00</time>
      </trkpt>
      <trkpt lat="49.18777" lon="1.73892">
        <ele>145</ele>
        <time>2024-02-05T11:03:24.243+00:00</time>
      </trkpt>
      <trkpt lat="49.18781" lon="1.73898">
        <ele>145</ele>
        <time>2024-02-05T11:03:28.469+00:00</time>
      </trkpt>
      <trkpt lat="49.18784" lon="1.73903">
        <ele>145</ele>
        <time>2024-02-05T11:03:32.543+00:00</time>
      </trkpt>
      <trkpt lat="49.18788" lon="1.73909">
        <ele>145</ele>
        <time>2024-02-05T11:03:37.204+00:00</time>
      </trkpt>
      <trkpt lat="49.18792" lon="1.73914">
        <ele>145</ele>
        <time>2024-02-05T11:03:41.228+00:00</time>
      </trkpt>
      <trkpt lat="49.18796" lon="1.7392">
        <ele>145</ele>
        <time>2024-02-05T11:03:45.456+00:00</time>
      </trkpt>
      <trkpt lat="49.188" lon="1.73926">
        <ele>145</ele>
        <time>2024-02-05T11:03:49.581+00:00</time>
      </trkpt>
      <trkpt lat="49.18803" lon="1.73932">
        <ele>146</ele>
        <time>2024-02-05T11:03:53.692+00:00</time>
      </trkpt>
      <trkpt lat="49.18807" lon="1.73937">
        <ele>146</ele>
        <time>2024-02-05T11:03:57.925+00:00</time>
      </trkpt>
      <trkpt lat="49.1881" lon="1.73943">
        <ele>146</ele>
        <time>2024-02-05T11:04:02.283+00:00</time>
      </trkpt>
      <trkpt lat="49.18814" lon="1.73949">
        <ele>146</ele>
        <time>2024-02-05T11:04:06.464+00:00</time>
      </trkpt>
      <trkpt lat="49.18818" lon="1.73954">
        <ele>146</ele>
        <time>2024-02-05T11:04:10.700+00:00</time>
      </trkpt>
      <trkpt lat="49.18822" lon="1.73959">
        <ele>146</ele>
        <time>2024-02-05T11:04:14.808+00:00</time>
      </trkpt>
      <trkpt lat="49.18826" lon="1.73965">
        <ele>146</ele>
        <time>2024-02-05T11:04:19.547+00:00</time>
      </trkpt>
      <trkpt lat="49.1883" lon="1.7397">
        <ele>146</ele>
        <time>2024-02-05T11:04:23.921+00:00</time>
      </trkpt>
      <trkpt lat="49.18833" lon="1.73975">
        <ele>146</ele>
        <time>2024-02-05T11:04:28.083+00:00</time>
      </trkpt>
      <trkpt lat="49.18836" lon="1.73981">
        <ele>146</ele>
        <time>2024-02-05T11:04:32.367+00:00</time>
      </trkpt>
      <trkpt lat="49.1884" lon="1.73987">
        <ele>145</ele>
        <time>2024-02-05T11:04:36.500+00:00</time>
      </trkpt>
      <trkpt lat="49.18843" lon="1.73993">
        <ele>145</ele>
        <time>2024-02-05T11:04:40.688+00:00</time>
      </trkpt>
      <trkpt lat="49.18847" lon="1.73999">
        <ele>145</ele>
        <time>2024-02-05T11:04:44.928+00:00</time>
      </trkpt>
      <trkpt lat="49.18851" lon="1.74005">
        <ele>146</ele>
        <time>2024-02-05T11:04:49.160+00:00</time>
      </trkpt>
      <trkpt lat="49.18855" lon="1.74012">
        <ele>146</ele>
        <time>2024-02-05T11:04:53.690+00:00</time>
      </trkpt>
      <trkpt lat="49.18859" lon="1.74017">
        <ele>145</ele>
        <time>2024-02-05T11:04:58.244+00:00</time>
      </trkpt>
      <trkpt lat="49.18862" lon="1.74024">
        <ele>145</ele>
        <time>2024-02-05T11:05:02.267+00:00</time>
      </trkpt>
      <trkpt lat="49.18866" lon="1.7403">
        <ele>145</ele>
        <time>2024-02-05T11:05:06.402+00:00</time>
      </trkpt>
      <trkpt lat="49.18871" lon="1.74036">
        <ele>145</ele>
        <time>2024-02-05T11:05:11.003+00:00</time>
      </trkpt>
      <trkpt lat="49.18875" lon="1.74042">
        <ele>144</ele>
        <time>2024-02-05T11:05:15.681+00:00</time>
      </trkpt>
      <trkpt lat="49.18878" lon="1.74048">
        <ele>144</ele>
        <time>2024-02-05T11:05:19.682+00:00</time>
      </trkpt>
      <trkpt lat="49.18884" lon="1.74054">
        <ele>144</ele>
        <time>2024-02-05T11:05:24.501+00:00</time>
      </trkpt>
      <trkpt lat="49.18888" lon="1.74059">
        <ele>144</ele>
        <time>2024-02-05T11:05:28.675+00:00</time>
      </trkpt>
      <trkpt lat="49.18892" lon="1.74066">
        <ele>144</ele>
        <time>2024-02-05T11:05:33.145+00:00</time>
      </trkpt>
      <trkpt lat="49.18896" lon="1.74073">
        <ele>144</ele>
        <time>2024-02-05T11:05:37.646+00:00</time>
      </trkpt>
      <trkpt lat="49.18899" lon="1.74079">
        <ele>144</ele>
        <time>2024-02-05T11:05:41.762+00:00</time>
      </trkpt>
      <trkpt lat="49.18903" lon="1.74084">
        <ele>143</ele>
        <time>2024-02-05T11:05:46.386+00:00</time>
      </trkpt>
      <trkpt lat="49.18908" lon="1.7409">
        <ele>143</ele>
        <time>2024-02-05T11:05:50.689+00:00</time>
      </trkpt>
      <trkpt lat="49.18912" lon="1.74096">
        <ele>143</ele>
        <time>2024-02-05T11:05:55.381+00:00</time>
      </trkpt>
      <trkpt lat="49.18915" lon="1.74101">
        <ele>143</ele>
        <time>2024-02-05T11:05:59.446+00:00</time>
      </trkpt>
      <trkpt lat="49.1892" lon="1.74106">
        <ele>143</ele>
        <time>2024-02-05T11:06:03.663+00:00</time>
      </trkpt>
      <trkpt lat="49.18923" lon="1.74111">
        <ele>143</ele>
        <time>2024-02-05T11:06:07.702+00:00</time>
      </trkpt>
      <trkpt lat="49.18927" lon="1.74118">
        <ele>143</ele>
        <time>2024-02-05T11:06:11.926+00:00</time>
      </trkpt>
      <trkpt lat="49.18931" lon="1.74124">
        <ele>143</ele>
        <time>2024-02-05T11:06:16.068+00:00</time>
      </trkpt>
      <trkpt lat="49.18934" lon="1.7413">
        <ele>144</ele>
        <time>2024-02-05T11:06:20.306+00:00</time>
      </trkpt>
      <trkpt lat="49.18939" lon="1.74136">
        <ele>144</ele>
        <time>2024-02-05T11:06:25.003+00:00</time>
      </trkpt>
      <trkpt lat="49.18943" lon="1.74142">
        <ele>144</ele>
        <time>2024-02-05T11:06:29.064+00:00</time>
      </trkpt>
      <trkpt lat="49.18947" lon="1.74149">
        <ele>144</ele>
        <time>2024-02-05T11:06:33.706+00:00</time>
      </trkpt>
      <trkpt lat="49.1895" lon="1.74155">
        <ele>144</ele>
        <time>2024-02-05T11:06:37.903+00:00</time>
      </trkpt>
      <trkpt lat="49.18955" lon="1.74162">
        <ele>144</ele>
        <time>2024-02-05T11:06:42.465+00:00</time>
      </trkpt>
      <trkpt lat="49.18959" lon="1.74167">
        <ele>144</ele>
        <time>2024-02-05T11:06:46.707+00:00</time>
      </trkpt>
      <trkpt lat="49.18964" lon="1.74172">
        <ele>144</ele>
        <time>2024-02-05T11:06:51.226+00:00</time>
      </trkpt>
      <trkpt lat="49.18968" lon="1.74178">
        <ele>144</ele>
        <time>2024-02-05T11:06:55.711+00:00</time>
      </trkpt>
      <trkpt lat="49.18974" lon="1.74185">
        <ele>144</ele>
        <time>2024-02-05T11:07:00.726+00:00</time>
      </trkpt>
      <trkpt lat="49.18978" lon="1.74191">
        <ele>144</ele>
        <time>2024-02-05T11:07:05.246+00:00</time>
      </trkpt>
      <trkpt lat="49.18981" lon="1.74197">
        <ele>144</ele>
        <time>2024-02-05T11:07:09.484+00:00</time>
      </trkpt>
      <trkpt lat="49.18986" lon="1.74201">
        <ele>143</ele>
        <time>2024-02-05T11:07:13.645+00:00</time>
      </trkpt>
      <trkpt lat="49.18989" lon="1.74206">
        <ele>143</ele>
        <time>2024-02-05T11:07:17.676+00:00</time>
      </trkpt>
      <trkpt lat="49.18992" lon="1.74209">
        <ele>143</ele>
        <time>2024-02-05T11:07:21.668+00:00</time>
      </trkpt>
      <trkpt lat="49.18994" lon="1.74218">
        <ele>143</ele>
        <time>2024-02-05T11:07:26.207+00:00</time>
      </trkpt>
      <trkpt lat="49.19" lon="1.74223">
        <ele>143</ele>
        <time>2024-02-05T11:07:30.409+00:00</time>
      </trkpt>
      <trkpt lat="49.19004" lon="1.74226">
        <ele>143</ele>
        <time>2024-02-05T11:07:35.188+00:00</time>
      </trkpt>
      <trkpt lat="49.19007" lon="1.74231">
        <ele>143</ele>
        <time>2024-02-05T11:07:39.246+00:00</time>
      </trkpt>
      <trkpt lat="49.19008" lon="1.74238">
        <ele>143</ele>
        <time>2024-02-05T11:07:43.348+00:00</time>
      </trkpt>
      <trkpt lat="49.19013" lon="1.74243">
        <ele>143</ele>
        <time>2024-02-05T11:07:47.699+00:00</time>
      </trkpt>
      <trkpt lat="49.19016" lon="1.74246">
        <ele>143</ele>
        <time>2024-02-05T11:07:52.245+00:00</time>
      </trkpt>
      <trkpt lat="49.1902" lon="1.74253">
        <ele>143</ele>
        <time>2024-02-05T11:07:56.694+00:00</time>
      </trkpt>
      <trkpt lat="49.19024" lon="1.74258">
        <ele>143</ele>
        <time>2024-02-05T11:08:01.062+00:00</time>
      </trkpt>
      <trkpt lat="49.19027" lon="1.74262">
        <ele>143</ele>
        <time>2024-02-05T11:08:05.345+00:00</time>
      </trkpt>
      <trkpt lat="49.19031" lon="1.74269">
        <ele>143</ele>
        <time>2024-02-05T11:08:09.588+00:00</time>
      </trkpt>
      <trkpt lat="49.19035" lon="1.74275">
        <ele>143</ele>
        <time>2024-02-05T11:08:13.692+00:00</time>
      </trkpt>
      <trkpt lat="49.19038" lon="1.7428">
        <ele>143</ele>
        <time>2024-02-05T11:08:17.884+00:00</time>
      </trkpt>
      <trkpt lat="49.19043" lon="1.74286">
        <ele>143</ele>
        <time>2024-02-05T11:08:22.680+00:00</time>
      </trkpt>
      <trkpt lat="49.19047" lon="1.74291">
        <ele>143</ele>
        <time>2024-02-05T11:08:27.005+00:00</time>
      </trkpt>
      <trkpt lat="49.19051" lon="1.74296">
        <ele>143</ele>
        <time>2024-02-05T11:08:31.329+00:00</time>
      </trkpt>
      <trkpt lat="49.19055" lon="1.74302">
        <ele>143</ele>
        <time>2024-02-05T11:08:35.508+00:00</time>
      </trkpt>
      <trkpt lat="49.19058" lon="1.74308">
        <ele>143</ele>
        <time>2024-02-05T11:08:39.720+00:00</time>
      </trkpt>
      <trkpt lat="49.19061" lon="1.74313">
        <ele>143</ele>
        <time>2024-02-05T11:08:43.881+00:00</time>
      </trkpt>
      <trkpt lat="49.19065" lon="1.74319">
        <ele>143</ele>
        <time>2024-02-05T11:08:48.061+00:00</time>
      </trkpt>
      <trkpt lat="49.19069" lon="1.74326">
        <ele>143</ele>
        <time>2024-02-05T11:08:52.143+00:00</time>
      </trkpt>
      <trkpt lat="49.19072" lon="1.74332">
        <ele>143</ele>
        <time>2024-02-05T11:08:56.319+00:00</time>
      </trkpt>
      <trkpt lat="49.19076" lon="1.74338">
        <ele>143</ele>
        <time>2024-02-05T11:09:00.331+00:00</time>
      </trkpt>
      <trkpt lat="49.19079" lon="1.74344">
        <ele>143</ele>
        <time>2024-02-05T11:09:04.456+00:00</time>
      </trkpt>
      <trkpt lat="49.19082" lon="1.7435">
        <ele>142</ele>
        <time>2024-02-05T11:09:08.568+00:00</time>
      </trkpt>
      <trkpt lat="49.19087" lon="1.74356">
        <ele>142</ele>
        <time>2024-02-05T11:09:13.025+00:00</time>
      </trkpt>
      <trkpt lat="49.1909" lon="1.74363">
        <ele>142</ele>
        <time>2024-02-05T11:09:17.481+00:00</time>
      </trkpt>
      <trkpt lat="49.19094" lon="1.74371">
        <ele>142</ele>
        <time>2024-02-05T11:09:21.848+00:00</time>
      </trkpt>
      <trkpt lat="49.19098" lon="1.74378">
        <ele>141</ele>
        <time>2024-02-05T11:09:26.306+00:00</time>
      </trkpt>
      <trkpt lat="49.19101" lon="1.74386">
        <ele>141</ele>
        <time>2024-02-05T11:09:30.346+00:00</time>
      </trkpt>
      <trkpt lat="49.19105" lon="1.74393">
        <ele>141</ele>
        <time>2024-02-05T11:09:34.902+00:00</time>
      </trkpt>
      <trkpt lat="49.19109" lon="1.744">
        <ele>141</ele>
        <time>2024-02-05T11:09:39.460+00:00</time>
      </trkpt>
      <trkpt lat="49.19113" lon="1.74407">
        <ele>141</ele>
        <time>2024-02-05T11:09:43.466+00:00</time>
      </trkpt>
      <trkpt lat="49.19116" lon="1.74414">
        <ele>141</ele>
        <time>2024-02-05T11:09:47.646+00:00</time>
      </trkpt>
      <trkpt lat="49.19119" lon="1.7442">
        <ele>141</ele>
        <time>2024-02-05T11:09:51.708+00:00</time>
      </trkpt>
      <trkpt lat="49.19123" lon="1.74426">
        <ele>141</ele>
        <time>2024-02-05T11:09:55.908+00:00</time>
      </trkpt>
      <trkpt lat="49.19127" lon="1.74434">
        <ele>140</ele>
        <time>2024-02-05T11:10:00.362+00:00</time>
      </trkpt>
      <trkpt lat="49.1913" lon="1.74439">
        <ele>140</ele>
        <time>2024-02-05T11:10:04.408+00:00</time>
      </trkpt>
      <trkpt lat="49.19134" lon="1.74446">
        <ele>140</ele>
        <time>2024-02-05T11:10:08.943+00:00</time>
      </trkpt>
      <trkpt lat="49.19137" lon="1.74453">
        <ele>140</ele>
        <time>2024-02-05T11:10:12.988+00:00</time>
      </trkpt>
      <trkpt lat="49.19141" lon="1.74459">
        <ele>140</ele>
        <time>2024-02-05T11:10:17.043+00:00</time>
      </trkpt>
      <trkpt lat="49.19144" lon="1.74466">
        <ele>140</ele>
        <time>2024-02-05T11:10:21.667+00:00</time>
      </trkpt>
      <trkpt lat="49.19148" lon="1.74474">
        <ele>140</ele>
        <time>2024-02-05T11:10:26.350+00:00</time>
      </trkpt>
      <trkpt lat="49.19152" lon="1.74481">
        <ele>140</ele>
        <time>2024-02-05T11:10:30.945+00:00</time>
      </trkpt>
      <trkpt lat="49.19156" lon="1.74487">
        <ele>139</ele>
        <time>2024-02-05T11:10:35.021+00:00</time>
      </trkpt>
      <trkpt lat="49.1916" lon="1.74493">
        <ele>139</ele>
        <time>2024-02-05T11:10:39.089+00:00</time>
      </trkpt>
      <trkpt lat="49.19164" lon="1.74499">
        <ele>139</ele>
        <time>2024-02-05T11:10:43.106+00:00</time>
      </trkpt>
      <trkpt lat="49.19168" lon="1.74504">
        <ele>139</ele>
        <time>2024-02-05T11:10:47.163+00:00</time>
      </trkpt>
      <trkpt lat="49.19172" lon="1.7451">
        <ele>139</ele>
        <time>2024-02-05T11:10:51.718+00:00</time>
      </trkpt>
      <trkpt lat="49.19177" lon="1.74517">
        <ele>139</ele>
        <time>2024-02-05T11:10:56.410+00:00</time>
      </trkpt>
      <trkpt lat="49.19182" lon="1.74522">
        <ele>139</ele>
        <time>2024-02-05T11:11:01.001+00:00</time>
      </trkpt>
      <trkpt lat="49.19186" lon="1.74528">
        <ele>139</ele>
        <time>2024-02-05T11:11:05.066+00:00</time>
      </trkpt>
      <trkpt lat="49.1919" lon="1.74534">
        <ele>139</ele>
        <time>2024-02-05T11:11:09.562+00:00</time>
      </trkpt>
      <trkpt lat="49.19194" lon="1.74539">
        <ele>139</ele>
        <time>2024-02-05T11:11:13.705+00:00</time>
      </trkpt>
      <trkpt lat="49.19199" lon="1.74545">
        <ele>138</ele>
        <time>2024-02-05T11:11:18.470+00:00</time>
      </trkpt>
      <trkpt lat="49.19203" lon="1.74551">
        <ele>138</ele>
        <time>2024-02-05T11:11:22.962+00:00</time>
      </trkpt>
      <trkpt lat="49.19207" lon="1.74556">
        <ele>138</ele>
        <time>2024-02-05T11:11:26.991+00:00</time>
      </trkpt>
      <trkpt lat="49.19211" lon="1.74562">
        <ele>138</ele>
        <time>2024-02-05T11:11:31.583+00:00</time>
      </trkpt>
      <trkpt lat="49.19216" lon="1.74568">
        <ele>138</ele>
        <time>2024-02-05T11:11:36.463+00:00</time>
      </trkpt>
      <trkpt lat="49.1922" lon="1.74574">
        <ele>137</ele>
        <time>2024-02-05T11:11:40.501+00:00</time>
      </trkpt>
      <trkpt lat="49.19224" lon="1.74577">
        <ele>137</ele>
        <time>2024-02-05T11:11:45.091+00:00</time>
      </trkpt>
      <trkpt lat="49.19228" lon="1.74585">
        <ele>137</ele>
        <time>2024-02-05T11:11:49.696+00:00</time>
      </trkpt>
      <trkpt lat="49.19232" lon="1.74591">
        <ele>137</ele>
        <time>2024-02-05T11:11:53.924+00:00</time>
      </trkpt>
      <trkpt lat="49.19236" lon="1.74597">
        <ele>137</ele>
        <time>2024-02-05T11:11:57.930+00:00</time>
      </trkpt>
      <trkpt lat="49.1924" lon="1.74602">
        <ele>135</ele>
        <time>2024-02-05T11:12:02.187+00:00</time>
      </trkpt>
      <trkpt lat="49.19244" lon="1.74608">
        <ele>135</ele>
        <time>2024-02-05T11:12:06.424+00:00</time>
      </trkpt>
      <trkpt lat="49.19249" lon="1.74612">
        <ele>135</ele>
        <time>2024-02-05T11:12:10.621+00:00</time>
      </trkpt>
      <trkpt lat="49.19253" lon="1.74618">
        <ele>135</ele>
        <time>2024-02-05T11:12:14.693+00:00</time>
      </trkpt>
      <trkpt lat="49.19258" lon="1.74624">
        <ele>135</ele>
        <time>2024-02-05T11:12:18.809+00:00</time>
      </trkpt>
      <trkpt lat="49.19263" lon="1.7463">
        <ele>135</ele>
        <time>2024-02-05T11:12:23.165+00:00</time>
      </trkpt>
      <trkpt lat="49.19267" lon="1.74635">
        <ele>134</ele>
        <time>2024-02-05T11:12:27.487+00:00</time>
      </trkpt>
      <trkpt lat="49.19272" lon="1.74643">
        <ele>134</ele>
        <time>2024-02-05T11:12:32.704+00:00</time>
      </trkpt>
      <trkpt lat="49.19277" lon="1.74648">
        <ele>134</ele>
        <time>2024-02-05T11:12:37.027+00:00</time>
      </trkpt>
      <trkpt lat="49.19281" lon="1.74653">
        <ele>134</ele>
        <time>2024-02-05T11:12:41.471+00:00</time>
      </trkpt>
      <trkpt lat="49.19286" lon="1.74659">
        <ele>134</ele>
        <time>2024-02-05T11:12:45.626+00:00</time>
      </trkpt>
      <trkpt lat="49.1929" lon="1.74665">
        <ele>134</ele>
        <time>2024-02-05T11:12:49.695+00:00</time>
      </trkpt>
      <trkpt lat="49.19294" lon="1.74671">
        <ele>134</ele>
        <time>2024-02-05T11:12:54.464+00:00</time>
      </trkpt>
      <trkpt lat="49.19299" lon="1.74677">
        <ele>134</ele>
        <time>2024-02-05T11:12:58.704+00:00</time>
      </trkpt>
      <trkpt lat="49.19304" lon="1.74683">
        <ele>134</ele>
        <time>2024-02-05T11:13:03.245+00:00</time>
      </trkpt>
      <trkpt lat="49.19308" lon="1.7469">
        <ele>134</ele>
        <time>2024-02-05T11:13:07.700+00:00</time>
      </trkpt>
      <trkpt lat="49.19314" lon="1.74696">
        <ele>134</ele>
        <time>2024-02-05T11:13:12.184+00:00</time>
      </trkpt>
      <trkpt lat="49.19318" lon="1.74702">
        <ele>134</ele>
        <time>2024-02-05T11:13:16.604+00:00</time>
      </trkpt>
      <trkpt lat="49.19324" lon="1.74708">
        <ele>134</ele>
        <time>2024-02-05T11:13:21.283+00:00</time>
      </trkpt>
      <trkpt lat="49.19328" lon="1.74714">
        <ele>133</ele>
        <time>2024-02-05T11:13:25.711+00:00</time>
      </trkpt>
      <trkpt lat="49.19332" lon="1.74721">
        <ele>133</ele>
        <time>2024-02-05T11:13:30.029+00:00</time>
      </trkpt>
      <trkpt lat="49.19337" lon="1.74727">
        <ele>133</ele>
        <time>2024-02-05T11:13:34.343+00:00</time>
      </trkpt>
      <trkpt lat="49.19342" lon="1.74733">
        <ele>133</ele>
        <time>2024-02-05T11:13:38.672+00:00</time>
      </trkpt>
      <trkpt lat="49.19346" lon="1.74738">
        <ele>132</ele>
        <time>2024-02-05T11:13:42.701+00:00</time>
      </trkpt>
      <trkpt lat="49.1935" lon="1.74744">
        <ele>132</ele>
        <time>2024-02-05T11:13:47.168+00:00</time>
      </trkpt>
      <trkpt lat="49.19354" lon="1.7475">
        <ele>132</ele>
        <time>2024-02-05T11:13:51.283+00:00</time>
      </trkpt>
      <trkpt lat="49.19359" lon="1.74755">
        <ele>132</ele>
        <time>2024-02-05T11:13:55.711+00:00</time>
      </trkpt>
      <trkpt lat="49.19363" lon="1.74761">
        <ele>132</ele>
        <time>2024-02-05T11:13:59.824+00:00</time>
      </trkpt>
      <trkpt lat="49.19367" lon="1.74766">
        <ele>131</ele>
        <time>2024-02-05T11:14:04.272+00:00</time>
      </trkpt>
      <trkpt lat="49.19372" lon="1.74774">
        <ele>131</ele>
        <time>2024-02-05T11:14:08.625+00:00</time>
      </trkpt>
      <trkpt lat="49.19376" lon="1.74778">
        <ele>131</ele>
        <time>2024-02-05T11:14:12.724+00:00</time>
      </trkpt>
      <trkpt lat="49.19379" lon="1.74784">
        <ele>131</ele>
        <time>2024-02-05T11:14:17.026+00:00</time>
      </trkpt>
      <trkpt lat="49.19384" lon="1.74791">
        <ele>131</ele>
        <time>2024-02-05T11:14:21.325+00:00</time>
      </trkpt>
      <trkpt lat="49.19388" lon="1.74797">
        <ele>130</ele>
        <time>2024-02-05T11:14:25.606+00:00</time>
      </trkpt>
      <trkpt lat="49.19393" lon="1.74802">
        <ele>130</ele>
        <time>2024-02-05T11:14:30.124+00:00</time>
      </trkpt>
      <trkpt lat="49.19397" lon="1.74807">
        <ele>130</ele>
        <time>2024-02-05T11:14:34.327+00:00</time>
      </trkpt>
      <trkpt lat="49.19401" lon="1.74813">
        <ele>130</ele>
        <time>2024-02-05T11:14:38.707+00:00</time>
      </trkpt>
      <trkpt lat="49.19406" lon="1.74819">
        <ele>130</ele>
        <time>2024-02-05T11:14:43.425+00:00</time>
      </trkpt>
      <trkpt lat="49.1941" lon="1.74824">
        <ele>129</ele>
        <time>2024-02-05T11:14:47.847+00:00</time>
      </trkpt>
      <trkpt lat="49.19414" lon="1.7483">
        <ele>129</ele>
        <time>2024-02-05T11:14:52.263+00:00</time>
      </trkpt>
      <trkpt lat="49.19419" lon="1.74836">
        <ele>129</ele>
        <time>2024-02-05T11:14:56.724+00:00</time>
      </trkpt>
      <trkpt lat="49.19424" lon="1.74842">
        <ele>129</ele>
        <time>2024-02-05T11:15:01.383+00:00</time>
      </trkpt>
      <trkpt lat="49.19428" lon="1.74847">
        <ele>129</ele>
        <time>2024-02-05T11:15:05.390+00:00</time>
      </trkpt>
      <trkpt lat="49.19432" lon="1.74852">
        <ele>128</ele>
        <time>2024-02-05T11:15:09.585+00:00</time>
      </trkpt>
      <trkpt lat="49.19436" lon="1.74857">
        <ele>128</ele>
        <time>2024-02-05T11:15:13.721+00:00</time>
      </trkpt>
      <trkpt lat="49.19442" lon="1.74863">
        <ele>128</ele>
        <time>2024-02-05T11:15:18.472+00:00</time>
      </trkpt>
      <trkpt lat="49.19447" lon="1.74869">
        <ele>128</ele>
        <time>2024-02-05T11:15:22.719+00:00</time>
      </trkpt>
      <trkpt lat="49.19453" lon="1.74874">
        <ele>128</ele>
        <time>2024-02-05T11:15:27.288+00:00</time>
      </trkpt>
      <trkpt lat="49.19457" lon="1.74879">
        <ele>127</ele>
        <time>2024-02-05T11:15:31.713+00:00</time>
      </trkpt>
      <trkpt lat="49.19462" lon="1.74883">
        <ele>126</ele>
        <time>2024-02-05T11:15:35.708+00:00</time>
      </trkpt>
      <trkpt lat="49.19468" lon="1.74889">
        <ele>126</ele>
        <time>2024-02-05T11:15:40.686+00:00</time>
      </trkpt>
      <trkpt lat="49.19473" lon="1.74894">
        <ele>126</ele>
        <time>2024-02-05T11:15:44.695+00:00</time>
      </trkpt>
      <trkpt lat="49.19479" lon="1.74899">
        <ele>126</ele>
        <time>2024-02-05T11:15:49.550+00:00</time>
      </trkpt>
      <trkpt lat="49.19483" lon="1.74903">
        <ele>125</ele>
        <time>2024-02-05T11:15:53.603+00:00</time>
      </trkpt>
      <trkpt lat="49.19488" lon="1.74908">
        <ele>124</ele>
        <time>2024-02-05T11:15:58.147+00:00</time>
      </trkpt>
      <trkpt lat="49.19493" lon="1.74913">
        <ele>124</ele>
        <time>2024-02-05T11:16:02.186+00:00</time>
      </trkpt>
      <trkpt lat="49.19497" lon="1.74917">
        <ele>124</ele>
        <time>2024-02-05T11:16:06.696+00:00</time>
      </trkpt>
      <trkpt lat="49.19503" lon="1.74922">
        <ele>124</ele>
        <time>2024-02-05T11:16:11.722+00:00</time>
      </trkpt>
      <trkpt lat="49.19507" lon="1.74927">
        <ele>124</ele>
        <time>2024-02-05T11:16:15.727+00:00</time>
      </trkpt>
      <trkpt lat="49.19512" lon="1.74933">
        <ele>123</ele>
        <time>2024-02-05T11:16:20.287+00:00</time>
      </trkpt>
      <trkpt lat="49.19517" lon="1.74938">
        <ele>121</ele>
        <time>2024-02-05T11:16:24.905+00:00</time>
      </trkpt>
      <trkpt lat="49.19523" lon="1.74943">
        <ele>121</ele>
        <time>2024-02-05T11:16:29.401+00:00</time>
      </trkpt>
      <trkpt lat="49.19529" lon="1.74948">
        <ele>121</ele>
        <time>2024-02-05T11:16:33.909+00:00</time>
      </trkpt>
      <trkpt lat="49.19534" lon="1.74952">
        <ele>121</ele>
        <time>2024-02-05T11:16:38.487+00:00</time>
      </trkpt>
      <trkpt lat="49.19539" lon="1.74958">
        <ele>121</ele>
        <time>2024-02-05T11:16:43.126+00:00</time>
      </trkpt>
      <trkpt lat="49.19545" lon="1.74962">
        <ele>119</ele>
        <time>2024-02-05T11:16:47.552+00:00</time>
      </trkpt>
      <trkpt lat="49.1955" lon="1.74967">
        <ele>119</ele>
        <time>2024-02-05T11:16:52.110+00:00</time>
      </trkpt>
      <trkpt lat="49.19555" lon="1.74971">
        <ele>119</ele>
        <time>2024-02-05T11:16:56.587+00:00</time>
      </trkpt>
      <trkpt lat="49.1956" lon="1.74975">
        <ele>119</ele>
        <time>2024-02-05T11:17:00.643+00:00</time>
      </trkpt>
      <trkpt lat="49.19565" lon="1.7498">
        <ele>119</ele>
        <time>2024-02-05T11:17:05.211+00:00</time>
      </trkpt>
      <trkpt lat="49.19569" lon="1.74985">
        <ele>119</ele>
        <time>2024-02-05T11:17:09.305+00:00</time>
      </trkpt>
      <trkpt lat="49.19574" lon="1.7499">
        <ele>118</ele>
        <time>2024-02-05T11:17:13.566+00:00</time>
      </trkpt>
      <trkpt lat="49.19579" lon="1.74994">
        <ele>118</ele>
        <time>2024-02-05T11:17:18.025+00:00</time>
      </trkpt>
      <trkpt lat="49.19584" lon="1.75">
        <ele>118</ele>
        <time>2024-02-05T11:17:22.613+00:00</time>
      </trkpt>
      <trkpt lat="49.19588" lon="1.75006">
        <ele>118</ele>
        <time>2024-02-05T11:17:27.290+00:00</time>
      </trkpt>
      <trkpt lat="49.19593" lon="1.7501">
        <ele>118</ele>
        <time>2024-02-05T11:17:31.727+00:00</time>
      </trkpt>
      <trkpt lat="49.19598" lon="1.75015">
        <ele>117</ele>
        <time>2024-02-05T11:17:36.425+00:00</time>
      </trkpt>
      <trkpt lat="49.19604" lon="1.75019">
        <ele>117</ele>
        <time>2024-02-05T11:17:40.912+00:00</time>
      </trkpt>
      <trkpt lat="49.1961" lon="1.75024">
        <ele>117</ele>
        <time>2024-02-05T11:17:45.570+00:00</time>
      </trkpt>
      <trkpt lat="49.19614" lon="1.75029">
        <ele>117</ele>
        <time>2024-02-05T11:17:50.226+00:00</time>
      </trkpt>
      <trkpt lat="49.19619" lon="1.75034">
        <ele>117</ele>
        <time>2024-02-05T11:17:54.686+00:00</time>
      </trkpt>
      <trkpt lat="49.19624" lon="1.75039">
        <ele>117</ele>
        <time>2024-02-05T11:17:59.004+00:00</time>
      </trkpt>
      <trkpt lat="49.19629" lon="1.75044">
        <ele>115</ele>
        <time>2024-02-05T11:18:03.454+00:00</time>
      </trkpt>
      <trkpt lat="49.19633" lon="1.75049">
        <ele>115</ele>
        <time>2024-02-05T11:18:07.511+00:00</time>
      </trkpt>
      <trkpt lat="49.19638" lon="1.75054">
        <ele>115</ele>
        <time>2024-02-05T11:18:12.009+00:00</time>
      </trkpt>
      <trkpt lat="49.19643" lon="1.75059">
        <ele>115</ele>
        <time>2024-02-05T11:18:16.552+00:00</time>
      </trkpt>
      <trkpt lat="49.19648" lon="1.75064">
        <ele>115</ele>
        <time>2024-02-05T11:18:20.747+00:00</time>
      </trkpt>
      <trkpt lat="49.19652" lon="1.75068">
        <ele>115</ele>
        <time>2024-02-05T11:18:25.287+00:00</time>
      </trkpt>
      <trkpt lat="49.19657" lon="1.75073">
        <ele>112</ele>
        <time>2024-02-05T11:18:29.718+00:00</time>
      </trkpt>
      <trkpt lat="49.19663" lon="1.75078">
        <ele>112</ele>
        <time>2024-02-05T11:18:34.662+00:00</time>
      </trkpt>
      <trkpt lat="49.19667" lon="1.75083">
        <ele>112</ele>
        <time>2024-02-05T11:18:38.747+00:00</time>
      </trkpt>
      <trkpt lat="49.1967" lon="1.75088">
        <ele>112</ele>
        <time>2024-02-05T11:18:42.903+00:00</time>
      </trkpt>
      <trkpt lat="49.19675" lon="1.75092">
        <ele>112</ele>
        <time>2024-02-05T11:18:46.996+00:00</time>
      </trkpt>
      <trkpt lat="49.19678" lon="1.75099">
        <ele>112</ele>
        <time>2024-02-05T11:18:51.032+00:00</time>
      </trkpt>
      <trkpt lat="49.19683" lon="1.75101">
        <ele>110</ele>
        <time>2024-02-05T11:18:55.110+00:00</time>
      </trkpt>
      <trkpt lat="49.19687" lon="1.75104">
        <ele>110</ele>
        <time>2024-02-05T11:18:59.124+00:00</time>
      </trkpt>
      <trkpt lat="49.19694" lon="1.75107">
        <ele>110</ele>
        <time>2024-02-05T11:19:03.590+00:00</time>
      </trkpt>
      <trkpt lat="49.19699" lon="1.75107">
        <ele>110</ele>
        <time>2024-02-05T11:19:07.672+00:00</time>
      </trkpt>
      <trkpt lat="49.19705" lon="1.75108">
        <ele>110</ele>
        <time>2024-02-05T11:19:12.326+00:00</time>
      </trkpt>
      <trkpt lat="49.1971" lon="1.75108">
        <ele>109</ele>
        <time>2024-02-05T11:19:16.672+00:00</time>
      </trkpt>
      <trkpt lat="49.19715" lon="1.75108">
        <ele>109</ele>
        <time>2024-02-05T11:19:20.802+00:00</time>
      </trkpt>
      <trkpt lat="49.19721" lon="1.75108">
        <ele>109</ele>
        <time>2024-02-05T11:19:24.955+00:00</time>
      </trkpt>
      <trkpt lat="49.19726" lon="1.75108">
        <ele>109</ele>
        <time>2024-02-05T11:19:28.986+00:00</time>
      </trkpt>
      <trkpt lat="49.19731" lon="1.75108">
        <ele>109</ele>
        <time>2024-02-05T11:19:33.104+00:00</time>
      </trkpt>
      <trkpt lat="49.19737" lon="1.75106">
        <ele>107</ele>
        <time>2024-02-05T11:19:37.370+00:00</time>
      </trkpt>
      <trkpt lat="49.1974" lon="1.75105">
        <ele>107</ele>
        <time>2024-02-05T11:19:41.682+00:00</time>
      </trkpt>
      <trkpt lat="49.19745" lon="1.75109">
        <ele>107</ele>
        <time>2024-02-05T11:19:46.131+00:00</time>
      </trkpt>
      <trkpt lat="49.19751" lon="1.7511">
        <ele>107</ele>
        <time>2024-02-05T11:19:50.205+00:00</time>
      </trkpt>
      <trkpt lat="49.19757" lon="1.7511">
        <ele>107</ele>
        <time>2024-02-05T11:19:54.225+00:00</time>
      </trkpt>
      <trkpt lat="49.19764" lon="1.7511">
        <ele>107</ele>
        <time>2024-02-05T11:19:58.350+00:00</time>
      </trkpt>
      <trkpt lat="49.19768" lon="1.75109">
        <ele>106</ele>
        <time>2024-02-05T11:20:02.448+00:00</time>
      </trkpt>
      <trkpt lat="49.19773" lon="1.75108">
        <ele>106</ele>
        <time>2024-02-05T11:20:06.681+00:00</time>
      </trkpt>
      <trkpt lat="49.19779" lon="1.75111">
        <ele>106</ele>
        <time>2024-02-05T11:20:11.509+00:00</time>
      </trkpt>
      <trkpt lat="49.19784" lon="1.75112">
        <ele>106</ele>
        <time>2024-02-05T11:20:15.531+00:00</time>
      </trkpt>
      <trkpt lat="49.19789" lon="1.75111">
        <ele>106</ele>
        <time>2024-02-05T11:20:19.632+00:00</time>
      </trkpt>
      <trkpt lat="49.19794" lon="1.7511">
        <ele>105</ele>
        <time>2024-02-05T11:20:23.691+00:00</time>
      </trkpt>
      <trkpt lat="49.198" lon="1.75109">
        <ele>105</ele>
        <time>2024-02-05T11:20:27.888+00:00</time>
      </trkpt>
      <trkpt lat="49.19805" lon="1.7511">
        <ele>105</ele>
        <time>2024-02-05T11:20:31.945+00:00</time>
      </trkpt>
      <trkpt lat="49.1981" lon="1.75111">
        <ele>105</ele>
        <time>2024-02-05T11:20:36.227+00:00</time>
      </trkpt>
      <trkpt lat="49.19813" lon="1.75111">
        <ele>105</ele>
        <time>2024-02-05T11:20:40.286+00:00</time>
      </trkpt>
      <trkpt lat="49.19818" lon="1.75112">
        <ele>105</ele>
        <time>2024-02-05T11:20:44.671+00:00</time>
      </trkpt>
      <trkpt lat="49.19823" lon="1.75112">
        <ele>103</ele>
        <time>2024-02-05T11:20:48.672+00:00</time>
      </trkpt>
      <trkpt lat="49.19828" lon="1.75112">
        <ele>103</ele>
        <time>2024-02-05T11:20:53.432+00:00</time>
      </trkpt>
      <trkpt lat="49.19832" lon="1.75111">
        <ele>103</ele>
        <time>2024-02-05T11:20:58.231+00:00</time>
      </trkpt>
      <trkpt lat="49.19841" lon="1.75116">
        <ele>103</ele>
        <time>2024-02-05T11:21:02.550+00:00</time>
      </trkpt>
      <trkpt lat="49.19847" lon="1.7512">
        <ele>103</ele>
        <time>2024-02-05T11:21:07.012+00:00</time>
      </trkpt>
      <trkpt lat="49.19852" lon="1.75124">
        <ele>102</ele>
        <time>2024-02-05T11:21:11.562+00:00</time>
      </trkpt>
      <trkpt lat="49.19857" lon="1.75126">
        <ele>102</ele>
        <time>2024-02-05T11:21:15.702+00:00</time>
      </trkpt>
      <trkpt lat="49.19862" lon="1.75132">
        <ele>102</ele>
        <time>2024-02-05T11:21:19.925+00:00</time>
      </trkpt>
      <trkpt lat="49.19868" lon="1.75138">
        <ele>102</ele>
        <time>2024-02-05T11:21:24.693+00:00</time>
      </trkpt>
      <trkpt lat="49.19871" lon="1.75142">
        <ele>102</ele>
        <time>2024-02-05T11:21:29.149+00:00</time>
      </trkpt>
      <trkpt lat="49.19876" lon="1.75151">
        <ele>101</ele>
        <time>2024-02-05T11:21:33.677+00:00</time>
      </trkpt>
      <trkpt lat="49.19879" lon="1.75155">
        <ele>101</ele>
        <time>2024-02-05T11:21:37.696+00:00</time>
      </trkpt>
      <trkpt lat="49.19882" lon="1.75162">
        <ele>101</ele>
        <time>2024-02-05T11:21:41.702+00:00</time>
      </trkpt>
      <trkpt lat="49.19887" lon="1.75167">
        <ele>101</ele>
        <time>2024-02-05T11:21:45.829+00:00</time>
      </trkpt>
      <trkpt lat="49.1989" lon="1.75173">
        <ele>101</ele>
        <time>2024-02-05T11:21:49.947+00:00</time>
      </trkpt>
      <trkpt lat="49.19894" lon="1.75179">
        <ele>101</ele>
        <time>2024-02-05T11:21:54.493+00:00</time>
      </trkpt>
      <trkpt lat="49.19896" lon="1.75186">
        <ele>100</ele>
        <time>2024-02-05T11:21:58.677+00:00</time>
      </trkpt>
      <trkpt lat="49.199" lon="1.7519">
        <ele>100</ele>
        <time>2024-02-05T11:22:03.365+00:00</time>
      </trkpt>
      <trkpt lat="49.19906" lon="1.75195">
        <ele>98</ele>
        <time>2024-02-05T11:22:08.272+00:00</time>
      </trkpt>
      <trkpt lat="49.19909" lon="1.75201">
        <ele>98</ele>
        <time>2024-02-05T11:22:12.489+00:00</time>
      </trkpt>
      <trkpt lat="49.19914" lon="1.75208">
        <ele>97</ele>
        <time>2024-02-05T11:22:17.583+00:00</time>
      </trkpt>
      <trkpt lat="49.19921" lon="1.75215">
        <ele>97</ele>
        <time>2024-02-05T11:22:22.110+00:00</time>
      </trkpt>
      <trkpt lat="49.19923" lon="1.75223">
        <ele>97</ele>
        <time>2024-02-05T11:22:26.591+00:00</time>
      </trkpt>
      <trkpt lat="49.19927" lon="1.75229">
        <ele>97</ele>
        <time>2024-02-05T11:22:30.678+00:00</time>
      </trkpt>
      <trkpt lat="49.19932" lon="1.75234">
        <ele>95</ele>
        <time>2024-02-05T11:22:34.971+00:00</time>
      </trkpt>
      <trkpt lat="49.19936" lon="1.75241">
        <ele>93</ele>
        <time>2024-02-05T11:22:39.423+00:00</time>
      </trkpt>
      <trkpt lat="49.1994" lon="1.75248">
        <ele>93</ele>
        <time>2024-02-05T11:22:43.888+00:00</time>
      </trkpt>
      <trkpt lat="49.19945" lon="1.75254">
        <ele>93</ele>
        <time>2024-02-05T11:22:48.444+00:00</time>
      </trkpt>
      <trkpt lat="49.19948" lon="1.75259">
        <ele>93</ele>
        <time>2024-02-05T11:22:52.928+00:00</time>
      </trkpt>
      <trkpt lat="49.19951" lon="1.75266">
        <ele>92</ele>
        <time>2024-02-05T11:22:57.523+00:00</time>
      </trkpt>
      <trkpt lat="49.19956" lon="1.75272">
        <ele>92</ele>
        <time>2024-02-05T11:23:02.530+00:00</time>
      </trkpt>
      <trkpt lat="49.19961" lon="1.7528">
        <ele>90</ele>
        <time>2024-02-05T11:23:06.645+00:00</time>
      </trkpt>
      <trkpt lat="49.19965" lon="1.75284">
        <ele>90</ele>
        <time>2024-02-05T11:23:11.107+00:00</time>
      </trkpt>
      <trkpt lat="49.1997" lon="1.7529">
        <ele>90</ele>
        <time>2024-02-05T11:23:15.682+00:00</time>
      </trkpt>
      <trkpt lat="49.19974" lon="1.75298">
        <ele>90</ele>
        <time>2024-02-05T11:23:20.692+00:00</time>
      </trkpt>
      <trkpt lat="49.19978" lon="1.75303">
        <ele>90</ele>
        <time>2024-02-05T11:23:25.143+00:00</time>
      </trkpt>
      <trkpt lat="49.19982" lon="1.7531">
        <ele>90</ele>
        <time>2024-02-05T11:23:29.704+00:00</time>
      </trkpt>
      <trkpt lat="49.19987" lon="1.75317">
        <ele>90</ele>
        <time>2024-02-05T11:23:34.350+00:00</time>
      </trkpt>
      <trkpt lat="49.19993" lon="1.75324">
        <ele>90</ele>
        <time>2024-02-05T11:23:38.965+00:00</time>
      </trkpt>
      <trkpt lat="49.19997" lon="1.75329">
        <ele>90</ele>
        <time>2024-02-05T11:23:43.528+00:00</time>
      </trkpt>
      <trkpt lat="49.20003" lon="1.75336">
        <ele>90</ele>
        <time>2024-02-05T11:23:48.132+00:00</time>
      </trkpt>
      <trkpt lat="49.20007" lon="1.75342">
        <ele>90</ele>
        <time>2024-02-05T11:23:52.163+00:00</time>
      </trkpt>
      <trkpt lat="49.2001" lon="1.75347">
        <ele>89</ele>
        <time>2024-02-05T11:23:56.228+00:00</time>
      </trkpt>
      <trkpt lat="49.20015" lon="1.75353">
        <ele>87</ele>
        <time>2024-02-05T11:24:00.231+00:00</time>
      </trkpt>
      <trkpt lat="49.20019" lon="1.75358">
        <ele>87</ele>
        <time>2024-02-05T11:24:04.681+00:00</time>
      </trkpt>
      <trkpt lat="49.20019" lon="1.75363">
        <ele>87</ele>
        <time>2024-02-05T11:24:08.963+00:00</time>
      </trkpt>
      <trkpt lat="49.20025" lon="1.75369">
        <ele>87</ele>
        <time>2024-02-05T11:24:13.528+00:00</time>
      </trkpt>
      <trkpt lat="49.20028" lon="1.75377">
        <ele>87</ele>
        <time>2024-02-05T11:24:18.048+00:00</time>
      </trkpt>
      <trkpt lat="49.20032" lon="1.75383">
        <ele>87</ele>
        <time>2024-02-05T11:24:22.526+00:00</time>
      </trkpt>
      <trkpt lat="49.20037" lon="1.75388">
        <ele>87</ele>
        <time>2024-02-05T11:24:26.710+00:00</time>
      </trkpt>
      <trkpt lat="49.20041" lon="1.75392">
        <ele>87</ele>
        <time>2024-02-05T11:24:31.344+00:00</time>
      </trkpt>
      <trkpt lat="49.20044" lon="1.75399">
        <ele>86</ele>
        <time>2024-02-05T11:24:35.637+00:00</time>
      </trkpt>
      <trkpt lat="49.20048" lon="1.75406">
        <ele>85</ele>
        <time>2024-02-05T11:24:40.128+00:00</time>
      </trkpt>
      <trkpt lat="49.20053" lon="1.75413">
        <ele>85</ele>
        <time>2024-02-05T11:24:44.710+00:00</time>
      </trkpt>
      <trkpt lat="49.20057" lon="1.75419">
        <ele>85</ele>
        <time>2024-02-05T11:24:48.850+00:00</time>
      </trkpt>
      <trkpt lat="49.20061" lon="1.75425">
        <ele>85</ele>
        <time>2024-02-05T11:24:52.986+00:00</time>
      </trkpt>
      <trkpt lat="49.20067" lon="1.75431">
        <ele>86</ele>
        <time>2024-02-05T11:24:57.703+00:00</time>
      </trkpt>
      <trkpt lat="49.20074" lon="1.75433">
        <ele>86</ele>
        <time>2024-02-05T11:25:02.253+00:00</time>
      </trkpt>
      <trkpt lat="49.20078" lon="1.75434">
        <ele>86</ele>
        <time>2024-02-05T11:25:06.681+00:00</time>
      </trkpt>
      <trkpt lat="49.20082" lon="1.75442">
        <ele>86</ele>
        <time>2024-02-05T11:25:11.244+00:00</time>
      </trkpt>
      <trkpt lat="49.20087" lon="1.75448">
        <ele>86</ele>
        <time>2024-02-05T11:25:15.674+00:00</time>
      </trkpt>
      <trkpt lat="49.20091" lon="1.75454">
        <ele>86</ele>
        <time>2024-02-05T11:25:20.210+00:00</time>
      </trkpt>
      <trkpt lat="49.20096" lon="1.75461">
        <ele>86</ele>
        <time>2024-02-05T11:25:24.678+00:00</time>
      </trkpt>
      <trkpt lat="49.20099" lon="1.75469">
        <ele>85</ele>
        <time>2024-02-05T11:25:28.668+00:00</time>
      </trkpt>
      <trkpt lat="49.20105" lon="1.75474">
        <ele>85</ele>
        <time>2024-02-05T11:25:33.104+00:00</time>
      </trkpt>
      <trkpt lat="49.20106" lon="1.75481">
        <ele>85</ele>
        <time>2024-02-05T11:25:37.591+00:00</time>
      </trkpt>
      <trkpt lat="49.20109" lon="1.75485">
        <ele>85</ele>
        <time>2024-02-05T11:25:41.672+00:00</time>
      </trkpt>
      <trkpt lat="49.20113" lon="1.75486">
        <ele>85</ele>
        <time>2024-02-05T11:25:45.943+00:00</time>
      </trkpt>
      <trkpt lat="49.20117" lon="1.75491">
        <ele>85</ele>
        <time>2024-02-05T11:25:50.345+00:00</time>
      </trkpt>
      <trkpt lat="49.20121" lon="1.75496">
        <ele>85</ele>
        <time>2024-02-05T11:25:54.684+00:00</time>
      </trkpt>
      <trkpt lat="49.20126" lon="1.75495">
        <ele>84</ele>
        <time>2024-02-05T11:25:59.484+00:00</time>
      </trkpt>
      <trkpt lat="49.2013" lon="1.75493">
        <ele>84</ele>
        <time>2024-02-05T11:26:03.669+00:00</time>
      </trkpt>
      <trkpt lat="49.2013" lon="1.75493">
        <ele>84</ele>
        <time>2024-02-05T11:26:08.671+00:00</time>
      </trkpt>
      <trkpt lat="49.20129" lon="1.75497">
        <ele>84</ele>
        <time>2024-02-05T11:26:13.489+00:00</time>
      </trkpt>
      <trkpt lat="49.20124" lon="1.75503">
        <ele>85</ele>
        <time>2024-02-05T11:26:17.648+00:00</time>
      </trkpt>
      <trkpt lat="49.20121" lon="1.75508">
        <ele>85</ele>
        <time>2024-02-05T11:26:21.671+00:00</time>
      </trkpt>
      <trkpt lat="49.20124" lon="1.75511">
        <ele>85</ele>
        <time>2024-02-05T11:26:25.892+00:00</time>
      </trkpt>
      <trkpt lat="49.20132" lon="1.75514">
        <ele>84</ele>
        <time>2024-02-05T11:26:30.270+00:00</time>
      </trkpt>
      <trkpt lat="49.20136" lon="1.75516">
        <ele>84</ele>
        <time>2024-02-05T11:26:34.679+00:00</time>
      </trkpt>
      <trkpt lat="49.20141" lon="1.75517">
        <ele>84</ele>
        <time>2024-02-05T11:26:39.264+00:00</time>
      </trkpt>
      <trkpt lat="49.20146" lon="1.75521">
        <ele>84</ele>
        <time>2024-02-05T11:26:43.672+00:00</time>
      </trkpt>
      <trkpt lat="49.2015" lon="1.75525">
        <ele>84</ele>
        <time>2024-02-05T11:26:47.685+00:00</time>
      </trkpt>
      <trkpt lat="49.20155" lon="1.75527">
        <ele>82</ele>
        <time>2024-02-05T11:26:52.385+00:00</time>
      </trkpt>
      <trkpt lat="49.20159" lon="1.75531">
        <ele>82</ele>
        <time>2024-02-05T11:26:56.388+00:00</time>
      </trkpt>
      <trkpt lat="49.20165" lon="1.75534">
        <ele>82</ele>
        <time>2024-02-05T11:27:00.672+00:00</time>
      </trkpt>
      <trkpt lat="49.2017" lon="1.75538">
        <ele>82</ele>
        <time>2024-02-05T11:27:05.210+00:00</time>
      </trkpt>
      <trkpt lat="49.20174" lon="1.75539">
        <ele>82</ele>
        <time>2024-02-05T11:27:09.710+00:00</time>
      </trkpt>
      <trkpt lat="49.20178" lon="1.75541">
        <ele>82</ele>
        <time>2024-02-05T11:27:14.008+00:00</time>
      </trkpt>
      <trkpt lat="49.20184" lon="1.75546">
        <ele>82</ele>
        <time>2024-02-05T11:27:18.028+00:00</time>
      </trkpt>
      <trkpt lat="49.20188" lon="1.75546">
        <ele>82</ele>
        <time>2024-02-05T11:27:22.085+00:00</time>
      </trkpt>
      <trkpt lat="49.20195" lon="1.75546">
        <ele>82</ele>
        <time>2024-02-05T11:27:26.586+00:00</time>
      </trkpt>
      <trkpt lat="49.20198" lon="1.75548">
        <ele>82</ele>
        <time>2024-02-05T11:27:30.681+00:00</time>
      </trkpt>
      <trkpt lat="49.20197" lon="1.75548">
        <ele>82</ele>
        <time>2024-02-05T11:27:34.696+00:00</time>
      </trkpt>
      <trkpt lat="49.20198" lon="1.7555">
        <ele>82</ele>
        <time>2024-02-05T11:27:39.265+00:00</time>
      </trkpt>
      <trkpt lat="49.20208" lon="1.75559">
        <ele>82</ele>
        <time>2024-02-05T11:27:43.683+00:00</time>
      </trkpt>
      <trkpt lat="49.20215" lon="1.75564">
        <ele>82</ele>
        <time>2024-02-05T11:27:48.668+00:00</time>
      </trkpt>
      <trkpt lat="49.20219" lon="1.75566">
        <ele>82</ele>
        <time>2024-02-05T11:28:19.329+00:00</time>
      </trkpt>
      <trkpt lat="49.20216" lon="1.7557">
        <ele>82</ele>
        <time>2024-02-05T11:28:23.590+00:00</time>
      </trkpt>
      <trkpt lat="49.20221" lon="1.75582">
        <ele>82</ele>
        <time>2024-02-05T11:28:27.683+00:00</time>
      </trkpt>
      <trkpt lat="49.20222" lon="1.75591">
        <ele>82</ele>
        <time>2024-02-05T11:28:31.682+00:00</time>
      </trkpt>
      <trkpt lat="49.20221" lon="1.75599">
        <ele>82</ele>
        <time>2024-02-05T11:28:36.323+00:00</time>
      </trkpt>
      <trkpt lat="49.20217" lon="1.75607">
        <ele>82</ele>
        <time>2024-02-05T11:28:40.504+00:00</time>
      </trkpt>
      <trkpt lat="49.20217" lon="1.75613">
        <ele>82</ele>
        <time>2024-02-05T11:28:44.545+00:00</time>
      </trkpt>
      <trkpt lat="49.20218" lon="1.75621">
        <ele>82</ele>
        <time>2024-02-05T11:28:48.700+00:00</time>
      </trkpt>
      <trkpt lat="49.20217" lon="1.75629">
        <ele>82</ele>
        <time>2024-02-05T11:28:53.445+00:00</time>
      </trkpt>
      <trkpt lat="49.20217" lon="1.75636">
        <ele>82</ele>
        <time>2024-02-05T11:28:57.709+00:00</time>
      </trkpt>
      <trkpt lat="49.20214" lon="1.75641">
        <ele>82</ele>
        <time>2024-02-05T11:29:02.329+00:00</time>
      </trkpt>
      <trkpt lat="49.20213" lon="1.7565">
        <ele>82</ele>
        <time>2024-02-05T11:29:06.547+00:00</time>
      </trkpt>
      <trkpt lat="49.20213" lon="1.75659">
        <ele>82</ele>
        <time>2024-02-05T11:29:11.544+00:00</time>
      </trkpt>
      <trkpt lat="49.20216" lon="1.75666">
        <ele>82</ele>
        <time>2024-02-05T11:29:15.610+00:00</time>
      </trkpt>
      <trkpt lat="49.20214" lon="1.75677">
        <ele>82</ele>
        <time>2024-02-05T11:29:20.304+00:00</time>
      </trkpt>
      <trkpt lat="49.20213" lon="1.75683">
        <ele>81</ele>
        <time>2024-02-05T11:29:24.391+00:00</time>
      </trkpt>
      <trkpt lat="49.20213" lon="1.7569">
        <ele>81</ele>
        <time>2024-02-05T11:29:28.703+00:00</time>
      </trkpt>
      <trkpt lat="49.20214" lon="1.75698">
        <ele>81</ele>
        <time>2024-02-05T11:29:32.722+00:00</time>
      </trkpt>
      <trkpt lat="49.20214" lon="1.75707">
        <ele>81</ele>
        <time>2024-02-05T11:29:37.008+00:00</time>
      </trkpt>
      <trkpt lat="49.20213" lon="1.75715">
        <ele>81</ele>
        <time>2024-02-05T11:29:41.383+00:00</time>
      </trkpt>
      <trkpt lat="49.20212" lon="1.75725">
        <ele>81</ele>
        <time>2024-02-05T11:29:45.720+00:00</time>
      </trkpt>
      <trkpt lat="49.20211" lon="1.75735">
        <ele>81</ele>
        <time>2024-02-05T11:29:50.467+00:00</time>
      </trkpt>
      <trkpt lat="49.2021" lon="1.75743">
        <ele>80</ele>
        <time>2024-02-05T11:29:54.701+00:00</time>
      </trkpt>
      <trkpt lat="49.2021" lon="1.7575">
        <ele>80</ele>
        <time>2024-02-05T11:29:59.330+00:00</time>
      </trkpt>
      <trkpt lat="49.20209" lon="1.75757">
        <ele>80</ele>
        <time>2024-02-05T11:30:03.714+00:00</time>
      </trkpt>
      <trkpt lat="49.20211" lon="1.75765">
        <ele>81</ele>
        <time>2024-02-05T11:30:08.211+00:00</time>
      </trkpt>
      <trkpt lat="49.2021" lon="1.75775">
        <ele>81</ele>
        <time>2024-02-05T11:30:12.722+00:00</time>
      </trkpt>
      <trkpt lat="49.2021" lon="1.75787">
        <ele>81</ele>
        <time>2024-02-05T11:30:17.725+00:00</time>
      </trkpt>
      <trkpt lat="49.20209" lon="1.75794">
        <ele>81</ele>
        <time>2024-02-05T11:30:22.227+00:00</time>
      </trkpt>
      <trkpt lat="49.20211" lon="1.75804">
        <ele>81</ele>
        <time>2024-02-05T11:30:26.372+00:00</time>
      </trkpt>
      <trkpt lat="49.20211" lon="1.75813">
        <ele>81</ele>
        <time>2024-02-05T11:30:30.729+00:00</time>
      </trkpt>
      <trkpt lat="49.2021" lon="1.75822">
        <ele>81</ele>
        <time>2024-02-05T11:30:35.394+00:00</time>
      </trkpt>
      <trkpt lat="49.2021" lon="1.75831">
        <ele>81</ele>
        <time>2024-02-05T11:30:39.952+00:00</time>
      </trkpt>
      <trkpt lat="49.2021" lon="1.75841">
        <ele>81</ele>
        <time>2024-02-05T11:30:44.721+00:00</time>
      </trkpt>
      <trkpt lat="49.20209" lon="1.75849">
        <ele>81</ele>
        <time>2024-02-05T11:30:48.733+00:00</time>
      </trkpt>
      <trkpt lat="49.20209" lon="1.75858">
        <ele>81</ele>
        <time>2024-02-05T11:30:53.453+00:00</time>
      </trkpt>
      <trkpt lat="49.20208" lon="1.75866">
        <ele>82</ele>
        <time>2024-02-05T11:30:57.909+00:00</time>
      </trkpt>
      <trkpt lat="49.20207" lon="1.75875">
        <ele>82</ele>
        <time>2024-02-05T11:31:02.631+00:00</time>
      </trkpt>
      <trkpt lat="49.20206" lon="1.75883">
        <ele>83</ele>
        <time>2024-02-05T11:31:07.023+00:00</time>
      </trkpt>
      <trkpt lat="49.20205" lon="1.75892">
        <ele>83</ele>
        <time>2024-02-05T11:31:11.463+00:00</time>
      </trkpt>
      <trkpt lat="49.20205" lon="1.759">
        <ele>83</ele>
        <time>2024-02-05T11:31:16.072+00:00</time>
      </trkpt>
      <trkpt lat="49.20207" lon="1.75903">
        <ele>83</ele>
        <time>2024-02-05T11:31:20.504+00:00</time>
      </trkpt>
      <trkpt lat="49.20204" lon="1.7591">
        <ele>84</ele>
        <time>2024-02-05T11:31:24.687+00:00</time>
      </trkpt>
      <trkpt lat="49.20203" lon="1.75914">
        <ele>84</ele>
        <time>2024-02-05T11:31:29.149+00:00</time>
      </trkpt>
      <trkpt lat="49.20203" lon="1.75922">
        <ele>84</ele>
        <time>2024-02-05T11:31:33.669+00:00</time>
      </trkpt>
      <trkpt lat="49.20206" lon="1.75932">
        <ele>85</ele>
        <time>2024-02-05T11:31:38.051+00:00</time>
      </trkpt>
      <trkpt lat="49.20206" lon="1.75941">
        <ele>85</ele>
        <time>2024-02-05T11:31:42.549+00:00</time>
      </trkpt>
      <trkpt lat="49.20206" lon="1.75952">
        <ele>85</ele>
        <time>2024-02-05T11:31:46.700+00:00</time>
      </trkpt>
      <trkpt lat="49.20204" lon="1.75961">
        <ele>85</ele>
        <time>2024-02-05T11:31:51.091+00:00</time>
      </trkpt>
      <trkpt lat="49.20203" lon="1.7597">
        <ele>85</ele>
        <time>2024-02-05T11:31:55.474+00:00</time>
      </trkpt>
      <trkpt lat="49.20204" lon="1.75978">
        <ele>85</ele>
        <time>2024-02-05T11:32:00.444+00:00</time>
      </trkpt>
      <trkpt lat="49.20205" lon="1.75986">
        <ele>85</ele>
        <time>2024-02-05T11:32:04.518+00:00</time>
      </trkpt>
      <trkpt lat="49.20204" lon="1.75995">
        <ele>86</ele>
        <time>2024-02-05T11:32:09.569+00:00</time>
      </trkpt>
      <trkpt lat="49.20206" lon="1.76004">
        <ele>86</ele>
        <time>2024-02-05T11:32:13.691+00:00</time>
      </trkpt>
      <trkpt lat="49.20205" lon="1.76013">
        <ele>86</ele>
        <time>2024-02-05T11:32:18.297+00:00</time>
      </trkpt>
      <trkpt lat="49.20206" lon="1.76021">
        <ele>88</ele>
        <time>2024-02-05T11:32:22.339+00:00</time>
      </trkpt>
      <trkpt lat="49.20208" lon="1.76031">
        <ele>88</ele>
        <time>2024-02-05T11:32:27.498+00:00</time>
      </trkpt>
      <trkpt lat="49.20208" lon="1.76037">
        <ele>85</ele>
        <time>2024-02-05T11:32:31.704+00:00</time>
      </trkpt>
      <trkpt lat="49.2021" lon="1.76046">
        <ele>86</ele>
        <time>2024-02-05T11:32:36.735+00:00</time>
      </trkpt>
      <trkpt lat="49.20211" lon="1.76053">
        <ele>86</ele>
        <time>2024-02-05T11:32:41.081+00:00</time>
      </trkpt>
      <trkpt lat="49.20213" lon="1.7606">
        <ele>86</ele>
        <time>2024-02-05T11:32:45.469+00:00</time>
      </trkpt>
      <trkpt lat="49.20215" lon="1.76066">
        <ele>86</ele>
        <time>2024-02-05T11:32:50.089+00:00</time>
      </trkpt>
      <trkpt lat="49.20216" lon="1.76074">
        <ele>88</ele>
        <time>2024-02-05T11:32:54.309+00:00</time>
      </trkpt>
      <trkpt lat="49.20216" lon="1.76081">
        <ele>88</ele>
        <time>2024-02-05T11:32:58.717+00:00</time>
      </trkpt>
      <trkpt lat="49.20217" lon="1.76089">
        <ele>88</ele>
        <time>2024-02-05T11:33:02.958+00:00</time>
      </trkpt>
      <trkpt lat="49.20217" lon="1.76096">
        <ele>88</ele>
        <time>2024-02-05T11:33:07.431+00:00</time>
      </trkpt>
      <trkpt lat="49.20217" lon="1.76104">
        <ele>91</ele>
        <time>2024-02-05T11:33:11.701+00:00</time>
      </trkpt>
      <trkpt lat="49.20217" lon="1.76111">
        <ele>91</ele>
        <time>2024-02-05T11:33:15.897+00:00</time>
      </trkpt>
      <trkpt lat="49.20215" lon="1.76119">
        <ele>91</ele>
        <time>2024-02-05T11:33:20.209+00:00</time>
      </trkpt>
      <trkpt lat="49.20213" lon="1.76124">
        <ele>91</ele>
        <time>2024-02-05T11:33:24.333+00:00</time>
      </trkpt>
      <trkpt lat="49.20214" lon="1.76131">
        <ele>94</ele>
        <time>2024-02-05T11:33:28.694+00:00</time>
      </trkpt>
      <trkpt lat="49.20214" lon="1.76137">
        <ele>94</ele>
        <time>2024-02-05T11:33:33.216+00:00</time>
      </trkpt>
      <trkpt lat="49.20214" lon="1.76141">
        <ele>94</ele>
        <time>2024-02-05T11:33:37.390+00:00</time>
      </trkpt>
      <trkpt lat="49.20215" lon="1.76146">
        <ele>94</ele>
        <time>2024-02-05T11:33:41.711+00:00</time>
      </trkpt>
      <trkpt lat="49.20215" lon="1.76153">
        <ele>94</ele>
        <time>2024-02-05T11:33:46.215+00:00</time>
      </trkpt>
      <trkpt lat="49.20214" lon="1.7616">
        <ele>97</ele>
        <time>2024-02-05T11:33:50.706+00:00</time>
      </trkpt>
      <trkpt lat="49.20212" lon="1.76165">
        <ele>97</ele>
        <time>2024-02-05T11:33:55.303+00:00</time>
      </trkpt>
      <trkpt lat="49.20213" lon="1.76172">
        <ele>97</ele>
        <time>2024-02-05T11:33:59.615+00:00</time>
      </trkpt>
      <trkpt lat="49.20212" lon="1.76176">
        <ele>97</ele>
        <time>2024-02-05T11:34:03.688+00:00</time>
      </trkpt>
      <trkpt lat="49.20212" lon="1.76182">
        <ele>101</ele>
        <time>2024-02-05T11:34:08.220+00:00</time>
      </trkpt>
      <trkpt lat="49.20212" lon="1.76188">
        <ele>101</ele>
        <time>2024-02-05T11:34:12.708+00:00</time>
      </trkpt>
      <trkpt lat="49.2021" lon="1.76196">
        <ele>101</ele>
        <time>2024-02-05T11:34:17.409+00:00</time>
      </trkpt>
      <trkpt lat="49.20208" lon="1.76203">
        <ele>101</ele>
        <time>2024-02-05T11:34:21.970+00:00</time>
      </trkpt>
      <trkpt lat="49.20207" lon="1.76209">
        <ele>106</ele>
        <time>2024-02-05T11:34:26.470+00:00</time>
      </trkpt>
      <trkpt lat="49.20205" lon="1.76216">
        <ele>106</ele>
        <time>2024-02-05T11:34:31.052+00:00</time>
      </trkpt>
      <trkpt lat="49.20205" lon="1.76222">
        <ele>106</ele>
        <time>2024-02-05T11:34:35.134+00:00</time>
      </trkpt>
      <trkpt lat="49.20203" lon="1.76228">
        <ele>106</ele>
        <time>2024-02-05T11:34:39.215+00:00</time>
      </trkpt>
      <trkpt lat="49.20203" lon="1.76236">
        <ele>106</ele>
        <time>2024-02-05T11:34:43.691+00:00</time>
      </trkpt>
      <trkpt lat="49.20202" lon="1.76242">
        <ele>109</ele>
        <time>2024-02-05T11:34:47.713+00:00</time>
      </trkpt>
      <trkpt lat="49.20203" lon="1.76248">
        <ele>109</ele>
        <time>2024-02-05T11:34:52.076+00:00</time>
      </trkpt>
      <trkpt lat="49.20203" lon="1.76255">
        <ele>109</ele>
        <time>2024-02-05T11:34:56.201+00:00</time>
      </trkpt>
      <trkpt lat="49.20203" lon="1.76261">
        <ele>109</ele>
        <time>2024-02-05T11:35:00.711+00:00</time>
      </trkpt>
      <trkpt lat="49.20204" lon="1.76268">
        <ele>110</ele>
        <time>2024-02-05T11:35:05.417+00:00</time>
      </trkpt>
      <trkpt lat="49.20204" lon="1.76274">
        <ele>110</ele>
        <time>2024-02-05T11:35:09.713+00:00</time>
      </trkpt>
      <trkpt lat="49.20205" lon="1.7628">
        <ele>110</ele>
        <time>2024-02-05T11:35:14.138+00:00</time>
      </trkpt>
      <trkpt lat="49.20207" lon="1.76284">
        <ele>110</ele>
        <time>2024-02-05T11:35:18.729+00:00</time>
      </trkpt>
      <trkpt lat="49.20211" lon="1.76289">
        <ele>111</ele>
        <time>2024-02-05T11:35:23.329+00:00</time>
      </trkpt>
      <trkpt lat="49.20214" lon="1.76293">
        <ele>112</ele>
        <time>2024-02-05T11:35:27.390+00:00</time>
      </trkpt>
      <trkpt lat="49.20219" lon="1.76297">
        <ele>112</ele>
        <time>2024-02-05T11:35:32.151+00:00</time>
      </trkpt>
      <trkpt lat="49.20222" lon="1.76303">
        <ele>112</ele>
        <time>2024-02-05T11:35:36.725+00:00</time>
      </trkpt>
      <trkpt lat="49.20226" lon="1.76309">
        <ele>112</ele>
        <time>2024-02-05T11:35:41.723+00:00</time>
      </trkpt>
      <trkpt lat="49.20231" lon="1.76315">
        <ele>112</ele>
        <time>2024-02-05T11:35:46.193+00:00</time>
      </trkpt>
      <trkpt lat="49.20234" lon="1.7632">
        <ele>113</ele>
        <time>2024-02-05T11:35:50.695+00:00</time>
      </trkpt>
      <trkpt lat="49.20236" lon="1.76324">
        <ele>113</ele>
        <time>2024-02-05T11:35:54.722+00:00</time>
      </trkpt>
      <trkpt lat="49.20239" lon="1.76331">
        <ele>115</ele>
        <time>2024-02-05T11:35:59.496+00:00</time>
      </trkpt>
      <trkpt lat="49.20241" lon="1.76335">
        <ele>115</ele>
        <time>2024-02-05T11:36:04+00:00</time>
      </trkpt>
      <trkpt lat="49.20244" lon="1.7634">
        <ele>115</ele>
        <time>2024-02-05T11:36:08.727+00:00</time>
      </trkpt>
      <trkpt lat="49.20248" lon="1.76345">
        <ele>115</ele>
        <time>2024-02-05T11:36:13.729+00:00</time>
      </trkpt>
      <trkpt lat="49.20251" lon="1.76349">
        <ele>116</ele>
        <time>2024-02-05T11:36:18.411+00:00</time>
      </trkpt>
      <trkpt lat="49.20255" lon="1.76354">
        <ele>116</ele>
        <time>2024-02-05T11:36:23.110+00:00</time>
      </trkpt>
      <trkpt lat="49.20258" lon="1.76358">
        <ele>116</ele>
        <time>2024-02-05T11:36:27.695+00:00</time>
      </trkpt>
      <trkpt lat="49.20263" lon="1.76362">
        <ele>116</ele>
        <time>2024-02-05T11:36:32.699+00:00</time>
      </trkpt>
      <trkpt lat="49.20268" lon="1.76367">
        <ele>117</ele>
        <time>2024-02-05T11:36:37.337+00:00</time>
      </trkpt>
      <trkpt lat="49.20272" lon="1.76373">
        <ele>117</ele>
        <time>2024-02-05T11:36:41.699+00:00</time>
      </trkpt>
      <trkpt lat="49.20275" lon="1.76377">
        <ele>119</ele>
        <time>2024-02-05T11:36:46.051+00:00</time>
      </trkpt>
      <trkpt lat="49.20279" lon="1.76382">
        <ele>119</ele>
        <time>2024-02-05T11:36:50.215+00:00</time>
      </trkpt>
      <trkpt lat="49.20281" lon="1.76387">
        <ele>119</ele>
        <time>2024-02-05T11:36:54.477+00:00</time>
      </trkpt>
      <trkpt lat="49.20283" lon="1.76391">
        <ele>119</ele>
        <time>2024-02-05T11:36:58.549+00:00</time>
      </trkpt>
      <trkpt lat="49.20287" lon="1.76395">
        <ele>119</ele>
        <time>2024-02-05T11:37:02.691+00:00</time>
      </trkpt>
      <trkpt lat="49.2029" lon="1.764">
        <ele>119</ele>
        <time>2024-02-05T11:37:06.709+00:00</time>
      </trkpt>
      <trkpt lat="49.20293" lon="1.76403">
        <ele>121</ele>
        <time>2024-02-05T11:37:11.175+00:00</time>
      </trkpt>
      <trkpt lat="49.20297" lon="1.76407">
        <ele>121</ele>
        <time>2024-02-05T11:37:15.691+00:00</time>
      </trkpt>
      <trkpt lat="49.203" lon="1.76412">
        <ele>121</ele>
        <time>2024-02-05T11:37:20.250+00:00</time>
      </trkpt>
      <trkpt lat="49.20303" lon="1.76416">
        <ele>121</ele>
        <time>2024-02-05T11:37:24.513+00:00</time>
      </trkpt>
      <trkpt lat="49.20303" lon="1.76419">
        <ele>121</ele>
        <time>2024-02-05T11:37:28.707+00:00</time>
      </trkpt>
      <trkpt lat="49.20307" lon="1.76422">
        <ele>121</ele>
        <time>2024-02-05T11:37:33.441+00:00</time>
      </trkpt>
      <trkpt lat="49.20311" lon="1.76425">
        <ele>121</ele>
        <time>2024-02-05T11:37:38.112+00:00</time>
      </trkpt>
      <trkpt lat="49.20313" lon="1.7643">
        <ele>121</ele>
        <time>2024-02-05T11:37:42.703+00:00</time>
      </trkpt>
      <trkpt lat="49.20315" lon="1.76435">
        <ele>122</ele>
        <time>2024-02-05T11:37:47.677+00:00</time>
      </trkpt>
      <trkpt lat="49.20317" lon="1.76443">
        <ele>122</ele>
        <time>2024-02-05T11:37:57.706+00:00</time>
      </trkpt>
      <trkpt lat="49.20319" lon="1.76448">
        <ele>122</ele>
        <time>2024-02-05T11:38:02.692+00:00</time>
      </trkpt>
      <trkpt lat="49.2032" lon="1.7645">
        <ele>122</ele>
        <time>2024-02-05T11:38:07.702+00:00</time>
      </trkpt>
      <trkpt lat="49.20323" lon="1.7645">
        <ele>122</ele>
        <time>2024-02-05T11:38:12.697+00:00</time>
      </trkpt>
      <trkpt lat="49.20326" lon="1.76451">
        <ele>122</ele>
        <time>2024-02-05T11:38:17.688+00:00</time>
      </trkpt>
      <trkpt lat="49.20328" lon="1.76452">
        <ele>122</ele>
        <time>2024-02-05T11:38:22.701+00:00</time>
      </trkpt>
      <trkpt lat="49.20333" lon="1.76452">
        <ele>122</ele>
        <time>2024-02-05T11:38:27.720+00:00</time>
      </trkpt>
      <trkpt lat="49.20335" lon="1.76454">
        <ele>122</ele>
        <time>2024-02-05T11:38:32.332+00:00</time>
      </trkpt>
      <trkpt lat="49.20336" lon="1.76455">
        <ele>122</ele>
        <time>2024-02-05T11:38:36.701+00:00</time>
      </trkpt>
      <trkpt lat="49.20339" lon="1.76455">
        <ele>122</ele>
        <time>2024-02-05T11:41:34.693+00:00</time>
      </trkpt>
      <trkpt lat="49.20339" lon="1.76455">
        <ele>122</ele>
        <time>2024-02-05T11:41:38.694+00:00</time>
      </trkpt>
      <trkpt lat="49.2034" lon="1.76457">
        <ele>122</ele>
        <time>2024-02-05T11:41:43.571+00:00</time>
      </trkpt>
      <trkpt lat="49.20343" lon="1.76461">
        <ele>124</ele>
        <time>2024-02-05T11:41:47.698+00:00</time>
      </trkpt>
      <trkpt lat="49.20347" lon="1.76463">
        <ele>124</ele>
        <time>2024-02-05T11:41:52.039+00:00</time>
      </trkpt>
      <trkpt lat="49.2035" lon="1.76465">
        <ele>122</ele>
        <time>2024-02-05T11:41:56.297+00:00</time>
      </trkpt>
      <trkpt lat="49.20354" lon="1.76468">
        <ele>122</ele>
        <time>2024-02-05T11:42:00.555+00:00</time>
      </trkpt>
      <trkpt lat="49.20357" lon="1.76471">
        <ele>122</ele>
        <time>2024-02-05T11:42:04.710+00:00</time>
      </trkpt>
      <trkpt lat="49.20361" lon="1.76475">
        <ele>122</ele>
        <time>2024-02-05T11:42:08.716+00:00</time>
      </trkpt>
      <trkpt lat="49.20364" lon="1.76477">
        <ele>122</ele>
        <time>2024-02-05T11:42:13.158+00:00</time>
      </trkpt>
      <trkpt lat="49.20369" lon="1.7648">
        <ele>122</ele>
        <time>2024-02-05T11:42:17.309+00:00</time>
      </trkpt>
      <trkpt lat="49.20372" lon="1.76483">
        <ele>122</ele>
        <time>2024-02-05T11:42:21.466+00:00</time>
      </trkpt>
      <trkpt lat="49.20375" lon="1.76487">
        <ele>124</ele>
        <time>2024-02-05T11:42:25.495+00:00</time>
      </trkpt>
      <trkpt lat="49.20379" lon="1.7649">
        <ele>124</ele>
        <time>2024-02-05T11:42:29.653+00:00</time>
      </trkpt>
      <trkpt lat="49.20382" lon="1.76493">
        <ele>124</ele>
        <time>2024-02-05T11:42:33.718+00:00</time>
      </trkpt>
      <trkpt lat="49.20385" lon="1.76496">
        <ele>124</ele>
        <time>2024-02-05T11:42:37.725+00:00</time>
      </trkpt>
      <trkpt lat="49.20389" lon="1.765">
        <ele>124</ele>
        <time>2024-02-05T11:42:42.468+00:00</time>
      </trkpt>
      <trkpt lat="49.20393" lon="1.76502">
        <ele>124</ele>
        <time>2024-02-05T11:42:47.076+00:00</time>
      </trkpt>
      <trkpt lat="49.20397" lon="1.76505">
        <ele>124</ele>
        <time>2024-02-05T11:42:51.710+00:00</time>
      </trkpt>
      <trkpt lat="49.20402" lon="1.76509">
        <ele>124</ele>
        <time>2024-02-05T11:42:56.219+00:00</time>
      </trkpt>
      <trkpt lat="49.20406" lon="1.76512">
        <ele>125</ele>
        <time>2024-02-05T11:43:00.358+00:00</time>
      </trkpt>
      <trkpt lat="49.2041" lon="1.76515">
        <ele>123</ele>
        <time>2024-02-05T11:43:05.058+00:00</time>
      </trkpt>
      <trkpt lat="49.20414" lon="1.76518">
        <ele>123</ele>
        <time>2024-02-05T11:43:09.377+00:00</time>
      </trkpt>
      <trkpt lat="49.20417" lon="1.76522">
        <ele>123</ele>
        <time>2024-02-05T11:43:13.679+00:00</time>
      </trkpt>
      <trkpt lat="49.20421" lon="1.76524">
        <ele>123</ele>
        <time>2024-02-05T11:43:17.685+00:00</time>
      </trkpt>
      <trkpt lat="49.20423" lon="1.76526">
        <ele>123</ele>
        <time>2024-02-05T11:43:21.675+00:00</time>
      </trkpt>
      <trkpt lat="49.20425" lon="1.76528">
        <ele>123</ele>
        <time>2024-02-05T11:43:25.673+00:00</time>
      </trkpt>
      <trkpt lat="49.20428" lon="1.76532">
        <ele>123</ele>
        <time>2024-02-05T11:43:30.679+00:00</time>
      </trkpt>
      <trkpt lat="49.20434" lon="1.76538">
        <ele>123</ele>
        <time>2024-02-05T11:43:35.135+00:00</time>
      </trkpt>
      <trkpt lat="49.20442" lon="1.76543">
        <ele>122</ele>
        <time>2024-02-05T11:43:39.682+00:00</time>
      </trkpt>
      <trkpt lat="49.20446" lon="1.76546">
        <ele>122</ele>
        <time>2024-02-05T11:43:44.074+00:00</time>
      </trkpt>
      <trkpt lat="49.2045" lon="1.7655">
        <ele>122</ele>
        <time>2024-02-05T11:43:48.231+00:00</time>
      </trkpt>
      <trkpt lat="49.20454" lon="1.76553">
        <ele>122</ele>
        <time>2024-02-05T11:43:52.684+00:00</time>
      </trkpt>
      <trkpt lat="49.20456" lon="1.76557">
        <ele>122</ele>
        <time>2024-02-05T11:43:57.514+00:00</time>
      </trkpt>
      <trkpt lat="49.20462" lon="1.76559">
        <ele>123</ele>
        <time>2024-02-05T11:44:01.682+00:00</time>
      </trkpt>
      <trkpt lat="49.20468" lon="1.76559">
        <ele>123</ele>
        <time>2024-02-05T11:44:06.377+00:00</time>
      </trkpt>
      <trkpt lat="49.20471" lon="1.76563">
        <ele>123</ele>
        <time>2024-02-05T11:44:10.680+00:00</time>
      </trkpt>
      <trkpt lat="49.20478" lon="1.76566">
        <ele>123</ele>
        <time>2024-02-05T11:44:15.668+00:00</time>
      </trkpt>
      <trkpt lat="49.20484" lon="1.76566">
        <ele>123</ele>
        <time>2024-02-05T11:44:20.569+00:00</time>
      </trkpt>
      <trkpt lat="49.20488" lon="1.76571">
        <ele>125</ele>
        <time>2024-02-05T11:44:24.681+00:00</time>
      </trkpt>
      <trkpt lat="49.20491" lon="1.76577">
        <ele>125</ele>
        <time>2024-02-05T11:44:29.210+00:00</time>
      </trkpt>
      <trkpt lat="49.20494" lon="1.76581">
        <ele>125</ele>
        <time>2024-02-05T11:44:33.516+00:00</time>
      </trkpt>
      <trkpt lat="49.20499" lon="1.76582">
        <ele>125</ele>
        <time>2024-02-05T11:44:38.531+00:00</time>
      </trkpt>
      <trkpt lat="49.20502" lon="1.76586">
        <ele>125</ele>
        <time>2024-02-05T11:44:43.294+00:00</time>
      </trkpt>
      <trkpt lat="49.20506" lon="1.76587">
        <ele>125</ele>
        <time>2024-02-05T11:44:47.300+00:00</time>
      </trkpt>
      <trkpt lat="49.2051" lon="1.76589">
        <ele>125</ele>
        <time>2024-02-05T11:44:51.473+00:00</time>
      </trkpt>
      <trkpt lat="49.20514" lon="1.76593">
        <ele>124</ele>
        <time>2024-02-05T11:44:55.913+00:00</time>
      </trkpt>
      <trkpt lat="49.20519" lon="1.76596">
        <ele>124</ele>
        <time>2024-02-05T11:45:00.312+00:00</time>
      </trkpt>
      <trkpt lat="49.20524" lon="1.76599">
        <ele>125</ele>
        <time>2024-02-05T11:45:04.712+00:00</time>
      </trkpt>
      <trkpt lat="49.20528" lon="1.766">
        <ele>125</ele>
        <time>2024-02-05T11:45:08.701+00:00</time>
      </trkpt>
      <trkpt lat="49.20532" lon="1.76605">
        <ele>125</ele>
        <time>2024-02-05T11:45:13.012+00:00</time>
      </trkpt>
      <trkpt lat="49.20535" lon="1.76611">
        <ele>125</ele>
        <time>2024-02-05T11:45:17.421+00:00</time>
      </trkpt>
      <trkpt lat="49.20538" lon="1.76618">
        <ele>125</ele>
        <time>2024-02-05T11:45:21.708+00:00</time>
      </trkpt>
      <trkpt lat="49.20543" lon="1.76622">
        <ele>124</ele>
        <time>2024-02-05T11:45:26.070+00:00</time>
      </trkpt>
      <trkpt lat="49.20547" lon="1.76625">
        <ele>124</ele>
        <time>2024-02-05T11:45:30.370+00:00</time>
      </trkpt>
      <trkpt lat="49.20551" lon="1.76627">
        <ele>123</ele>
        <time>2024-02-05T11:45:34.712+00:00</time>
      </trkpt>
      <trkpt lat="49.20555" lon="1.76631">
        <ele>123</ele>
        <time>2024-02-05T11:45:39.076+00:00</time>
      </trkpt>
      <trkpt lat="49.2056" lon="1.76635">
        <ele>123</ele>
        <time>2024-02-05T11:45:43.394+00:00</time>
      </trkpt>
      <trkpt lat="49.20564" lon="1.76639">
        <ele>123</ele>
        <time>2024-02-05T11:45:47.724+00:00</time>
      </trkpt>
      <trkpt lat="49.20568" lon="1.76641">
        <ele>123</ele>
        <time>2024-02-05T11:45:51.992+00:00</time>
      </trkpt>
      <trkpt lat="49.20573" lon="1.76643">
        <ele>123</ele>
        <time>2024-02-05T11:45:56.295+00:00</time>
      </trkpt>
      <trkpt lat="49.20578" lon="1.76642">
        <ele>123</ele>
        <time>2024-02-05T11:46:00.371+00:00</time>
      </trkpt>
      <trkpt lat="49.20585" lon="1.76645">
        <ele>123</ele>
        <time>2024-02-05T11:46:05.574+00:00</time>
      </trkpt>
      <trkpt lat="49.20589" lon="1.76646">
        <ele>123</ele>
        <time>2024-02-05T11:46:09.836+00:00</time>
      </trkpt>
      <trkpt lat="49.20594" lon="1.76645">
        <ele>123</ele>
        <time>2024-02-05T11:46:14.311+00:00</time>
      </trkpt>
      <trkpt lat="49.20598" lon="1.76645">
        <ele>122</ele>
        <time>2024-02-05T11:46:18.571+00:00</time>
      </trkpt>
      <trkpt lat="49.206" lon="1.76643">
        <ele>122</ele>
        <time>2024-02-05T11:46:22.673+00:00</time>
      </trkpt>
      <trkpt lat="49.20601" lon="1.76643">
        <ele>122</ele>
        <time>2024-02-05T11:46:26.667+00:00</time>
      </trkpt>
      <trkpt lat="49.20609" lon="1.7664">
        <ele>122</ele>
        <time>2024-02-05T11:46:31.517+00:00</time>
      </trkpt>
      <trkpt lat="49.20615" lon="1.7664">
        <ele>122</ele>
        <time>2024-02-05T11:46:36.475+00:00</time>
      </trkpt>
      <trkpt lat="49.2062" lon="1.76644">
        <ele>122</ele>
        <time>2024-02-05T11:46:40.929+00:00</time>
      </trkpt>
      <trkpt lat="49.20626" lon="1.76647">
        <ele>124</ele>
        <time>2024-02-05T11:46:45.252+00:00</time>
      </trkpt>
      <trkpt lat="49.20632" lon="1.7665">
        <ele>124</ele>
        <time>2024-02-05T11:46:49.433+00:00</time>
      </trkpt>
      <trkpt lat="49.20637" lon="1.76655">
        <ele>125</ele>
        <time>2024-02-05T11:46:54.692+00:00</time>
      </trkpt>
      <trkpt lat="49.20641" lon="1.7666">
        <ele>125</ele>
        <time>2024-02-05T11:46:59.513+00:00</time>
      </trkpt>
      <trkpt lat="49.20646" lon="1.76666">
        <ele>125</ele>
        <time>2024-02-05T11:47:04.694+00:00</time>
      </trkpt>
      <trkpt lat="49.2065" lon="1.76672">
        <ele>125</ele>
        <time>2024-02-05T11:47:09.514+00:00</time>
      </trkpt>
      <trkpt lat="49.20654" lon="1.76676">
        <ele>126</ele>
        <time>2024-02-05T11:47:14.068+00:00</time>
      </trkpt>
      <trkpt lat="49.2066" lon="1.76677">
        <ele>126</ele>
        <time>2024-02-05T11:47:18.253+00:00</time>
      </trkpt>
      <trkpt lat="49.20665" lon="1.76682">
        <ele>125</ele>
        <time>2024-02-05T11:47:22.268+00:00</time>
      </trkpt>
      <trkpt lat="49.2067" lon="1.76684">
        <ele>125</ele>
        <time>2024-02-05T11:47:26.694+00:00</time>
      </trkpt>
      <trkpt lat="49.20675" lon="1.76688">
        <ele>125</ele>
        <time>2024-02-05T11:47:30.713+00:00</time>
      </trkpt>
      <trkpt lat="49.20681" lon="1.76693">
        <ele>125</ele>
        <time>2024-02-05T11:47:35.327+00:00</time>
      </trkpt>
      <trkpt lat="49.20687" lon="1.76695">
        <ele>125</ele>
        <time>2024-02-05T11:47:39.691+00:00</time>
      </trkpt>
      <trkpt lat="49.20692" lon="1.76698">
        <ele>125</ele>
        <time>2024-02-05T11:47:44.348+00:00</time>
      </trkpt>
      <trkpt lat="49.20696" lon="1.76701">
        <ele>125</ele>
        <time>2024-02-05T11:47:48.486+00:00</time>
      </trkpt>
      <trkpt lat="49.20701" lon="1.76704">
        <ele>125</ele>
        <time>2024-02-05T11:47:52.726+00:00</time>
      </trkpt>
      <trkpt lat="49.20706" lon="1.76707">
        <ele>125</ele>
        <time>2024-02-05T11:47:56.970+00:00</time>
      </trkpt>
      <trkpt lat="49.2071" lon="1.76712">
        <ele>125</ele>
        <time>2024-02-05T11:48:01.094+00:00</time>
      </trkpt>
      <trkpt lat="49.20715" lon="1.76715">
        <ele>125</ele>
        <time>2024-02-05T11:48:05.328+00:00</time>
      </trkpt>
      <trkpt lat="49.20718" lon="1.7672">
        <ele>125</ele>
        <time>2024-02-05T11:48:09.593+00:00</time>
      </trkpt>
      <trkpt lat="49.20719" lon="1.76726">
        <ele>125</ele>
        <time>2024-02-05T11:48:13.713+00:00</time>
      </trkpt>
      <trkpt lat="49.2072" lon="1.76734">
        <ele>125</ele>
        <time>2024-02-05T11:48:18.233+00:00</time>
      </trkpt>
      <trkpt lat="49.20721" lon="1.76741">
        <ele>125</ele>
        <time>2024-02-05T11:48:22.496+00:00</time>
      </trkpt>
      <trkpt lat="49.20722" lon="1.76748">
        <ele>125</ele>
        <time>2024-02-05T11:48:26.572+00:00</time>
      </trkpt>
      <trkpt lat="49.20724" lon="1.76755">
        <ele>125</ele>
        <time>2024-02-05T11:48:30.692+00:00</time>
      </trkpt>
      <trkpt lat="49.20725" lon="1.7676">
        <ele>125</ele>
        <time>2024-02-05T11:48:34.702+00:00</time>
      </trkpt>
      <trkpt lat="49.20728" lon="1.76765">
        <ele>126</ele>
        <time>2024-02-05T11:48:38.909+00:00</time>
      </trkpt>
      <trkpt lat="49.2073" lon="1.76773">
        <ele>126</ele>
        <time>2024-02-05T11:48:42.911+00:00</time>
      </trkpt>
      <trkpt lat="49.20732" lon="1.7678">
        <ele>126</ele>
        <time>2024-02-05T11:48:46.915+00:00</time>
      </trkpt>
      <trkpt lat="49.20735" lon="1.76789">
        <ele>126</ele>
        <time>2024-02-05T11:48:51.671+00:00</time>
      </trkpt>
      <trkpt lat="49.20736" lon="1.76796">
        <ele>126</ele>
        <time>2024-02-05T11:48:55.705+00:00</time>
      </trkpt>
      <trkpt lat="49.20737" lon="1.76803">
        <ele>128</ele>
        <time>2024-02-05T11:48:59.967+00:00</time>
      </trkpt>
      <trkpt lat="49.2074" lon="1.7681">
        <ele>128</ele>
        <time>2024-02-05T11:49:04.230+00:00</time>
      </trkpt>
      <trkpt lat="49.20742" lon="1.76817">
        <ele>128</ele>
        <time>2024-02-05T11:49:08.333+00:00</time>
      </trkpt>
      <trkpt lat="49.20743" lon="1.76825">
        <ele>128</ele>
        <time>2024-02-05T11:49:12.775+00:00</time>
      </trkpt>
      <trkpt lat="49.20745" lon="1.76835">
        <ele>128</ele>
        <time>2024-02-05T11:49:17.728+00:00</time>
      </trkpt>
      <trkpt lat="49.20748" lon="1.76842">
        <ele>128</ele>
        <time>2024-02-05T11:49:21.909+00:00</time>
      </trkpt>
      <trkpt lat="49.20753" lon="1.76847">
        <ele>129</ele>
        <time>2024-02-05T11:49:26.493+00:00</time>
      </trkpt>
      <trkpt lat="49.20756" lon="1.76859">
        <ele>129</ele>
        <time>2024-02-05T11:49:31.196+00:00</time>
      </trkpt>
      <trkpt lat="49.20757" lon="1.76865">
        <ele>129</ele>
        <time>2024-02-05T11:49:35.548+00:00</time>
      </trkpt>
      <trkpt lat="49.20759" lon="1.76872">
        <ele>129</ele>
        <time>2024-02-05T11:49:40.190+00:00</time>
      </trkpt>
      <trkpt lat="49.20761" lon="1.76878">
        <ele>130</ele>
        <time>2024-02-05T11:49:44.374+00:00</time>
      </trkpt>
      <trkpt lat="49.20764" lon="1.76886">
        <ele>130</ele>
        <time>2024-02-05T11:49:48.628+00:00</time>
      </trkpt>
      <trkpt lat="49.20766" lon="1.76894">
        <ele>132</ele>
        <time>2024-02-05T11:49:52.703+00:00</time>
      </trkpt>
      <trkpt lat="49.20768" lon="1.769">
        <ele>132</ele>
        <time>2024-02-05T11:49:56.697+00:00</time>
      </trkpt>
      <trkpt lat="49.20769" lon="1.76908">
        <ele>133</ele>
        <time>2024-02-05T11:50:01.394+00:00</time>
      </trkpt>
      <trkpt lat="49.20771" lon="1.76916">
        <ele>133</ele>
        <time>2024-02-05T11:50:05.657+00:00</time>
      </trkpt>
      <trkpt lat="49.20773" lon="1.76924">
        <ele>133</ele>
        <time>2024-02-05T11:50:09.693+00:00</time>
      </trkpt>
      <trkpt lat="49.20776" lon="1.76931">
        <ele>132</ele>
        <time>2024-02-05T11:50:13.691+00:00</time>
      </trkpt>
      <trkpt lat="49.20778" lon="1.76939">
        <ele>132</ele>
        <time>2024-02-05T11:50:18.446+00:00</time>
      </trkpt>
      <trkpt lat="49.20778" lon="1.76948">
        <ele>132</ele>
        <time>2024-02-05T11:50:22.712+00:00</time>
      </trkpt>
      <trkpt lat="49.20779" lon="1.76957">
        <ele>132</ele>
        <time>2024-02-05T11:50:27.073+00:00</time>
      </trkpt>
      <trkpt lat="49.2078" lon="1.76966">
        <ele>132</ele>
        <time>2024-02-05T11:50:31.719+00:00</time>
      </trkpt>
      <trkpt lat="49.20783" lon="1.76973">
        <ele>132</ele>
        <time>2024-02-05T11:50:36.275+00:00</time>
      </trkpt>
      <trkpt lat="49.20786" lon="1.7698">
        <ele>132</ele>
        <time>2024-02-05T11:50:40.701+00:00</time>
      </trkpt>
      <trkpt lat="49.20787" lon="1.76987">
        <ele>131</ele>
        <time>2024-02-05T11:50:44.716+00:00</time>
      </trkpt>
      <trkpt lat="49.20792" lon="1.76992">
        <ele>134</ele>
        <time>2024-02-05T11:50:49.255+00:00</time>
      </trkpt>
      <trkpt lat="49.20795" lon="1.76997">
        <ele>134</ele>
        <time>2024-02-05T11:50:53.549+00:00</time>
      </trkpt>
      <trkpt lat="49.20798" lon="1.77004">
        <ele>134</ele>
        <time>2024-02-05T11:50:57.684+00:00</time>
      </trkpt>
      <trkpt lat="49.20801" lon="1.77">
        <ele>134</ele>
        <time>2024-02-05T11:51:01.681+00:00</time>
      </trkpt>
      <trkpt lat="49.20805" lon="1.76999">
        <ele>134</ele>
        <time>2024-02-05T11:51:06.530+00:00</time>
      </trkpt>
      <trkpt lat="49.20811" lon="1.77012">
        <ele>134</ele>
        <time>2024-02-05T11:51:11.058+00:00</time>
      </trkpt>
      <trkpt lat="49.20812" lon="1.7702">
        <ele>133</ele>
        <time>2024-02-05T11:51:15.713+00:00</time>
      </trkpt>
      <trkpt lat="49.20814" lon="1.77036">
        <ele>133</ele>
        <time>2024-02-05T11:51:20.688+00:00</time>
      </trkpt>
      <trkpt lat="49.20818" lon="1.77044">
        <ele>132</ele>
        <time>2024-02-05T11:51:24.707+00:00</time>
      </trkpt>
      <trkpt lat="49.20823" lon="1.77047">
        <ele>134</ele>
        <time>2024-02-05T11:51:29.356+00:00</time>
      </trkpt>
      <trkpt lat="49.20828" lon="1.77045">
        <ele>134</ele>
        <time>2024-02-05T11:51:33.678+00:00</time>
      </trkpt>
      <trkpt lat="49.20833" lon="1.77051">
        <ele>134</ele>
        <time>2024-02-05T11:51:38.609+00:00</time>
      </trkpt>
      <trkpt lat="49.20838" lon="1.7706">
        <ele>134</ele>
        <time>2024-02-05T11:51:42.672+00:00</time>
      </trkpt>
      <trkpt lat="49.20841" lon="1.77065">
        <ele>134</ele>
        <time>2024-02-05T11:51:46.674+00:00</time>
      </trkpt>
      <trkpt lat="49.20845" lon="1.77071">
        <ele>133</ele>
        <time>2024-02-05T11:51:50.992+00:00</time>
      </trkpt>
      <trkpt lat="49.20849" lon="1.77079">
        <ele>135</ele>
        <time>2024-02-05T11:51:55.115+00:00</time>
      </trkpt>
      <trkpt lat="49.20852" lon="1.77084">
        <ele>135</ele>
        <time>2024-02-05T11:51:59.189+00:00</time>
      </trkpt>
      <trkpt lat="49.20856" lon="1.7709">
        <ele>135</ele>
        <time>2024-02-05T11:52:03.293+00:00</time>
      </trkpt>
      <trkpt lat="49.20861" lon="1.77096">
        <ele>135</ele>
        <time>2024-02-05T11:52:07.709+00:00</time>
      </trkpt>
      <trkpt lat="49.20864" lon="1.77104">
        <ele>134</ele>
        <time>2024-02-05T11:52:12.127+00:00</time>
      </trkpt>
      <trkpt lat="49.20866" lon="1.77112">
        <ele>134</ele>
        <time>2024-02-05T11:52:16.194+00:00</time>
      </trkpt>
      <trkpt lat="49.20871" lon="1.77118">
        <ele>134</ele>
        <time>2024-02-05T11:52:20.701+00:00</time>
      </trkpt>
      <trkpt lat="49.20881" lon="1.77125">
        <ele>134</ele>
        <time>2024-02-05T11:53:00.701+00:00</time>
      </trkpt>
      <trkpt lat="49.20881" lon="1.77127">
        <ele>134</ele>
        <time>2024-02-05T11:53:04.704+00:00</time>
      </trkpt>
      <trkpt lat="49.20879" lon="1.7713">
        <ele>134</ele>
        <time>2024-02-05T11:53:08.705+00:00</time>
      </trkpt>
      <trkpt lat="49.20874" lon="1.77134">
        <ele>133</ele>
        <time>2024-02-05T11:53:13.409+00:00</time>
      </trkpt>
      <trkpt lat="49.2087" lon="1.77138">
        <ele>133</ele>
        <time>2024-02-05T11:53:17.736+00:00</time>
      </trkpt>
      <trkpt lat="49.20866" lon="1.7714">
        <ele>133</ele>
        <time>2024-02-05T11:53:21.715+00:00</time>
      </trkpt>
      <trkpt lat="49.20862" lon="1.77144">
        <ele>133</ele>
        <time>2024-02-05T11:53:26.733+00:00</time>
      </trkpt>
      <trkpt lat="49.20861" lon="1.77151">
        <ele>133</ele>
        <time>2024-02-05T11:53:31.248+00:00</time>
      </trkpt>
      <trkpt lat="49.2086" lon="1.77159">
        <ele>133</ele>
        <time>2024-02-05T11:53:35.633+00:00</time>
      </trkpt>
      <trkpt lat="49.20863" lon="1.77165">
        <ele>133</ele>
        <time>2024-02-05T11:53:40.096+00:00</time>
      </trkpt>
      <trkpt lat="49.20866" lon="1.7717">
        <ele>133</ele>
        <time>2024-02-05T11:53:44.311+00:00</time>
      </trkpt>
      <trkpt lat="49.20869" lon="1.77177">
        <ele>133</ele>
        <time>2024-02-05T11:53:48.716+00:00</time>
      </trkpt>
      <trkpt lat="49.20872" lon="1.77183">
        <ele>134</ele>
        <time>2024-02-05T11:53:53.052+00:00</time>
      </trkpt>
      <trkpt lat="49.20875" lon="1.77189">
        <ele>133</ele>
        <time>2024-02-05T11:53:57.374+00:00</time>
      </trkpt>
      <trkpt lat="49.20878" lon="1.77196">
        <ele>133</ele>
        <time>2024-02-05T11:54:01.568+00:00</time>
      </trkpt>
      <trkpt lat="49.2088" lon="1.77202">
        <ele>133</ele>
        <time>2024-02-05T11:54:05.714+00:00</time>
      </trkpt>
      <trkpt lat="49.20883" lon="1.77209">
        <ele>133</ele>
        <time>2024-02-05T11:54:09.874+00:00</time>
      </trkpt>
      <trkpt lat="49.20885" lon="1.77217">
        <ele>133</ele>
        <time>2024-02-05T11:54:14.268+00:00</time>
      </trkpt>
      <trkpt lat="49.20888" lon="1.77223">
        <ele>133</ele>
        <time>2024-02-05T11:54:18.350+00:00</time>
      </trkpt>
      <trkpt lat="49.20891" lon="1.7723">
        <ele>133</ele>
        <time>2024-02-05T11:54:22.633+00:00</time>
      </trkpt>
      <trkpt lat="49.20893" lon="1.77236">
        <ele>133</ele>
        <time>2024-02-05T11:54:26.725+00:00</time>
      </trkpt>
      <trkpt lat="49.20896" lon="1.77242">
        <ele>133</ele>
        <time>2024-02-05T11:54:30.951+00:00</time>
      </trkpt>
      <trkpt lat="49.20899" lon="1.77249">
        <ele>133</ele>
        <time>2024-02-05T11:54:35.176+00:00</time>
      </trkpt>
      <trkpt lat="49.20902" lon="1.77256">
        <ele>133</ele>
        <time>2024-02-05T11:54:39.445+00:00</time>
      </trkpt>
      <trkpt lat="49.20904" lon="1.77262">
        <ele>132</ele>
        <time>2024-02-05T11:54:43.614+00:00</time>
      </trkpt>
      <trkpt lat="49.20907" lon="1.77268">
        <ele>133</ele>
        <time>2024-02-05T11:54:47.698+00:00</time>
      </trkpt>
      <trkpt lat="49.20909" lon="1.77274">
        <ele>133</ele>
        <time>2024-02-05T11:54:52.030+00:00</time>
      </trkpt>
      <trkpt lat="49.20912" lon="1.77281">
        <ele>133</ele>
        <time>2024-02-05T11:54:56.473+00:00</time>
      </trkpt>
      <trkpt lat="49.20915" lon="1.77288">
        <ele>133</ele>
        <time>2024-02-05T11:55:00.638+00:00</time>
      </trkpt>
      <trkpt lat="49.20917" lon="1.77293">
        <ele>134</ele>
        <time>2024-02-05T11:55:04.928+00:00</time>
      </trkpt>
      <trkpt lat="49.20919" lon="1.77299">
        <ele>134</ele>
        <time>2024-02-05T11:55:09.169+00:00</time>
      </trkpt>
      <trkpt lat="49.20923" lon="1.77305">
        <ele>134</ele>
        <time>2024-02-05T11:55:13.732+00:00</time>
      </trkpt>
      <trkpt lat="49.20925" lon="1.77312">
        <ele>134</ele>
        <time>2024-02-05T11:55:17.708+00:00</time>
      </trkpt>
      <trkpt lat="49.20927" lon="1.77319">
        <ele>134</ele>
        <time>2024-02-05T11:55:21.994+00:00</time>
      </trkpt>
      <trkpt lat="49.2093" lon="1.77325">
        <ele>135</ele>
        <time>2024-02-05T11:55:26.289+00:00</time>
      </trkpt>
      <trkpt lat="49.20931" lon="1.77332">
        <ele>136</ele>
        <time>2024-02-05T11:55:30.683+00:00</time>
      </trkpt>
      <trkpt lat="49.20932" lon="1.77341">
        <ele>136</ele>
        <time>2024-02-05T11:55:34.675+00:00</time>
      </trkpt>
      <trkpt lat="49.20936" lon="1.77345">
        <ele>136</ele>
        <time>2024-02-05T11:55:39.275+00:00</time>
      </trkpt>
      <trkpt lat="49.20941" lon="1.7735">
        <ele>136</ele>
        <time>2024-02-05T11:55:43.313+00:00</time>
      </trkpt>
      <trkpt lat="49.20944" lon="1.77358">
        <ele>136</ele>
        <time>2024-02-05T11:55:47.432+00:00</time>
      </trkpt>
      <trkpt lat="49.20947" lon="1.77365">
        <ele>136</ele>
        <time>2024-02-05T11:55:51.788+00:00</time>
      </trkpt>
      <trkpt lat="49.2095" lon="1.77371">
        <ele>136</ele>
        <time>2024-02-05T11:55:55.980+00:00</time>
      </trkpt>
      <trkpt lat="49.20952" lon="1.77376">
        <ele>137</ele>
        <time>2024-02-05T11:56:00.212+00:00</time>
      </trkpt>
      <trkpt lat="49.20954" lon="1.77383">
        <ele>137</ele>
        <time>2024-02-05T11:56:04.214+00:00</time>
      </trkpt>
      <trkpt lat="49.20957" lon="1.77392">
        <ele>137</ele>
        <time>2024-02-05T11:56:08.683+00:00</time>
      </trkpt>
      <trkpt lat="49.20959" lon="1.77397">
        <ele>137</ele>
        <time>2024-02-05T11:56:12.678+00:00</time>
      </trkpt>
      <trkpt lat="49.20962" lon="1.77404">
        <ele>138</ele>
        <time>2024-02-05T11:56:17.051+00:00</time>
      </trkpt>
      <trkpt lat="49.20964" lon="1.7741">
        <ele>138</ele>
        <time>2024-02-05T11:56:21.189+00:00</time>
      </trkpt>
      <trkpt lat="49.20968" lon="1.77416">
        <ele>138</ele>
        <time>2024-02-05T11:56:25.701+00:00</time>
      </trkpt>
      <trkpt lat="49.2097" lon="1.77421">
        <ele>138</ele>
        <time>2024-02-05T11:56:29.717+00:00</time>
      </trkpt>
      <trkpt lat="49.20971" lon="1.77428">
        <ele>138</ele>
        <time>2024-02-05T11:56:34.217+00:00</time>
      </trkpt>
      <trkpt lat="49.20974" lon="1.77434">
        <ele>139</ele>
        <time>2024-02-05T11:56:38.468+00:00</time>
      </trkpt>
      <trkpt lat="49.20977" lon="1.7744">
        <ele>139</ele>
        <time>2024-02-05T11:56:42.870+00:00</time>
      </trkpt>
      <trkpt lat="49.2098" lon="1.77447">
        <ele>139</ele>
        <time>2024-02-05T11:56:46.876+00:00</time>
      </trkpt>
      <trkpt lat="49.20982" lon="1.77454">
        <ele>139</ele>
        <time>2024-02-05T11:56:50.952+00:00</time>
      </trkpt>
      <trkpt lat="49.20985" lon="1.77461">
        <ele>140</ele>
        <time>2024-02-05T11:56:55.126+00:00</time>
      </trkpt>
      <trkpt lat="49.20988" lon="1.77468">
        <ele>140</ele>
        <time>2024-02-05T11:56:59.611+00:00</time>
      </trkpt>
      <trkpt lat="49.20991" lon="1.77474">
        <ele>140</ele>
        <time>2024-02-05T11:57:03.716+00:00</time>
      </trkpt>
      <trkpt lat="49.20993" lon="1.77481">
        <ele>140</ele>
        <time>2024-02-05T11:57:07.703+00:00</time>
      </trkpt>
      <trkpt lat="49.20996" lon="1.77488">
        <ele>141</ele>
        <time>2024-02-05T11:57:12.166+00:00</time>
      </trkpt>
      <trkpt lat="49.20999" lon="1.77495">
        <ele>141</ele>
        <time>2024-02-05T11:57:16.692+00:00</time>
      </trkpt>
      <trkpt lat="49.21001" lon="1.77502">
        <ele>141</ele>
        <time>2024-02-05T11:57:21.176+00:00</time>
      </trkpt>
      <trkpt lat="49.21005" lon="1.77507">
        <ele>141</ele>
        <time>2024-02-05T11:57:25.308+00:00</time>
      </trkpt>
      <trkpt lat="49.21008" lon="1.77514">
        <ele>141</ele>
        <time>2024-02-05T11:57:29.351+00:00</time>
      </trkpt>
      <trkpt lat="49.2101" lon="1.77521">
        <ele>141</ele>
        <time>2024-02-05T11:57:33.832+00:00</time>
      </trkpt>
      <trkpt lat="49.21013" lon="1.77528">
        <ele>141</ele>
        <time>2024-02-05T11:57:37.913+00:00</time>
      </trkpt>
      <trkpt lat="49.21015" lon="1.77535">
        <ele>142</ele>
        <time>2024-02-05T11:57:42.074+00:00</time>
      </trkpt>
      <trkpt lat="49.21018" lon="1.77542">
        <ele>142</ele>
        <time>2024-02-05T11:57:46.127+00:00</time>
      </trkpt>
      <trkpt lat="49.21021" lon="1.77548">
        <ele>143</ele>
        <time>2024-02-05T11:57:50.250+00:00</time>
      </trkpt>
      <trkpt lat="49.21024" lon="1.77554">
        <ele>143</ele>
        <time>2024-02-05T11:57:54.611+00:00</time>
      </trkpt>
      <trkpt lat="49.21026" lon="1.77561">
        <ele>143</ele>
        <time>2024-02-05T11:57:58.849+00:00</time>
      </trkpt>
      <trkpt lat="49.21028" lon="1.77568">
        <ele>143</ele>
        <time>2024-02-05T11:58:03.607+00:00</time>
      </trkpt>
      <trkpt lat="49.21031" lon="1.77574">
        <ele>144</ele>
        <time>2024-02-05T11:58:07.707+00:00</time>
      </trkpt>
      <trkpt lat="49.21035" lon="1.77579">
        <ele>144</ele>
        <time>2024-02-05T11:58:12.189+00:00</time>
      </trkpt>
      <trkpt lat="49.21038" lon="1.77586">
        <ele>144</ele>
        <time>2024-02-05T11:58:16.684+00:00</time>
      </trkpt>
      <trkpt lat="49.2104" lon="1.77592">
        <ele>144</ele>
        <time>2024-02-05T11:58:20.710+00:00</time>
      </trkpt>
      <trkpt lat="49.21043" lon="1.77598">
        <ele>145</ele>
        <time>2024-02-05T11:58:25.270+00:00</time>
      </trkpt>
      <trkpt lat="49.21045" lon="1.77605">
        <ele>145</ele>
        <time>2024-02-05T11:58:29.497+00:00</time>
      </trkpt>
      <trkpt lat="49.21048" lon="1.77612">
        <ele>145</ele>
        <time>2024-02-05T11:58:33.691+00:00</time>
      </trkpt>
      <trkpt lat="49.21051" lon="1.77618">
        <ele>145</ele>
        <time>2024-02-05T11:58:38.212+00:00</time>
      </trkpt>
      <trkpt lat="49.21054" lon="1.77623">
        <ele>145</ele>
        <time>2024-02-05T11:58:42.254+00:00</time>
      </trkpt>
      <trkpt lat="49.21056" lon="1.7763">
        <ele>145</ele>
        <time>2024-02-05T11:58:46.707+00:00</time>
      </trkpt>
      <trkpt lat="49.21058" lon="1.77637">
        <ele>145</ele>
        <time>2024-02-05T11:58:51.234+00:00</time>
      </trkpt>
      <trkpt lat="49.21061" lon="1.77644">
        <ele>145</ele>
        <time>2024-02-05T11:58:55.713+00:00</time>
      </trkpt>
      <trkpt lat="49.21064" lon="1.7765">
        <ele>145</ele>
        <time>2024-02-05T11:59:00.198+00:00</time>
      </trkpt>
      <trkpt lat="49.21066" lon="1.77657">
        <ele>145</ele>
        <time>2024-02-05T11:59:04.479+00:00</time>
      </trkpt>
      <trkpt lat="49.21069" lon="1.77663">
        <ele>145</ele>
        <time>2024-02-05T11:59:08.741+00:00</time>
      </trkpt>
      <trkpt lat="49.21072" lon="1.77669">
        <ele>147</ele>
        <time>2024-02-05T11:59:13.124+00:00</time>
      </trkpt>
      <trkpt lat="49.21074" lon="1.77676">
        <ele>147</ele>
        <time>2024-02-05T11:59:17.460+00:00</time>
      </trkpt>
      <trkpt lat="49.21077" lon="1.77682">
        <ele>147</ele>
        <time>2024-02-05T11:59:21.512+00:00</time>
      </trkpt>
      <trkpt lat="49.2108" lon="1.77688">
        <ele>147</ele>
        <time>2024-02-05T11:59:25.698+00:00</time>
      </trkpt>
      <trkpt lat="49.21082" lon="1.77694">
        <ele>147</ele>
        <time>2024-02-05T11:59:30.038+00:00</time>
      </trkpt>
      <trkpt lat="49.21085" lon="1.77701">
        <ele>147</ele>
        <time>2024-02-05T11:59:34.330+00:00</time>
      </trkpt>
      <trkpt lat="49.21087" lon="1.77707">
        <ele>147</ele>
        <time>2024-02-05T11:59:38.534+00:00</time>
      </trkpt>
      <trkpt lat="49.21089" lon="1.77713">
        <ele>147</ele>
        <time>2024-02-05T11:59:42.701+00:00</time>
      </trkpt>
      <trkpt lat="49.21092" lon="1.7772">
        <ele>147</ele>
        <time>2024-02-05T11:59:47.128+00:00</time>
      </trkpt>
      <trkpt lat="49.21094" lon="1.77726">
        <ele>147</ele>
        <time>2024-02-05T11:59:51.451+00:00</time>
      </trkpt>
      <trkpt lat="49.21096" lon="1.77733">
        <ele>147</ele>
        <time>2024-02-05T11:59:55.720+00:00</time>
      </trkpt>
      <trkpt lat="49.21099" lon="1.7774">
        <ele>149</ele>
        <time>2024-02-05T12:00:00.129+00:00</time>
      </trkpt>
      <trkpt lat="49.21101" lon="1.77747">
        <ele>149</ele>
        <time>2024-02-05T12:00:04.571+00:00</time>
      </trkpt>
      <trkpt lat="49.21103" lon="1.77754">
        <ele>149</ele>
        <time>2024-02-05T12:00:08.677+00:00</time>
      </trkpt>
      <trkpt lat="49.21105" lon="1.77759">
        <ele>149</ele>
        <time>2024-02-05T12:00:13.009+00:00</time>
      </trkpt>
      <trkpt lat="49.21107" lon="1.77766">
        <ele>149</ele>
        <time>2024-02-05T12:00:17.373+00:00</time>
      </trkpt>
      <trkpt lat="49.21108" lon="1.77773">
        <ele>149</ele>
        <time>2024-02-05T12:00:21.628+00:00</time>
      </trkpt>
      <trkpt lat="49.2111" lon="1.77779">
        <ele>149</ele>
        <time>2024-02-05T12:00:25.931+00:00</time>
      </trkpt>
      <trkpt lat="49.21112" lon="1.77787">
        <ele>149</ele>
        <time>2024-02-05T12:00:30.197+00:00</time>
      </trkpt>
      <trkpt lat="49.21115" lon="1.77794">
        <ele>149</ele>
        <time>2024-02-05T12:00:34.573+00:00</time>
      </trkpt>
      <trkpt lat="49.21116" lon="1.77801">
        <ele>149</ele>
        <time>2024-02-05T12:00:39.055+00:00</time>
      </trkpt>
      <trkpt lat="49.21118" lon="1.77808">
        <ele>149</ele>
        <time>2024-02-05T12:00:43.310+00:00</time>
      </trkpt>
      <trkpt lat="49.2112" lon="1.77815">
        <ele>149</ele>
        <time>2024-02-05T12:00:47.672+00:00</time>
      </trkpt>
      <trkpt lat="49.21122" lon="1.77821">
        <ele>150</ele>
        <time>2024-02-05T12:00:51.915+00:00</time>
      </trkpt>
      <trkpt lat="49.21124" lon="1.77828">
        <ele>150</ele>
        <time>2024-02-05T12:00:56.270+00:00</time>
      </trkpt>
      <trkpt lat="49.21126" lon="1.77835">
        <ele>152</ele>
        <time>2024-02-05T12:01:00.612+00:00</time>
      </trkpt>
      <trkpt lat="49.21128" lon="1.77842">
        <ele>152</ele>
        <time>2024-02-05T12:01:05.017+00:00</time>
      </trkpt>
      <trkpt lat="49.2113" lon="1.77848">
        <ele>153</ele>
        <time>2024-02-05T12:01:09.233+00:00</time>
      </trkpt>
      <trkpt lat="49.21132" lon="1.77855">
        <ele>153</ele>
        <time>2024-02-05T12:01:13.694+00:00</time>
      </trkpt>
      <trkpt lat="49.21134" lon="1.77862">
        <ele>153</ele>
        <time>2024-02-05T12:01:17.707+00:00</time>
      </trkpt>
      <trkpt lat="49.21136" lon="1.7787">
        <ele>153</ele>
        <time>2024-02-05T12:01:22.274+00:00</time>
      </trkpt>
      <trkpt lat="49.21137" lon="1.77877">
        <ele>154</ele>
        <time>2024-02-05T12:01:26.668+00:00</time>
      </trkpt>
      <trkpt lat="49.21139" lon="1.77883">
        <ele>154</ele>
        <time>2024-02-05T12:01:31.052+00:00</time>
      </trkpt>
      <trkpt lat="49.21142" lon="1.77889">
        <ele>154</ele>
        <time>2024-02-05T12:01:35.394+00:00</time>
      </trkpt>
      <trkpt lat="49.21144" lon="1.77896">
        <ele>154</ele>
        <time>2024-02-05T12:01:39.497+00:00</time>
      </trkpt>
      <trkpt lat="49.21145" lon="1.77903">
        <ele>155</ele>
        <time>2024-02-05T12:01:43.529+00:00</time>
      </trkpt>
      <trkpt lat="49.21148" lon="1.7791">
        <ele>155</ele>
        <time>2024-02-05T12:01:47.785+00:00</time>
      </trkpt>
      <trkpt lat="49.2115" lon="1.77917">
        <ele>155</ele>
        <time>2024-02-05T12:01:52.236+00:00</time>
      </trkpt>
      <trkpt lat="49.21152" lon="1.77926">
        <ele>155</ele>
        <time>2024-02-05T12:01:56.708+00:00</time>
      </trkpt>
      <trkpt lat="49.21154" lon="1.77933">
        <ele>157</ele>
        <time>2024-02-05T12:02:00.703+00:00</time>
      </trkpt>
      <trkpt lat="49.21156" lon="1.77941">
        <ele>157</ele>
        <time>2024-02-05T12:02:04.723+00:00</time>
      </trkpt>
      <trkpt lat="49.21158" lon="1.77949">
        <ele>157</ele>
        <time>2024-02-05T12:02:09.204+00:00</time>
      </trkpt>
      <trkpt lat="49.21159" lon="1.77958">
        <ele>157</ele>
        <time>2024-02-05T12:02:13.512+00:00</time>
      </trkpt>
      <trkpt lat="49.2116" lon="1.77966">
        <ele>157</ele>
        <time>2024-02-05T12:02:17.712+00:00</time>
      </trkpt>
      <trkpt lat="49.21162" lon="1.77973">
        <ele>157</ele>
        <time>2024-02-05T12:02:22.111+00:00</time>
      </trkpt>
      <trkpt lat="49.21162" lon="1.7798">
        <ele>157</ele>
        <time>2024-02-05T12:02:26.684+00:00</time>
      </trkpt>
      <trkpt lat="49.21161" lon="1.77986">
        <ele>157</ele>
        <time>2024-02-05T12:02:30.692+00:00</time>
      </trkpt>
      <trkpt lat="49.21161" lon="1.77998">
        <ele>158</ele>
        <time>2024-02-05T12:02:34.967+00:00</time>
      </trkpt>
      <trkpt lat="49.21164" lon="1.78006">
        <ele>158</ele>
        <time>2024-02-05T12:02:39.677+00:00</time>
      </trkpt>
      <trkpt lat="49.21165" lon="1.78014">
        <ele>160</ele>
        <time>2024-02-05T12:02:44.228+00:00</time>
      </trkpt>
      <trkpt lat="49.21166" lon="1.7802">
        <ele>160</ele>
        <time>2024-02-05T12:02:48.264+00:00</time>
      </trkpt>
      <trkpt lat="49.21165" lon="1.78028">
        <ele>160</ele>
        <time>2024-02-05T12:02:52.465+00:00</time>
      </trkpt>
      <trkpt lat="49.21162" lon="1.78034">
        <ele>160</ele>
        <time>2024-02-05T12:02:56.695+00:00</time>
      </trkpt>
      <trkpt lat="49.2116" lon="1.78041">
        <ele>160</ele>
        <time>2024-02-05T12:03:00.710+00:00</time>
      </trkpt>
      <trkpt lat="49.21156" lon="1.78047">
        <ele>162</ele>
        <time>2024-02-05T12:03:04.699+00:00</time>
      </trkpt>
      <trkpt lat="49.21152" lon="1.78054">
        <ele>159</ele>
        <time>2024-02-05T12:03:09.545+00:00</time>
      </trkpt>
      <trkpt lat="49.21153" lon="1.7806">
        <ele>162</ele>
        <time>2024-02-05T12:03:13.699+00:00</time>
      </trkpt>
      <trkpt lat="49.21153" lon="1.78069">
        <ele>162</ele>
        <time>2024-02-05T12:03:18.258+00:00</time>
      </trkpt>
      <trkpt lat="49.21148" lon="1.78077">
        <ele>161</ele>
        <time>2024-02-05T12:03:22.528+00:00</time>
      </trkpt>
      <trkpt lat="49.21146" lon="1.78087">
        <ele>161</ele>
        <time>2024-02-05T12:03:27.092+00:00</time>
      </trkpt>
      <trkpt lat="49.21144" lon="1.78094">
        <ele>161</ele>
        <time>2024-02-05T12:03:31.646+00:00</time>
      </trkpt>
      <trkpt lat="49.21143" lon="1.78102">
        <ele>163</ele>
        <time>2024-02-05T12:03:36.230+00:00</time>
      </trkpt>
      <trkpt lat="49.21141" lon="1.7811">
        <ele>163</ele>
        <time>2024-02-05T12:03:40.533+00:00</time>
      </trkpt>
      <trkpt lat="49.2114" lon="1.78116">
        <ele>163</ele>
        <time>2024-02-05T12:03:44.634+00:00</time>
      </trkpt>
      <trkpt lat="49.21138" lon="1.78123">
        <ele>163</ele>
        <time>2024-02-05T12:03:48.682+00:00</time>
      </trkpt>
      <trkpt lat="49.21134" lon="1.7813">
        <ele>164</ele>
        <time>2024-02-05T12:03:52.690+00:00</time>
      </trkpt>
      <trkpt lat="49.21131" lon="1.78138">
        <ele>164</ele>
        <time>2024-02-05T12:03:57.391+00:00</time>
      </trkpt>
      <trkpt lat="49.2113" lon="1.78148">
        <ele>164</ele>
        <time>2024-02-05T12:04:02.365+00:00</time>
      </trkpt>
      <trkpt lat="49.21132" lon="1.78155">
        <ele>165</ele>
        <time>2024-02-05T12:04:06.573+00:00</time>
      </trkpt>
      <trkpt lat="49.21131" lon="1.78163">
        <ele>165</ele>
        <time>2024-02-05T12:04:10.750+00:00</time>
      </trkpt>
      <trkpt lat="49.21136" lon="1.78173">
        <ele>165</ele>
        <time>2024-02-05T12:04:15.705+00:00</time>
      </trkpt>
      <trkpt lat="49.21141" lon="1.7818">
        <ele>165</ele>
        <time>2024-02-05T12:04:20.383+00:00</time>
      </trkpt>
      <trkpt lat="49.21144" lon="1.78187">
        <ele>166</ele>
        <time>2024-02-05T12:04:24.697+00:00</time>
      </trkpt>
      <trkpt lat="49.21149" lon="1.78193">
        <ele>166</ele>
        <time>2024-02-05T12:04:29.152+00:00</time>
      </trkpt>
      <trkpt lat="49.21154" lon="1.78197">
        <ele>171</ele>
        <time>2024-02-05T12:04:33.526+00:00</time>
      </trkpt>
      <trkpt lat="49.2116" lon="1.78199">
        <ele>171</ele>
        <time>2024-02-05T12:04:38.107+00:00</time>
      </trkpt>
      <trkpt lat="49.21166" lon="1.78199">
        <ele>171</ele>
        <time>2024-02-05T12:04:42.589+00:00</time>
      </trkpt>
      <trkpt lat="49.21172" lon="1.78199">
        <ele>171</ele>
        <time>2024-02-05T12:04:47.090+00:00</time>
      </trkpt>
      <trkpt lat="49.21178" lon="1.78199">
        <ele>171</ele>
        <time>2024-02-05T12:04:51.524+00:00</time>
      </trkpt>
      <trkpt lat="49.21183" lon="1.78198">
        <ele>174</ele>
        <time>2024-02-05T12:04:55.727+00:00</time>
      </trkpt>
      <trkpt lat="49.21187" lon="1.78197">
        <ele>174</ele>
        <time>2024-02-05T12:04:59.893+00:00</time>
      </trkpt>
      <trkpt lat="49.21191" lon="1.7819">
        <ele>174</ele>
        <time>2024-02-05T12:05:04.264+00:00</time>
      </trkpt>
      <trkpt lat="49.21194" lon="1.78184">
        <ele>174</ele>
        <time>2024-02-05T12:05:17.672+00:00</time>
      </trkpt>
      <trkpt lat="49.21195" lon="1.78183">
        <ele>174</ele>
        <time>2024-02-05T12:05:21.687+00:00</time>
      </trkpt>
      <trkpt lat="49.21195" lon="1.78183">
        <ele>174</ele>
        <time>2024-02-05T12:05:26.669+00:00</time>
      </trkpt>
      <trkpt lat="49.21196" lon="1.78185">
        <ele>174</ele>
        <time>2024-02-05T12:05:30.678+00:00</time>
      </trkpt>
      <trkpt lat="49.21201" lon="1.78182">
        <ele>174</ele>
        <time>2024-02-05T12:05:35.682+00:00</time>
      </trkpt>
      <trkpt lat="49.21207" lon="1.78178">
        <ele>172</ele>
        <time>2024-02-05T12:05:40.051+00:00</time>
      </trkpt>
      <trkpt lat="49.21213" lon="1.78177">
        <ele>174</ele>
        <time>2024-02-05T12:05:44.547+00:00</time>
      </trkpt>
      <trkpt lat="49.2122" lon="1.78174">
        <ele>174</ele>
        <time>2024-02-05T12:05:49.166+00:00</time>
      </trkpt>
      <trkpt lat="49.21226" lon="1.78172">
        <ele>174</ele>
        <time>2024-02-05T12:05:53.530+00:00</time>
      </trkpt>
      <trkpt lat="49.21231" lon="1.78171">
        <ele>174</ele>
        <time>2024-02-05T12:05:57.680+00:00</time>
      </trkpt>
      <trkpt lat="49.21235" lon="1.78169">
        <ele>174</ele>
        <time>2024-02-05T12:06:02.233+00:00</time>
      </trkpt>
      <trkpt lat="49.2124" lon="1.78167">
        <ele>177</ele>
        <time>2024-02-05T12:06:06.324+00:00</time>
      </trkpt>
      <trkpt lat="49.21246" lon="1.78164">
        <ele>177</ele>
        <time>2024-02-05T12:06:10.428+00:00</time>
      </trkpt>
      <trkpt lat="49.21251" lon="1.78161">
        <ele>177</ele>
        <time>2024-02-05T12:06:14.682+00:00</time>
      </trkpt>
      <trkpt lat="49.21256" lon="1.78159">
        <ele>177</ele>
        <time>2024-02-05T12:06:19.391+00:00</time>
      </trkpt>
      <trkpt lat="49.21262" lon="1.78157">
        <ele>177</ele>
        <time>2024-02-05T12:06:23.930+00:00</time>
      </trkpt>
      <trkpt lat="49.21267" lon="1.78153">
        <ele>179</ele>
        <time>2024-02-05T12:06:27.928+00:00</time>
      </trkpt>
      <trkpt lat="49.21273" lon="1.7815">
        <ele>178</ele>
        <time>2024-02-05T12:06:32.508+00:00</time>
      </trkpt>
      <trkpt lat="49.21278" lon="1.78146">
        <ele>178</ele>
        <time>2024-02-05T12:06:36.510+00:00</time>
      </trkpt>
      <trkpt lat="49.21283" lon="1.78145">
        <ele>178</ele>
        <time>2024-02-05T12:06:40.514+00:00</time>
      </trkpt>
      <trkpt lat="49.21289" lon="1.78144">
        <ele>178</ele>
        <time>2024-02-05T12:06:44.912+00:00</time>
      </trkpt>
      <trkpt lat="49.21295" lon="1.78144">
        <ele>177</ele>
        <time>2024-02-05T12:06:49.332+00:00</time>
      </trkpt>
      <trkpt lat="49.21301" lon="1.78143">
        <ele>177</ele>
        <time>2024-02-05T12:06:53.690+00:00</time>
      </trkpt>
      <trkpt lat="49.21306" lon="1.78141">
        <ele>177</ele>
        <time>2024-02-05T12:06:58.152+00:00</time>
      </trkpt>
      <trkpt lat="49.21311" lon="1.78138">
        <ele>177</ele>
        <time>2024-02-05T12:07:02.373+00:00</time>
      </trkpt>
      <trkpt lat="49.21311" lon="1.78137">
        <ele>177</ele>
        <time>2024-02-05T12:07:06.673+00:00</time>
      </trkpt>
      <trkpt lat="49.21311" lon="1.78137">
        <ele>177</ele>
        <time>2024-02-05T12:07:10.699+00:00</time>
      </trkpt>
      <trkpt lat="49.21318" lon="1.78136">
        <ele>177</ele>
        <time>2024-02-05T12:07:15.683+00:00</time>
      </trkpt>
      <trkpt lat="49.21322" lon="1.78133">
        <ele>178</ele>
        <time>2024-02-05T12:07:19.675+00:00</time>
      </trkpt>
      <trkpt lat="49.21328" lon="1.78131">
        <ele>178</ele>
        <time>2024-02-05T12:07:24.091+00:00</time>
      </trkpt>
      <trkpt lat="49.21334" lon="1.78131">
        <ele>178</ele>
        <time>2024-02-05T12:07:28.607+00:00</time>
      </trkpt>
      <trkpt lat="49.21338" lon="1.78131">
        <ele>178</ele>
        <time>2024-02-05T12:07:32.707+00:00</time>
      </trkpt>
      <trkpt lat="49.21343" lon="1.78133">
        <ele>178</ele>
        <time>2024-02-05T12:07:37.044+00:00</time>
      </trkpt>
      <trkpt lat="49.21349" lon="1.78135">
        <ele>181</ele>
        <time>2024-02-05T12:07:41.552+00:00</time>
      </trkpt>
      <trkpt lat="49.21356" lon="1.7814">
        <ele>181</ele>
        <time>2024-02-05T12:07:45.699+00:00</time>
      </trkpt>
      <trkpt lat="49.21361" lon="1.78145">
        <ele>181</ele>
        <time>2024-02-05T12:07:50.070+00:00</time>
      </trkpt>
      <trkpt lat="49.21365" lon="1.78149">
        <ele>181</ele>
        <time>2024-02-05T12:07:54.584+00:00</time>
      </trkpt>
      <trkpt lat="49.21367" lon="1.78155">
        <ele>183</ele>
        <time>2024-02-05T12:07:58.584+00:00</time>
      </trkpt>
      <trkpt lat="49.2137" lon="1.78161">
        <ele>183</ele>
        <time>2024-02-05T12:08:03.219+00:00</time>
      </trkpt>
      <trkpt lat="49.21373" lon="1.78167">
        <ele>183</ele>
        <time>2024-02-05T12:08:07.284+00:00</time>
      </trkpt>
      <trkpt lat="49.21375" lon="1.78171">
        <ele>183</ele>
        <time>2024-02-05T12:08:11.675+00:00</time>
      </trkpt>
      <trkpt lat="49.21376" lon="1.78177">
        <ele>186</ele>
        <time>2024-02-05T12:08:15.695+00:00</time>
      </trkpt>
      <trkpt lat="49.21375" lon="1.78184">
        <ele>188</ele>
        <time>2024-02-05T12:08:20.297+00:00</time>
      </trkpt>
      <trkpt lat="49.21371" lon="1.78191">
        <ele>185</ele>
        <time>2024-02-05T12:08:24.604+00:00</time>
      </trkpt>
      <trkpt lat="49.21369" lon="1.78201">
        <ele>185</ele>
        <time>2024-02-05T12:08:29.650+00:00</time>
      </trkpt>
      <trkpt lat="49.21365" lon="1.78208">
        <ele>185</ele>
        <time>2024-02-05T12:08:33.686+00:00</time>
      </trkpt>
      <trkpt lat="49.21362" lon="1.78217">
        <ele>188</ele>
        <time>2024-02-05T12:08:38.512+00:00</time>
      </trkpt>
      <trkpt lat="49.2136" lon="1.78226">
        <ele>188</ele>
        <time>2024-02-05T12:08:42.692+00:00</time>
      </trkpt>
      <trkpt lat="49.21359" lon="1.78236">
        <ele>190</ele>
        <time>2024-02-05T12:08:47.687+00:00</time>
      </trkpt>
      <trkpt lat="49.21356" lon="1.78243">
        <ele>190</ele>
        <time>2024-02-05T12:08:51.696+00:00</time>
      </trkpt>
      <trkpt lat="49.21354" lon="1.78251">
        <ele>190</ele>
        <time>2024-02-05T12:08:55.907+00:00</time>
      </trkpt>
      <trkpt lat="49.21354" lon="1.78259">
        <ele>190</ele>
        <time>2024-02-05T12:09:00.268+00:00</time>
      </trkpt>
      <trkpt lat="49.2135" lon="1.78263">
        <ele>190</ele>
        <time>2024-02-05T12:09:04.697+00:00</time>
      </trkpt>
      <trkpt lat="49.2135" lon="1.78273">
        <ele>192</ele>
        <time>2024-02-05T12:09:09.537+00:00</time>
      </trkpt>
      <trkpt lat="49.2135" lon="1.78283">
        <ele>192</ele>
        <time>2024-02-05T12:09:13.692+00:00</time>
      </trkpt>
      <trkpt lat="49.21351" lon="1.78292">
        <ele>193</ele>
        <time>2024-02-05T12:09:18.277+00:00</time>
      </trkpt>
      <trkpt lat="49.21353" lon="1.783">
        <ele>193</ele>
        <time>2024-02-05T12:09:22.608+00:00</time>
      </trkpt>
      <trkpt lat="49.21355" lon="1.78308">
        <ele>193</ele>
        <time>2024-02-05T12:09:27.207+00:00</time>
      </trkpt>
      <trkpt lat="49.21353" lon="1.78314">
        <ele>193</ele>
        <time>2024-02-05T12:09:31.724+00:00</time>
      </trkpt>
      <trkpt lat="49.21351" lon="1.78314">
        <ele>193</ele>
        <time>2024-02-05T12:09:36.711+00:00</time>
      </trkpt>
      <trkpt lat="49.21355" lon="1.78318">
        <ele>193</ele>
        <time>2024-02-05T12:09:40.985+00:00</time>
      </trkpt>
      <trkpt lat="49.21362" lon="1.78323">
        <ele>195</ele>
        <time>2024-02-05T12:09:45.353+00:00</time>
      </trkpt>
      <trkpt lat="49.21365" lon="1.78332">
        <ele>195</ele>
        <time>2024-02-05T12:09:49.700+00:00</time>
      </trkpt>
      <trkpt lat="49.21368" lon="1.78342">
        <ele>195</ele>
        <time>2024-02-05T12:09:54.285+00:00</time>
      </trkpt>
      <trkpt lat="49.21369" lon="1.78351">
        <ele>196</ele>
        <time>2024-02-05T12:09:58.674+00:00</time>
      </trkpt>
      <trkpt lat="49.21372" lon="1.7836">
        <ele>196</ele>
        <time>2024-02-05T12:10:02.986+00:00</time>
      </trkpt>
      <trkpt lat="49.21374" lon="1.78368">
        <ele>196</ele>
        <time>2024-02-05T12:10:07.248+00:00</time>
      </trkpt>
      <trkpt lat="49.21378" lon="1.78376">
        <ele>198</ele>
        <time>2024-02-05T12:10:11.928+00:00</time>
      </trkpt>
      <trkpt lat="49.21381" lon="1.78383">
        <ele>198</ele>
        <time>2024-02-05T12:10:16.393+00:00</time>
      </trkpt>
      <trkpt lat="49.21385" lon="1.78392">
        <ele>198</ele>
        <time>2024-02-05T12:10:21.587+00:00</time>
      </trkpt>
      <trkpt lat="49.21389" lon="1.78395">
        <ele>198</ele>
        <time>2024-02-05T12:10:26.680+00:00</time>
      </trkpt>
      <trkpt lat="49.2139" lon="1.78399">
        <ele>198</ele>
        <time>2024-02-05T12:10:31.408+00:00</time>
      </trkpt>
      <trkpt lat="49.21392" lon="1.78406">
        <ele>197</ele>
        <time>2024-02-05T12:10:35.905+00:00</time>
      </trkpt>
      <trkpt lat="49.21399" lon="1.78413">
        <ele>197</ele>
        <time>2024-02-05T12:10:40.436+00:00</time>
      </trkpt>
      <trkpt lat="49.21408" lon="1.78412">
        <ele>199</ele>
        <time>2024-02-05T12:11:15.474+00:00</time>
      </trkpt>
      <trkpt lat="49.21414" lon="1.78416">
        <ele>199</ele>
        <time>2024-02-05T12:11:20.091+00:00</time>
      </trkpt>
      <trkpt lat="49.21418" lon="1.78418">
        <ele>199</ele>
        <time>2024-02-05T12:11:24.384+00:00</time>
      </trkpt>
      <trkpt lat="49.21422" lon="1.78416">
        <ele>199</ele>
        <time>2024-02-05T12:11:28.675+00:00</time>
      </trkpt>
      <trkpt lat="49.21425" lon="1.78413">
        <ele>199</ele>
        <time>2024-02-05T12:11:32.689+00:00</time>
      </trkpt>
      <trkpt lat="49.21426" lon="1.78417">
        <ele>199</ele>
        <time>2024-02-05T12:11:54.673+00:00</time>
      </trkpt>
      <trkpt lat="49.21426" lon="1.78417">
        <ele>199</ele>
        <time>2024-02-05T12:11:59.690+00:00</time>
      </trkpt>
      <trkpt lat="49.21428" lon="1.78421">
        <ele>199</ele>
        <time>2024-02-05T12:12:04.073+00:00</time>
      </trkpt>
      <trkpt lat="49.21429" lon="1.78427">
        <ele>199</ele>
        <time>2024-02-05T12:12:08.685+00:00</time>
      </trkpt>
      <trkpt lat="49.21431" lon="1.7843">
        <ele>201</ele>
        <time>2024-02-05T12:12:12.689+00:00</time>
      </trkpt>
      <trkpt lat="49.21432" lon="1.78431">
        <ele>200</ele>
        <time>2024-02-05T12:12:16.685+00:00</time>
      </trkpt>
      <trkpt lat="49.21432" lon="1.78432">
        <ele>200</ele>
        <time>2024-02-05T12:12:21.358+00:00</time>
      </trkpt>
      <trkpt lat="49.21431" lon="1.7843">
        <ele>201</ele>
        <time>2024-02-05T12:12:25.359+00:00</time>
      </trkpt>
      <trkpt lat="49.21433" lon="1.78423">
        <ele>201</ele>
        <time>2024-02-05T12:12:29.687+00:00</time>
      </trkpt>
      <trkpt lat="49.21435" lon="1.78417">
        <ele>201</ele>
        <time>2024-02-05T12:12:34.193+00:00</time>
      </trkpt>
      <trkpt lat="49.21445" lon="1.78407">
        <ele>201</ele>
        <time>2024-02-05T12:13:42.699+00:00</time>
      </trkpt>
      <trkpt lat="49.21445" lon="1.78408">
        <ele>201</ele>
        <time>2024-02-05T12:13:46.701+00:00</time>
      </trkpt>
      <trkpt lat="49.21445" lon="1.78407">
        <ele>201</ele>
        <time>2024-02-05T12:13:50.725+00:00</time>
      </trkpt>
      <trkpt lat="49.21445" lon="1.78406">
        <ele>201</ele>
        <time>2024-02-05T12:13:55.733+00:00</time>
      </trkpt>
      <trkpt lat="49.21446" lon="1.78406">
        <ele>201</ele>
        <time>2024-02-05T12:13:59.714+00:00</time>
      </trkpt>
      <trkpt lat="49.21448" lon="1.78403">
        <ele>201</ele>
        <time>2024-02-05T12:48:46.703+00:00</time>
      </trkpt>
      <trkpt lat="49.21449" lon="1.78403">
        <ele>201</ele>
        <time>2024-02-05T12:48:51.155+00:00</time>
      </trkpt>
      <trkpt lat="49.21449" lon="1.78403">
        <ele>201</ele>
        <time>2024-02-05T12:48:55.181+00:00</time>
      </trkpt>
      <trkpt lat="49.21449" lon="1.78396">
        <ele>201</ele>
        <time>2024-02-05T12:48:59.403+00:00</time>
      </trkpt>
      <trkpt lat="49.21448" lon="1.78392">
        <ele>201</ele>
        <time>2024-02-05T12:49:03.694+00:00</time>
      </trkpt>
      <trkpt lat="49.21446" lon="1.78406">
        <ele>201</ele>
        <time>2024-02-05T12:50:30.717+00:00</time>
      </trkpt>
      <trkpt lat="49.21446" lon="1.78406">
        <ele>201</ele>
        <time>2024-02-05T12:50:34.737+00:00</time>
      </trkpt>
      <trkpt lat="49.21446" lon="1.78407">
        <ele>201</ele>
        <time>2024-02-05T12:50:39.726+00:00</time>
      </trkpt>
      <trkpt lat="49.21446" lon="1.78407">
        <ele>201</ele>
        <time>2024-02-05T12:50:44.702+00:00</time>
      </trkpt>
      <trkpt lat="49.21446" lon="1.78408">
        <ele>201</ele>
        <time>2024-02-05T12:50:48.717+00:00</time>
      </trkpt>
      <trkpt lat="49.21443" lon="1.78404">
        <ele>201</ele>
        <time>2024-02-05T12:51:10.721+00:00</time>
      </trkpt>
      <trkpt lat="49.21439" lon="1.78406">
        <ele>201</ele>
        <time>2024-02-05T12:51:15.713+00:00</time>
      </trkpt>
      <trkpt lat="49.21434" lon="1.78408">
        <ele>201</ele>
        <time>2024-02-05T12:51:20.710+00:00</time>
      </trkpt>
      <trkpt lat="49.21432" lon="1.78408">
        <ele>201</ele>
        <time>2024-02-05T12:51:24.713+00:00</time>
      </trkpt>
      <trkpt lat="49.21429" lon="1.78409">
        <ele>199</ele>
        <time>2024-02-05T12:51:29.692+00:00</time>
      </trkpt>
      <trkpt lat="49.21427" lon="1.7841">
        <ele>199</ele>
        <time>2024-02-05T12:51:33.695+00:00</time>
      </trkpt>
      <trkpt lat="49.21425" lon="1.78411">
        <ele>199</ele>
        <time>2024-02-05T12:51:37.719+00:00</time>
      </trkpt>
      <trkpt lat="49.21421" lon="1.78412">
        <ele>199</ele>
        <time>2024-02-05T12:51:41.717+00:00</time>
      </trkpt>
      <trkpt lat="49.21418" lon="1.78416">
        <ele>199</ele>
        <time>2024-02-05T12:51:46.556+00:00</time>
      </trkpt>
      <trkpt lat="49.21415" lon="1.78422">
        <ele>199</ele>
        <time>2024-02-05T12:51:51.050+00:00</time>
      </trkpt>
      <trkpt lat="49.21412" lon="1.78428">
        <ele>199</ele>
        <time>2024-02-05T12:51:55.476+00:00</time>
      </trkpt>
      <trkpt lat="49.2141" lon="1.78434">
        <ele>198</ele>
        <time>2024-02-05T12:51:59.992+00:00</time>
      </trkpt>
      <trkpt lat="49.21407" lon="1.78435">
        <ele>198</ele>
        <time>2024-02-05T12:52:04.630+00:00</time>
      </trkpt>
      <trkpt lat="49.21401" lon="1.78441">
        <ele>197</ele>
        <time>2024-02-05T12:52:22.292+00:00</time>
      </trkpt>
      <trkpt lat="49.21399" lon="1.78447">
        <ele>197</ele>
        <time>2024-02-05T12:52:26.317+00:00</time>
      </trkpt>
      <trkpt lat="49.21394" lon="1.78448">
        <ele>197</ele>
        <time>2024-02-05T12:52:30.352+00:00</time>
      </trkpt>
      <trkpt lat="49.2139" lon="1.78454">
        <ele>197</ele>
        <time>2024-02-05T12:52:34.660+00:00</time>
      </trkpt>
      <trkpt lat="49.21386" lon="1.78456">
        <ele>197</ele>
        <time>2024-02-05T12:52:38.678+00:00</time>
      </trkpt>
      <trkpt lat="49.21383" lon="1.78458">
        <ele>197</ele>
        <time>2024-02-05T12:52:43.367+00:00</time>
      </trkpt>
      <trkpt lat="49.2138" lon="1.78459">
        <ele>197</ele>
        <time>2024-02-05T12:52:48.279+00:00</time>
      </trkpt>
      <trkpt lat="49.21374" lon="1.78463">
        <ele>195</ele>
        <time>2024-02-05T12:52:52.917+00:00</time>
      </trkpt>
      <trkpt lat="49.21369" lon="1.78465">
        <ele>195</ele>
        <time>2024-02-05T12:52:57.493+00:00</time>
      </trkpt>
      <trkpt lat="49.21365" lon="1.78466">
        <ele>195</ele>
        <time>2024-02-05T12:53:02.017+00:00</time>
      </trkpt>
      <trkpt lat="49.21361" lon="1.78464">
        <ele>195</ele>
        <time>2024-02-05T12:53:06.319+00:00</time>
      </trkpt>
      <trkpt lat="49.21357" lon="1.78464">
        <ele>195</ele>
        <time>2024-02-05T12:53:10.699+00:00</time>
      </trkpt>
      <trkpt lat="49.21353" lon="1.78465">
        <ele>195</ele>
        <time>2024-02-05T12:53:15+00:00</time>
      </trkpt>
      <trkpt lat="49.21349" lon="1.78468">
        <ele>195</ele>
        <time>2024-02-05T12:53:19.482+00:00</time>
      </trkpt>
      <trkpt lat="49.21345" lon="1.78468">
        <ele>192</ele>
        <time>2024-02-05T12:53:23.705+00:00</time>
      </trkpt>
      <trkpt lat="49.21342" lon="1.78469">
        <ele>192</ele>
        <time>2024-02-05T12:53:28.019+00:00</time>
      </trkpt>
      <trkpt lat="49.21338" lon="1.78472">
        <ele>192</ele>
        <time>2024-02-05T12:53:32.052+00:00</time>
      </trkpt>
      <trkpt lat="49.21333" lon="1.78474">
        <ele>192</ele>
        <time>2024-02-05T12:53:36.721+00:00</time>
      </trkpt>
      <trkpt lat="49.21328" lon="1.78476">
        <ele>192</ele>
        <time>2024-02-05T12:53:40.876+00:00</time>
      </trkpt>
      <trkpt lat="49.21322" lon="1.78479">
        <ele>192</ele>
        <time>2024-02-05T12:53:45.532+00:00</time>
      </trkpt>
      <trkpt lat="49.21316" lon="1.78481">
        <ele>189</ele>
        <time>2024-02-05T12:53:49.936+00:00</time>
      </trkpt>
      <trkpt lat="49.2131" lon="1.78483">
        <ele>189</ele>
        <time>2024-02-05T12:53:54.351+00:00</time>
      </trkpt>
      <trkpt lat="49.21306" lon="1.78486">
        <ele>189</ele>
        <time>2024-02-05T12:53:58.416+00:00</time>
      </trkpt>
      <trkpt lat="49.21301" lon="1.78488">
        <ele>189</ele>
        <time>2024-02-05T12:54:02.714+00:00</time>
      </trkpt>
      <trkpt lat="49.21296" lon="1.78491">
        <ele>189</ele>
        <time>2024-02-05T12:54:07.513+00:00</time>
      </trkpt>
      <trkpt lat="49.21292" lon="1.78492">
        <ele>189</ele>
        <time>2024-02-05T12:54:11.735+00:00</time>
      </trkpt>
      <trkpt lat="49.21287" lon="1.78497">
        <ele>185</ele>
        <time>2024-02-05T12:54:16.780+00:00</time>
      </trkpt>
      <trkpt lat="49.21281" lon="1.78498">
        <ele>185</ele>
        <time>2024-02-05T12:54:21.317+00:00</time>
      </trkpt>
      <trkpt lat="49.21276" lon="1.78499">
        <ele>185</ele>
        <time>2024-02-05T12:54:25.738+00:00</time>
      </trkpt>
      <trkpt lat="49.2127" lon="1.78502">
        <ele>185</ele>
        <time>2024-02-05T12:54:30.260+00:00</time>
      </trkpt>
      <trkpt lat="49.21266" lon="1.78505">
        <ele>185</ele>
        <time>2024-02-05T12:54:34.330+00:00</time>
      </trkpt>
      <trkpt lat="49.21261" lon="1.78508">
        <ele>181</ele>
        <time>2024-02-05T12:54:38.742+00:00</time>
      </trkpt>
      <trkpt lat="49.21255" lon="1.78511">
        <ele>181</ele>
        <time>2024-02-05T12:54:43.727+00:00</time>
      </trkpt>
      <trkpt lat="49.21242" lon="1.78515">
        <ele>181</ele>
        <time>2024-02-05T12:54:57.745+00:00</time>
      </trkpt>
      <trkpt lat="49.21237" lon="1.78515">
        <ele>181</ele>
        <time>2024-02-05T12:55:01.725+00:00</time>
      </trkpt>
      <trkpt lat="49.21228" lon="1.78514">
        <ele>177</ele>
        <time>2024-02-05T12:55:06.724+00:00</time>
      </trkpt>
      <trkpt lat="49.21222" lon="1.78515">
        <ele>177</ele>
        <time>2024-02-05T12:55:11.740+00:00</time>
      </trkpt>
      <trkpt lat="49.21216" lon="1.78515">
        <ele>177</ele>
        <time>2024-02-05T12:55:16.091+00:00</time>
      </trkpt>
      <trkpt lat="49.21211" lon="1.78516">
        <ele>177</ele>
        <time>2024-02-05T12:55:20.333+00:00</time>
      </trkpt>
      <trkpt lat="49.21206" lon="1.78516">
        <ele>174</ele>
        <time>2024-02-05T12:55:24.452+00:00</time>
      </trkpt>
      <trkpt lat="49.21201" lon="1.78516">
        <ele>174</ele>
        <time>2024-02-05T12:55:28.732+00:00</time>
      </trkpt>
      <trkpt lat="49.21196" lon="1.78517">
        <ele>174</ele>
        <time>2024-02-05T12:55:32.975+00:00</time>
      </trkpt>
      <trkpt lat="49.2119" lon="1.78518">
        <ele>174</ele>
        <time>2024-02-05T12:55:37.377+00:00</time>
      </trkpt>
      <trkpt lat="49.21184" lon="1.78519">
        <ele>174</ele>
        <time>2024-02-05T12:55:41.453+00:00</time>
      </trkpt>
      <trkpt lat="49.21178" lon="1.78518">
        <ele>172</ele>
        <time>2024-02-05T12:55:46.418+00:00</time>
      </trkpt>
      <trkpt lat="49.21172" lon="1.78519">
        <ele>172</ele>
        <time>2024-02-05T12:55:50.478+00:00</time>
      </trkpt>
      <trkpt lat="49.21167" lon="1.78518">
        <ele>172</ele>
        <time>2024-02-05T12:55:55.020+00:00</time>
      </trkpt>
      <trkpt lat="49.21161" lon="1.78518">
        <ele>172</ele>
        <time>2024-02-05T12:55:59.619+00:00</time>
      </trkpt>
      <trkpt lat="49.21156" lon="1.78518">
        <ele>172</ele>
        <time>2024-02-05T12:56:03.736+00:00</time>
      </trkpt>
      <trkpt lat="49.21149" lon="1.7852">
        <ele>169</ele>
        <time>2024-02-05T12:56:08.612+00:00</time>
      </trkpt>
      <trkpt lat="49.21144" lon="1.78519">
        <ele>169</ele>
        <time>2024-02-05T12:56:12.744+00:00</time>
      </trkpt>
      <trkpt lat="49.21138" lon="1.78519">
        <ele>169</ele>
        <time>2024-02-05T12:56:17.340+00:00</time>
      </trkpt>
      <trkpt lat="49.21133" lon="1.78519">
        <ele>169</ele>
        <time>2024-02-05T12:56:21.531+00:00</time>
      </trkpt>
      <trkpt lat="49.21127" lon="1.7852">
        <ele>169</ele>
        <time>2024-02-05T12:56:25.994+00:00</time>
      </trkpt>
      <trkpt lat="49.21121" lon="1.7852">
        <ele>167</ele>
        <time>2024-02-05T12:56:30.453+00:00</time>
      </trkpt>
      <trkpt lat="49.21116" lon="1.78521">
        <ele>167</ele>
        <time>2024-02-05T12:56:34.737+00:00</time>
      </trkpt>
      <trkpt lat="49.21111" lon="1.78522">
        <ele>167</ele>
        <time>2024-02-05T12:56:39.658+00:00</time>
      </trkpt>
      <trkpt lat="49.21109" lon="1.7852">
        <ele>167</ele>
        <time>2024-02-05T12:56:44.162+00:00</time>
      </trkpt>
      <trkpt lat="49.21108" lon="1.78526">
        <ele>167</ele>
        <time>2024-02-05T12:57:47.924+00:00</time>
      </trkpt>
      <trkpt lat="49.21108" lon="1.78527">
        <ele>167</ele>
        <time>2024-02-05T12:57:52.725+00:00</time>
      </trkpt>
      <trkpt lat="49.21105" lon="1.78529">
        <ele>167</ele>
        <time>2024-02-05T12:57:57.615+00:00</time>
      </trkpt>
      <trkpt lat="49.21104" lon="1.78534">
        <ele>167</ele>
        <time>2024-02-05T12:58:01.542+00:00</time>
      </trkpt>
      <trkpt lat="49.21103" lon="1.7854">
        <ele>167</ele>
        <time>2024-02-05T12:58:06.335+00:00</time>
      </trkpt>
      <trkpt lat="49.21102" lon="1.78544">
        <ele>166</ele>
        <time>2024-02-05T12:58:10.700+00:00</time>
      </trkpt>
      <trkpt lat="49.21101" lon="1.78548">
        <ele>166</ele>
        <time>2024-02-05T12:58:15.060+00:00</time>
      </trkpt>
      <trkpt lat="49.21099" lon="1.78554">
        <ele>166</ele>
        <time>2024-02-05T12:58:19.299+00:00</time>
      </trkpt>
      <trkpt lat="49.21098" lon="1.78559">
        <ele>166</ele>
        <time>2024-02-05T12:58:23.593+00:00</time>
      </trkpt>
      <trkpt lat="49.21096" lon="1.78564">
        <ele>163</ele>
        <time>2024-02-05T12:58:28.234+00:00</time>
      </trkpt>
      <trkpt lat="49.21094" lon="1.78568">
        <ele>163</ele>
        <time>2024-02-05T12:58:32.280+00:00</time>
      </trkpt>
      <trkpt lat="49.21092" lon="1.78574">
        <ele>163</ele>
        <time>2024-02-05T12:58:36.360+00:00</time>
      </trkpt>
      <trkpt lat="49.21092" lon="1.7858">
        <ele>163</ele>
        <time>2024-02-05T12:58:40.673+00:00</time>
      </trkpt>
      <trkpt lat="49.21091" lon="1.78589">
        <ele>163</ele>
        <time>2024-02-05T12:58:44.958+00:00</time>
      </trkpt>
      <trkpt lat="49.21089" lon="1.78594">
        <ele>163</ele>
        <time>2024-02-05T12:58:49.715+00:00</time>
      </trkpt>
      <trkpt lat="49.21088" lon="1.78601">
        <ele>162</ele>
        <time>2024-02-05T12:58:54.211+00:00</time>
      </trkpt>
      <trkpt lat="49.21087" lon="1.78608">
        <ele>162</ele>
        <time>2024-02-05T12:58:58.732+00:00</time>
      </trkpt>
      <trkpt lat="49.21086" lon="1.78615">
        <ele>162</ele>
        <time>2024-02-05T12:59:02.737+00:00</time>
      </trkpt>
      <trkpt lat="49.21084" lon="1.78621">
        <ele>162</ele>
        <time>2024-02-05T12:59:07.737+00:00</time>
      </trkpt>
      <trkpt lat="49.21081" lon="1.78626">
        <ele>162</ele>
        <time>2024-02-05T12:59:12.313+00:00</time>
      </trkpt>
      <trkpt lat="49.21079" lon="1.78632">
        <ele>162</ele>
        <time>2024-02-05T12:59:16.599+00:00</time>
      </trkpt>
      <trkpt lat="49.21079" lon="1.78638">
        <ele>162</ele>
        <time>2024-02-05T12:59:20.714+00:00</time>
      </trkpt>
      <trkpt lat="49.21076" lon="1.78644">
        <ele>162</ele>
        <time>2024-02-05T12:59:24.893+00:00</time>
      </trkpt>
      <trkpt lat="49.21073" lon="1.7865">
        <ele>162</ele>
        <time>2024-02-05T12:59:29.020+00:00</time>
      </trkpt>
      <trkpt lat="49.2107" lon="1.78655">
        <ele>162</ele>
        <time>2024-02-05T12:59:33.416+00:00</time>
      </trkpt>
      <trkpt lat="49.21065" lon="1.78658">
        <ele>159</ele>
        <time>2024-02-05T12:59:38.019+00:00</time>
      </trkpt>
      <trkpt lat="49.21061" lon="1.78663">
        <ele>159</ele>
        <time>2024-02-05T12:59:42.074+00:00</time>
      </trkpt>
      <trkpt lat="49.21057" lon="1.78667">
        <ele>159</ele>
        <time>2024-02-05T12:59:46.341+00:00</time>
      </trkpt>
      <trkpt lat="49.21053" lon="1.78672">
        <ele>159</ele>
        <time>2024-02-05T12:59:50.517+00:00</time>
      </trkpt>
      <trkpt lat="49.21049" lon="1.78676">
        <ele>159</ele>
        <time>2024-02-05T12:59:54.735+00:00</time>
      </trkpt>
      <trkpt lat="49.21044" lon="1.78681">
        <ele>159</ele>
        <time>2024-02-05T12:59:59.469+00:00</time>
      </trkpt>
      <trkpt lat="49.2104" lon="1.78686">
        <ele>157</ele>
        <time>2024-02-05T13:00:03.499+00:00</time>
      </trkpt>
      <trkpt lat="49.21035" lon="1.7869">
        <ele>157</ele>
        <time>2024-02-05T13:00:07.745+00:00</time>
      </trkpt>
      <trkpt lat="49.2103" lon="1.78694">
        <ele>157</ele>
        <time>2024-02-05T13:00:12.373+00:00</time>
      </trkpt>
      <trkpt lat="49.21026" lon="1.78699">
        <ele>157</ele>
        <time>2024-02-05T13:00:17.062+00:00</time>
      </trkpt>
      <trkpt lat="49.21022" lon="1.78704">
        <ele>157</ele>
        <time>2024-02-05T13:00:21.097+00:00</time>
      </trkpt>
      <trkpt lat="49.21017" lon="1.78708">
        <ele>157</ele>
        <time>2024-02-05T13:00:25.215+00:00</time>
      </trkpt>
      <trkpt lat="49.21013" lon="1.78712">
        <ele>154</ele>
        <time>2024-02-05T13:00:29.273+00:00</time>
      </trkpt>
      <trkpt lat="49.21008" lon="1.78717">
        <ele>154</ele>
        <time>2024-02-05T13:00:33.892+00:00</time>
      </trkpt>
      <trkpt lat="49.21004" lon="1.7872">
        <ele>154</ele>
        <time>2024-02-05T13:00:37.961+00:00</time>
      </trkpt>
      <trkpt lat="49.21002" lon="1.78723">
        <ele>154</ele>
        <time>2024-02-05T13:00:42.724+00:00</time>
      </trkpt>
      <trkpt lat="49.21" lon="1.78726">
        <ele>154</ele>
        <time>2024-02-05T13:00:46.956+00:00</time>
      </trkpt>
      <trkpt lat="49.20994" lon="1.7873">
        <ele>154</ele>
        <time>2024-02-05T13:00:51.014+00:00</time>
      </trkpt>
      <trkpt lat="49.2099" lon="1.78734">
        <ele>154</ele>
        <time>2024-02-05T13:00:55.252+00:00</time>
      </trkpt>
      <trkpt lat="49.20985" lon="1.7874">
        <ele>152</ele>
        <time>2024-02-05T13:00:59.363+00:00</time>
      </trkpt>
      <trkpt lat="49.20981" lon="1.78744">
        <ele>152</ele>
        <time>2024-02-05T13:01:03.461+00:00</time>
      </trkpt>
      <trkpt lat="49.20976" lon="1.78748">
        <ele>152</ele>
        <time>2024-02-05T13:01:07.677+00:00</time>
      </trkpt>
      <trkpt lat="49.20971" lon="1.78752">
        <ele>152</ele>
        <time>2024-02-05T13:01:12.155+00:00</time>
      </trkpt>
      <trkpt lat="49.20964" lon="1.78755">
        <ele>152</ele>
        <time>2024-02-05T13:01:16.359+00:00</time>
      </trkpt>
      <trkpt lat="49.2096" lon="1.78754">
        <ele>152</ele>
        <time>2024-02-05T13:01:20.378+00:00</time>
      </trkpt>
      <trkpt lat="49.20956" lon="1.78755">
        <ele>150</ele>
        <time>2024-02-05T13:01:24.933+00:00</time>
      </trkpt>
      <trkpt lat="49.20953" lon="1.78759">
        <ele>150</ele>
        <time>2024-02-05T13:01:29.404+00:00</time>
      </trkpt>
      <trkpt lat="49.20951" lon="1.78764">
        <ele>150</ele>
        <time>2024-02-05T13:01:33.721+00:00</time>
      </trkpt>
      <trkpt lat="49.20942" lon="1.78763">
        <ele>150</ele>
        <time>2024-02-05T13:01:46.723+00:00</time>
      </trkpt>
      <trkpt lat="49.20939" lon="1.78765">
        <ele>150</ele>
        <time>2024-02-05T13:01:51.728+00:00</time>
      </trkpt>
      <trkpt lat="49.20939" lon="1.78765">
        <ele>150</ele>
        <time>2024-02-05T13:01:55.745+00:00</time>
      </trkpt>
      <trkpt lat="49.20936" lon="1.78766">
        <ele>150</ele>
        <time>2024-02-05T13:02:00.022+00:00</time>
      </trkpt>
      <trkpt lat="49.20931" lon="1.7877">
        <ele>150</ele>
        <time>2024-02-05T13:02:04.160+00:00</time>
      </trkpt>
      <trkpt lat="49.20928" lon="1.78775">
        <ele>148</ele>
        <time>2024-02-05T13:02:08.320+00:00</time>
      </trkpt>
      <trkpt lat="49.20923" lon="1.78778">
        <ele>148</ele>
        <time>2024-02-05T13:02:12.742+00:00</time>
      </trkpt>
      <trkpt lat="49.20918" lon="1.78781">
        <ele>148</ele>
        <time>2024-02-05T13:02:17.460+00:00</time>
      </trkpt>
      <trkpt lat="49.20914" lon="1.78785">
        <ele>148</ele>
        <time>2024-02-05T13:02:21.521+00:00</time>
      </trkpt>
      <trkpt lat="49.20907" lon="1.7879">
        <ele>148</ele>
        <time>2024-02-05T13:02:49.694+00:00</time>
      </trkpt>
      <trkpt lat="49.20906" lon="1.7879">
        <ele>148</ele>
        <time>2024-02-05T13:02:53.732+00:00</time>
      </trkpt>
      <trkpt lat="49.20902" lon="1.78793">
        <ele>145</ele>
        <time>2024-02-05T13:02:57.898+00:00</time>
      </trkpt>
      <trkpt lat="49.20898" lon="1.78796">
        <ele>145</ele>
        <time>2024-02-05T13:03:01.896+00:00</time>
      </trkpt>
      <trkpt lat="49.20893" lon="1.78798">
        <ele>145</ele>
        <time>2024-02-05T13:03:05.996+00:00</time>
      </trkpt>
      <trkpt lat="49.20888" lon="1.78801">
        <ele>145</ele>
        <time>2024-02-05T13:03:10.416+00:00</time>
      </trkpt>
      <trkpt lat="49.20883" lon="1.78804">
        <ele>145</ele>
        <time>2024-02-05T13:03:14.922+00:00</time>
      </trkpt>
      <trkpt lat="49.20878" lon="1.78807">
        <ele>145</ele>
        <time>2024-02-05T13:03:19.323+00:00</time>
      </trkpt>
      <trkpt lat="49.20873" lon="1.78809">
        <ele>143</ele>
        <time>2024-02-05T13:03:23.719+00:00</time>
      </trkpt>
      <trkpt lat="49.20868" lon="1.78813">
        <ele>143</ele>
        <time>2024-02-05T13:03:28.318+00:00</time>
      </trkpt>
      <trkpt lat="49.20864" lon="1.78815">
        <ele>143</ele>
        <time>2024-02-05T13:03:32.714+00:00</time>
      </trkpt>
      <trkpt lat="49.20859" lon="1.78817">
        <ele>143</ele>
        <time>2024-02-05T13:03:37.342+00:00</time>
      </trkpt>
      <trkpt lat="49.20854" lon="1.7882">
        <ele>143</ele>
        <time>2024-02-05T13:03:41.952+00:00</time>
      </trkpt>
      <trkpt lat="49.20848" lon="1.78822">
        <ele>143</ele>
        <time>2024-02-05T13:03:46.514+00:00</time>
      </trkpt>
      <trkpt lat="49.20843" lon="1.78825">
        <ele>140</ele>
        <time>2024-02-05T13:03:51.074+00:00</time>
      </trkpt>
      <trkpt lat="49.20838" lon="1.78828">
        <ele>140</ele>
        <time>2024-02-05T13:03:55.616+00:00</time>
      </trkpt>
      <trkpt lat="49.20833" lon="1.7883">
        <ele>140</ele>
        <time>2024-02-05T13:04:00.106+00:00</time>
      </trkpt>
      <trkpt lat="49.20827" lon="1.78834">
        <ele>140</ele>
        <time>2024-02-05T13:04:04.582+00:00</time>
      </trkpt>
      <trkpt lat="49.20823" lon="1.78838">
        <ele>140</ele>
        <time>2024-02-05T13:04:09.038+00:00</time>
      </trkpt>
      <trkpt lat="49.20818" lon="1.78843">
        <ele>138</ele>
        <time>2024-02-05T13:04:13.558+00:00</time>
      </trkpt>
      <trkpt lat="49.20812" lon="1.78848">
        <ele>137</ele>
        <time>2024-02-05T13:04:18.035+00:00</time>
      </trkpt>
      <trkpt lat="49.20807" lon="1.7885">
        <ele>137</ele>
        <time>2024-02-05T13:04:22.424+00:00</time>
      </trkpt>
      <trkpt lat="49.20801" lon="1.78853">
        <ele>137</ele>
        <time>2024-02-05T13:04:26.860+00:00</time>
      </trkpt>
      <trkpt lat="49.20797" lon="1.78856">
        <ele>137</ele>
        <time>2024-02-05T13:04:31.299+00:00</time>
      </trkpt>
      <trkpt lat="49.20791" lon="1.78859">
        <ele>137</ele>
        <time>2024-02-05T13:04:35.745+00:00</time>
      </trkpt>
      <trkpt lat="49.20786" lon="1.78863">
        <ele>137</ele>
        <time>2024-02-05T13:04:40.199+00:00</time>
      </trkpt>
      <trkpt lat="49.2078" lon="1.78865">
        <ele>137</ele>
        <time>2024-02-05T13:04:44.664+00:00</time>
      </trkpt>
      <trkpt lat="49.20775" lon="1.78866">
        <ele>137</ele>
        <time>2024-02-05T13:04:48.728+00:00</time>
      </trkpt>
      <trkpt lat="49.2077" lon="1.78868">
        <ele>137</ele>
        <time>2024-02-05T13:04:53.099+00:00</time>
      </trkpt>
      <trkpt lat="49.20765" lon="1.7887">
        <ele>137</ele>
        <time>2024-02-05T13:04:57.277+00:00</time>
      </trkpt>
      <trkpt lat="49.2076" lon="1.78871">
        <ele>137</ele>
        <time>2024-02-05T13:05:01.731+00:00</time>
      </trkpt>
      <trkpt lat="49.20754" lon="1.78874">
        <ele>137</ele>
        <time>2024-02-05T13:05:06.304+00:00</time>
      </trkpt>
      <trkpt lat="49.20749" lon="1.78876">
        <ele>137</ele>
        <time>2024-02-05T13:05:10.749+00:00</time>
      </trkpt>
      <trkpt lat="49.20744" lon="1.78878">
        <ele>137</ele>
        <time>2024-02-05T13:05:14.937+00:00</time>
      </trkpt>
      <trkpt lat="49.20739" lon="1.78881">
        <ele>137</ele>
        <time>2024-02-05T13:05:19.037+00:00</time>
      </trkpt>
      <trkpt lat="49.20734" lon="1.78884">
        <ele>136</ele>
        <time>2024-02-05T13:05:23.104+00:00</time>
      </trkpt>
      <trkpt lat="49.20728" lon="1.78887">
        <ele>136</ele>
        <time>2024-02-05T13:05:27.723+00:00</time>
      </trkpt>
      <trkpt lat="49.20722" lon="1.78889">
        <ele>136</ele>
        <time>2024-02-05T13:05:32.139+00:00</time>
      </trkpt>
      <trkpt lat="49.20716" lon="1.78891">
        <ele>136</ele>
        <time>2024-02-05T13:05:36.676+00:00</time>
      </trkpt>
      <trkpt lat="49.2071" lon="1.78892">
        <ele>136</ele>
        <time>2024-02-05T13:05:40.719+00:00</time>
      </trkpt>
      <trkpt lat="49.20705" lon="1.78894">
        <ele>134</ele>
        <time>2024-02-05T13:05:44.697+00:00</time>
      </trkpt>
      <trkpt lat="49.207" lon="1.78895">
        <ele>134</ele>
        <time>2024-02-05T13:05:49.105+00:00</time>
      </trkpt>
      <trkpt lat="49.20694" lon="1.78896">
        <ele>134</ele>
        <time>2024-02-05T13:05:53.161+00:00</time>
      </trkpt>
      <trkpt lat="49.20689" lon="1.78898">
        <ele>134</ele>
        <time>2024-02-05T13:05:57.227+00:00</time>
      </trkpt>
      <trkpt lat="49.20683" lon="1.78899">
        <ele>134</ele>
        <time>2024-02-05T13:06:01.741+00:00</time>
      </trkpt>
      <trkpt lat="49.20678" lon="1.78901">
        <ele>133</ele>
        <time>2024-02-05T13:06:05.758+00:00</time>
      </trkpt>
      <trkpt lat="49.20672" lon="1.78903">
        <ele>133</ele>
        <time>2024-02-05T13:06:10.236+00:00</time>
      </trkpt>
      <trkpt lat="49.20666" lon="1.78906">
        <ele>133</ele>
        <time>2024-02-05T13:06:14.623+00:00</time>
      </trkpt>
      <trkpt lat="49.20661" lon="1.78909">
        <ele>133</ele>
        <time>2024-02-05T13:06:19.121+00:00</time>
      </trkpt>
      <trkpt lat="49.20656" lon="1.78913">
        <ele>133</ele>
        <time>2024-02-05T13:06:23.478+00:00</time>
      </trkpt>
      <trkpt lat="49.20652" lon="1.78918">
        <ele>133</ele>
        <time>2024-02-05T13:06:27.735+00:00</time>
      </trkpt>
      <trkpt lat="49.20647" lon="1.78923">
        <ele>133</ele>
        <time>2024-02-05T13:06:32.277+00:00</time>
      </trkpt>
      <trkpt lat="49.20643" lon="1.78929">
        <ele>133</ele>
        <time>2024-02-05T13:06:36.662+00:00</time>
      </trkpt>
      <trkpt lat="49.20639" lon="1.78935">
        <ele>132</ele>
        <time>2024-02-05T13:06:41.062+00:00</time>
      </trkpt>
      <trkpt lat="49.20635" lon="1.78941">
        <ele>132</ele>
        <time>2024-02-05T13:06:45.477+00:00</time>
      </trkpt>
      <trkpt lat="49.20631" lon="1.78948">
        <ele>132</ele>
        <time>2024-02-05T13:06:49.856+00:00</time>
      </trkpt>
      <trkpt lat="49.20627" lon="1.78954">
        <ele>132</ele>
        <time>2024-02-05T13:06:54.285+00:00</time>
      </trkpt>
      <trkpt lat="49.20623" lon="1.78962">
        <ele>131</ele>
        <time>2024-02-05T13:06:58.901+00:00</time>
      </trkpt>
      <trkpt lat="49.20619" lon="1.78969">
        <ele>131</ele>
        <time>2024-02-05T13:07:03.416+00:00</time>
      </trkpt>
      <trkpt lat="49.20615" lon="1.78975">
        <ele>131</ele>
        <time>2024-02-05T13:07:07.736+00:00</time>
      </trkpt>
      <trkpt lat="49.2061" lon="1.78981">
        <ele>131</ele>
        <time>2024-02-05T13:07:12.138+00:00</time>
      </trkpt>
      <trkpt lat="49.20606" lon="1.78987">
        <ele>130</ele>
        <time>2024-02-05T13:07:16.544+00:00</time>
      </trkpt>
      <trkpt lat="49.20601" lon="1.78995">
        <ele>130</ele>
        <time>2024-02-05T13:07:21.022+00:00</time>
      </trkpt>
      <trkpt lat="49.20598" lon="1.79001">
        <ele>130</ele>
        <time>2024-02-05T13:07:25.277+00:00</time>
      </trkpt>
      <trkpt lat="49.20594" lon="1.79007">
        <ele>130</ele>
        <time>2024-02-05T13:07:29.602+00:00</time>
      </trkpt>
      <trkpt lat="49.20588" lon="1.79012">
        <ele>130</ele>
        <time>2024-02-05T13:07:33.734+00:00</time>
      </trkpt>
      <trkpt lat="49.20584" lon="1.79019">
        <ele>129</ele>
        <time>2024-02-05T13:07:38.175+00:00</time>
      </trkpt>
      <trkpt lat="49.2058" lon="1.79025">
        <ele>129</ele>
        <time>2024-02-05T13:07:42.748+00:00</time>
      </trkpt>
      <trkpt lat="49.20576" lon="1.79032">
        <ele>129</ele>
        <time>2024-02-05T13:07:46.917+00:00</time>
      </trkpt>
      <trkpt lat="49.20572" lon="1.79038">
        <ele>129</ele>
        <time>2024-02-05T13:07:51.198+00:00</time>
      </trkpt>
      <trkpt lat="49.20569" lon="1.79045">
        <ele>128</ele>
        <time>2024-02-05T13:07:55.543+00:00</time>
      </trkpt>
      <trkpt lat="49.20564" lon="1.79051">
        <ele>128</ele>
        <time>2024-02-05T13:07:59.860+00:00</time>
      </trkpt>
      <trkpt lat="49.2056" lon="1.79057">
        <ele>128</ele>
        <time>2024-02-05T13:08:04.181+00:00</time>
      </trkpt>
      <trkpt lat="49.20556" lon="1.79064">
        <ele>128</ele>
        <time>2024-02-05T13:08:08.420+00:00</time>
      </trkpt>
      <trkpt lat="49.20552" lon="1.7907">
        <ele>128</ele>
        <time>2024-02-05T13:08:12.744+00:00</time>
      </trkpt>
      <trkpt lat="49.20548" lon="1.79076">
        <ele>128</ele>
        <time>2024-02-05T13:08:17.118+00:00</time>
      </trkpt>
      <trkpt lat="49.20544" lon="1.79082">
        <ele>128</ele>
        <time>2024-02-05T13:08:21.417+00:00</time>
      </trkpt>
      <trkpt lat="49.2054" lon="1.79089">
        <ele>128</ele>
        <time>2024-02-05T13:08:25.679+00:00</time>
      </trkpt>
      <trkpt lat="49.20536" lon="1.79096">
        <ele>128</ele>
        <time>2024-02-05T13:08:30.083+00:00</time>
      </trkpt>
      <trkpt lat="49.20532" lon="1.79102">
        <ele>128</ele>
        <time>2024-02-05T13:08:34.380+00:00</time>
      </trkpt>
      <trkpt lat="49.20527" lon="1.79109">
        <ele>128</ele>
        <time>2024-02-05T13:08:38.740+00:00</time>
      </trkpt>
      <trkpt lat="49.20523" lon="1.79116">
        <ele>128</ele>
        <time>2024-02-05T13:08:42.999+00:00</time>
      </trkpt>
      <trkpt lat="49.20519" lon="1.79123">
        <ele>128</ele>
        <time>2024-02-05T13:08:47.362+00:00</time>
      </trkpt>
      <trkpt lat="49.20515" lon="1.7913">
        <ele>128</ele>
        <time>2024-02-05T13:08:51.732+00:00</time>
      </trkpt>
      <trkpt lat="49.20511" lon="1.79136">
        <ele>128</ele>
        <time>2024-02-05T13:08:56.025+00:00</time>
      </trkpt>
      <trkpt lat="49.20508" lon="1.79143">
        <ele>128</ele>
        <time>2024-02-05T13:09:00.461+00:00</time>
      </trkpt>
      <trkpt lat="49.20505" lon="1.79149">
        <ele>128</ele>
        <time>2024-02-05T13:09:04.484+00:00</time>
      </trkpt>
      <trkpt lat="49.20501" lon="1.79156">
        <ele>127</ele>
        <time>2024-02-05T13:09:08.736+00:00</time>
      </trkpt>
      <trkpt lat="49.20498" lon="1.79162">
        <ele>127</ele>
        <time>2024-02-05T13:09:12.752+00:00</time>
      </trkpt>
      <trkpt lat="49.20493" lon="1.7917">
        <ele>127</ele>
        <time>2024-02-05T13:09:17.324+00:00</time>
      </trkpt>
      <trkpt lat="49.2049" lon="1.79177">
        <ele>127</ele>
        <time>2024-02-05T13:09:21.745+00:00</time>
      </trkpt>
      <trkpt lat="49.20485" lon="1.79184">
        <ele>127</ele>
        <time>2024-02-05T13:09:26.711+00:00</time>
      </trkpt>
      <trkpt lat="49.20481" lon="1.79189">
        <ele>127</ele>
        <time>2024-02-05T13:09:30.722+00:00</time>
      </trkpt>
      <trkpt lat="49.20477" lon="1.79196">
        <ele>127</ele>
        <time>2024-02-05T13:09:35.174+00:00</time>
      </trkpt>
      <trkpt lat="49.20472" lon="1.79204">
        <ele>127</ele>
        <time>2024-02-05T13:09:39.577+00:00</time>
      </trkpt>
      <trkpt lat="49.20469" lon="1.79211">
        <ele>127</ele>
        <time>2024-02-05T13:09:43.899+00:00</time>
      </trkpt>
      <trkpt lat="49.20465" lon="1.79217">
        <ele>127</ele>
        <time>2024-02-05T13:09:48.121+00:00</time>
      </trkpt>
      <trkpt lat="49.20461" lon="1.79225">
        <ele>127</ele>
        <time>2024-02-05T13:09:52.477+00:00</time>
      </trkpt>
      <trkpt lat="49.20456" lon="1.79233">
        <ele>126</ele>
        <time>2024-02-05T13:09:56.842+00:00</time>
      </trkpt>
      <trkpt lat="49.20452" lon="1.7924">
        <ele>125</ele>
        <time>2024-02-05T13:10:01.142+00:00</time>
      </trkpt>
      <trkpt lat="49.20449" lon="1.79247">
        <ele>125</ele>
        <time>2024-02-05T13:10:05.598+00:00</time>
      </trkpt>
      <trkpt lat="49.20445" lon="1.79254">
        <ele>125</ele>
        <time>2024-02-05T13:10:10.124+00:00</time>
      </trkpt>
      <trkpt lat="49.20442" lon="1.79262">
        <ele>125</ele>
        <time>2024-02-05T13:10:14.583+00:00</time>
      </trkpt>
      <trkpt lat="49.20438" lon="1.79269">
        <ele>124</ele>
        <time>2024-02-05T13:10:18.978+00:00</time>
      </trkpt>
      <trkpt lat="49.20434" lon="1.79276">
        <ele>124</ele>
        <time>2024-02-05T13:10:23.383+00:00</time>
      </trkpt>
      <trkpt lat="49.20431" lon="1.79284">
        <ele>122</ele>
        <time>2024-02-05T13:10:27.727+00:00</time>
      </trkpt>
      <trkpt lat="49.20427" lon="1.79291">
        <ele>122</ele>
        <time>2024-02-05T13:10:32.281+00:00</time>
      </trkpt>
      <trkpt lat="49.20423" lon="1.79299">
        <ele>122</ele>
        <time>2024-02-05T13:10:36.730+00:00</time>
      </trkpt>
      <trkpt lat="49.20419" lon="1.79306">
        <ele>122</ele>
        <time>2024-02-05T13:10:41.245+00:00</time>
      </trkpt>
      <trkpt lat="49.20416" lon="1.79314">
        <ele>122</ele>
        <time>2024-02-05T13:10:45.644+00:00</time>
      </trkpt>
      <trkpt lat="49.20414" lon="1.79319">
        <ele>122</ele>
        <time>2024-02-05T13:10:50.140+00:00</time>
      </trkpt>
      <trkpt lat="49.2041" lon="1.79326">
        <ele>121</ele>
        <time>2024-02-05T13:10:54.656+00:00</time>
      </trkpt>
      <trkpt lat="49.20405" lon="1.79334">
        <ele>121</ele>
        <time>2024-02-05T13:10:59.095+00:00</time>
      </trkpt>
      <trkpt lat="49.204" lon="1.79342">
        <ele>121</ele>
        <time>2024-02-05T13:11:03.564+00:00</time>
      </trkpt>
      <trkpt lat="49.20397" lon="1.7935">
        <ele>120</ele>
        <time>2024-02-05T13:11:07.964+00:00</time>
      </trkpt>
      <trkpt lat="49.20394" lon="1.79358">
        <ele>120</ele>
        <time>2024-02-05T13:11:12.462+00:00</time>
      </trkpt>
      <trkpt lat="49.2039" lon="1.79364">
        <ele>120</ele>
        <time>2024-02-05T13:11:16.857+00:00</time>
      </trkpt>
      <trkpt lat="49.20387" lon="1.79372">
        <ele>120</ele>
        <time>2024-02-05T13:11:21.297+00:00</time>
      </trkpt>
      <trkpt lat="49.20382" lon="1.7938">
        <ele>119</ele>
        <time>2024-02-05T13:11:25.760+00:00</time>
      </trkpt>
      <trkpt lat="49.20379" lon="1.79388">
        <ele>119</ele>
        <time>2024-02-05T13:11:30.298+00:00</time>
      </trkpt>
      <trkpt lat="49.20376" lon="1.79396">
        <ele>119</ele>
        <time>2024-02-05T13:11:34.736+00:00</time>
      </trkpt>
      <trkpt lat="49.20373" lon="1.79402">
        <ele>118</ele>
        <time>2024-02-05T13:11:38.750+00:00</time>
      </trkpt>
      <trkpt lat="49.20369" lon="1.7941">
        <ele>117</ele>
        <time>2024-02-05T13:11:43.061+00:00</time>
      </trkpt>
      <trkpt lat="49.20366" lon="1.79418">
        <ele>117</ele>
        <time>2024-02-05T13:11:47.339+00:00</time>
      </trkpt>
      <trkpt lat="49.20362" lon="1.79424">
        <ele>117</ele>
        <time>2024-02-05T13:11:51.488+00:00</time>
      </trkpt>
      <trkpt lat="49.20359" lon="1.79431">
        <ele>117</ele>
        <time>2024-02-05T13:11:55.700+00:00</time>
      </trkpt>
      <trkpt lat="49.20355" lon="1.79438">
        <ele>117</ele>
        <time>2024-02-05T13:11:59.858+00:00</time>
      </trkpt>
      <trkpt lat="49.20352" lon="1.79445">
        <ele>117</ele>
        <time>2024-02-05T13:12:04.159+00:00</time>
      </trkpt>
      <trkpt lat="49.20349" lon="1.79453">
        <ele>117</ele>
        <time>2024-02-05T13:12:08.515+00:00</time>
      </trkpt>
      <trkpt lat="49.20345" lon="1.79461">
        <ele>115</ele>
        <time>2024-02-05T13:12:12.943+00:00</time>
      </trkpt>
      <trkpt lat="49.20341" lon="1.79469">
        <ele>115</ele>
        <time>2024-02-05T13:12:17.482+00:00</time>
      </trkpt>
      <trkpt lat="49.20338" lon="1.79476">
        <ele>115</ele>
        <time>2024-02-05T13:12:21.618+00:00</time>
      </trkpt>
      <trkpt lat="49.20334" lon="1.79483">
        <ele>115</ele>
        <time>2024-02-05T13:12:25.895+00:00</time>
      </trkpt>
      <trkpt lat="49.2033" lon="1.79491">
        <ele>115</ele>
        <time>2024-02-05T13:12:30.240+00:00</time>
      </trkpt>
      <trkpt lat="49.20327" lon="1.79497">
        <ele>115</ele>
        <time>2024-02-05T13:12:34.637+00:00</time>
      </trkpt>
      <trkpt lat="49.20323" lon="1.79503">
        <ele>115</ele>
        <time>2024-02-05T13:12:38.895+00:00</time>
      </trkpt>
      <trkpt lat="49.20318" lon="1.79508">
        <ele>113</ele>
        <time>2024-02-05T13:12:43.125+00:00</time>
      </trkpt>
      <trkpt lat="49.20314" lon="1.79514">
        <ele>113</ele>
        <time>2024-02-05T13:12:47.203+00:00</time>
      </trkpt>
      <trkpt lat="49.2031" lon="1.7952">
        <ele>113</ele>
        <time>2024-02-05T13:12:51.499+00:00</time>
      </trkpt>
      <trkpt lat="49.20305" lon="1.79526">
        <ele>113</ele>
        <time>2024-02-05T13:12:55.747+00:00</time>
      </trkpt>
      <trkpt lat="49.203" lon="1.79532">
        <ele>113</ele>
        <time>2024-02-05T13:13:00.044+00:00</time>
      </trkpt>
      <trkpt lat="49.20298" lon="1.79535">
        <ele>113</ele>
        <time>2024-02-05T13:13:04.243+00:00</time>
      </trkpt>
      <trkpt lat="49.20293" lon="1.7954">
        <ele>113</ele>
        <time>2024-02-05T13:13:08.602+00:00</time>
      </trkpt>
      <trkpt lat="49.20288" lon="1.79546">
        <ele>111</ele>
        <time>2024-02-05T13:13:12.918+00:00</time>
      </trkpt>
      <trkpt lat="49.20282" lon="1.79552">
        <ele>111</ele>
        <time>2024-02-05T13:13:17.155+00:00</time>
      </trkpt>
      <trkpt lat="49.20276" lon="1.79556">
        <ele>111</ele>
        <time>2024-02-05T13:13:21.475+00:00</time>
      </trkpt>
      <trkpt lat="49.20271" lon="1.79561">
        <ele>111</ele>
        <time>2024-02-05T13:13:25.741+00:00</time>
      </trkpt>
      <trkpt lat="49.20266" lon="1.79567">
        <ele>111</ele>
        <time>2024-02-05T13:13:30.198+00:00</time>
      </trkpt>
      <trkpt lat="49.20261" lon="1.79572">
        <ele>109</ele>
        <time>2024-02-05T13:13:34.477+00:00</time>
      </trkpt>
      <trkpt lat="49.20255" lon="1.79578">
        <ele>109</ele>
        <time>2024-02-05T13:13:38.738+00:00</time>
      </trkpt>
      <trkpt lat="49.2025" lon="1.79583">
        <ele>109</ele>
        <time>2024-02-05T13:13:43.237+00:00</time>
      </trkpt>
      <trkpt lat="49.20247" lon="1.7959">
        <ele>109</ele>
        <time>2024-02-05T13:13:47.655+00:00</time>
      </trkpt>
      <trkpt lat="49.20244" lon="1.79596">
        <ele>109</ele>
        <time>2024-02-05T13:13:52.025+00:00</time>
      </trkpt>
      <trkpt lat="49.20243" lon="1.79603">
        <ele>109</ele>
        <time>2024-02-05T13:13:56.450+00:00</time>
      </trkpt>
      <trkpt lat="49.20242" lon="1.79612">
        <ele>109</ele>
        <time>2024-02-05T13:14:00.743+00:00</time>
      </trkpt>
      <trkpt lat="49.20243" lon="1.7962">
        <ele>109</ele>
        <time>2024-02-05T13:14:05+00:00</time>
      </trkpt>
      <trkpt lat="49.20243" lon="1.79628">
        <ele>109</ele>
        <time>2024-02-05T13:14:09.260+00:00</time>
      </trkpt>
      <trkpt lat="49.20244" lon="1.79638">
        <ele>109</ele>
        <time>2024-02-05T13:14:13.728+00:00</time>
      </trkpt>
      <trkpt lat="49.20245" lon="1.79645">
        <ele>109</ele>
        <time>2024-02-05T13:14:18.125+00:00</time>
      </trkpt>
      <trkpt lat="49.20247" lon="1.79653">
        <ele>109</ele>
        <time>2024-02-05T13:14:22.471+00:00</time>
      </trkpt>
      <trkpt lat="49.20249" lon="1.79663">
        <ele>109</ele>
        <time>2024-02-05T13:14:26.716+00:00</time>
      </trkpt>
      <trkpt lat="49.2025" lon="1.79672">
        <ele>109</ele>
        <time>2024-02-05T13:14:31.064+00:00</time>
      </trkpt>
      <trkpt lat="49.20251" lon="1.79681">
        <ele>109</ele>
        <time>2024-02-05T13:14:35.280+00:00</time>
      </trkpt>
      <trkpt lat="49.2025" lon="1.79691">
        <ele>109</ele>
        <time>2024-02-05T13:14:39.729+00:00</time>
      </trkpt>
      <trkpt lat="49.20246" lon="1.797">
        <ele>109</ele>
        <time>2024-02-05T13:14:44.157+00:00</time>
      </trkpt>
      <trkpt lat="49.2024" lon="1.79705">
        <ele>109</ele>
        <time>2024-02-05T13:14:48.665+00:00</time>
      </trkpt>
      <trkpt lat="49.20234" lon="1.79707">
        <ele>108</ele>
        <time>2024-02-05T13:14:52.999+00:00</time>
      </trkpt>
      <trkpt lat="49.20228" lon="1.79709">
        <ele>110</ele>
        <time>2024-02-05T13:14:57.296+00:00</time>
      </trkpt>
      <trkpt lat="49.20223" lon="1.7971">
        <ele>110</ele>
        <time>2024-02-05T13:15:01.585+00:00</time>
      </trkpt>
      <trkpt lat="49.20217" lon="1.79712">
        <ele>110</ele>
        <time>2024-02-05T13:15:05.704+00:00</time>
      </trkpt>
      <trkpt lat="49.20211" lon="1.79713">
        <ele>110</ele>
        <time>2024-02-05T13:15:10.118+00:00</time>
      </trkpt>
      <trkpt lat="49.20206" lon="1.79716">
        <ele>112</ele>
        <time>2024-02-05T13:15:14.455+00:00</time>
      </trkpt>
      <trkpt lat="49.20202" lon="1.79718">
        <ele>112</ele>
        <time>2024-02-05T13:15:18.752+00:00</time>
      </trkpt>
      <trkpt lat="49.20197" lon="1.7972">
        <ele>112</ele>
        <time>2024-02-05T13:15:23.198+00:00</time>
      </trkpt>
      <trkpt lat="49.20192" lon="1.79722">
        <ele>112</ele>
        <time>2024-02-05T13:15:27.557+00:00</time>
      </trkpt>
      <trkpt lat="49.20186" lon="1.79722">
        <ele>112</ele>
        <time>2024-02-05T13:15:31.904+00:00</time>
      </trkpt>
      <trkpt lat="49.2018" lon="1.79723">
        <ele>113</ele>
        <time>2024-02-05T13:15:36.343+00:00</time>
      </trkpt>
      <trkpt lat="49.20174" lon="1.79724">
        <ele>113</ele>
        <time>2024-02-05T13:15:40.817+00:00</time>
      </trkpt>
      <trkpt lat="49.20168" lon="1.79724">
        <ele>113</ele>
        <time>2024-02-05T13:15:45.118+00:00</time>
      </trkpt>
      <trkpt lat="49.20164" lon="1.79724">
        <ele>113</ele>
        <time>2024-02-05T13:15:49.513+00:00</time>
      </trkpt>
      <trkpt lat="49.20159" lon="1.79724">
        <ele>113</ele>
        <time>2024-02-05T13:15:53.842+00:00</time>
      </trkpt>
      <trkpt lat="49.20153" lon="1.79724">
        <ele>113</ele>
        <time>2024-02-05T13:15:58.464+00:00</time>
      </trkpt>
      <trkpt lat="49.20148" lon="1.79724">
        <ele>114</ele>
        <time>2024-02-05T13:16:02.557+00:00</time>
      </trkpt>
      <trkpt lat="49.20143" lon="1.79723">
        <ele>114</ele>
        <time>2024-02-05T13:16:07.064+00:00</time>
      </trkpt>
      <trkpt lat="49.20139" lon="1.79722">
        <ele>114</ele>
        <time>2024-02-05T13:16:11.260+00:00</time>
      </trkpt>
      <trkpt lat="49.20135" lon="1.79721">
        <ele>114</ele>
        <time>2024-02-05T13:16:15.517+00:00</time>
      </trkpt>
      <trkpt lat="49.2013" lon="1.7972">
        <ele>114</ele>
        <time>2024-02-05T13:16:19.736+00:00</time>
      </trkpt>
      <trkpt lat="49.20126" lon="1.79718">
        <ele>114</ele>
        <time>2024-02-05T13:16:24.280+00:00</time>
      </trkpt>
      <trkpt lat="49.20121" lon="1.79716">
        <ele>115</ele>
        <time>2024-02-05T13:16:28.323+00:00</time>
      </trkpt>
      <trkpt lat="49.20116" lon="1.79714">
        <ele>115</ele>
        <time>2024-02-05T13:16:32.377+00:00</time>
      </trkpt>
      <trkpt lat="49.20112" lon="1.79713">
        <ele>115</ele>
        <time>2024-02-05T13:16:36.426+00:00</time>
      </trkpt>
      <trkpt lat="49.20107" lon="1.79712">
        <ele>115</ele>
        <time>2024-02-05T13:16:40.881+00:00</time>
      </trkpt>
      <trkpt lat="49.20102" lon="1.7971">
        <ele>115</ele>
        <time>2024-02-05T13:16:45.315+00:00</time>
      </trkpt>
      <trkpt lat="49.20098" lon="1.79709">
        <ele>115</ele>
        <time>2024-02-05T13:16:49.731+00:00</time>
      </trkpt>
      <trkpt lat="49.20092" lon="1.79706">
        <ele>116</ele>
        <time>2024-02-05T13:16:54.253+00:00</time>
      </trkpt>
      <trkpt lat="49.20088" lon="1.79704">
        <ele>116</ele>
        <time>2024-02-05T13:16:58.734+00:00</time>
      </trkpt>
      <trkpt lat="49.20084" lon="1.79703">
        <ele>116</ele>
        <time>2024-02-05T13:17:02.916+00:00</time>
      </trkpt>
      <trkpt lat="49.20079" lon="1.797">
        <ele>116</ele>
        <time>2024-02-05T13:17:07.052+00:00</time>
      </trkpt>
      <trkpt lat="49.20074" lon="1.79698">
        <ele>116</ele>
        <time>2024-02-05T13:17:11.140+00:00</time>
      </trkpt>
      <trkpt lat="49.20068" lon="1.79694">
        <ele>116</ele>
        <time>2024-02-05T13:17:15.175+00:00</time>
      </trkpt>
      <trkpt lat="49.20063" lon="1.7969">
        <ele>116</ele>
        <time>2024-02-05T13:17:19.478+00:00</time>
      </trkpt>
      <trkpt lat="49.20057" lon="1.79687">
        <ele>116</ele>
        <time>2024-02-05T13:17:23.659+00:00</time>
      </trkpt>
      <trkpt lat="49.2005" lon="1.79684">
        <ele>116</ele>
        <time>2024-02-05T13:17:28.654+00:00</time>
      </trkpt>
      <trkpt lat="49.20042" lon="1.79681">
        <ele>116</ele>
        <time>2024-02-05T13:17:32.977+00:00</time>
      </trkpt>
      <trkpt lat="49.20035" lon="1.7968">
        <ele>116</ele>
        <time>2024-02-05T13:17:37.374+00:00</time>
      </trkpt>
      <trkpt lat="49.20028" lon="1.79679">
        <ele>116</ele>
        <time>2024-02-05T13:17:41.725+00:00</time>
      </trkpt>
      <trkpt lat="49.20022" lon="1.79679">
        <ele>116</ele>
        <time>2024-02-05T13:17:46.057+00:00</time>
      </trkpt>
      <trkpt lat="49.20015" lon="1.79678">
        <ele>116</ele>
        <time>2024-02-05T13:17:50.475+00:00</time>
      </trkpt>
      <trkpt lat="49.20008" lon="1.79678">
        <ele>116</ele>
        <time>2024-02-05T13:17:54.833+00:00</time>
      </trkpt>
      <trkpt lat="49.20002" lon="1.7968">
        <ele>116</ele>
        <time>2024-02-05T13:17:59.210+00:00</time>
      </trkpt>
      <trkpt lat="49.19995" lon="1.7968">
        <ele>116</ele>
        <time>2024-02-05T13:18:03.557+00:00</time>
      </trkpt>
      <trkpt lat="49.19989" lon="1.7968">
        <ele>116</ele>
        <time>2024-02-05T13:18:07.916+00:00</time>
      </trkpt>
      <trkpt lat="49.19983" lon="1.79683">
        <ele>118</ele>
        <time>2024-02-05T13:18:12.253+00:00</time>
      </trkpt>
      <trkpt lat="49.19978" lon="1.79685">
        <ele>118</ele>
        <time>2024-02-05T13:18:16.641+00:00</time>
      </trkpt>
      <trkpt lat="49.19972" lon="1.79688">
        <ele>118</ele>
        <time>2024-02-05T13:18:20.856+00:00</time>
      </trkpt>
      <trkpt lat="49.19967" lon="1.7969">
        <ele>118</ele>
        <time>2024-02-05T13:18:25.335+00:00</time>
      </trkpt>
      <trkpt lat="49.19962" lon="1.79692">
        <ele>118</ele>
        <time>2024-02-05T13:18:29.755+00:00</time>
      </trkpt>
      <trkpt lat="49.19956" lon="1.79695">
        <ele>117</ele>
        <time>2024-02-05T13:18:33.755+00:00</time>
      </trkpt>
      <trkpt lat="49.19951" lon="1.79698">
        <ele>117</ele>
        <time>2024-02-05T13:18:37.983+00:00</time>
      </trkpt>
      <trkpt lat="49.19946" lon="1.79702">
        <ele>117</ele>
        <time>2024-02-05T13:18:42.384+00:00</time>
      </trkpt>
      <trkpt lat="49.1994" lon="1.79705">
        <ele>117</ele>
        <time>2024-02-05T13:18:46.738+00:00</time>
      </trkpt>
      <trkpt lat="49.19935" lon="1.79708">
        <ele>117</ele>
        <time>2024-02-05T13:18:51.076+00:00</time>
      </trkpt>
      <trkpt lat="49.1993" lon="1.79712">
        <ele>117</ele>
        <time>2024-02-05T13:18:55.497+00:00</time>
      </trkpt>
      <trkpt lat="49.19925" lon="1.79717">
        <ele>117</ele>
        <time>2024-02-05T13:18:59.934+00:00</time>
      </trkpt>
      <trkpt lat="49.1992" lon="1.79721">
        <ele>117</ele>
        <time>2024-02-05T13:19:04.335+00:00</time>
      </trkpt>
      <trkpt lat="49.19915" lon="1.79726">
        <ele>117</ele>
        <time>2024-02-05T13:19:08.799+00:00</time>
      </trkpt>
      <trkpt lat="49.1991" lon="1.79729">
        <ele>117</ele>
        <time>2024-02-05T13:19:13.257+00:00</time>
      </trkpt>
      <trkpt lat="49.19906" lon="1.79733">
        <ele>117</ele>
        <time>2024-02-05T13:19:17.554+00:00</time>
      </trkpt>
      <trkpt lat="49.199" lon="1.79736">
        <ele>119</ele>
        <time>2024-02-05T13:19:22.153+00:00</time>
      </trkpt>
      <trkpt lat="49.19896" lon="1.7974">
        <ele>119</ele>
        <time>2024-02-05T13:19:26.413+00:00</time>
      </trkpt>
      <trkpt lat="49.19892" lon="1.79743">
        <ele>119</ele>
        <time>2024-02-05T13:19:30.466+00:00</time>
      </trkpt>
      <trkpt lat="49.19887" lon="1.79746">
        <ele>119</ele>
        <time>2024-02-05T13:19:34.977+00:00</time>
      </trkpt>
      <trkpt lat="49.19883" lon="1.79749">
        <ele>119</ele>
        <time>2024-02-05T13:19:39.056+00:00</time>
      </trkpt>
      <trkpt lat="49.19878" lon="1.79752">
        <ele>119</ele>
        <time>2024-02-05T13:19:43.592+00:00</time>
      </trkpt>
      <trkpt lat="49.19873" lon="1.79755">
        <ele>119</ele>
        <time>2024-02-05T13:19:48.181+00:00</time>
      </trkpt>
      <trkpt lat="49.19867" lon="1.79757">
        <ele>119</ele>
        <time>2024-02-05T13:19:52.636+00:00</time>
      </trkpt>
      <trkpt lat="49.19861" lon="1.79757">
        <ele>119</ele>
        <time>2024-02-05T13:19:56.952+00:00</time>
      </trkpt>
      <trkpt lat="49.19856" lon="1.79758">
        <ele>119</ele>
        <time>2024-02-05T13:20:01.361+00:00</time>
      </trkpt>
      <trkpt lat="49.1985" lon="1.7976">
        <ele>119</ele>
        <time>2024-02-05T13:20:05.736+00:00</time>
      </trkpt>
      <trkpt lat="49.19844" lon="1.79761">
        <ele>119</ele>
        <time>2024-02-05T13:20:10.192+00:00</time>
      </trkpt>
      <trkpt lat="49.19839" lon="1.79761">
        <ele>119</ele>
        <time>2024-02-05T13:20:14.757+00:00</time>
      </trkpt>
      <trkpt lat="49.19835" lon="1.79764">
        <ele>119</ele>
        <time>2024-02-05T13:20:18.835+00:00</time>
      </trkpt>
      <trkpt lat="49.19829" lon="1.79763">
        <ele>119</ele>
        <time>2024-02-05T13:20:23.393+00:00</time>
      </trkpt>
      <trkpt lat="49.19824" lon="1.79763">
        <ele>119</ele>
        <time>2024-02-05T13:20:27.401+00:00</time>
      </trkpt>
      <trkpt lat="49.19818" lon="1.79765">
        <ele>120</ele>
        <time>2024-02-05T13:20:31.700+00:00</time>
      </trkpt>
      <trkpt lat="49.19812" lon="1.79765">
        <ele>120</ele>
        <time>2024-02-05T13:20:35.671+00:00</time>
      </trkpt>
      <trkpt lat="49.19806" lon="1.79766">
        <ele>120</ele>
        <time>2024-02-05T13:20:39.977+00:00</time>
      </trkpt>
      <trkpt lat="49.198" lon="1.79767">
        <ele>120</ele>
        <time>2024-02-05T13:20:44.334+00:00</time>
      </trkpt>
      <trkpt lat="49.19794" lon="1.79768">
        <ele>120</ele>
        <time>2024-02-05T13:20:48.659+00:00</time>
      </trkpt>
      <trkpt lat="49.19789" lon="1.79769">
        <ele>120</ele>
        <time>2024-02-05T13:20:52.998+00:00</time>
      </trkpt>
      <trkpt lat="49.19784" lon="1.79771">
        <ele>120</ele>
        <time>2024-02-05T13:20:57.378+00:00</time>
      </trkpt>
      <trkpt lat="49.19778" lon="1.79773">
        <ele>120</ele>
        <time>2024-02-05T13:21:01.771+00:00</time>
      </trkpt>
      <trkpt lat="49.19773" lon="1.79775">
        <ele>120</ele>
        <time>2024-02-05T13:21:06.277+00:00</time>
      </trkpt>
      <trkpt lat="49.19767" lon="1.79777">
        <ele>120</ele>
        <time>2024-02-05T13:21:10.635+00:00</time>
      </trkpt>
      <trkpt lat="49.19762" lon="1.79779">
        <ele>120</ele>
        <time>2024-02-05T13:21:14.953+00:00</time>
      </trkpt>
      <trkpt lat="49.19756" lon="1.79781">
        <ele>120</ele>
        <time>2024-02-05T13:21:19.331+00:00</time>
      </trkpt>
      <trkpt lat="49.1975" lon="1.79784">
        <ele>120</ele>
        <time>2024-02-05T13:21:23.695+00:00</time>
      </trkpt>
      <trkpt lat="49.19746" lon="1.79787">
        <ele>120</ele>
        <time>2024-02-05T13:21:27.698+00:00</time>
      </trkpt>
      <trkpt lat="49.1974" lon="1.7979">
        <ele>120</ele>
        <time>2024-02-05T13:21:32.157+00:00</time>
      </trkpt>
      <trkpt lat="49.19735" lon="1.79793">
        <ele>122</ele>
        <time>2024-02-05T13:21:36.638+00:00</time>
      </trkpt>
      <trkpt lat="49.19729" lon="1.79796">
        <ele>122</ele>
        <time>2024-02-05T13:21:41.198+00:00</time>
      </trkpt>
      <trkpt lat="49.19723" lon="1.79799">
        <ele>122</ele>
        <time>2024-02-05T13:21:45.737+00:00</time>
      </trkpt>
      <trkpt lat="49.19718" lon="1.79801">
        <ele>122</ele>
        <time>2024-02-05T13:21:50.097+00:00</time>
      </trkpt>
      <trkpt lat="49.19712" lon="1.79801">
        <ele>122</ele>
        <time>2024-02-05T13:21:54.707+00:00</time>
      </trkpt>
      <trkpt lat="49.19707" lon="1.79803">
        <ele>122</ele>
        <time>2024-02-05T13:21:59.313+00:00</time>
      </trkpt>
      <trkpt lat="49.19702" lon="1.79809">
        <ele>122</ele>
        <time>2024-02-05T13:22:03.950+00:00</time>
      </trkpt>
      <trkpt lat="49.19698" lon="1.79814">
        <ele>122</ele>
        <time>2024-02-05T13:22:08.099+00:00</time>
      </trkpt>
      <trkpt lat="49.19694" lon="1.79817">
        <ele>122</ele>
        <time>2024-02-05T13:22:12.254+00:00</time>
      </trkpt>
      <trkpt lat="49.1969" lon="1.7982">
        <ele>125</ele>
        <time>2024-02-05T13:22:16.277+00:00</time>
      </trkpt>
      <trkpt lat="49.19686" lon="1.79823">
        <ele>125</ele>
        <time>2024-02-05T13:22:20.332+00:00</time>
      </trkpt>
      <trkpt lat="49.19682" lon="1.79828">
        <ele>125</ele>
        <time>2024-02-05T13:22:24.379+00:00</time>
      </trkpt>
      <trkpt lat="49.19679" lon="1.79833">
        <ele>122</ele>
        <time>2024-02-05T13:22:28.732+00:00</time>
      </trkpt>
      <trkpt lat="49.19675" lon="1.79836">
        <ele>122</ele>
        <time>2024-02-05T13:22:33.612+00:00</time>
      </trkpt>
      <trkpt lat="49.19671" lon="1.79838">
        <ele>122</ele>
        <time>2024-02-05T13:22:37.632+00:00</time>
      </trkpt>
      <trkpt lat="49.19668" lon="1.79842">
        <ele>122</ele>
        <time>2024-02-05T13:22:41.736+00:00</time>
      </trkpt>
      <trkpt lat="49.19666" lon="1.79847">
        <ele>122</ele>
        <time>2024-02-05T13:22:45.746+00:00</time>
      </trkpt>
      <trkpt lat="49.19664" lon="1.79852">
        <ele>124</ele>
        <time>2024-02-05T13:22:50.351+00:00</time>
      </trkpt>
      <trkpt lat="49.1966" lon="1.79857">
        <ele>124</ele>
        <time>2024-02-05T13:22:54.691+00:00</time>
      </trkpt>
      <trkpt lat="49.19657" lon="1.79859">
        <ele>124</ele>
        <time>2024-02-05T13:22:59.300+00:00</time>
      </trkpt>
      <trkpt lat="49.19657" lon="1.79861">
        <ele>124</ele>
        <time>2024-02-05T13:23:03.539+00:00</time>
      </trkpt>
      <trkpt lat="49.19655" lon="1.79866">
        <ele>124</ele>
        <time>2024-02-05T13:23:07.741+00:00</time>
      </trkpt>
      <trkpt lat="49.19653" lon="1.7987">
        <ele>124</ele>
        <time>2024-02-05T13:23:12.470+00:00</time>
      </trkpt>
      <trkpt lat="49.19652" lon="1.79871">
        <ele>122</ele>
        <time>2024-02-05T13:23:16.726+00:00</time>
      </trkpt>
      <trkpt lat="49.1965" lon="1.79874">
        <ele>122</ele>
        <time>2024-02-05T13:23:20.755+00:00</time>
      </trkpt>
      <trkpt lat="49.1965" lon="1.79876">
        <ele>124</ele>
        <time>2024-02-05T13:23:25.411+00:00</time>
      </trkpt>
      <trkpt lat="49.19649" lon="1.79879">
        <ele>124</ele>
        <time>2024-02-05T13:23:29.728+00:00</time>
      </trkpt>
      <trkpt lat="49.19647" lon="1.79884">
        <ele>124</ele>
        <time>2024-02-05T13:23:34.719+00:00</time>
      </trkpt>
      <trkpt lat="49.19643" lon="1.79889">
        <ele>124</ele>
        <time>2024-02-05T13:24:13.307+00:00</time>
      </trkpt>
      <trkpt lat="49.19644" lon="1.7989">
        <ele>124</ele>
        <time>2024-02-05T13:24:17.721+00:00</time>
      </trkpt>
      <trkpt lat="49.19644" lon="1.7989">
        <ele>124</ele>
        <time>2024-02-05T13:24:22.300+00:00</time>
      </trkpt>
      <trkpt lat="49.19641" lon="1.79891">
        <ele>124</ele>
        <time>2024-02-05T13:24:26.746+00:00</time>
      </trkpt>
      <trkpt lat="49.19639" lon="1.79895">
        <ele>124</ele>
        <time>2024-02-05T13:24:31.700+00:00</time>
      </trkpt>
      <trkpt lat="49.19635" lon="1.79897">
        <ele>124</ele>
        <time>2024-02-05T13:24:40.735+00:00</time>
      </trkpt>
      <trkpt lat="49.19633" lon="1.79899">
        <ele>124</ele>
        <time>2024-02-05T13:24:44.731+00:00</time>
      </trkpt>
      <trkpt lat="49.19632" lon="1.79899">
        <ele>124</ele>
        <time>2024-02-05T13:24:49.335+00:00</time>
      </trkpt>
      <trkpt lat="49.1963" lon="1.79903">
        <ele>125</ele>
        <time>2024-02-05T13:24:53.602+00:00</time>
      </trkpt>
      <trkpt lat="49.19629" lon="1.79905">
        <ele>125</ele>
        <time>2024-02-05T13:24:57.727+00:00</time>
      </trkpt>
      <trkpt lat="49.1963" lon="1.79904">
        <ele>125</ele>
        <time>2024-02-05T13:25:01.738+00:00</time>
      </trkpt>
      <trkpt lat="49.19629" lon="1.79905">
        <ele>125</ele>
        <time>2024-02-05T13:25:06.749+00:00</time>
      </trkpt>
      <trkpt lat="49.19629" lon="1.79907">
        <ele>125</ele>
        <time>2024-02-05T13:25:11.728+00:00</time>
      </trkpt>
      <trkpt lat="49.19625" lon="1.79913">
        <ele>124</ele>
        <time>2024-02-05T13:25:20.015+00:00</time>
      </trkpt>
      <trkpt lat="49.19622" lon="1.79919">
        <ele>124</ele>
        <time>2024-02-05T13:25:24.531+00:00</time>
      </trkpt>
      <trkpt lat="49.19621" lon="1.79925">
        <ele>124</ele>
        <time>2024-02-05T13:25:28.920+00:00</time>
      </trkpt>
      <trkpt lat="49.19618" lon="1.7993">
        <ele>124</ele>
        <time>2024-02-05T13:25:33.018+00:00</time>
      </trkpt>
      <trkpt lat="49.19614" lon="1.79936">
        <ele>125</ele>
        <time>2024-02-05T13:25:37.557+00:00</time>
      </trkpt>
      <trkpt lat="49.1961" lon="1.79941">
        <ele>125</ele>
        <time>2024-02-05T13:25:41.576+00:00</time>
      </trkpt>
      <trkpt lat="49.19607" lon="1.79946">
        <ele>125</ele>
        <time>2024-02-05T13:25:45.739+00:00</time>
      </trkpt>
      <trkpt lat="49.19603" lon="1.79951">
        <ele>125</ele>
        <time>2024-02-05T13:25:49.990+00:00</time>
      </trkpt>
      <trkpt lat="49.196" lon="1.79957">
        <ele>125</ele>
        <time>2024-02-05T13:25:54.140+00:00</time>
      </trkpt>
      <trkpt lat="49.19596" lon="1.7996">
        <ele>124</ele>
        <time>2024-02-05T13:25:58.238+00:00</time>
      </trkpt>
      <trkpt lat="49.19593" lon="1.79967">
        <ele>124</ele>
        <time>2024-02-05T13:26:02.453+00:00</time>
      </trkpt>
      <trkpt lat="49.19588" lon="1.79972">
        <ele>124</ele>
        <time>2024-02-05T13:26:06.707+00:00</time>
      </trkpt>
      <trkpt lat="49.19583" lon="1.79974">
        <ele>124</ele>
        <time>2024-02-05T13:26:11.162+00:00</time>
      </trkpt>
      <trkpt lat="49.19578" lon="1.7998">
        <ele>124</ele>
        <time>2024-02-05T13:26:15.539+00:00</time>
      </trkpt>
      <trkpt lat="49.19572" lon="1.79996">
        <ele>125</ele>
        <time>2024-02-05T13:26:38.494+00:00</time>
      </trkpt>
      <trkpt lat="49.19575" lon="1.80008">
        <ele>125</ele>
        <time>2024-02-05T13:26:42.570+00:00</time>
      </trkpt>
      <trkpt lat="49.19576" lon="1.80015">
        <ele>126</ele>
        <time>2024-02-05T13:26:46.693+00:00</time>
      </trkpt>
      <trkpt lat="49.19576" lon="1.80026">
        <ele>126</ele>
        <time>2024-02-05T13:26:51.597+00:00</time>
      </trkpt>
      <trkpt lat="49.19574" lon="1.80032">
        <ele>126</ele>
        <time>2024-02-05T13:26:55.637+00:00</time>
      </trkpt>
      <trkpt lat="49.19575" lon="1.80035">
        <ele>126</ele>
        <time>2024-02-05T13:26:59.702+00:00</time>
      </trkpt>
      <trkpt lat="49.19575" lon="1.80037">
        <ele>126</ele>
        <time>2024-02-05T13:27:04.294+00:00</time>
      </trkpt>
      <trkpt lat="49.19576" lon="1.80045">
        <ele>127</ele>
        <time>2024-02-05T13:27:08.615+00:00</time>
      </trkpt>
      <trkpt lat="49.19578" lon="1.80051">
        <ele>127</ele>
        <time>2024-02-05T13:27:12.703+00:00</time>
      </trkpt>
      <trkpt lat="49.19582" lon="1.80057">
        <ele>127</ele>
        <time>2024-02-05T13:27:17.337+00:00</time>
      </trkpt>
      <trkpt lat="49.1958" lon="1.80066">
        <ele>127</ele>
        <time>2024-02-05T13:27:21.706+00:00</time>
      </trkpt>
      <trkpt lat="49.19577" lon="1.80072">
        <ele>128</ele>
        <time>2024-02-05T13:27:26.016+00:00</time>
      </trkpt>
      <trkpt lat="49.19585" lon="1.80074">
        <ele>128</ele>
        <time>2024-02-05T13:27:30.160+00:00</time>
      </trkpt>
      <trkpt lat="49.19588" lon="1.80077">
        <ele>128</ele>
        <time>2024-02-05T13:27:34.280+00:00</time>
      </trkpt>
      <trkpt lat="49.19591" lon="1.80081">
        <ele>128</ele>
        <time>2024-02-05T13:27:38.695+00:00</time>
      </trkpt>
      <trkpt lat="49.19592" lon="1.80089">
        <ele>128</ele>
        <time>2024-02-05T13:27:43.692+00:00</time>
      </trkpt>
      <trkpt lat="49.19593" lon="1.80094">
        <ele>128</ele>
        <time>2024-02-05T13:27:47.701+00:00</time>
      </trkpt>
      <trkpt lat="49.19594" lon="1.80096">
        <ele>128</ele>
        <time>2024-02-05T13:28:20.696+00:00</time>
      </trkpt>
      <trkpt lat="49.19597" lon="1.80098">
        <ele>129</ele>
        <time>2024-02-05T13:28:25.480+00:00</time>
      </trkpt>
      <trkpt lat="49.19597" lon="1.80099">
        <ele>130</ele>
        <time>2024-02-05T13:28:29.698+00:00</time>
      </trkpt>
      <trkpt lat="49.19597" lon="1.80103">
        <ele>129</ele>
        <time>2024-02-05T13:28:34.631+00:00</time>
      </trkpt>
      <trkpt lat="49.19594" lon="1.80114">
        <ele>129</ele>
        <time>2024-02-05T13:28:38.699+00:00</time>
      </trkpt>
      <trkpt lat="49.19591" lon="1.80124">
        <ele>129</ele>
        <time>2024-02-05T13:28:43.179+00:00</time>
      </trkpt>
      <trkpt lat="49.19595" lon="1.80134">
        <ele>131</ele>
        <time>2024-02-05T13:28:47.689+00:00</time>
      </trkpt>
      <trkpt lat="49.19597" lon="1.80144">
        <ele>131</ele>
        <time>2024-02-05T13:28:52.374+00:00</time>
      </trkpt>
      <trkpt lat="49.19596" lon="1.80153">
        <ele>131</ele>
        <time>2024-02-05T13:28:56.696+00:00</time>
      </trkpt>
      <trkpt lat="49.19594" lon="1.80163">
        <ele>131</ele>
        <time>2024-02-05T13:29:01.652+00:00</time>
      </trkpt>
      <trkpt lat="49.19597" lon="1.80172">
        <ele>132</ele>
        <time>2024-02-05T13:29:05.715+00:00</time>
      </trkpt>
      <trkpt lat="49.19601" lon="1.80182">
        <ele>133</ele>
        <time>2024-02-05T13:29:10.704+00:00</time>
      </trkpt>
      <trkpt lat="49.19597" lon="1.80191">
        <ele>132</ele>
        <time>2024-02-05T13:29:15.730+00:00</time>
      </trkpt>
      <trkpt lat="49.19593" lon="1.80194">
        <ele>132</ele>
        <time>2024-02-05T13:29:20.271+00:00</time>
      </trkpt>
      <trkpt lat="49.19592" lon="1.802">
        <ele>132</ele>
        <time>2024-02-05T13:29:24.725+00:00</time>
      </trkpt>
      <trkpt lat="49.19595" lon="1.80208">
        <ele>132</ele>
        <time>2024-02-05T13:29:29.237+00:00</time>
      </trkpt>
      <trkpt lat="49.19598" lon="1.80214">
        <ele>133</ele>
        <time>2024-02-05T13:29:33.704+00:00</time>
      </trkpt>
      <trkpt lat="49.19597" lon="1.80216">
        <ele>133</ele>
        <time>2024-02-05T13:29:38.224+00:00</time>
      </trkpt>
      <trkpt lat="49.19596" lon="1.80224">
        <ele>133</ele>
        <time>2024-02-05T13:29:42.691+00:00</time>
      </trkpt>
      <trkpt lat="49.196" lon="1.80232">
        <ele>133</ele>
        <time>2024-02-05T13:29:47.134+00:00</time>
      </trkpt>
      <trkpt lat="49.19601" lon="1.80237">
        <ele>134</ele>
        <time>2024-02-05T13:29:51.159+00:00</time>
      </trkpt>
      <trkpt lat="49.19598" lon="1.80238">
        <ele>134</ele>
        <time>2024-02-05T13:30:00.331+00:00</time>
      </trkpt>
      <trkpt lat="49.196" lon="1.8024">
        <ele>134</ele>
        <time>2024-02-05T13:30:04.411+00:00</time>
      </trkpt>
      <trkpt lat="49.19599" lon="1.80247">
        <ele>134</ele>
        <time>2024-02-05T13:30:08.686+00:00</time>
      </trkpt>
      <trkpt lat="49.19597" lon="1.8025">
        <ele>134</ele>
        <time>2024-02-05T13:30:13.715+00:00</time>
      </trkpt>
      <trkpt lat="49.19594" lon="1.80254">
        <ele>134</ele>
        <time>2024-02-05T13:30:17.715+00:00</time>
      </trkpt>
      <trkpt lat="49.19592" lon="1.80257">
        <ele>134</ele>
        <time>2024-02-05T13:30:22.155+00:00</time>
      </trkpt>
      <trkpt lat="49.19591" lon="1.80264">
        <ele>134</ele>
        <time>2024-02-05T13:30:26.710+00:00</time>
      </trkpt>
      <trkpt lat="49.1959" lon="1.80269">
        <ele>135</ele>
        <time>2024-02-05T13:30:31.392+00:00</time>
      </trkpt>
      <trkpt lat="49.19588" lon="1.80274">
        <ele>135</ele>
        <time>2024-02-05T13:30:35.705+00:00</time>
      </trkpt>
      <trkpt lat="49.19589" lon="1.80283">
        <ele>135</ele>
        <time>2024-02-05T13:30:48.682+00:00</time>
      </trkpt>
      <trkpt lat="49.19589" lon="1.80291">
        <ele>135</ele>
        <time>2024-02-05T13:30:53.478+00:00</time>
      </trkpt>
      <trkpt lat="49.1959" lon="1.80301">
        <ele>137</ele>
        <time>2024-02-05T13:30:57.684+00:00</time>
      </trkpt>
      <trkpt lat="49.1959" lon="1.80306">
        <ele>137</ele>
        <time>2024-02-05T13:31:02.202+00:00</time>
      </trkpt>
      <trkpt lat="49.19589" lon="1.80314">
        <ele>137</ele>
        <time>2024-02-05T13:31:06.233+00:00</time>
      </trkpt>
      <trkpt lat="49.19588" lon="1.80322">
        <ele>141</ele>
        <time>2024-02-05T13:31:10.692+00:00</time>
      </trkpt>
      <trkpt lat="49.19589" lon="1.80322">
        <ele>141</ele>
        <time>2024-02-05T13:31:15.697+00:00</time>
      </trkpt>
      <trkpt lat="49.19591" lon="1.80325">
        <ele>141</ele>
        <time>2024-02-05T13:31:20.151+00:00</time>
      </trkpt>
      <trkpt lat="49.19595" lon="1.8034">
        <ele>141</ele>
        <time>2024-02-05T13:31:24.333+00:00</time>
      </trkpt>
      <trkpt lat="49.19595" lon="1.8034">
        <ele>141</ele>
        <time>2024-02-05T13:31:28.708+00:00</time>
      </trkpt>
      <trkpt lat="49.19593" lon="1.80342">
        <ele>141</ele>
        <time>2024-02-05T13:31:32.717+00:00</time>
      </trkpt>
      <trkpt lat="49.1959" lon="1.80347">
        <ele>141</ele>
        <time>2024-02-05T13:31:37.696+00:00</time>
      </trkpt>
      <trkpt lat="49.19587" lon="1.80342">
        <ele>141</ele>
        <time>2024-02-05T13:31:41.707+00:00</time>
      </trkpt>
      <trkpt lat="49.19585" lon="1.80344">
        <ele>141</ele>
        <time>2024-02-05T13:31:46.234+00:00</time>
      </trkpt>
      <trkpt lat="49.19584" lon="1.80348">
        <ele>146</ele>
        <time>2024-02-05T13:31:50.568+00:00</time>
      </trkpt>
      <trkpt lat="49.19583" lon="1.80353">
        <ele>146</ele>
        <time>2024-02-05T13:31:55.211+00:00</time>
      </trkpt>
      <trkpt lat="49.19581" lon="1.80359">
        <ele>146</ele>
        <time>2024-02-05T13:31:59.515+00:00</time>
      </trkpt>
      <trkpt lat="49.19579" lon="1.80364">
        <ele>146</ele>
        <time>2024-02-05T13:32:04.075+00:00</time>
      </trkpt>
      <trkpt lat="49.19578" lon="1.80369">
        <ele>146</ele>
        <time>2024-02-05T13:32:08.153+00:00</time>
      </trkpt>
      <trkpt lat="49.19577" lon="1.80376">
        <ele>150</ele>
        <time>2024-02-05T13:32:12.719+00:00</time>
      </trkpt>
      <trkpt lat="49.19574" lon="1.80381">
        <ele>150</ele>
        <time>2024-02-05T13:32:17.365+00:00</time>
      </trkpt>
      <trkpt lat="49.19577" lon="1.80388">
        <ele>150</ele>
        <time>2024-02-05T13:32:21.240+00:00</time>
      </trkpt>
      <trkpt lat="49.19575" lon="1.80397">
        <ele>150</ele>
        <time>2024-02-05T13:32:30.486+00:00</time>
      </trkpt>
      <trkpt lat="49.19575" lon="1.80399">
        <ele>150</ele>
        <time>2024-02-05T13:32:34.714+00:00</time>
      </trkpt>
      <trkpt lat="49.19577" lon="1.80401">
        <ele>150</ele>
        <time>2024-02-05T13:32:38.716+00:00</time>
      </trkpt>
      <trkpt lat="49.19581" lon="1.80404">
        <ele>153</ele>
        <time>2024-02-05T13:32:43.654+00:00</time>
      </trkpt>
      <trkpt lat="49.19585" lon="1.80406">
        <ele>153</ele>
        <time>2024-02-05T13:32:47.700+00:00</time>
      </trkpt>
      <trkpt lat="49.19588" lon="1.8041">
        <ele>153</ele>
        <time>2024-02-05T13:32:52.008+00:00</time>
      </trkpt>
      <trkpt lat="49.1959" lon="1.80414">
        <ele>153</ele>
        <time>2024-02-05T13:32:56.155+00:00</time>
      </trkpt>
      <trkpt lat="49.19593" lon="1.80417">
        <ele>153</ele>
        <time>2024-02-05T13:33:00.650+00:00</time>
      </trkpt>
      <trkpt lat="49.19595" lon="1.80421">
        <ele>153</ele>
        <time>2024-02-05T13:33:04.715+00:00</time>
      </trkpt>
      <trkpt lat="49.19598" lon="1.80425">
        <ele>156</ele>
        <time>2024-02-05T13:33:08.732+00:00</time>
      </trkpt>
      <trkpt lat="49.19602" lon="1.80429">
        <ele>156</ele>
        <time>2024-02-05T13:33:12.935+00:00</time>
      </trkpt>
      <trkpt lat="49.19606" lon="1.80431">
        <ele>158</ele>
        <time>2024-02-05T13:33:17.130+00:00</time>
      </trkpt>
      <trkpt lat="49.1961" lon="1.80433">
        <ele>158</ele>
        <time>2024-02-05T13:33:21.698+00:00</time>
      </trkpt>
      <trkpt lat="49.19613" lon="1.80437">
        <ele>158</ele>
        <time>2024-02-05T13:33:26.174+00:00</time>
      </trkpt>
      <trkpt lat="49.19616" lon="1.80438">
        <ele>158</ele>
        <time>2024-02-05T13:33:30.250+00:00</time>
      </trkpt>
      <trkpt lat="49.19618" lon="1.80439">
        <ele>158</ele>
        <time>2024-02-05T13:33:34.333+00:00</time>
      </trkpt>
      <trkpt lat="49.19622" lon="1.80441">
        <ele>158</ele>
        <time>2024-02-05T13:33:38.751+00:00</time>
      </trkpt>
      <trkpt lat="49.19627" lon="1.80446">
        <ele>158</ele>
        <time>2024-02-05T13:33:43.147+00:00</time>
      </trkpt>
      <trkpt lat="49.19631" lon="1.80451">
        <ele>158</ele>
        <time>2024-02-05T13:33:47.711+00:00</time>
      </trkpt>
      <trkpt lat="49.19634" lon="1.80456">
        <ele>158</ele>
        <time>2024-02-05T13:33:52.470+00:00</time>
      </trkpt>
      <trkpt lat="49.19636" lon="1.80462">
        <ele>159</ele>
        <time>2024-02-05T13:33:57.047+00:00</time>
      </trkpt>
      <trkpt lat="49.19639" lon="1.80466">
        <ele>159</ele>
        <time>2024-02-05T13:34:01.314+00:00</time>
      </trkpt>
      <trkpt lat="49.19642" lon="1.8047">
        <ele>159</ele>
        <time>2024-02-05T13:34:05.548+00:00</time>
      </trkpt>
      <trkpt lat="49.19645" lon="1.80474">
        <ele>159</ele>
        <time>2024-02-05T13:34:09.676+00:00</time>
      </trkpt>
      <trkpt lat="49.19649" lon="1.80479">
        <ele>159</ele>
        <time>2024-02-05T13:34:14.030+00:00</time>
      </trkpt>
      <trkpt lat="49.19652" lon="1.80484">
        <ele>159</ele>
        <time>2024-02-05T13:34:18.145+00:00</time>
      </trkpt>
      <trkpt lat="49.19656" lon="1.80488">
        <ele>158</ele>
        <time>2024-02-05T13:34:22.373+00:00</time>
      </trkpt>
      <trkpt lat="49.1966" lon="1.80492">
        <ele>158</ele>
        <time>2024-02-05T13:34:26.955+00:00</time>
      </trkpt>
      <trkpt lat="49.19664" lon="1.80496">
        <ele>158</ele>
        <time>2024-02-05T13:34:31.029+00:00</time>
      </trkpt>
      <trkpt lat="49.19668" lon="1.80501">
        <ele>158</ele>
        <time>2024-02-05T13:34:35.186+00:00</time>
      </trkpt>
      <trkpt lat="49.19671" lon="1.80505">
        <ele>158</ele>
        <time>2024-02-05T13:34:39.292+00:00</time>
      </trkpt>
      <trkpt lat="49.19674" lon="1.80509">
        <ele>158</ele>
        <time>2024-02-05T13:34:43.431+00:00</time>
      </trkpt>
      <trkpt lat="49.19677" lon="1.80512">
        <ele>158</ele>
        <time>2024-02-05T13:34:47.633+00:00</time>
      </trkpt>
      <trkpt lat="49.19681" lon="1.80516">
        <ele>156</ele>
        <time>2024-02-05T13:34:51.688+00:00</time>
      </trkpt>
      <trkpt lat="49.19685" lon="1.8052">
        <ele>156</ele>
        <time>2024-02-05T13:34:55.714+00:00</time>
      </trkpt>
      <trkpt lat="49.19689" lon="1.80524">
        <ele>156</ele>
        <time>2024-02-05T13:34:59.713+00:00</time>
      </trkpt>
      <trkpt lat="49.19693" lon="1.80528">
        <ele>156</ele>
        <time>2024-02-05T13:35:03.790+00:00</time>
      </trkpt>
      <trkpt lat="49.19697" lon="1.80533">
        <ele>156</ele>
        <time>2024-02-05T13:35:08.294+00:00</time>
      </trkpt>
      <trkpt lat="49.197" lon="1.80537">
        <ele>156</ele>
        <time>2024-02-05T13:35:12.589+00:00</time>
      </trkpt>
      <trkpt lat="49.19703" lon="1.80542">
        <ele>156</ele>
        <time>2024-02-05T13:35:16.672+00:00</time>
      </trkpt>
      <trkpt lat="49.19707" lon="1.80545">
        <ele>154</ele>
        <time>2024-02-05T13:35:20.946+00:00</time>
      </trkpt>
      <trkpt lat="49.19711" lon="1.80547">
        <ele>151</ele>
        <time>2024-02-05T13:35:25.008+00:00</time>
      </trkpt>
      <trkpt lat="49.19716" lon="1.8055">
        <ele>151</ele>
        <time>2024-02-05T13:35:29.111+00:00</time>
      </trkpt>
      <trkpt lat="49.1972" lon="1.80552">
        <ele>151</ele>
        <time>2024-02-05T13:35:33.193+00:00</time>
      </trkpt>
      <trkpt lat="49.19724" lon="1.80557">
        <ele>151</ele>
        <time>2024-02-05T13:35:37.226+00:00</time>
      </trkpt>
      <trkpt lat="49.19727" lon="1.80564">
        <ele>151</ele>
        <time>2024-02-05T13:35:41.723+00:00</time>
      </trkpt>
      <trkpt lat="49.19731" lon="1.80569">
        <ele>151</ele>
        <time>2024-02-05T13:35:45.873+00:00</time>
      </trkpt>
      <trkpt lat="49.19735" lon="1.80572">
        <ele>149</ele>
        <time>2024-02-05T13:35:49.967+00:00</time>
      </trkpt>
      <trkpt lat="49.19739" lon="1.80577">
        <ele>144</ele>
        <time>2024-02-05T13:35:54.630+00:00</time>
      </trkpt>
      <trkpt lat="49.19737" lon="1.80583">
        <ele>144</ele>
        <time>2024-02-05T13:35:58.723+00:00</time>
      </trkpt>
      <trkpt lat="49.19734" lon="1.80592">
        <ele>149</ele>
        <time>2024-02-05T13:36:03.315+00:00</time>
      </trkpt>
      <trkpt lat="49.19733" lon="1.80598">
        <ele>148</ele>
        <time>2024-02-05T13:36:07.453+00:00</time>
      </trkpt>
      <trkpt lat="49.19732" lon="1.80607">
        <ele>148</ele>
        <time>2024-02-05T13:36:11.715+00:00</time>
      </trkpt>
      <trkpt lat="49.19731" lon="1.80618">
        <ele>148</ele>
        <time>2024-02-05T13:36:16.632+00:00</time>
      </trkpt>
      <trkpt lat="49.1973" lon="1.80627">
        <ele>146</ele>
        <time>2024-02-05T13:36:21.247+00:00</time>
      </trkpt>
      <trkpt lat="49.19729" lon="1.80634">
        <ele>146</ele>
        <time>2024-02-05T13:36:25.455+00:00</time>
      </trkpt>
      <trkpt lat="49.19728" lon="1.80643">
        <ele>146</ele>
        <time>2024-02-05T13:36:29.633+00:00</time>
      </trkpt>
      <trkpt lat="49.19726" lon="1.8065">
        <ele>146</ele>
        <time>2024-02-05T13:36:33.733+00:00</time>
      </trkpt>
      <trkpt lat="49.19724" lon="1.80657">
        <ele>145</ele>
        <time>2024-02-05T13:36:38.217+00:00</time>
      </trkpt>
      <trkpt lat="49.19722" lon="1.80664">
        <ele>145</ele>
        <time>2024-02-05T13:36:42.310+00:00</time>
      </trkpt>
      <trkpt lat="49.1972" lon="1.80671">
        <ele>145</ele>
        <time>2024-02-05T13:36:46.473+00:00</time>
      </trkpt>
      <trkpt lat="49.19718" lon="1.80678">
        <ele>145</ele>
        <time>2024-02-05T13:36:50.723+00:00</time>
      </trkpt>
      <trkpt lat="49.19716" lon="1.80685">
        <ele>146</ele>
        <time>2024-02-05T13:36:54.934+00:00</time>
      </trkpt>
      <trkpt lat="49.19714" lon="1.80693">
        <ele>146</ele>
        <time>2024-02-05T13:36:59.718+00:00</time>
      </trkpt>
      <trkpt lat="49.19712" lon="1.807">
        <ele>146</ele>
        <time>2024-02-05T13:37:04.192+00:00</time>
      </trkpt>
      <trkpt lat="49.1971" lon="1.80706">
        <ele>146</ele>
        <time>2024-02-05T13:37:08.472+00:00</time>
      </trkpt>
      <trkpt lat="49.19708" lon="1.80712">
        <ele>146</ele>
        <time>2024-02-05T13:37:12.648+00:00</time>
      </trkpt>
      <trkpt lat="49.19706" lon="1.80718">
        <ele>146</ele>
        <time>2024-02-05T13:37:16.712+00:00</time>
      </trkpt>
      <trkpt lat="49.19703" lon="1.80725">
        <ele>146</ele>
        <time>2024-02-05T13:37:21.009+00:00</time>
      </trkpt>
      <trkpt lat="49.197" lon="1.80733">
        <ele>146</ele>
        <time>2024-02-05T13:37:25.757+00:00</time>
      </trkpt>
      <trkpt lat="49.19697" lon="1.80742">
        <ele>146</ele>
        <time>2024-02-05T13:37:30.706+00:00</time>
      </trkpt>
      <trkpt lat="49.19694" lon="1.80748">
        <ele>146</ele>
        <time>2024-02-05T13:37:34.728+00:00</time>
      </trkpt>
      <trkpt lat="49.19692" lon="1.80756">
        <ele>146</ele>
        <time>2024-02-05T13:37:38.956+00:00</time>
      </trkpt>
      <trkpt lat="49.19689" lon="1.80764">
        <ele>146</ele>
        <time>2024-02-05T13:37:43.669+00:00</time>
      </trkpt>
      <trkpt lat="49.19687" lon="1.80771">
        <ele>146</ele>
        <time>2024-02-05T13:37:47.737+00:00</time>
      </trkpt>
      <trkpt lat="49.19684" lon="1.80777">
        <ele>146</ele>
        <time>2024-02-05T13:37:51.986+00:00</time>
      </trkpt>
      <trkpt lat="49.19681" lon="1.80782">
        <ele>146</ele>
        <time>2024-02-05T13:37:56.447+00:00</time>
      </trkpt>
      <trkpt lat="49.19679" lon="1.80787">
        <ele>148</ele>
        <time>2024-02-05T13:38:00.554+00:00</time>
      </trkpt>
      <trkpt lat="49.19675" lon="1.80792">
        <ele>148</ele>
        <time>2024-02-05T13:38:05.507+00:00</time>
      </trkpt>
      <trkpt lat="49.19671" lon="1.80796">
        <ele>148</ele>
        <time>2024-02-05T13:38:09.713+00:00</time>
      </trkpt>
      <trkpt lat="49.19667" lon="1.808">
        <ele>148</ele>
        <time>2024-02-05T13:38:13.855+00:00</time>
      </trkpt>
      <trkpt lat="49.19663" lon="1.80804">
        <ele>148</ele>
        <time>2024-02-05T13:38:18.067+00:00</time>
      </trkpt>
      <trkpt lat="49.19658" lon="1.80808">
        <ele>148</ele>
        <time>2024-02-05T13:38:22.573+00:00</time>
      </trkpt>
      <trkpt lat="49.19654" lon="1.80811">
        <ele>148</ele>
        <time>2024-02-05T13:38:26.617+00:00</time>
      </trkpt>
      <trkpt lat="49.1965" lon="1.80814">
        <ele>150</ele>
        <time>2024-02-05T13:38:30.732+00:00</time>
      </trkpt>
      <trkpt lat="49.19645" lon="1.80817">
        <ele>150</ele>
        <time>2024-02-05T13:38:34.728+00:00</time>
      </trkpt>
      <trkpt lat="49.19641" lon="1.8082">
        <ele>150</ele>
        <time>2024-02-05T13:38:38.737+00:00</time>
      </trkpt>
      <trkpt lat="49.19636" lon="1.80824">
        <ele>150</ele>
        <time>2024-02-05T13:38:43.464+00:00</time>
      </trkpt>
      <trkpt lat="49.19631" lon="1.80827">
        <ele>150</ele>
        <time>2024-02-05T13:38:47.471+00:00</time>
      </trkpt>
      <trkpt lat="49.19626" lon="1.80831">
        <ele>150</ele>
        <time>2024-02-05T13:38:51.616+00:00</time>
      </trkpt>
      <trkpt lat="49.19622" lon="1.80832">
        <ele>151</ele>
        <time>2024-02-05T13:38:55.708+00:00</time>
      </trkpt>
      <trkpt lat="49.19618" lon="1.80833">
        <ele>151</ele>
        <time>2024-02-05T13:38:59.743+00:00</time>
      </trkpt>
      <trkpt lat="49.19613" lon="1.80835">
        <ele>151</ele>
        <time>2024-02-05T13:39:03.950+00:00</time>
      </trkpt>
      <trkpt lat="49.19608" lon="1.80839">
        <ele>151</ele>
        <time>2024-02-05T13:39:08.174+00:00</time>
      </trkpt>
      <trkpt lat="49.19604" lon="1.80842">
        <ele>151</ele>
        <time>2024-02-05T13:39:12.306+00:00</time>
      </trkpt>
      <trkpt lat="49.19599" lon="1.80845">
        <ele>151</ele>
        <time>2024-02-05T13:39:16.461+00:00</time>
      </trkpt>
      <trkpt lat="49.19595" lon="1.80848">
        <ele>150</ele>
        <time>2024-02-05T13:39:20.930+00:00</time>
      </trkpt>
      <trkpt lat="49.1959" lon="1.80853">
        <ele>150</ele>
        <time>2024-02-05T13:39:25.533+00:00</time>
      </trkpt>
      <trkpt lat="49.19586" lon="1.80857">
        <ele>150</ele>
        <time>2024-02-05T13:39:29.547+00:00</time>
      </trkpt>
      <trkpt lat="49.19582" lon="1.80861">
        <ele>150</ele>
        <time>2024-02-05T13:39:33.721+00:00</time>
      </trkpt>
      <trkpt lat="49.19578" lon="1.80866">
        <ele>150</ele>
        <time>2024-02-05T13:39:37.858+00:00</time>
      </trkpt>
      <trkpt lat="49.19574" lon="1.80871">
        <ele>150</ele>
        <time>2024-02-05T13:39:41.932+00:00</time>
      </trkpt>
      <trkpt lat="49.19571" lon="1.80877">
        <ele>151</ele>
        <time>2024-02-05T13:39:46.532+00:00</time>
      </trkpt>
      <trkpt lat="49.19569" lon="1.80883">
        <ele>151</ele>
        <time>2024-02-05T13:39:50.547+00:00</time>
      </trkpt>
      <trkpt lat="49.19564" lon="1.80887">
        <ele>151</ele>
        <time>2024-02-05T13:39:54.718+00:00</time>
      </trkpt>
      <trkpt lat="49.1956" lon="1.8089">
        <ele>151</ele>
        <time>2024-02-05T13:39:58.895+00:00</time>
      </trkpt>
      <trkpt lat="49.19556" lon="1.80895">
        <ele>151</ele>
        <time>2024-02-05T13:40:03.010+00:00</time>
      </trkpt>
      <trkpt lat="49.19552" lon="1.80899">
        <ele>151</ele>
        <time>2024-02-05T13:40:07.115+00:00</time>
      </trkpt>
      <trkpt lat="49.19548" lon="1.80904">
        <ele>151</ele>
        <time>2024-02-05T13:40:11.290+00:00</time>
      </trkpt>
      <trkpt lat="49.19545" lon="1.80908">
        <ele>151</ele>
        <time>2024-02-05T13:40:15.288+00:00</time>
      </trkpt>
      <trkpt lat="49.19541" lon="1.80914">
        <ele>151</ele>
        <time>2024-02-05T13:40:19.355+00:00</time>
      </trkpt>
      <trkpt lat="49.19537" lon="1.80919">
        <ele>151</ele>
        <time>2024-02-05T13:40:23.703+00:00</time>
      </trkpt>
      <trkpt lat="49.19533" lon="1.80925">
        <ele>151</ele>
        <time>2024-02-05T13:40:28.254+00:00</time>
      </trkpt>
      <trkpt lat="49.19529" lon="1.80932">
        <ele>151</ele>
        <time>2024-02-05T13:40:32.317+00:00</time>
      </trkpt>
      <trkpt lat="49.19525" lon="1.80937">
        <ele>151</ele>
        <time>2024-02-05T13:40:36.375+00:00</time>
      </trkpt>
      <trkpt lat="49.19522" lon="1.80942">
        <ele>151</ele>
        <time>2024-02-05T13:40:40.365+00:00</time>
      </trkpt>
      <trkpt lat="49.19518" lon="1.80947">
        <ele>151</ele>
        <time>2024-02-05T13:40:44.550+00:00</time>
      </trkpt>
      <trkpt lat="49.19514" lon="1.80952">
        <ele>151</ele>
        <time>2024-02-05T13:40:48.746+00:00</time>
      </trkpt>
      <trkpt lat="49.19511" lon="1.80958">
        <ele>150</ele>
        <time>2024-02-05T13:40:53.396+00:00</time>
      </trkpt>
      <trkpt lat="49.19507" lon="1.80964">
        <ele>150</ele>
        <time>2024-02-05T13:40:57.756+00:00</time>
      </trkpt>
      <trkpt lat="49.19503" lon="1.80969">
        <ele>150</ele>
        <time>2024-02-05T13:41:02.249+00:00</time>
      </trkpt>
      <trkpt lat="49.19499" lon="1.80975">
        <ele>150</ele>
        <time>2024-02-05T13:41:06.728+00:00</time>
      </trkpt>
      <trkpt lat="49.19493" lon="1.80979">
        <ele>150</ele>
        <time>2024-02-05T13:41:11.315+00:00</time>
      </trkpt>
      <trkpt lat="49.19489" lon="1.80984">
        <ele>150</ele>
        <time>2024-02-05T13:41:15.735+00:00</time>
      </trkpt>
      <trkpt lat="49.19485" lon="1.8099">
        <ele>149</ele>
        <time>2024-02-05T13:41:20.310+00:00</time>
      </trkpt>
      <trkpt lat="49.1948" lon="1.80998">
        <ele>149</ele>
        <time>2024-02-05T13:41:24.551+00:00</time>
      </trkpt>
      <trkpt lat="49.19476" lon="1.81003">
        <ele>149</ele>
        <time>2024-02-05T13:41:28.730+00:00</time>
      </trkpt>
      <trkpt lat="49.19472" lon="1.81009">
        <ele>149</ele>
        <time>2024-02-05T13:41:33.290+00:00</time>
      </trkpt>
      <trkpt lat="49.19467" lon="1.81015">
        <ele>149</ele>
        <time>2024-02-05T13:41:37.740+00:00</time>
      </trkpt>
      <trkpt lat="49.19463" lon="1.81021">
        <ele>149</ele>
        <time>2024-02-05T13:41:42.566+00:00</time>
      </trkpt>
      <trkpt lat="49.19459" lon="1.81027">
        <ele>149</ele>
        <time>2024-02-05T13:41:47.407+00:00</time>
      </trkpt>
      <trkpt lat="49.19456" lon="1.81033">
        <ele>148</ele>
        <time>2024-02-05T13:41:51.606+00:00</time>
      </trkpt>
      <trkpt lat="49.19451" lon="1.81038">
        <ele>148</ele>
        <time>2024-02-05T13:41:56.032+00:00</time>
      </trkpt>
      <trkpt lat="49.19446" lon="1.81044">
        <ele>149</ele>
        <time>2024-02-05T13:42:00.549+00:00</time>
      </trkpt>
      <trkpt lat="49.19442" lon="1.8105">
        <ele>149</ele>
        <time>2024-02-05T13:42:05.034+00:00</time>
      </trkpt>
      <trkpt lat="49.19438" lon="1.81055">
        <ele>149</ele>
        <time>2024-02-05T13:42:09.349+00:00</time>
      </trkpt>
      <trkpt lat="49.19434" lon="1.81059">
        <ele>149</ele>
        <time>2024-02-05T13:42:13.472+00:00</time>
      </trkpt>
      <trkpt lat="49.19429" lon="1.81066">
        <ele>149</ele>
        <time>2024-02-05T13:42:18.110+00:00</time>
      </trkpt>
      <trkpt lat="49.19426" lon="1.8107">
        <ele>149</ele>
        <time>2024-02-05T13:42:22.275+00:00</time>
      </trkpt>
      <trkpt lat="49.19422" lon="1.81075">
        <ele>149</ele>
        <time>2024-02-05T13:42:26.367+00:00</time>
      </trkpt>
      <trkpt lat="49.19419" lon="1.81079">
        <ele>149</ele>
        <time>2024-02-05T13:42:30.390+00:00</time>
      </trkpt>
      <trkpt lat="49.19415" lon="1.81085">
        <ele>149</ele>
        <time>2024-02-05T13:42:34.595+00:00</time>
      </trkpt>
      <trkpt lat="49.19411" lon="1.8109">
        <ele>149</ele>
        <time>2024-02-05T13:42:38.721+00:00</time>
      </trkpt>
      <trkpt lat="49.19407" lon="1.81096">
        <ele>149</ele>
        <time>2024-02-05T13:42:42.971+00:00</time>
      </trkpt>
      <trkpt lat="49.19403" lon="1.81102">
        <ele>151</ele>
        <time>2024-02-05T13:42:47.534+00:00</time>
      </trkpt>
      <trkpt lat="49.19399" lon="1.81108">
        <ele>151</ele>
        <time>2024-02-05T13:42:51.614+00:00</time>
      </trkpt>
      <trkpt lat="49.19395" lon="1.81113">
        <ele>151</ele>
        <time>2024-02-05T13:42:55.856+00:00</time>
      </trkpt>
      <trkpt lat="49.19392" lon="1.81117">
        <ele>151</ele>
        <time>2024-02-05T13:43:00.029+00:00</time>
      </trkpt>
      <trkpt lat="49.19388" lon="1.81122">
        <ele>151</ele>
        <time>2024-02-05T13:43:04.150+00:00</time>
      </trkpt>
      <trkpt lat="49.19385" lon="1.81126">
        <ele>151</ele>
        <time>2024-02-05T13:43:08.174+00:00</time>
      </trkpt>
      <trkpt lat="49.19383" lon="1.81131">
        <ele>151</ele>
        <time>2024-02-05T13:43:12.629+00:00</time>
      </trkpt>
      <trkpt lat="49.19379" lon="1.81135">
        <ele>151</ele>
        <time>2024-02-05T13:43:17.071+00:00</time>
      </trkpt>
      <trkpt lat="49.19375" lon="1.81139">
        <ele>152</ele>
        <time>2024-02-05T13:43:21.256+00:00</time>
      </trkpt>
      <trkpt lat="49.19371" lon="1.81143">
        <ele>152</ele>
        <time>2024-02-05T13:43:25.515+00:00</time>
      </trkpt>
      <trkpt lat="49.19367" lon="1.81147">
        <ele>152</ele>
        <time>2024-02-05T13:43:29.739+00:00</time>
      </trkpt>
      <trkpt lat="49.19363" lon="1.81151">
        <ele>152</ele>
        <time>2024-02-05T13:43:34.325+00:00</time>
      </trkpt>
      <trkpt lat="49.19359" lon="1.81155">
        <ele>152</ele>
        <time>2024-02-05T13:43:38.512+00:00</time>
      </trkpt>
      <trkpt lat="49.19355" lon="1.8116">
        <ele>152</ele>
        <time>2024-02-05T13:43:42.731+00:00</time>
      </trkpt>
      <trkpt lat="49.1935" lon="1.81164">
        <ele>152</ele>
        <time>2024-02-05T13:43:47.026+00:00</time>
      </trkpt>
      <trkpt lat="49.19346" lon="1.81169">
        <ele>152</ele>
        <time>2024-02-05T13:43:51.372+00:00</time>
      </trkpt>
      <trkpt lat="49.19343" lon="1.81174">
        <ele>152</ele>
        <time>2024-02-05T13:43:55.742+00:00</time>
      </trkpt>
      <trkpt lat="49.19339" lon="1.81178">
        <ele>152</ele>
        <time>2024-02-05T13:44:00.055+00:00</time>
      </trkpt>
      <trkpt lat="49.19335" lon="1.81182">
        <ele>153</ele>
        <time>2024-02-05T13:44:04.257+00:00</time>
      </trkpt>
      <trkpt lat="49.19333" lon="1.81186">
        <ele>153</ele>
        <time>2024-02-05T13:44:08.508+00:00</time>
      </trkpt>
      <trkpt lat="49.1933" lon="1.8119">
        <ele>153</ele>
        <time>2024-02-05T13:44:12.590+00:00</time>
      </trkpt>
      <trkpt lat="49.19326" lon="1.81195">
        <ele>153</ele>
        <time>2024-02-05T13:44:16.631+00:00</time>
      </trkpt>
      <trkpt lat="49.19324" lon="1.81199">
        <ele>153</ele>
        <time>2024-02-05T13:44:20.731+00:00</time>
      </trkpt>
      <trkpt lat="49.1932" lon="1.81204">
        <ele>153</ele>
        <time>2024-02-05T13:44:24.833+00:00</time>
      </trkpt>
      <trkpt lat="49.19317" lon="1.81211">
        <ele>152</ele>
        <time>2024-02-05T13:44:29.008+00:00</time>
      </trkpt>
      <trkpt lat="49.19314" lon="1.81217">
        <ele>152</ele>
        <time>2024-02-05T13:44:33.549+00:00</time>
      </trkpt>
      <trkpt lat="49.1931" lon="1.81223">
        <ele>152</ele>
        <time>2024-02-05T13:44:38.129+00:00</time>
      </trkpt>
      <trkpt lat="49.19307" lon="1.8123">
        <ele>152</ele>
        <time>2024-02-05T13:44:42.632+00:00</time>
      </trkpt>
      <trkpt lat="49.19305" lon="1.81237">
        <ele>152</ele>
        <time>2024-02-05T13:44:46.744+00:00</time>
      </trkpt>
      <trkpt lat="49.19302" lon="1.81242">
        <ele>152</ele>
        <time>2024-02-05T13:44:50.933+00:00</time>
      </trkpt>
      <trkpt lat="49.19298" lon="1.81249">
        <ele>152</ele>
        <time>2024-02-05T13:44:55.576+00:00</time>
      </trkpt>
      <trkpt lat="49.19294" lon="1.81254">
        <ele>152</ele>
        <time>2024-02-05T13:44:59.607+00:00</time>
      </trkpt>
      <trkpt lat="49.1929" lon="1.8126">
        <ele>149</ele>
        <time>2024-02-05T13:45:04.188+00:00</time>
      </trkpt>
      <trkpt lat="49.19287" lon="1.81264">
        <ele>150</ele>
        <time>2024-02-05T13:45:08.269+00:00</time>
      </trkpt>
      <trkpt lat="49.19283" lon="1.81269">
        <ele>150</ele>
        <time>2024-02-05T13:45:12.493+00:00</time>
      </trkpt>
      <trkpt lat="49.19279" lon="1.81273">
        <ele>150</ele>
        <time>2024-02-05T13:45:16.655+00:00</time>
      </trkpt>
      <trkpt lat="49.19275" lon="1.81278">
        <ele>150</ele>
        <time>2024-02-05T13:45:20.739+00:00</time>
      </trkpt>
      <trkpt lat="49.1927" lon="1.81282">
        <ele>150</ele>
        <time>2024-02-05T13:45:24.951+00:00</time>
      </trkpt>
      <trkpt lat="49.19265" lon="1.81287">
        <ele>150</ele>
        <time>2024-02-05T13:45:29.430+00:00</time>
      </trkpt>
      <trkpt lat="49.19261" lon="1.81292">
        <ele>149</ele>
        <time>2024-02-05T13:45:33.593+00:00</time>
      </trkpt>
      <trkpt lat="49.19256" lon="1.81296">
        <ele>150</ele>
        <time>2024-02-05T13:45:37.655+00:00</time>
      </trkpt>
      <trkpt lat="49.19251" lon="1.81299">
        <ele>150</ele>
        <time>2024-02-05T13:45:41.726+00:00</time>
      </trkpt>
      <trkpt lat="49.19248" lon="1.81303">
        <ele>150</ele>
        <time>2024-02-05T13:45:45.752+00:00</time>
      </trkpt>
      <trkpt lat="49.19245" lon="1.81306">
        <ele>150</ele>
        <time>2024-02-05T13:45:49.949+00:00</time>
      </trkpt>
      <trkpt lat="49.19242" lon="1.81309">
        <ele>150</ele>
        <time>2024-02-05T13:45:54.068+00:00</time>
      </trkpt>
      <trkpt lat="49.19239" lon="1.81313">
        <ele>150</ele>
        <time>2024-02-05T13:45:58.408+00:00</time>
      </trkpt>
      <trkpt lat="49.19235" lon="1.81316">
        <ele>151</ele>
        <time>2024-02-05T13:46:02.515+00:00</time>
      </trkpt>
      <trkpt lat="49.1923" lon="1.81321">
        <ele>152</ele>
        <time>2024-02-05T13:46:06.724+00:00</time>
      </trkpt>
      <trkpt lat="49.19225" lon="1.81321">
        <ele>152</ele>
        <time>2024-02-05T13:46:11.713+00:00</time>
      </trkpt>
      <trkpt lat="49.19222" lon="1.81324">
        <ele>152</ele>
        <time>2024-02-05T13:46:16.697+00:00</time>
      </trkpt>
      <trkpt lat="49.19221" lon="1.8133">
        <ele>152</ele>
        <time>2024-02-05T13:46:21.693+00:00</time>
      </trkpt>
      <trkpt lat="49.19219" lon="1.81334">
        <ele>152</ele>
        <time>2024-02-05T13:46:25.704+00:00</time>
      </trkpt>
      <trkpt lat="49.19219" lon="1.8134">
        <ele>152</ele>
        <time>2024-02-05T13:46:30.727+00:00</time>
      </trkpt>
      <trkpt lat="49.19216" lon="1.81342">
        <ele>152</ele>
        <time>2024-02-05T13:46:35.700+00:00</time>
      </trkpt>
      <trkpt lat="49.1921" lon="1.81348">
        <ele>153</ele>
        <time>2024-02-05T13:46:40.703+00:00</time>
      </trkpt>
      <trkpt lat="49.19204" lon="1.81349">
        <ele>154</ele>
        <time>2024-02-05T13:46:45.231+00:00</time>
      </trkpt>
      <trkpt lat="49.19201" lon="1.81348">
        <ele>154</ele>
        <time>2024-02-05T13:46:49.310+00:00</time>
      </trkpt>
      <trkpt lat="49.19203" lon="1.81349">
        <ele>154</ele>
        <time>2024-02-05T13:47:07.153+00:00</time>
      </trkpt>
      <trkpt lat="49.19202" lon="1.8136">
        <ele>154</ele>
        <time>2024-02-05T13:47:11.694+00:00</time>
      </trkpt>
      <trkpt lat="49.19198" lon="1.8137">
        <ele>154</ele>
        <time>2024-02-05T13:47:15.920+00:00</time>
      </trkpt>
      <trkpt lat="49.19198" lon="1.81376">
        <ele>155</ele>
        <time>2024-02-05T13:47:20.093+00:00</time>
      </trkpt>
      <trkpt lat="49.19196" lon="1.81381">
        <ele>155</ele>
        <time>2024-02-05T13:47:24.565+00:00</time>
      </trkpt>
      <trkpt lat="49.19192" lon="1.81382">
        <ele>155</ele>
        <time>2024-02-05T13:47:28.719+00:00</time>
      </trkpt>
      <trkpt lat="49.19187" lon="1.81385">
        <ele>155</ele>
        <time>2024-02-05T13:47:33.459+00:00</time>
      </trkpt>
      <trkpt lat="49.19184" lon="1.81387">
        <ele>155</ele>
        <time>2024-02-05T13:47:37.690+00:00</time>
      </trkpt>
      <trkpt lat="49.1918" lon="1.81389">
        <ele>155</ele>
        <time>2024-02-05T13:47:41.728+00:00</time>
      </trkpt>
      <trkpt lat="49.19176" lon="1.81392">
        <ele>155</ele>
        <time>2024-02-05T13:47:46.077+00:00</time>
      </trkpt>
      <trkpt lat="49.19173" lon="1.81398">
        <ele>155</ele>
        <time>2024-02-05T13:47:50.537+00:00</time>
      </trkpt>
      <trkpt lat="49.1917" lon="1.81403">
        <ele>156</ele>
        <time>2024-02-05T13:47:54.937+00:00</time>
      </trkpt>
      <trkpt lat="49.19166" lon="1.81408">
        <ele>156</ele>
        <time>2024-02-05T13:47:59.074+00:00</time>
      </trkpt>
      <trkpt lat="49.19163" lon="1.81413">
        <ele>156</ele>
        <time>2024-02-05T13:48:03.195+00:00</time>
      </trkpt>
      <trkpt lat="49.1916" lon="1.81419">
        <ele>156</ele>
        <time>2024-02-05T13:48:07.453+00:00</time>
      </trkpt>
      <trkpt lat="49.19157" lon="1.81425">
        <ele>156</ele>
        <time>2024-02-05T13:48:11.915+00:00</time>
      </trkpt>
      <trkpt lat="49.19154" lon="1.81431">
        <ele>156</ele>
        <time>2024-02-05T13:48:16.181+00:00</time>
      </trkpt>
      <trkpt lat="49.19151" lon="1.81439">
        <ele>155</ele>
        <time>2024-02-05T13:48:20.334+00:00</time>
      </trkpt>
      <trkpt lat="49.19148" lon="1.81445">
        <ele>155</ele>
        <time>2024-02-05T13:48:24.342+00:00</time>
      </trkpt>
      <trkpt lat="49.19146" lon="1.81452">
        <ele>155</ele>
        <time>2024-02-05T13:48:28.478+00:00</time>
      </trkpt>
      <trkpt lat="49.19142" lon="1.8146">
        <ele>156</ele>
        <time>2024-02-05T13:48:32.914+00:00</time>
      </trkpt>
      <trkpt lat="49.1914" lon="1.81468">
        <ele>156</ele>
        <time>2024-02-05T13:48:36.959+00:00</time>
      </trkpt>
      <trkpt lat="49.19137" lon="1.81476">
        <ele>156</ele>
        <time>2024-02-05T13:48:41.056+00:00</time>
      </trkpt>
      <trkpt lat="49.19135" lon="1.81483">
        <ele>156</ele>
        <time>2024-02-05T13:48:45.119+00:00</time>
      </trkpt>
      <trkpt lat="49.19134" lon="1.81491">
        <ele>156</ele>
        <time>2024-02-05T13:48:49.635+00:00</time>
      </trkpt>
      <trkpt lat="49.19134" lon="1.81498">
        <ele>156</ele>
        <time>2024-02-05T13:48:54.096+00:00</time>
      </trkpt>
      <trkpt lat="49.19133" lon="1.81504">
        <ele>156</ele>
        <time>2024-02-05T13:48:58.479+00:00</time>
      </trkpt>
      <trkpt lat="49.19133" lon="1.81511">
        <ele>156</ele>
        <time>2024-02-05T13:49:02.751+00:00</time>
      </trkpt>
      <trkpt lat="49.19133" lon="1.81519">
        <ele>156</ele>
        <time>2024-02-05T13:49:07.038+00:00</time>
      </trkpt>
      <trkpt lat="49.19133" lon="1.81527">
        <ele>156</ele>
        <time>2024-02-05T13:49:11.243+00:00</time>
      </trkpt>
      <trkpt lat="49.19133" lon="1.81534">
        <ele>156</ele>
        <time>2024-02-05T13:49:15.399+00:00</time>
      </trkpt>
      <trkpt lat="49.19133" lon="1.81541">
        <ele>156</ele>
        <time>2024-02-05T13:49:19.452+00:00</time>
      </trkpt>
      <trkpt lat="49.19131" lon="1.81547">
        <ele>156</ele>
        <time>2024-02-05T13:49:23.728+00:00</time>
      </trkpt>
      <trkpt lat="49.19131" lon="1.81554">
        <ele>156</ele>
        <time>2024-02-05T13:49:28.162+00:00</time>
      </trkpt>
      <trkpt lat="49.19129" lon="1.81562">
        <ele>156</ele>
        <time>2024-02-05T13:49:32.383+00:00</time>
      </trkpt>
      <trkpt lat="49.19127" lon="1.81571">
        <ele>157</ele>
        <time>2024-02-05T13:49:36.535+00:00</time>
      </trkpt>
      <trkpt lat="49.19126" lon="1.81578">
        <ele>157</ele>
        <time>2024-02-05T13:49:40.747+00:00</time>
      </trkpt>
      <trkpt lat="49.19124" lon="1.81586">
        <ele>155</ele>
        <time>2024-02-05T13:49:45.156+00:00</time>
      </trkpt>
      <trkpt lat="49.19122" lon="1.81593">
        <ele>155</ele>
        <time>2024-02-05T13:49:49.723+00:00</time>
      </trkpt>
      <trkpt lat="49.19121" lon="1.81601">
        <ele>155</ele>
        <time>2024-02-05T13:49:54.396+00:00</time>
      </trkpt>
      <trkpt lat="49.19121" lon="1.81606">
        <ele>155</ele>
        <time>2024-02-05T13:49:58.438+00:00</time>
      </trkpt>
      <trkpt lat="49.19118" lon="1.81612">
        <ele>155</ele>
        <time>2024-02-05T13:50:02.709+00:00</time>
      </trkpt>
      <trkpt lat="49.19116" lon="1.81621">
        <ele>155</ele>
        <time>2024-02-05T13:50:07.543+00:00</time>
      </trkpt>
      <trkpt lat="49.19114" lon="1.81628">
        <ele>155</ele>
        <time>2024-02-05T13:50:11.738+00:00</time>
      </trkpt>
      <trkpt lat="49.19112" lon="1.81634">
        <ele>155</ele>
        <time>2024-02-05T13:50:16.277+00:00</time>
      </trkpt>
      <trkpt lat="49.19109" lon="1.8164">
        <ele>155</ele>
        <time>2024-02-05T13:50:20.518+00:00</time>
      </trkpt>
      <trkpt lat="49.19106" lon="1.81647">
        <ele>155</ele>
        <time>2024-02-05T13:50:25.236+00:00</time>
      </trkpt>
      <trkpt lat="49.19103" lon="1.81654">
        <ele>155</ele>
        <time>2024-02-05T13:50:29.709+00:00</time>
      </trkpt>
      <trkpt lat="49.19101" lon="1.81662">
        <ele>155</ele>
        <time>2024-02-05T13:50:34.152+00:00</time>
      </trkpt>
      <trkpt lat="49.19098" lon="1.81669">
        <ele>155</ele>
        <time>2024-02-05T13:50:38.710+00:00</time>
      </trkpt>
      <trkpt lat="49.19096" lon="1.81676">
        <ele>153</ele>
        <time>2024-02-05T13:50:43.221+00:00</time>
      </trkpt>
      <trkpt lat="49.19093" lon="1.81682">
        <ele>153</ele>
        <time>2024-02-05T13:50:47.754+00:00</time>
      </trkpt>
      <trkpt lat="49.1909" lon="1.81689">
        <ele>153</ele>
        <time>2024-02-05T13:50:52.255+00:00</time>
      </trkpt>
      <trkpt lat="49.19087" lon="1.81696">
        <ele>153</ele>
        <time>2024-02-05T13:50:56.259+00:00</time>
      </trkpt>
      <trkpt lat="49.19083" lon="1.81704">
        <ele>153</ele>
        <time>2024-02-05T13:51:00.703+00:00</time>
      </trkpt>
      <trkpt lat="49.19081" lon="1.8171">
        <ele>153</ele>
        <time>2024-02-05T13:51:04.682+00:00</time>
      </trkpt>
      <trkpt lat="49.19078" lon="1.81719">
        <ele>153</ele>
        <time>2024-02-05T13:51:09.284+00:00</time>
      </trkpt>
      <trkpt lat="49.19076" lon="1.81728">
        <ele>153</ele>
        <time>2024-02-05T13:51:13.724+00:00</time>
      </trkpt>
      <trkpt lat="49.19074" lon="1.81735">
        <ele>153</ele>
        <time>2024-02-05T13:51:18.275+00:00</time>
      </trkpt>
      <trkpt lat="49.19071" lon="1.81743">
        <ele>154</ele>
        <time>2024-02-05T13:51:22.743+00:00</time>
      </trkpt>
      <trkpt lat="49.19067" lon="1.8175">
        <ele>151</ele>
        <time>2024-02-05T13:51:26.943+00:00</time>
      </trkpt>
      <trkpt lat="49.19063" lon="1.81759">
        <ele>151</ele>
        <time>2024-02-05T13:51:30.960+00:00</time>
      </trkpt>
      <trkpt lat="49.19061" lon="1.81767">
        <ele>152</ele>
        <time>2024-02-05T13:51:35.502+00:00</time>
      </trkpt>
      <trkpt lat="49.19059" lon="1.81775">
        <ele>152</ele>
        <time>2024-02-05T13:51:40.015+00:00</time>
      </trkpt>
      <trkpt lat="49.19056" lon="1.81782">
        <ele>152</ele>
        <time>2024-02-05T13:51:44.461+00:00</time>
      </trkpt>
      <trkpt lat="49.19053" lon="1.81788">
        <ele>152</ele>
        <time>2024-02-05T13:51:48.705+00:00</time>
      </trkpt>
      <trkpt lat="49.1905" lon="1.81795">
        <ele>151</ele>
        <time>2024-02-05T13:51:53.218+00:00</time>
      </trkpt>
      <trkpt lat="49.19049" lon="1.81802">
        <ele>151</ele>
        <time>2024-02-05T13:51:57.738+00:00</time>
      </trkpt>
      <trkpt lat="49.19043" lon="1.81817">
        <ele>151</ele>
        <time>2024-02-05T13:52:02.718+00:00</time>
      </trkpt>
      <trkpt lat="49.1904" lon="1.81827">
        <ele>150</ele>
        <time>2024-02-05T13:52:07.437+00:00</time>
      </trkpt>
      <trkpt lat="49.19036" lon="1.81834">
        <ele>150</ele>
        <time>2024-02-05T13:52:11.914+00:00</time>
      </trkpt>
      <trkpt lat="49.19034" lon="1.81842">
        <ele>150</ele>
        <time>2024-02-05T13:52:16.294+00:00</time>
      </trkpt>
      <trkpt lat="49.19033" lon="1.81849">
        <ele>151</ele>
        <time>2024-02-05T13:52:20.402+00:00</time>
      </trkpt>
      <trkpt lat="49.1903" lon="1.81858">
        <ele>151</ele>
        <time>2024-02-05T13:52:24.781+00:00</time>
      </trkpt>
      <trkpt lat="49.19027" lon="1.81867">
        <ele>151</ele>
        <time>2024-02-05T13:52:29.754+00:00</time>
      </trkpt>
      <trkpt lat="49.19026" lon="1.81874">
        <ele>151</ele>
        <time>2024-02-05T13:52:34+00:00</time>
      </trkpt>
      <trkpt lat="49.19023" lon="1.81883">
        <ele>151</ele>
        <time>2024-02-05T13:52:38.499+00:00</time>
      </trkpt>
      <trkpt lat="49.1902" lon="1.8189">
        <ele>151</ele>
        <time>2024-02-05T13:52:42.535+00:00</time>
      </trkpt>
      <trkpt lat="49.19018" lon="1.81897">
        <ele>151</ele>
        <time>2024-02-05T13:52:46.656+00:00</time>
      </trkpt>
      <trkpt lat="49.19015" lon="1.81904">
        <ele>151</ele>
        <time>2024-02-05T13:52:50.740+00:00</time>
      </trkpt>
      <trkpt lat="49.19014" lon="1.81913">
        <ele>150</ele>
        <time>2024-02-05T13:52:55.302+00:00</time>
      </trkpt>
      <trkpt lat="49.19012" lon="1.81921">
        <ele>150</ele>
        <time>2024-02-05T13:52:59.757+00:00</time>
      </trkpt>
      <trkpt lat="49.19009" lon="1.81928">
        <ele>150</ele>
        <time>2024-02-05T13:53:03.729+00:00</time>
      </trkpt>
      <trkpt lat="49.19006" lon="1.81934">
        <ele>150</ele>
        <time>2024-02-05T13:53:07.754+00:00</time>
      </trkpt>
      <trkpt lat="49.19003" lon="1.81941">
        <ele>150</ele>
        <time>2024-02-05T13:53:12.035+00:00</time>
      </trkpt>
      <trkpt lat="49.18999" lon="1.81953">
        <ele>150</ele>
        <time>2024-02-05T13:53:30.722+00:00</time>
      </trkpt>
      <trkpt lat="49.18999" lon="1.81953">
        <ele>150</ele>
        <time>2024-02-05T13:53:34.745+00:00</time>
      </trkpt>
      <trkpt lat="49.18998" lon="1.81955">
        <ele>150</ele>
        <time>2024-02-05T13:53:39.736+00:00</time>
      </trkpt>
      <trkpt lat="49.18997" lon="1.81958">
        <ele>149</ele>
        <time>2024-02-05T13:53:43.740+00:00</time>
      </trkpt>
      <trkpt lat="49.18997" lon="1.81961">
        <ele>149</ele>
        <time>2024-02-05T13:53:48.716+00:00</time>
      </trkpt>
      <trkpt lat="49.18997" lon="1.81959">
        <ele>149</ele>
        <time>2024-02-05T13:54:11.747+00:00</time>
      </trkpt>
      <trkpt lat="49.18997" lon="1.81959">
        <ele>149</ele>
        <time>2024-02-05T13:54:16.442+00:00</time>
      </trkpt>
      <trkpt lat="49.18995" lon="1.8196">
        <ele>149</ele>
        <time>2024-02-05T13:54:20.722+00:00</time>
      </trkpt>
      <trkpt lat="49.18993" lon="1.81965">
        <ele>149</ele>
        <time>2024-02-05T13:54:24.721+00:00</time>
      </trkpt>
      <trkpt lat="49.1899" lon="1.8197">
        <ele>149</ele>
        <time>2024-02-05T13:54:29.261+00:00</time>
      </trkpt>
      <trkpt lat="49.18988" lon="1.81975">
        <ele>149</ele>
        <time>2024-02-05T13:54:33.277+00:00</time>
      </trkpt>
      <trkpt lat="49.18987" lon="1.8198">
        <ele>149</ele>
        <time>2024-02-05T13:54:37.515+00:00</time>
      </trkpt>
      <trkpt lat="49.18985" lon="1.81984">
        <ele>148</ele>
        <time>2024-02-05T13:54:41.620+00:00</time>
      </trkpt>
      <trkpt lat="49.18983" lon="1.8199">
        <ele>147</ele>
        <time>2024-02-05T13:54:45.725+00:00</time>
      </trkpt>
      <trkpt lat="49.18982" lon="1.81995">
        <ele>147</ele>
        <time>2024-02-05T13:54:49.897+00:00</time>
      </trkpt>
      <trkpt lat="49.1898" lon="1.82">
        <ele>147</ele>
        <time>2024-02-05T13:54:54.021+00:00</time>
      </trkpt>
      <trkpt lat="49.18979" lon="1.82006">
        <ele>147</ele>
        <time>2024-02-05T13:54:58.722+00:00</time>
      </trkpt>
      <trkpt lat="49.18977" lon="1.82012">
        <ele>147</ele>
        <time>2024-02-05T13:55:02.781+00:00</time>
      </trkpt>
      <trkpt lat="49.18974" lon="1.82016">
        <ele>147</ele>
        <time>2024-02-05T13:55:06.981+00:00</time>
      </trkpt>
      <trkpt lat="49.18972" lon="1.8202">
        <ele>147</ele>
        <time>2024-02-05T13:55:11.098+00:00</time>
      </trkpt>
      <trkpt lat="49.18971" lon="1.82023">
        <ele>147</ele>
        <time>2024-02-05T13:55:15.262+00:00</time>
      </trkpt>
      <trkpt lat="49.18968" lon="1.82026">
        <ele>147</ele>
        <time>2024-02-05T13:55:19.373+00:00</time>
      </trkpt>
      <trkpt lat="49.18965" lon="1.82029">
        <ele>147</ele>
        <time>2024-02-05T13:55:23.471+00:00</time>
      </trkpt>
      <trkpt lat="49.18962" lon="1.82035">
        <ele>147</ele>
        <time>2024-02-05T13:55:27.740+00:00</time>
      </trkpt>
      <trkpt lat="49.18958" lon="1.82041">
        <ele>146</ele>
        <time>2024-02-05T13:55:32.276+00:00</time>
      </trkpt>
      <trkpt lat="49.18955" lon="1.82046">
        <ele>146</ele>
        <time>2024-02-05T13:55:36.660+00:00</time>
      </trkpt>
      <trkpt lat="49.18952" lon="1.82052">
        <ele>146</ele>
        <time>2024-02-05T13:55:40.733+00:00</time>
      </trkpt>
      <trkpt lat="49.18949" lon="1.82059">
        <ele>146</ele>
        <time>2024-02-05T13:55:45.414+00:00</time>
      </trkpt>
      <trkpt lat="49.18945" lon="1.82065">
        <ele>146</ele>
        <time>2024-02-05T13:55:49.876+00:00</time>
      </trkpt>
      <trkpt lat="49.18941" lon="1.82073">
        <ele>146</ele>
        <time>2024-02-05T13:55:54.722+00:00</time>
      </trkpt>
      <trkpt lat="49.18937" lon="1.82084">
        <ele>146</ele>
        <time>2024-02-05T13:55:58.882+00:00</time>
      </trkpt>
      <trkpt lat="49.18932" lon="1.82093">
        <ele>146</ele>
        <time>2024-02-05T13:56:03.215+00:00</time>
      </trkpt>
      <trkpt lat="49.18925" lon="1.82103">
        <ele>144</ele>
        <time>2024-02-05T13:56:07.724+00:00</time>
      </trkpt>
      <trkpt lat="49.18921" lon="1.82109">
        <ele>144</ele>
        <time>2024-02-05T13:56:11.762+00:00</time>
      </trkpt>
      <trkpt lat="49.18917" lon="1.82116">
        <ele>144</ele>
        <time>2024-02-05T13:56:16.443+00:00</time>
      </trkpt>
      <trkpt lat="49.18913" lon="1.82123">
        <ele>144</ele>
        <time>2024-02-05T13:56:20.987+00:00</time>
      </trkpt>
      <trkpt lat="49.1891" lon="1.82129">
        <ele>144</ele>
        <time>2024-02-05T13:56:25.418+00:00</time>
      </trkpt>
      <trkpt lat="49.18906" lon="1.82136">
        <ele>144</ele>
        <time>2024-02-05T13:56:29.482+00:00</time>
      </trkpt>
      <trkpt lat="49.18902" lon="1.82144">
        <ele>142</ele>
        <time>2024-02-05T13:56:34.596+00:00</time>
      </trkpt>
      <trkpt lat="49.18899" lon="1.82152">
        <ele>142</ele>
        <time>2024-02-05T13:56:39.141+00:00</time>
      </trkpt>
      <trkpt lat="49.18896" lon="1.82159">
        <ele>142</ele>
        <time>2024-02-05T13:56:43.613+00:00</time>
      </trkpt>
      <trkpt lat="49.18893" lon="1.82166">
        <ele>142</ele>
        <time>2024-02-05T13:56:48.038+00:00</time>
      </trkpt>
      <trkpt lat="49.18891" lon="1.82173">
        <ele>142</ele>
        <time>2024-02-05T13:56:52.162+00:00</time>
      </trkpt>
      <trkpt lat="49.18887" lon="1.8218">
        <ele>142</ele>
        <time>2024-02-05T13:56:56.722+00:00</time>
      </trkpt>
      <trkpt lat="49.18884" lon="1.82186">
        <ele>141</ele>
        <time>2024-02-05T13:57:01.379+00:00</time>
      </trkpt>
      <trkpt lat="49.18881" lon="1.82192">
        <ele>141</ele>
        <time>2024-02-05T13:57:06.002+00:00</time>
      </trkpt>
      <trkpt lat="49.18878" lon="1.82197">
        <ele>141</ele>
        <time>2024-02-05T13:57:10.036+00:00</time>
      </trkpt>
      <trkpt lat="49.18875" lon="1.82202">
        <ele>140</ele>
        <time>2024-02-05T13:57:14.321+00:00</time>
      </trkpt>
      <trkpt lat="49.1887" lon="1.82208">
        <ele>140</ele>
        <time>2024-02-05T13:57:18.716+00:00</time>
      </trkpt>
      <trkpt lat="49.18868" lon="1.82215">
        <ele>139</ele>
        <time>2024-02-05T13:57:22.739+00:00</time>
      </trkpt>
      <trkpt lat="49.18865" lon="1.82223">
        <ele>139</ele>
        <time>2024-02-05T13:57:27.201+00:00</time>
      </trkpt>
      <trkpt lat="49.18863" lon="1.82228">
        <ele>139</ele>
        <time>2024-02-05T13:57:31.402+00:00</time>
      </trkpt>
      <trkpt lat="49.18861" lon="1.82235">
        <ele>139</ele>
        <time>2024-02-05T13:57:35.914+00:00</time>
      </trkpt>
      <trkpt lat="49.18859" lon="1.82242">
        <ele>139</ele>
        <time>2024-02-05T13:57:40.375+00:00</time>
      </trkpt>
      <trkpt lat="49.18856" lon="1.82248">
        <ele>139</ele>
        <time>2024-02-05T13:57:44.744+00:00</time>
      </trkpt>
      <trkpt lat="49.18853" lon="1.82256">
        <ele>139</ele>
        <time>2024-02-05T13:57:49.498+00:00</time>
      </trkpt>
      <trkpt lat="49.18851" lon="1.82262">
        <ele>139</ele>
        <time>2024-02-05T13:57:53.741+00:00</time>
      </trkpt>
      <trkpt lat="49.18849" lon="1.82269">
        <ele>139</ele>
        <time>2024-02-05T13:57:58.136+00:00</time>
      </trkpt>
      <trkpt lat="49.18847" lon="1.82277">
        <ele>139</ele>
        <time>2024-02-05T13:58:02.180+00:00</time>
      </trkpt>
      <trkpt lat="49.18847" lon="1.82285">
        <ele>139</ele>
        <time>2024-02-05T13:58:06.682+00:00</time>
      </trkpt>
      <trkpt lat="49.18846" lon="1.82292">
        <ele>139</ele>
        <time>2024-02-05T13:58:11.193+00:00</time>
      </trkpt>
      <trkpt lat="49.18846" lon="1.82299">
        <ele>139</ele>
        <time>2024-02-05T13:58:15.277+00:00</time>
      </trkpt>
      <trkpt lat="49.18845" lon="1.82307">
        <ele>139</ele>
        <time>2024-02-05T13:58:19.759+00:00</time>
      </trkpt>
      <trkpt lat="49.18845" lon="1.82315">
        <ele>139</ele>
        <time>2024-02-05T13:58:23.747+00:00</time>
      </trkpt>
      <trkpt lat="49.18844" lon="1.82322">
        <ele>138</ele>
        <time>2024-02-05T13:58:27.917+00:00</time>
      </trkpt>
      <trkpt lat="49.18843" lon="1.8233">
        <ele>138</ele>
        <time>2024-02-05T13:58:32.038+00:00</time>
      </trkpt>
      <trkpt lat="49.18842" lon="1.82339">
        <ele>138</ele>
        <time>2024-02-05T13:58:36.499+00:00</time>
      </trkpt>
      <trkpt lat="49.18842" lon="1.82349">
        <ele>136</ele>
        <time>2024-02-05T13:58:40.921+00:00</time>
      </trkpt>
      <trkpt lat="49.18842" lon="1.82358">
        <ele>136</ele>
        <time>2024-02-05T13:58:45.221+00:00</time>
      </trkpt>
      <trkpt lat="49.18842" lon="1.82367">
        <ele>136</ele>
        <time>2024-02-05T13:58:49.749+00:00</time>
      </trkpt>
      <trkpt lat="49.18841" lon="1.82375">
        <ele>136</ele>
        <time>2024-02-05T13:58:54.234+00:00</time>
      </trkpt>
      <trkpt lat="49.18841" lon="1.82386">
        <ele>136</ele>
        <time>2024-02-05T13:58:58.461+00:00</time>
      </trkpt>
      <trkpt lat="49.1884" lon="1.82398">
        <ele>136</ele>
        <time>2024-02-05T13:59:02.708+00:00</time>
      </trkpt>
      <trkpt lat="49.18839" lon="1.82407">
        <ele>137</ele>
        <time>2024-02-05T13:59:07.074+00:00</time>
      </trkpt>
      <trkpt lat="49.18838" lon="1.8242">
        <ele>137</ele>
        <time>2024-02-05T13:59:11.540+00:00</time>
      </trkpt>
      <trkpt lat="49.18835" lon="1.82429">
        <ele>137</ele>
        <time>2024-02-05T13:59:15.696+00:00</time>
      </trkpt>
      <trkpt lat="49.18835" lon="1.82437">
        <ele>137</ele>
        <time>2024-02-05T13:59:19.715+00:00</time>
      </trkpt>
      <trkpt lat="49.18834" lon="1.82447">
        <ele>137</ele>
        <time>2024-02-05T13:59:23.940+00:00</time>
      </trkpt>
      <trkpt lat="49.18833" lon="1.82457">
        <ele>137</ele>
        <time>2024-02-05T13:59:28.717+00:00</time>
      </trkpt>
      <trkpt lat="49.18833" lon="1.82463">
        <ele>136</ele>
        <time>2024-02-05T13:59:32.740+00:00</time>
      </trkpt>
      <trkpt lat="49.18832" lon="1.8247">
        <ele>136</ele>
        <time>2024-02-05T13:59:37.057+00:00</time>
      </trkpt>
      <trkpt lat="49.18832" lon="1.82477">
        <ele>136</ele>
        <time>2024-02-05T13:59:41.095+00:00</time>
      </trkpt>
      <trkpt lat="49.18831" lon="1.82484">
        <ele>136</ele>
        <time>2024-02-05T13:59:45.322+00:00</time>
      </trkpt>
      <trkpt lat="49.1883" lon="1.82491">
        <ele>134</ele>
        <time>2024-02-05T13:59:49.727+00:00</time>
      </trkpt>
      <trkpt lat="49.18828" lon="1.82499">
        <ele>134</ele>
        <time>2024-02-05T13:59:54.043+00:00</time>
      </trkpt>
      <trkpt lat="49.18828" lon="1.82508">
        <ele>134</ele>
        <time>2024-02-05T13:59:58.042+00:00</time>
      </trkpt>
      <trkpt lat="49.18829" lon="1.82515">
        <ele>133</ele>
        <time>2024-02-05T14:00:02.198+00:00</time>
      </trkpt>
      <trkpt lat="49.18827" lon="1.82525">
        <ele>133</ele>
        <time>2024-02-05T14:00:06.622+00:00</time>
      </trkpt>
      <trkpt lat="49.18827" lon="1.82532">
        <ele>133</ele>
        <time>2024-02-05T14:00:10.716+00:00</time>
      </trkpt>
      <trkpt lat="49.18826" lon="1.8254">
        <ele>133</ele>
        <time>2024-02-05T14:00:14.715+00:00</time>
      </trkpt>
      <trkpt lat="49.18825" lon="1.8255">
        <ele>133</ele>
        <time>2024-02-05T14:00:19.260+00:00</time>
      </trkpt>
      <trkpt lat="49.18825" lon="1.82559">
        <ele>133</ele>
        <time>2024-02-05T14:00:23.727+00:00</time>
      </trkpt>
      <trkpt lat="49.18822" lon="1.82565">
        <ele>133</ele>
        <time>2024-02-05T14:00:27.822+00:00</time>
      </trkpt>
      <trkpt lat="49.18818" lon="1.82571">
        <ele>132</ele>
        <time>2024-02-05T14:00:32.221+00:00</time>
      </trkpt>
      <trkpt lat="49.18815" lon="1.82575">
        <ele>132</ele>
        <time>2024-02-05T14:00:36.328+00:00</time>
      </trkpt>
      <trkpt lat="49.18815" lon="1.82573">
        <ele>132</ele>
        <time>2024-02-05T14:00:40.704+00:00</time>
      </trkpt>
      <trkpt lat="49.18814" lon="1.82578">
        <ele>132</ele>
        <time>2024-02-05T14:00:45.560+00:00</time>
      </trkpt>
      <trkpt lat="49.18813" lon="1.82585">
        <ele>132</ele>
        <time>2024-02-05T14:00:49.724+00:00</time>
      </trkpt>
      <trkpt lat="49.18811" lon="1.82589">
        <ele>132</ele>
        <time>2024-02-05T14:00:53.743+00:00</time>
      </trkpt>
      <trkpt lat="49.18808" lon="1.82597">
        <ele>132</ele>
        <time>2024-02-05T14:00:58.555+00:00</time>
      </trkpt>
      <trkpt lat="49.18806" lon="1.82601">
        <ele>132</ele>
        <time>2024-02-05T14:01:02.707+00:00</time>
      </trkpt>
      <trkpt lat="49.18802" lon="1.82608">
        <ele>132</ele>
        <time>2024-02-05T14:01:06.841+00:00</time>
      </trkpt>
      <trkpt lat="49.18797" lon="1.82616">
        <ele>132</ele>
        <time>2024-02-05T14:01:11.276+00:00</time>
      </trkpt>
      <trkpt lat="49.18794" lon="1.82623">
        <ele>132</ele>
        <time>2024-02-05T14:01:15.733+00:00</time>
      </trkpt>
      <trkpt lat="49.18792" lon="1.82631">
        <ele>131</ele>
        <time>2024-02-05T14:01:19.743+00:00</time>
      </trkpt>
      <trkpt lat="49.18787" lon="1.82636">
        <ele>131</ele>
        <time>2024-02-05T14:01:24.294+00:00</time>
      </trkpt>
      <trkpt lat="49.18785" lon="1.82646">
        <ele>131</ele>
        <time>2024-02-05T14:01:28.722+00:00</time>
      </trkpt>
      <trkpt lat="49.18782" lon="1.82653">
        <ele>131</ele>
        <time>2024-02-05T14:01:33.217+00:00</time>
      </trkpt>
      <trkpt lat="49.18778" lon="1.82659">
        <ele>131</ele>
        <time>2024-02-05T14:01:37.673+00:00</time>
      </trkpt>
      <trkpt lat="49.18775" lon="1.82666">
        <ele>131</ele>
        <time>2024-02-05T14:01:41.747+00:00</time>
      </trkpt>
      <trkpt lat="49.18772" lon="1.82673">
        <ele>131</ele>
        <time>2024-02-05T14:01:46.056+00:00</time>
      </trkpt>
      <trkpt lat="49.1877" lon="1.8268">
        <ele>131</ele>
        <time>2024-02-05T14:01:50.091+00:00</time>
      </trkpt>
      <trkpt lat="49.18768" lon="1.82687">
        <ele>132</ele>
        <time>2024-02-05T14:01:54.577+00:00</time>
      </trkpt>
      <trkpt lat="49.18765" lon="1.82695">
        <ele>132</ele>
        <time>2024-02-05T14:01:59.052+00:00</time>
      </trkpt>
      <trkpt lat="49.18762" lon="1.82702">
        <ele>130</ele>
        <time>2024-02-05T14:02:03.711+00:00</time>
      </trkpt>
      <trkpt lat="49.18759" lon="1.82708">
        <ele>130</ele>
        <time>2024-02-05T14:02:07.862+00:00</time>
      </trkpt>
      <trkpt lat="49.18761" lon="1.82722">
        <ele>131</ele>
        <time>2024-02-05T14:02:12.020+00:00</time>
      </trkpt>
      <trkpt lat="49.18761" lon="1.82723">
        <ele>131</ele>
        <time>2024-02-05T14:02:16.696+00:00</time>
      </trkpt>
      <trkpt lat="49.18756" lon="1.82728">
        <ele>131</ele>
        <time>2024-02-05T14:02:21.061+00:00</time>
      </trkpt>
      <trkpt lat="49.18755" lon="1.82734">
        <ele>131</ele>
        <time>2024-02-05T14:02:25.704+00:00</time>
      </trkpt>
      <trkpt lat="49.18754" lon="1.82739">
        <ele>131</ele>
        <time>2024-02-05T14:02:29.699+00:00</time>
      </trkpt>
      <trkpt lat="49.18759" lon="1.82736">
        <ele>131</ele>
        <time>2024-02-05T14:02:33.705+00:00</time>
      </trkpt>
      <trkpt lat="49.18755" lon="1.82743">
        <ele>131</ele>
        <time>2024-02-05T14:02:38.481+00:00</time>
      </trkpt>
      <trkpt lat="49.18747" lon="1.82757">
        <ele>131</ele>
        <time>2024-02-05T14:02:42.497+00:00</time>
      </trkpt>
      <trkpt lat="49.18743" lon="1.82767">
        <ele>131</ele>
        <time>2024-02-05T14:02:47.152+00:00</time>
      </trkpt>
      <trkpt lat="49.18741" lon="1.82773">
        <ele>131</ele>
        <time>2024-02-05T14:02:51.181+00:00</time>
      </trkpt>
      <trkpt lat="49.18738" lon="1.82781">
        <ele>131</ele>
        <time>2024-02-05T14:02:55.691+00:00</time>
      </trkpt>
      <trkpt lat="49.18735" lon="1.82787">
        <ele>129</ele>
        <time>2024-02-05T14:03:00.057+00:00</time>
      </trkpt>
      <trkpt lat="49.18731" lon="1.82795">
        <ele>130</ele>
        <time>2024-02-05T14:03:04.535+00:00</time>
      </trkpt>
      <trkpt lat="49.18729" lon="1.82803">
        <ele>130</ele>
        <time>2024-02-05T14:03:08.698+00:00</time>
      </trkpt>
      <trkpt lat="49.18726" lon="1.8281">
        <ele>130</ele>
        <time>2024-02-05T14:03:12.716+00:00</time>
      </trkpt>
      <trkpt lat="49.18723" lon="1.82817">
        <ele>130</ele>
        <time>2024-02-05T14:03:17.194+00:00</time>
      </trkpt>
      <trkpt lat="49.18722" lon="1.82822">
        <ele>131</ele>
        <time>2024-02-05T14:03:21.560+00:00</time>
      </trkpt>
      <trkpt lat="49.18719" lon="1.82831">
        <ele>131</ele>
        <time>2024-02-05T14:03:25.703+00:00</time>
      </trkpt>
      <trkpt lat="49.1872" lon="1.8284">
        <ele>131</ele>
        <time>2024-02-05T14:03:30.696+00:00</time>
      </trkpt>
      <trkpt lat="49.18723" lon="1.82843">
        <ele>131</ele>
        <time>2024-02-05T14:03:35.702+00:00</time>
      </trkpt>
      <trkpt lat="49.18715" lon="1.82831">
        <ele>131</ele>
        <time>2024-02-05T14:05:22.699+00:00</time>
      </trkpt>
      <trkpt lat="49.18714" lon="1.82833">
        <ele>131</ele>
        <time>2024-02-05T14:05:27.352+00:00</time>
      </trkpt>
      <trkpt lat="49.18712" lon="1.82835">
        <ele>131</ele>
        <time>2024-02-05T14:05:31.304+00:00</time>
      </trkpt>
      <trkpt lat="49.18712" lon="1.82836">
        <ele>131</ele>
        <time>2024-02-05T14:05:35.727+00:00</time>
      </trkpt>
      <trkpt lat="49.18711" lon="1.82838">
        <ele>131</ele>
        <time>2024-02-05T14:05:40.708+00:00</time>
      </trkpt>
      <trkpt lat="49.18713" lon="1.8284">
        <ele>131</ele>
        <time>2024-02-05T14:06:07.729+00:00</time>
      </trkpt>
      <trkpt lat="49.18713" lon="1.8284">
        <ele>131</ele>
        <time>2024-02-05T14:06:12.704+00:00</time>
      </trkpt>
      <trkpt lat="49.18715" lon="1.82839">
        <ele>131</ele>
        <time>2024-02-05T14:06:16.712+00:00</time>
      </trkpt>
      <trkpt lat="49.18719" lon="1.82839">
        <ele>131</ele>
        <time>2024-02-05T14:06:20.720+00:00</time>
      </trkpt>
      <trkpt lat="49.18723" lon="1.82842">
        <ele>131</ele>
        <time>2024-02-05T14:06:24.714+00:00</time>
      </trkpt>
      <trkpt lat="49.1872" lon="1.82841">
        <ele>131</ele>
        <time>2024-02-05T14:07:53.722+00:00</time>
      </trkpt>
      <trkpt lat="49.1872" lon="1.8284">
        <ele>131</ele>
        <time>2024-02-05T14:07:58.412+00:00</time>
      </trkpt>
      <trkpt lat="49.18719" lon="1.82841">
        <ele>131</ele>
        <time>2024-02-05T14:08:02.733+00:00</time>
      </trkpt>
      <trkpt lat="49.18718" lon="1.82842">
        <ele>131</ele>
        <time>2024-02-05T14:08:07.180+00:00</time>
      </trkpt>
      <trkpt lat="49.18716" lon="1.82841">
        <ele>131</ele>
        <time>2024-02-05T14:08:11.516+00:00</time>
      </trkpt>
      <trkpt lat="49.18713" lon="1.82837">
        <ele>131</ele>
        <time>2024-02-05T14:08:42.759+00:00</time>
      </trkpt>
      <trkpt lat="49.18713" lon="1.82839">
        <ele>131</ele>
        <time>2024-02-05T14:08:47.728+00:00</time>
      </trkpt>
      <trkpt lat="49.18712" lon="1.82841">
        <ele>131</ele>
        <time>2024-02-05T14:08:52.713+00:00</time>
      </trkpt>
      <trkpt lat="49.18711" lon="1.82845">
        <ele>131</ele>
        <time>2024-02-05T14:08:57.277+00:00</time>
      </trkpt>
      <trkpt lat="49.18708" lon="1.82851">
        <ele>129</ele>
        <time>2024-02-05T14:09:01.719+00:00</time>
      </trkpt>
      <trkpt lat="49.18707" lon="1.82857">
        <ele>129</ele>
        <time>2024-02-05T14:09:06.219+00:00</time>
      </trkpt>
      <trkpt lat="49.18705" lon="1.82863">
        <ele>129</ele>
        <time>2024-02-05T14:09:10.720+00:00</time>
      </trkpt>
      <trkpt lat="49.18703" lon="1.82868">
        <ele>129</ele>
        <time>2024-02-05T14:09:15.160+00:00</time>
      </trkpt>
      <trkpt lat="49.18701" lon="1.82872">
        <ele>129</ele>
        <time>2024-02-05T14:09:19.397+00:00</time>
      </trkpt>
      <trkpt lat="49.18698" lon="1.82878">
        <ele>130</ele>
        <time>2024-02-05T14:09:24.073+00:00</time>
      </trkpt>
      <trkpt lat="49.18695" lon="1.82884">
        <ele>130</ele>
        <time>2024-02-05T14:09:28.075+00:00</time>
      </trkpt>
      <trkpt lat="49.18691" lon="1.82889">
        <ele>130</ele>
        <time>2024-02-05T14:09:32.736+00:00</time>
      </trkpt>
      <trkpt lat="49.1869" lon="1.82896">
        <ele>130</ele>
        <time>2024-02-05T14:09:37.499+00:00</time>
      </trkpt>
      <trkpt lat="49.18688" lon="1.82902">
        <ele>130</ele>
        <time>2024-02-05T14:09:41.657+00:00</time>
      </trkpt>
      <trkpt lat="49.18688" lon="1.82909">
        <ele>130</ele>
        <time>2024-02-05T14:09:46.238+00:00</time>
      </trkpt>
      <trkpt lat="49.18687" lon="1.82915">
        <ele>130</ele>
        <time>2024-02-05T14:09:50.712+00:00</time>
      </trkpt>
      <trkpt lat="49.18686" lon="1.82923">
        <ele>130</ele>
        <time>2024-02-05T14:09:55.201+00:00</time>
      </trkpt>
      <trkpt lat="49.18685" lon="1.82929">
        <ele>130</ele>
        <time>2024-02-05T14:09:59.356+00:00</time>
      </trkpt>
      <trkpt lat="49.18684" lon="1.82935">
        <ele>131</ele>
        <time>2024-02-05T14:10:03.622+00:00</time>
      </trkpt>
      <trkpt lat="49.18684" lon="1.82942">
        <ele>131</ele>
        <time>2024-02-05T14:10:08.093+00:00</time>
      </trkpt>
      <trkpt lat="49.18682" lon="1.82947">
        <ele>131</ele>
        <time>2024-02-05T14:10:12.693+00:00</time>
      </trkpt>
      <trkpt lat="49.18681" lon="1.82944">
        <ele>131</ele>
        <time>2024-02-05T14:10:17.557+00:00</time>
      </trkpt>
      <trkpt lat="49.18678" lon="1.82955">
        <ele>130</ele>
        <time>2024-02-05T14:10:21.651+00:00</time>
      </trkpt>
      <trkpt lat="49.18675" lon="1.82961">
        <ele>131</ele>
        <time>2024-02-05T14:10:25.738+00:00</time>
      </trkpt>
      <trkpt lat="49.1867" lon="1.82966">
        <ele>131</ele>
        <time>2024-02-05T14:10:30.220+00:00</time>
      </trkpt>
      <trkpt lat="49.18665" lon="1.82972">
        <ele>131</ele>
        <time>2024-02-05T14:10:34.711+00:00</time>
      </trkpt>
      <trkpt lat="49.18662" lon="1.82978">
        <ele>131</ele>
        <time>2024-02-05T14:10:39.415+00:00</time>
      </trkpt>
      <trkpt lat="49.18659" lon="1.82983">
        <ele>131</ele>
        <time>2024-02-05T14:10:43.404+00:00</time>
      </trkpt>
      <trkpt lat="49.18655" lon="1.82989">
        <ele>131</ele>
        <time>2024-02-05T14:10:47.713+00:00</time>
      </trkpt>
      <trkpt lat="49.18652" lon="1.82994">
        <ele>131</ele>
        <time>2024-02-05T14:10:51.728+00:00</time>
      </trkpt>
      <trkpt lat="49.18648" lon="1.83">
        <ele>131</ele>
        <time>2024-02-05T14:10:56.731+00:00</time>
      </trkpt>
      <trkpt lat="49.18645" lon="1.83005">
        <ele>131</ele>
        <time>2024-02-05T14:11:01.232+00:00</time>
      </trkpt>
      <trkpt lat="49.18642" lon="1.8301">
        <ele>131</ele>
        <time>2024-02-05T14:11:05.437+00:00</time>
      </trkpt>
      <trkpt lat="49.18639" lon="1.83013">
        <ele>131</ele>
        <time>2024-02-05T14:11:09.733+00:00</time>
      </trkpt>
      <trkpt lat="49.18636" lon="1.83018">
        <ele>132</ele>
        <time>2024-02-05T14:11:14.575+00:00</time>
      </trkpt>
      <trkpt lat="49.18632" lon="1.83023">
        <ele>132</ele>
        <time>2024-02-05T14:11:18.540+00:00</time>
      </trkpt>
      <trkpt lat="49.18629" lon="1.83026">
        <ele>132</ele>
        <time>2024-02-05T14:11:22.711+00:00</time>
      </trkpt>
      <trkpt lat="49.18625" lon="1.83031">
        <ele>132</ele>
        <time>2024-02-05T14:11:26.727+00:00</time>
      </trkpt>
      <trkpt lat="49.18622" lon="1.83038">
        <ele>131</ele>
        <time>2024-02-05T14:11:31.411+00:00</time>
      </trkpt>
      <trkpt lat="49.18622" lon="1.83045">
        <ele>132</ele>
        <time>2024-02-05T14:11:35.635+00:00</time>
      </trkpt>
      <trkpt lat="49.18622" lon="1.83052">
        <ele>132</ele>
        <time>2024-02-05T14:11:39.727+00:00</time>
      </trkpt>
      <trkpt lat="49.18622" lon="1.83059">
        <ele>132</ele>
        <time>2024-02-05T14:11:43.723+00:00</time>
      </trkpt>
      <trkpt lat="49.18621" lon="1.83066">
        <ele>132</ele>
        <time>2024-02-05T14:11:48.234+00:00</time>
      </trkpt>
      <trkpt lat="49.1862" lon="1.83073">
        <ele>132</ele>
        <time>2024-02-05T14:11:52.635+00:00</time>
      </trkpt>
      <trkpt lat="49.18618" lon="1.83082">
        <ele>132</ele>
        <time>2024-02-05T14:11:56.765+00:00</time>
      </trkpt>
      <trkpt lat="49.18617" lon="1.83088">
        <ele>132</ele>
        <time>2024-02-05T14:12:01.099+00:00</time>
      </trkpt>
      <trkpt lat="49.18616" lon="1.83096">
        <ele>132</ele>
        <time>2024-02-05T14:12:05.638+00:00</time>
      </trkpt>
      <trkpt lat="49.18616" lon="1.83104">
        <ele>131</ele>
        <time>2024-02-05T14:12:10.317+00:00</time>
      </trkpt>
      <trkpt lat="49.18615" lon="1.83111">
        <ele>131</ele>
        <time>2024-02-05T14:12:14.445+00:00</time>
      </trkpt>
      <trkpt lat="49.18614" lon="1.8312">
        <ele>131</ele>
        <time>2024-02-05T14:12:19.464+00:00</time>
      </trkpt>
      <trkpt lat="49.18613" lon="1.83128">
        <ele>131</ele>
        <time>2024-02-05T14:12:23.740+00:00</time>
      </trkpt>
      <trkpt lat="49.18614" lon="1.83137">
        <ele>131</ele>
        <time>2024-02-05T14:12:28.298+00:00</time>
      </trkpt>
      <trkpt lat="49.18614" lon="1.83147">
        <ele>131</ele>
        <time>2024-02-05T14:12:32.920+00:00</time>
      </trkpt>
      <trkpt lat="49.18615" lon="1.83155">
        <ele>131</ele>
        <time>2024-02-05T14:12:37.560+00:00</time>
      </trkpt>
      <trkpt lat="49.18615" lon="1.83162">
        <ele>131</ele>
        <time>2024-02-05T14:12:41.738+00:00</time>
      </trkpt>
      <trkpt lat="49.18613" lon="1.83167">
        <ele>131</ele>
        <time>2024-02-05T14:12:45.875+00:00</time>
      </trkpt>
      <trkpt lat="49.1861" lon="1.83174">
        <ele>131</ele>
        <time>2024-02-05T14:12:50.375+00:00</time>
      </trkpt>
      <trkpt lat="49.18607" lon="1.83195">
        <ele>131</ele>
        <time>2024-02-05T14:13:31.700+00:00</time>
      </trkpt>
      <trkpt lat="49.18607" lon="1.83196">
        <ele>131</ele>
        <time>2024-02-05T14:13:36.296+00:00</time>
      </trkpt>
      <trkpt lat="49.18606" lon="1.83196">
        <ele>131</ele>
        <time>2024-02-05T14:13:40.222+00:00</time>
      </trkpt>
      <trkpt lat="49.18603" lon="1.83198">
        <ele>131</ele>
        <time>2024-02-05T14:13:44.702+00:00</time>
      </trkpt>
      <trkpt lat="49.18603" lon="1.83201">
        <ele>131</ele>
        <time>2024-02-05T14:13:48.705+00:00</time>
      </trkpt>
      <trkpt lat="49.18604" lon="1.83199">
        <ele>131</ele>
        <time>2024-02-05T14:14:26.401+00:00</time>
      </trkpt>
      <trkpt lat="49.18608" lon="1.83196">
        <ele>131</ele>
        <time>2024-02-05T14:14:31.054+00:00</time>
      </trkpt>
      <trkpt lat="49.18612" lon="1.8319">
        <ele>131</ele>
        <time>2024-02-05T14:14:35.596+00:00</time>
      </trkpt>
      <trkpt lat="49.18619" lon="1.83189">
        <ele>131</ele>
        <time>2024-02-05T14:14:40.159+00:00</time>
      </trkpt>
      <trkpt lat="49.18625" lon="1.83188">
        <ele>131</ele>
        <time>2024-02-05T14:14:44.631+00:00</time>
      </trkpt>
      <trkpt lat="49.18633" lon="1.8319">
        <ele>133</ele>
        <time>2024-02-05T14:14:48.880+00:00</time>
      </trkpt>
      <trkpt lat="49.18639" lon="1.8319">
        <ele>133</ele>
        <time>2024-02-05T14:14:53.140+00:00</time>
      </trkpt>
      <trkpt lat="49.18644" lon="1.83191">
        <ele>133</ele>
        <time>2024-02-05T14:14:57.518+00:00</time>
      </trkpt>
      <trkpt lat="49.18648" lon="1.8319">
        <ele>133</ele>
        <time>2024-02-05T14:15:01.730+00:00</time>
      </trkpt>
      <trkpt lat="49.18653" lon="1.83188">
        <ele>137</ele>
        <time>2024-02-05T14:15:05.954+00:00</time>
      </trkpt>
      <trkpt lat="49.18659" lon="1.83188">
        <ele>137</ele>
        <time>2024-02-05T14:15:10.711+00:00</time>
      </trkpt>
      <trkpt lat="49.18664" lon="1.83189">
        <ele>137</ele>
        <time>2024-02-05T14:15:14.953+00:00</time>
      </trkpt>
      <trkpt lat="49.18668" lon="1.83193">
        <ele>137</ele>
        <time>2024-02-05T14:15:19.319+00:00</time>
      </trkpt>
      <trkpt lat="49.18672" lon="1.83191">
        <ele>137</ele>
        <time>2024-02-05T14:15:23.424+00:00</time>
      </trkpt>
      <trkpt lat="49.18676" lon="1.8319">
        <ele>137</ele>
        <time>2024-02-05T14:15:27.698+00:00</time>
      </trkpt>
      <trkpt lat="49.18679" lon="1.83193">
        <ele>137</ele>
        <time>2024-02-05T14:15:32.454+00:00</time>
      </trkpt>
      <trkpt lat="49.18681" lon="1.83195">
        <ele>141</ele>
        <time>2024-02-05T14:15:36.707+00:00</time>
      </trkpt>
      <trkpt lat="49.18682" lon="1.83194">
        <ele>141</ele>
        <time>2024-02-05T14:15:40.973+00:00</time>
      </trkpt>
      <trkpt lat="49.18689" lon="1.83201">
        <ele>141</ele>
        <time>2024-02-05T14:15:45.095+00:00</time>
      </trkpt>
      <trkpt lat="49.18694" lon="1.83202">
        <ele>141</ele>
        <time>2024-02-05T14:15:49.321+00:00</time>
      </trkpt>
      <trkpt lat="49.18697" lon="1.83203">
        <ele>141</ele>
        <time>2024-02-05T14:15:53.400+00:00</time>
      </trkpt>
      <trkpt lat="49.18697" lon="1.83204">
        <ele>141</ele>
        <time>2024-02-05T14:15:57.440+00:00</time>
      </trkpt>
      <trkpt lat="49.18701" lon="1.83207">
        <ele>141</ele>
        <time>2024-02-05T14:16:01.691+00:00</time>
      </trkpt>
      <trkpt lat="49.18704" lon="1.8321">
        <ele>141</ele>
        <time>2024-02-05T14:16:06.019+00:00</time>
      </trkpt>
      <trkpt lat="49.18706" lon="1.83214">
        <ele>141</ele>
        <time>2024-02-05T14:16:10.175+00:00</time>
      </trkpt>
      <trkpt lat="49.18703" lon="1.83218">
        <ele>141</ele>
        <time>2024-02-05T14:16:18.698+00:00</time>
      </trkpt>
      <trkpt lat="49.18702" lon="1.8322">
        <ele>141</ele>
        <time>2024-02-05T14:16:22.722+00:00</time>
      </trkpt>
      <trkpt lat="49.18704" lon="1.83222">
        <ele>141</ele>
        <time>2024-02-05T14:16:26.997+00:00</time>
      </trkpt>
      <trkpt lat="49.1871" lon="1.83219">
        <ele>144</ele>
        <time>2024-02-05T14:16:31.299+00:00</time>
      </trkpt>
      <trkpt lat="49.18713" lon="1.83219">
        <ele>144</ele>
        <time>2024-02-05T14:16:35.707+00:00</time>
      </trkpt>
      <trkpt lat="49.18714" lon="1.83219">
        <ele>144</ele>
        <time>2024-02-05T14:16:39.698+00:00</time>
      </trkpt>
      <trkpt lat="49.18718" lon="1.83222">
        <ele>144</ele>
        <time>2024-02-05T14:16:44.377+00:00</time>
      </trkpt>
      <trkpt lat="49.18719" lon="1.83224">
        <ele>144</ele>
        <time>2024-02-05T14:16:48.706+00:00</time>
      </trkpt>
      <trkpt lat="49.18721" lon="1.83226">
        <ele>144</ele>
        <time>2024-02-05T14:16:52.949+00:00</time>
      </trkpt>
      <trkpt lat="49.18722" lon="1.83232">
        <ele>144</ele>
        <time>2024-02-05T14:16:57.698+00:00</time>
      </trkpt>
      <trkpt lat="49.1872" lon="1.83218">
        <ele>144</ele>
        <time>2024-02-05T14:18:22.723+00:00</time>
      </trkpt>
      <trkpt lat="49.18716" lon="1.83217">
        <ele>144</ele>
        <time>2024-02-05T14:18:27.504+00:00</time>
      </trkpt>
      <trkpt lat="49.18713" lon="1.8322">
        <ele>144</ele>
        <time>2024-02-05T14:18:31.562+00:00</time>
      </trkpt>
      <trkpt lat="49.18712" lon="1.83225">
        <ele>144</ele>
        <time>2024-02-05T14:18:35.696+00:00</time>
      </trkpt>
      <trkpt lat="49.18707" lon="1.83223">
        <ele>141</ele>
        <time>2024-02-05T14:18:40.527+00:00</time>
      </trkpt>
      <trkpt lat="49.18708" lon="1.83222">
        <ele>141</ele>
        <time>2024-02-05T14:19:08.696+00:00</time>
      </trkpt>
      <trkpt lat="49.18709" lon="1.83224">
        <ele>144</ele>
        <time>2024-02-05T14:19:12.701+00:00</time>
      </trkpt>
      <trkpt lat="49.18714" lon="1.83222">
        <ele>144</ele>
        <time>2024-02-05T14:19:16.707+00:00</time>
      </trkpt>
      <trkpt lat="49.18718" lon="1.8322">
        <ele>144</ele>
        <time>2024-02-05T14:19:21.712+00:00</time>
      </trkpt>
      <trkpt lat="49.1872" lon="1.83219">
        <ele>144</ele>
        <time>2024-02-05T14:19:26.703+00:00</time>
      </trkpt>
      <trkpt lat="49.1872" lon="1.83219">
        <ele>144</ele>
        <time>2024-02-05T14:19:59.731+00:00</time>
      </trkpt>
      <trkpt lat="49.18722" lon="1.83219">
        <ele>144</ele>
        <time>2024-02-05T14:20:04.719+00:00</time>
      </trkpt>
      <trkpt lat="49.18722" lon="1.83222">
        <ele>144</ele>
        <time>2024-02-05T14:20:09.718+00:00</time>
      </trkpt>
      <trkpt lat="49.18727" lon="1.83214">
        <ele>144</ele>
        <time>2024-02-05T14:20:14.731+00:00</time>
      </trkpt>
      <trkpt lat="49.18728" lon="1.83213">
        <ele>144</ele>
        <time>2024-02-05T14:20:19.679+00:00</time>
      </trkpt>
      <trkpt lat="49.18728" lon="1.83216">
        <ele>144</ele>
        <time>2024-02-05T14:20:59.715+00:00</time>
      </trkpt>
      <trkpt lat="49.18729" lon="1.83218">
        <ele>144</ele>
        <time>2024-02-05T14:21:04.717+00:00</time>
      </trkpt>
      <trkpt lat="49.18732" lon="1.83213">
        <ele>144</ele>
        <time>2024-02-05T14:21:09.641+00:00</time>
      </trkpt>
      <trkpt lat="49.18734" lon="1.83213">
        <ele>144</ele>
        <time>2024-02-05T14:21:14.182+00:00</time>
      </trkpt>
      <trkpt lat="49.18737" lon="1.83206">
        <ele>144</ele>
        <time>2024-02-05T14:21:18.264+00:00</time>
      </trkpt>
      <trkpt lat="49.18741" lon="1.83199">
        <ele>144</ele>
        <time>2024-02-05T14:21:22.731+00:00</time>
      </trkpt>
      <trkpt lat="49.18742" lon="1.83192">
        <ele>144</ele>
        <time>2024-02-05T14:21:27.205+00:00</time>
      </trkpt>
      <trkpt lat="49.18744" lon="1.83184">
        <ele>144</ele>
        <time>2024-02-05T14:21:31.706+00:00</time>
      </trkpt>
      <trkpt lat="49.18746" lon="1.83179">
        <ele>143</ele>
        <time>2024-02-05T14:21:35.714+00:00</time>
      </trkpt>
      <trkpt lat="49.18748" lon="1.83173">
        <ele>143</ele>
        <time>2024-02-05T14:21:44.726+00:00</time>
      </trkpt>
      <trkpt lat="49.18749" lon="1.83175">
        <ele>143</ele>
        <time>2024-02-05T14:21:49.210+00:00</time>
      </trkpt>
      <trkpt lat="49.1875" lon="1.83179">
        <ele>143</ele>
        <time>2024-02-05T14:21:53.705+00:00</time>
      </trkpt>
      <trkpt lat="49.18754" lon="1.83181">
        <ele>144</ele>
        <time>2024-02-05T14:21:58.290+00:00</time>
      </trkpt>
      <trkpt lat="49.18757" lon="1.83183">
        <ele>144</ele>
        <time>2024-02-05T14:22:02.542+00:00</time>
      </trkpt>
      <trkpt lat="49.18761" lon="1.83193">
        <ele>144</ele>
        <time>2024-02-05T14:22:16.700+00:00</time>
      </trkpt>
      <trkpt lat="49.18761" lon="1.83193">
        <ele>144</ele>
        <time>2024-02-05T14:22:21.700+00:00</time>
      </trkpt>
      <trkpt lat="49.18763" lon="1.83194">
        <ele>144</ele>
        <time>2024-02-05T14:22:26.042+00:00</time>
      </trkpt>
      <trkpt lat="49.18768" lon="1.83195">
        <ele>146</ele>
        <time>2024-02-05T14:22:30.240+00:00</time>
      </trkpt>
      <trkpt lat="49.18772" lon="1.83198">
        <ele>146</ele>
        <time>2024-02-05T14:22:34.717+00:00</time>
      </trkpt>
      <trkpt lat="49.18774" lon="1.83204">
        <ele>146</ele>
        <time>2024-02-05T14:22:39.284+00:00</time>
      </trkpt>
      <trkpt lat="49.18777" lon="1.83209">
        <ele>146</ele>
        <time>2024-02-05T14:22:43.721+00:00</time>
      </trkpt>
      <trkpt lat="49.18778" lon="1.83211">
        <ele>146</ele>
        <time>2024-02-05T14:22:47.741+00:00</time>
      </trkpt>
      <trkpt lat="49.18781" lon="1.83213">
        <ele>146</ele>
        <time>2024-02-05T14:22:52.083+00:00</time>
      </trkpt>
      <trkpt lat="49.18784" lon="1.83217">
        <ele>146</ele>
        <time>2024-02-05T14:22:56.720+00:00</time>
      </trkpt>
      <trkpt lat="49.18789" lon="1.83228">
        <ele>146</ele>
        <time>2024-02-05T14:23:04.722+00:00</time>
      </trkpt>
      <trkpt lat="49.18791" lon="1.8323">
        <ele>146</ele>
        <time>2024-02-05T14:23:09.736+00:00</time>
      </trkpt>
      <trkpt lat="49.18792" lon="1.83228">
        <ele>148</ele>
        <time>2024-02-05T14:23:14.709+00:00</time>
      </trkpt>
      <trkpt lat="49.18794" lon="1.83228">
        <ele>148</ele>
        <time>2024-02-05T14:23:18.732+00:00</time>
      </trkpt>
      <trkpt lat="49.18797" lon="1.83232">
        <ele>148</ele>
        <time>2024-02-05T14:23:23.441+00:00</time>
      </trkpt>
      <trkpt lat="49.18801" lon="1.83235">
        <ele>148</ele>
        <time>2024-02-05T14:23:27.843+00:00</time>
      </trkpt>
      <trkpt lat="49.18804" lon="1.83241">
        <ele>149</ele>
        <time>2024-02-05T14:23:32.425+00:00</time>
      </trkpt>
      <trkpt lat="49.18808" lon="1.83243">
        <ele>149</ele>
        <time>2024-02-05T14:23:36.729+00:00</time>
      </trkpt>
      <trkpt lat="49.18812" lon="1.8325">
        <ele>149</ele>
        <time>2024-02-05T14:23:41.242+00:00</time>
      </trkpt>
      <trkpt lat="49.18816" lon="1.83253">
        <ele>149</ele>
        <time>2024-02-05T14:23:45.741+00:00</time>
      </trkpt>
      <trkpt lat="49.18819" lon="1.83256">
        <ele>149</ele>
        <time>2024-02-05T14:23:50.481+00:00</time>
      </trkpt>
      <trkpt lat="49.18822" lon="1.83259">
        <ele>151</ele>
        <time>2024-02-05T14:23:54.603+00:00</time>
      </trkpt>
      <trkpt lat="49.18824" lon="1.83263">
        <ele>151</ele>
        <time>2024-02-05T14:23:58.717+00:00</time>
      </trkpt>
      <trkpt lat="49.18827" lon="1.83265">
        <ele>152</ele>
        <time>2024-02-05T14:24:03.167+00:00</time>
      </trkpt>
      <trkpt lat="49.1883" lon="1.83267">
        <ele>152</ele>
        <time>2024-02-05T14:24:07.409+00:00</time>
      </trkpt>
      <trkpt lat="49.18833" lon="1.83269">
        <ele>152</ele>
        <time>2024-02-05T14:24:11.715+00:00</time>
      </trkpt>
      <trkpt lat="49.18835" lon="1.83272">
        <ele>152</ele>
        <time>2024-02-05T14:24:16.205+00:00</time>
      </trkpt>
      <trkpt lat="49.18838" lon="1.83276">
        <ele>152</ele>
        <time>2024-02-05T14:24:20.728+00:00</time>
      </trkpt>
      <trkpt lat="49.1884" lon="1.83279">
        <ele>152</ele>
        <time>2024-02-05T14:24:25.483+00:00</time>
      </trkpt>
      <trkpt lat="49.18842" lon="1.83282">
        <ele>152</ele>
        <time>2024-02-05T14:24:30.101+00:00</time>
      </trkpt>
      <trkpt lat="49.18844" lon="1.83286">
        <ele>152</ele>
        <time>2024-02-05T14:24:34.203+00:00</time>
      </trkpt>
      <trkpt lat="49.18847" lon="1.83289">
        <ele>154</ele>
        <time>2024-02-05T14:24:38.289+00:00</time>
      </trkpt>
      <trkpt lat="49.18851" lon="1.83292">
        <ele>156</ele>
        <time>2024-02-05T14:24:42.738+00:00</time>
      </trkpt>
      <trkpt lat="49.18854" lon="1.83296">
        <ele>156</ele>
        <time>2024-02-05T14:24:47.629+00:00</time>
      </trkpt>
      <trkpt lat="49.18858" lon="1.833">
        <ele>156</ele>
        <time>2024-02-05T14:24:51.749+00:00</time>
      </trkpt>
      <trkpt lat="49.18861" lon="1.83304">
        <ele>156</ele>
        <time>2024-02-05T14:24:56.005+00:00</time>
      </trkpt>
      <trkpt lat="49.18864" lon="1.83309">
        <ele>156</ele>
        <time>2024-02-05T14:25:00.720+00:00</time>
      </trkpt>
      <trkpt lat="49.18866" lon="1.83314">
        <ele>156</ele>
        <time>2024-02-05T14:25:05.350+00:00</time>
      </trkpt>
      <trkpt lat="49.18868" lon="1.83317">
        <ele>156</ele>
        <time>2024-02-05T14:25:09.725+00:00</time>
      </trkpt>
      <trkpt lat="49.18868" lon="1.83321">
        <ele>159</ele>
        <time>2024-02-05T14:25:14.501+00:00</time>
      </trkpt>
      <trkpt lat="49.18868" lon="1.83327">
        <ele>159</ele>
        <time>2024-02-05T14:25:19.010+00:00</time>
      </trkpt>
      <trkpt lat="49.18868" lon="1.83333">
        <ele>159</ele>
        <time>2024-02-05T14:25:23.408+00:00</time>
      </trkpt>
      <trkpt lat="49.18869" lon="1.8334">
        <ele>159</ele>
        <time>2024-02-05T14:25:28.108+00:00</time>
      </trkpt>
      <trkpt lat="49.1887" lon="1.83341">
        <ele>159</ele>
        <time>2024-02-05T14:25:32.726+00:00</time>
      </trkpt>
      <trkpt lat="49.18872" lon="1.83344">
        <ele>159</ele>
        <time>2024-02-05T14:25:36.738+00:00</time>
      </trkpt>
      <trkpt lat="49.18875" lon="1.83353">
        <ele>162</ele>
        <time>2024-02-05T14:25:41.641+00:00</time>
      </trkpt>
      <trkpt lat="49.18877" lon="1.83361">
        <ele>167</ele>
        <time>2024-02-05T14:25:46.050+00:00</time>
      </trkpt>
      <trkpt lat="49.18879" lon="1.83369">
        <ele>167</ele>
        <time>2024-02-05T14:25:50.248+00:00</time>
      </trkpt>
      <trkpt lat="49.18879" lon="1.83375">
        <ele>170</ele>
        <time>2024-02-05T14:25:54.755+00:00</time>
      </trkpt>
      <trkpt lat="49.18879" lon="1.83382">
        <ele>170</ele>
        <time>2024-02-05T14:25:59.329+00:00</time>
      </trkpt>
      <trkpt lat="49.18879" lon="1.83387">
        <ele>170</ele>
        <time>2024-02-05T14:26:03.860+00:00</time>
      </trkpt>
      <trkpt lat="49.18879" lon="1.83391">
        <ele>170</ele>
        <time>2024-02-05T14:26:08.283+00:00</time>
      </trkpt>
      <trkpt lat="49.18881" lon="1.83397">
        <ele>170</ele>
        <time>2024-02-05T14:26:12.606+00:00</time>
      </trkpt>
      <trkpt lat="49.18885" lon="1.83403">
        <ele>172</ele>
        <time>2024-02-05T14:26:17.280+00:00</time>
      </trkpt>
      <trkpt lat="49.18888" lon="1.83407">
        <ele>172</ele>
        <time>2024-02-05T14:26:21.407+00:00</time>
      </trkpt>
      <trkpt lat="49.1889" lon="1.83413">
        <ele>172</ele>
        <time>2024-02-05T14:26:25.734+00:00</time>
      </trkpt>
      <trkpt lat="49.18893" lon="1.83419">
        <ele>172</ele>
        <time>2024-02-05T14:26:30.463+00:00</time>
      </trkpt>
      <trkpt lat="49.18896" lon="1.83424">
        <ele>172</ele>
        <time>2024-02-05T14:26:34.489+00:00</time>
      </trkpt>
      <trkpt lat="49.18897" lon="1.83428">
        <ele>172</ele>
        <time>2024-02-05T14:26:38.648+00:00</time>
      </trkpt>
      <trkpt lat="49.18899" lon="1.83432">
        <ele>173</ele>
        <time>2024-02-05T14:26:42.725+00:00</time>
      </trkpt>
      <trkpt lat="49.18902" lon="1.83436">
        <ele>173</ele>
        <time>2024-02-05T14:26:46.719+00:00</time>
      </trkpt>
      <trkpt lat="49.18904" lon="1.83441">
        <ele>179</ele>
        <time>2024-02-05T14:26:51.502+00:00</time>
      </trkpt>
      <trkpt lat="49.18906" lon="1.83446">
        <ele>179</ele>
        <time>2024-02-05T14:27:00.710+00:00</time>
      </trkpt>
      <trkpt lat="49.18906" lon="1.83446">
        <ele>179</ele>
        <time>2024-02-05T14:27:05.246+00:00</time>
      </trkpt>
      <trkpt lat="49.18908" lon="1.83449">
        <ele>179</ele>
        <time>2024-02-05T14:27:09.352+00:00</time>
      </trkpt>
      <trkpt lat="49.18908" lon="1.83452">
        <ele>179</ele>
        <time>2024-02-05T14:27:13.842+00:00</time>
      </trkpt>
      <trkpt lat="49.1891" lon="1.83459">
        <ele>180</ele>
        <time>2024-02-05T14:27:18.324+00:00</time>
      </trkpt>
      <trkpt lat="49.18912" lon="1.83465">
        <ele>180</ele>
        <time>2024-02-05T14:27:22.421+00:00</time>
      </trkpt>
      <trkpt lat="49.18914" lon="1.83474">
        <ele>180</ele>
        <time>2024-02-05T14:27:26.630+00:00</time>
      </trkpt>
      <trkpt lat="49.18915" lon="1.83481">
        <ele>180</ele>
        <time>2024-02-05T14:27:31.034+00:00</time>
      </trkpt>
      <trkpt lat="49.18915" lon="1.83488">
        <ele>179</ele>
        <time>2024-02-05T14:27:35.726+00:00</time>
      </trkpt>
      <trkpt lat="49.18915" lon="1.83493">
        <ele>179</ele>
        <time>2024-02-05T14:27:40.150+00:00</time>
      </trkpt>
      <trkpt lat="49.18916" lon="1.83498">
        <ele>179</ele>
        <time>2024-02-05T14:27:44.748+00:00</time>
      </trkpt>
      <trkpt lat="49.18916" lon="1.83504">
        <ele>179</ele>
        <time>2024-02-05T14:27:48.748+00:00</time>
      </trkpt>
      <trkpt lat="49.18915" lon="1.83511">
        <ele>179</ele>
        <time>2024-02-05T14:27:53.323+00:00</time>
      </trkpt>
      <trkpt lat="49.18915" lon="1.83518">
        <ele>179</ele>
        <time>2024-02-05T14:27:57.701+00:00</time>
      </trkpt>
      <trkpt lat="49.18914" lon="1.83526">
        <ele>179</ele>
        <time>2024-02-05T14:28:01.734+00:00</time>
      </trkpt>
      <trkpt lat="49.18912" lon="1.83531">
        <ele>179</ele>
        <time>2024-02-05T14:28:05.744+00:00</time>
      </trkpt>
      <trkpt lat="49.18912" lon="1.83536">
        <ele>179</ele>
        <time>2024-02-05T14:28:09.749+00:00</time>
      </trkpt>
      <trkpt lat="49.18913" lon="1.83542">
        <ele>179</ele>
        <time>2024-02-05T14:28:18.588+00:00</time>
      </trkpt>
      <trkpt lat="49.18914" lon="1.83547">
        <ele>179</ele>
        <time>2024-02-05T14:28:23.065+00:00</time>
      </trkpt>
      <trkpt lat="49.18913" lon="1.83551">
        <ele>179</ele>
        <time>2024-02-05T14:28:27.715+00:00</time>
      </trkpt>
      <trkpt lat="49.18914" lon="1.83552">
        <ele>179</ele>
        <time>2024-02-05T14:28:32.223+00:00</time>
      </trkpt>
      <trkpt lat="49.18915" lon="1.83561">
        <ele>179</ele>
        <time>2024-02-05T14:28:36.708+00:00</time>
      </trkpt>
      <trkpt lat="49.18914" lon="1.83566">
        <ele>179</ele>
        <time>2024-02-05T14:28:40.716+00:00</time>
      </trkpt>
      <trkpt lat="49.18912" lon="1.83572">
        <ele>178</ele>
        <time>2024-02-05T14:28:44.737+00:00</time>
      </trkpt>
      <trkpt lat="49.18909" lon="1.83577">
        <ele>178</ele>
        <time>2024-02-05T14:28:49.424+00:00</time>
      </trkpt>
      <trkpt lat="49.18908" lon="1.83583">
        <ele>178</ele>
        <time>2024-02-05T14:28:53.778+00:00</time>
      </trkpt>
      <trkpt lat="49.18907" lon="1.83591">
        <ele>178</ele>
        <time>2024-02-05T14:28:58.148+00:00</time>
      </trkpt>
      <trkpt lat="49.18906" lon="1.83598">
        <ele>179</ele>
        <time>2024-02-05T14:29:02.286+00:00</time>
      </trkpt>
      <trkpt lat="49.18906" lon="1.83607">
        <ele>179</ele>
        <time>2024-02-05T14:29:06.676+00:00</time>
      </trkpt>
      <trkpt lat="49.18906" lon="1.83614">
        <ele>179</ele>
        <time>2024-02-05T14:29:11.068+00:00</time>
      </trkpt>
      <trkpt lat="49.18907" lon="1.8362">
        <ele>179</ele>
        <time>2024-02-05T14:29:15.522+00:00</time>
      </trkpt>
      <trkpt lat="49.18908" lon="1.83625">
        <ele>178</ele>
        <time>2024-02-05T14:29:19.659+00:00</time>
      </trkpt>
      <trkpt lat="49.18909" lon="1.83631">
        <ele>178</ele>
        <time>2024-02-05T14:29:23.689+00:00</time>
      </trkpt>
      <trkpt lat="49.1891" lon="1.83639">
        <ele>178</ele>
        <time>2024-02-05T14:29:28.264+00:00</time>
      </trkpt>
      <trkpt lat="49.18911" lon="1.83646">
        <ele>178</ele>
        <time>2024-02-05T14:29:32.580+00:00</time>
      </trkpt>
      <trkpt lat="49.18914" lon="1.83653">
        <ele>177</ele>
        <time>2024-02-05T14:29:36.744+00:00</time>
      </trkpt>
      <trkpt lat="49.18916" lon="1.8366">
        <ele>177</ele>
        <time>2024-02-05T14:29:40.736+00:00</time>
      </trkpt>
      <trkpt lat="49.18919" lon="1.83668">
        <ele>177</ele>
        <time>2024-02-05T14:29:45.149+00:00</time>
      </trkpt>
      <trkpt lat="49.18923" lon="1.83675">
        <ele>177</ele>
        <time>2024-02-05T14:29:49.724+00:00</time>
      </trkpt>
      <trkpt lat="49.18926" lon="1.83682">
        <ele>174</ele>
        <time>2024-02-05T14:29:54.684+00:00</time>
      </trkpt>
      <trkpt lat="49.18929" lon="1.83687">
        <ele>174</ele>
        <time>2024-02-05T14:29:58.729+00:00</time>
      </trkpt>
      <trkpt lat="49.1893" lon="1.83692">
        <ele>174</ele>
        <time>2024-02-05T14:30:03.484+00:00</time>
      </trkpt>
      <trkpt lat="49.18931" lon="1.83698">
        <ele>174</ele>
        <time>2024-02-05T14:30:07.744+00:00</time>
      </trkpt>
      <trkpt lat="49.1893" lon="1.83703">
        <ele>174</ele>
        <time>2024-02-05T14:30:12.289+00:00</time>
      </trkpt>
      <trkpt lat="49.18931" lon="1.8371">
        <ele>178</ele>
        <time>2024-02-05T14:30:16.752+00:00</time>
      </trkpt>
      <trkpt lat="49.18934" lon="1.83716">
        <ele>178</ele>
        <time>2024-02-05T14:30:21.469+00:00</time>
      </trkpt>
      <trkpt lat="49.18938" lon="1.83723">
        <ele>178</ele>
        <time>2024-02-05T14:30:25.763+00:00</time>
      </trkpt>
      <trkpt lat="49.18941" lon="1.83731">
        <ele>178</ele>
        <time>2024-02-05T14:30:30.125+00:00</time>
      </trkpt>
      <trkpt lat="49.18943" lon="1.83739">
        <ele>176</ele>
        <time>2024-02-05T14:30:34.470+00:00</time>
      </trkpt>
      <trkpt lat="49.18944" lon="1.83746">
        <ele>176</ele>
        <time>2024-02-05T14:30:38.508+00:00</time>
      </trkpt>
      <trkpt lat="49.18944" lon="1.83755">
        <ele>176</ele>
        <time>2024-02-05T14:30:43.288+00:00</time>
      </trkpt>
      <trkpt lat="49.18943" lon="1.83761">
        <ele>176</ele>
        <time>2024-02-05T14:30:47.732+00:00</time>
      </trkpt>
      <trkpt lat="49.18942" lon="1.83768">
        <ele>175</ele>
        <time>2024-02-05T14:30:52.121+00:00</time>
      </trkpt>
      <trkpt lat="49.18941" lon="1.83775">
        <ele>175</ele>
        <time>2024-02-05T14:30:56.147+00:00</time>
      </trkpt>
      <trkpt lat="49.1894" lon="1.83782">
        <ele>175</ele>
        <time>2024-02-05T14:31:00.281+00:00</time>
      </trkpt>
      <trkpt lat="49.18941" lon="1.83789">
        <ele>175</ele>
        <time>2024-02-05T14:31:04.523+00:00</time>
      </trkpt>
      <trkpt lat="49.18943" lon="1.83795">
        <ele>174</ele>
        <time>2024-02-05T14:31:08.729+00:00</time>
      </trkpt>
      <trkpt lat="49.18946" lon="1.83799">
        <ele>174</ele>
        <time>2024-02-05T14:31:13.242+00:00</time>
      </trkpt>
      <trkpt lat="49.1895" lon="1.83804">
        <ele>174</ele>
        <time>2024-02-05T14:31:17.723+00:00</time>
      </trkpt>
      <trkpt lat="49.18952" lon="1.83808">
        <ele>174</ele>
        <time>2024-02-05T14:31:21.720+00:00</time>
      </trkpt>
      <trkpt lat="49.18954" lon="1.83813">
        <ele>174</ele>
        <time>2024-02-05T14:31:26.725+00:00</time>
      </trkpt>
      <trkpt lat="49.18955" lon="1.83818">
        <ele>174</ele>
        <time>2024-02-05T14:31:31.205+00:00</time>
      </trkpt>
      <trkpt lat="49.18957" lon="1.83823">
        <ele>174</ele>
        <time>2024-02-05T14:31:35.505+00:00</time>
      </trkpt>
      <trkpt lat="49.18958" lon="1.83824">
        <ele>174</ele>
        <time>2024-02-05T14:31:39.735+00:00</time>
      </trkpt>
      <trkpt lat="49.1896" lon="1.83823">
        <ele>180</ele>
        <time>2024-02-05T14:31:44.740+00:00</time>
      </trkpt>
      <trkpt lat="49.18964" lon="1.83827">
        <ele>180</ele>
        <time>2024-02-05T14:31:49.150+00:00</time>
      </trkpt>
      <trkpt lat="49.18968" lon="1.83832">
        <ele>180</ele>
        <time>2024-02-05T14:31:53.578+00:00</time>
      </trkpt>
      <trkpt lat="49.1897" lon="1.83838">
        <ele>180</ele>
        <time>2024-02-05T14:31:58.318+00:00</time>
      </trkpt>
      <trkpt lat="49.18972" lon="1.83843">
        <ele>180</ele>
        <time>2024-02-05T14:32:02.435+00:00</time>
      </trkpt>
      <trkpt lat="49.18974" lon="1.8385">
        <ele>181</ele>
        <time>2024-02-05T14:32:06.740+00:00</time>
      </trkpt>
      <trkpt lat="49.18976" lon="1.83856">
        <ele>181</ele>
        <time>2024-02-05T14:32:11.765+00:00</time>
      </trkpt>
      <trkpt lat="49.18979" lon="1.83863">
        <ele>181</ele>
        <time>2024-02-05T14:32:16.292+00:00</time>
      </trkpt>
      <trkpt lat="49.18981" lon="1.83871">
        <ele>181</ele>
        <time>2024-02-05T14:32:20.731+00:00</time>
      </trkpt>
      <trkpt lat="49.18982" lon="1.83877">
        <ele>181</ele>
        <time>2024-02-05T14:32:24.795+00:00</time>
      </trkpt>
      <trkpt lat="49.18983" lon="1.83881">
        <ele>181</ele>
        <time>2024-02-05T14:32:29.274+00:00</time>
      </trkpt>
      <trkpt lat="49.18983" lon="1.83885">
        <ele>181</ele>
        <time>2024-02-05T14:32:33.674+00:00</time>
      </trkpt>
      <trkpt lat="49.18985" lon="1.8389">
        <ele>181</ele>
        <time>2024-02-05T14:32:37.756+00:00</time>
      </trkpt>
      <trkpt lat="49.18984" lon="1.83894">
        <ele>181</ele>
        <time>2024-02-05T14:32:42.747+00:00</time>
      </trkpt>
      <trkpt lat="49.18985" lon="1.83897">
        <ele>181</ele>
        <time>2024-02-05T14:32:47.761+00:00</time>
      </trkpt>
      <trkpt lat="49.18985" lon="1.83899">
        <ele>181</ele>
        <time>2024-02-05T14:32:52.732+00:00</time>
      </trkpt>
      <trkpt lat="49.1899" lon="1.8391">
        <ele>183</ele>
        <time>2024-02-05T14:33:25.732+00:00</time>
      </trkpt>
      <trkpt lat="49.18991" lon="1.8391">
        <ele>183</ele>
        <time>2024-02-05T14:33:29.757+00:00</time>
      </trkpt>
      <trkpt lat="49.18993" lon="1.8391">
        <ele>183</ele>
        <time>2024-02-05T14:33:34.725+00:00</time>
      </trkpt>
      <trkpt lat="49.18993" lon="1.83911">
        <ele>183</ele>
        <time>2024-02-05T14:33:38.735+00:00</time>
      </trkpt>
      <trkpt lat="49.18993" lon="1.83912">
        <ele>183</ele>
        <time>2024-02-05T14:33:43.746+00:00</time>
      </trkpt>
      <trkpt lat="49.18993" lon="1.83916">
        <ele>183</ele>
        <time>2024-02-05T14:33:48.736+00:00</time>
      </trkpt>
      <trkpt lat="49.18992" lon="1.83919">
        <ele>183</ele>
        <time>2024-02-05T14:33:53.219+00:00</time>
      </trkpt>
      <trkpt lat="49.18994" lon="1.83925">
        <ele>183</ele>
        <time>2024-02-05T14:33:57.448+00:00</time>
      </trkpt>
      <trkpt lat="49.18996" lon="1.83929">
        <ele>183</ele>
        <time>2024-02-05T14:34:01.757+00:00</time>
      </trkpt>
      <trkpt lat="49.18998" lon="1.83934">
        <ele>181</ele>
        <time>2024-02-05T14:34:06.396+00:00</time>
      </trkpt>
      <trkpt lat="49.18999" lon="1.83937">
        <ele>181</ele>
        <time>2024-02-05T14:34:10.539+00:00</time>
      </trkpt>
      <trkpt lat="49.19001" lon="1.83939">
        <ele>181</ele>
        <time>2024-02-05T14:34:14.617+00:00</time>
      </trkpt>
      <trkpt lat="49.19002" lon="1.83942">
        <ele>181</ele>
        <time>2024-02-05T14:34:18.739+00:00</time>
      </trkpt>
      <trkpt lat="49.19005" lon="1.83945">
        <ele>181</ele>
        <time>2024-02-05T14:34:22.856+00:00</time>
      </trkpt>
      <trkpt lat="49.19009" lon="1.83948">
        <ele>181</ele>
        <time>2024-02-05T14:34:27.318+00:00</time>
      </trkpt>
      <trkpt lat="49.19012" lon="1.83953">
        <ele>181</ele>
        <time>2024-02-05T14:34:31.478+00:00</time>
      </trkpt>
      <trkpt lat="49.19015" lon="1.83958">
        <ele>184</ele>
        <time>2024-02-05T14:34:35.497+00:00</time>
      </trkpt>
      <trkpt lat="49.19018" lon="1.83964">
        <ele>183</ele>
        <time>2024-02-05T14:34:39.721+00:00</time>
      </trkpt>
      <trkpt lat="49.19021" lon="1.83968">
        <ele>183</ele>
        <time>2024-02-05T14:34:44.133+00:00</time>
      </trkpt>
      <trkpt lat="49.19024" lon="1.83973">
        <ele>183</ele>
        <time>2024-02-05T14:34:48.738+00:00</time>
      </trkpt>
      <trkpt lat="49.19026" lon="1.8398">
        <ele>183</ele>
        <time>2024-02-05T14:34:53.465+00:00</time>
      </trkpt>
      <trkpt lat="49.19028" lon="1.83985">
        <ele>183</ele>
        <time>2024-02-05T14:34:57.741+00:00</time>
      </trkpt>
      <trkpt lat="49.19032" lon="1.83991">
        <ele>181</ele>
        <time>2024-02-05T14:35:06.755+00:00</time>
      </trkpt>
      <trkpt lat="49.19033" lon="1.83992">
        <ele>181</ele>
        <time>2024-02-05T14:35:10.757+00:00</time>
      </trkpt>
      <trkpt lat="49.19033" lon="1.83995">
        <ele>181</ele>
        <time>2024-02-05T14:35:15.766+00:00</time>
      </trkpt>
      <trkpt lat="49.19034" lon="1.83998">
        <ele>181</ele>
        <time>2024-02-05T14:35:20.629+00:00</time>
      </trkpt>
      <trkpt lat="49.19037" lon="1.84005">
        <ele>181</ele>
        <time>2024-02-05T14:35:24.722+00:00</time>
      </trkpt>
      <trkpt lat="49.1904" lon="1.84012">
        <ele>181</ele>
        <time>2024-02-05T14:35:29.174+00:00</time>
      </trkpt>
      <trkpt lat="49.19042" lon="1.84016">
        <ele>182</ele>
        <time>2024-02-05T14:35:33.290+00:00</time>
      </trkpt>
      <trkpt lat="49.19044" lon="1.8402">
        <ele>182</ele>
        <time>2024-02-05T14:35:37.357+00:00</time>
      </trkpt>
      <trkpt lat="49.19045" lon="1.84023">
        <ele>182</ele>
        <time>2024-02-05T14:35:41.415+00:00</time>
      </trkpt>
      <trkpt lat="49.19047" lon="1.84027">
        <ele>182</ele>
        <time>2024-02-05T14:35:45.733+00:00</time>
      </trkpt>
      <trkpt lat="49.19049" lon="1.84029">
        <ele>182</ele>
        <time>2024-02-05T14:35:49.740+00:00</time>
      </trkpt>
      <trkpt lat="49.19048" lon="1.84029">
        <ele>182</ele>
        <time>2024-02-05T14:35:53.730+00:00</time>
      </trkpt>
      <trkpt lat="49.19049" lon="1.84031">
        <ele>182</ele>
        <time>2024-02-05T14:35:58.611+00:00</time>
      </trkpt>
      <trkpt lat="49.19052" lon="1.8404">
        <ele>182</ele>
        <time>2024-02-05T14:36:03.310+00:00</time>
      </trkpt>
      <trkpt lat="49.19053" lon="1.84043">
        <ele>180</ele>
        <time>2024-02-05T14:36:07.336+00:00</time>
      </trkpt>
      <trkpt lat="49.19055" lon="1.84045">
        <ele>180</ele>
        <time>2024-02-05T14:36:11.774+00:00</time>
      </trkpt>
      <trkpt lat="49.19057" lon="1.84046">
        <ele>180</ele>
        <time>2024-02-05T14:36:16.209+00:00</time>
      </trkpt>
      <trkpt lat="49.1906" lon="1.84046">
        <ele>180</ele>
        <time>2024-02-05T14:36:20.722+00:00</time>
      </trkpt>
      <trkpt lat="49.19062" lon="1.84047">
        <ele>180</ele>
        <time>2024-02-05T14:36:25.134+00:00</time>
      </trkpt>
      <trkpt lat="49.19064" lon="1.84048">
        <ele>180</ele>
        <time>2024-02-05T14:36:29.278+00:00</time>
      </trkpt>
      <trkpt lat="49.19073" lon="1.84053">
        <ele>185</ele>
        <time>2024-02-05T14:36:43.419+00:00</time>
      </trkpt>
      <trkpt lat="49.19073" lon="1.84055">
        <ele>185</ele>
        <time>2024-02-05T14:36:47.753+00:00</time>
      </trkpt>
      <trkpt lat="49.19074" lon="1.84055">
        <ele>185</ele>
        <time>2024-02-05T14:36:52.745+00:00</time>
      </trkpt>
      <trkpt lat="49.19075" lon="1.84056">
        <ele>185</ele>
        <time>2024-02-05T14:36:57.741+00:00</time>
      </trkpt>
      <trkpt lat="49.19076" lon="1.8406">
        <ele>185</ele>
        <time>2024-02-05T14:37:02.336+00:00</time>
      </trkpt>
      <trkpt lat="49.1908" lon="1.84069">
        <ele>185</ele>
        <time>2024-02-05T14:37:19.788+00:00</time>
      </trkpt>
      <trkpt lat="49.1908" lon="1.8407">
        <ele>183</ele>
        <time>2024-02-05T14:37:24.409+00:00</time>
      </trkpt>
      <trkpt lat="49.19081" lon="1.84074">
        <ele>183</ele>
        <time>2024-02-05T14:37:28.741+00:00</time>
      </trkpt>
      <trkpt lat="49.19082" lon="1.84075">
        <ele>183</ele>
        <time>2024-02-05T14:37:32.764+00:00</time>
      </trkpt>
      <trkpt lat="49.19083" lon="1.84076">
        <ele>183</ele>
        <time>2024-02-05T14:37:37.317+00:00</time>
      </trkpt>
      <trkpt lat="49.19083" lon="1.84088">
        <ele>183</ele>
        <time>2024-02-05T14:37:46.358+00:00</time>
      </trkpt>
      <trkpt lat="49.19083" lon="1.84093">
        <ele>183</ele>
        <time>2024-02-05T14:37:50.596+00:00</time>
      </trkpt>
      <trkpt lat="49.19084" lon="1.84093">
        <ele>183</ele>
        <time>2024-02-05T14:37:54.753+00:00</time>
      </trkpt>
      <trkpt lat="49.19084" lon="1.84095">
        <ele>183</ele>
        <time>2024-02-05T14:37:59.216+00:00</time>
      </trkpt>
      <trkpt lat="49.19084" lon="1.84103">
        <ele>182</ele>
        <time>2024-02-05T14:38:03.395+00:00</time>
      </trkpt>
      <trkpt lat="49.19086" lon="1.84111">
        <ele>182</ele>
        <time>2024-02-05T14:38:07.634+00:00</time>
      </trkpt>
      <trkpt lat="49.19087" lon="1.84118">
        <ele>182</ele>
        <time>2024-02-05T14:38:11.872+00:00</time>
      </trkpt>
      <trkpt lat="49.19089" lon="1.84125">
        <ele>182</ele>
        <time>2024-02-05T14:38:16.373+00:00</time>
      </trkpt>
      <trkpt lat="49.19089" lon="1.8413">
        <ele>182</ele>
        <time>2024-02-05T14:38:20.739+00:00</time>
      </trkpt>
      <trkpt lat="49.1909" lon="1.84136">
        <ele>182</ele>
        <time>2024-02-05T14:38:25.098+00:00</time>
      </trkpt>
      <trkpt lat="49.19092" lon="1.84142">
        <ele>182</ele>
        <time>2024-02-05T14:38:29.449+00:00</time>
      </trkpt>
      <trkpt lat="49.19095" lon="1.84146">
        <ele>182</ele>
        <time>2024-02-05T14:38:33.590+00:00</time>
      </trkpt>
      <trkpt lat="49.19094" lon="1.84149">
        <ele>182</ele>
        <time>2024-02-05T14:38:38.195+00:00</time>
      </trkpt>
      <trkpt lat="49.19097" lon="1.84154">
        <ele>184</ele>
        <time>2024-02-05T14:38:42.706+00:00</time>
      </trkpt>
      <trkpt lat="49.19098" lon="1.84162">
        <ele>184</ele>
        <time>2024-02-05T14:38:51.554+00:00</time>
      </trkpt>
      <trkpt lat="49.19098" lon="1.84164">
        <ele>184</ele>
        <time>2024-02-05T14:38:55.703+00:00</time>
      </trkpt>
      <trkpt lat="49.191" lon="1.84166">
        <ele>184</ele>
        <time>2024-02-05T14:39:00.163+00:00</time>
      </trkpt>
      <trkpt lat="49.19101" lon="1.84167">
        <ele>184</ele>
        <time>2024-02-05T14:39:04.594+00:00</time>
      </trkpt>
      <trkpt lat="49.19107" lon="1.84169">
        <ele>184</ele>
        <time>2024-02-05T14:39:08.702+00:00</time>
      </trkpt>
      <trkpt lat="49.1911" lon="1.84169">
        <ele>184</ele>
        <time>2024-02-05T14:39:27.260+00:00</time>
      </trkpt>
      <trkpt lat="49.19111" lon="1.84171">
        <ele>184</ele>
        <time>2024-02-05T14:39:31.731+00:00</time>
      </trkpt>
      <trkpt lat="49.19111" lon="1.8417">
        <ele>184</ele>
        <time>2024-02-05T14:39:36.430+00:00</time>
      </trkpt>
      <trkpt lat="49.19114" lon="1.84172">
        <ele>184</ele>
        <time>2024-02-05T14:39:41.446+00:00</time>
      </trkpt>
      <trkpt lat="49.19117" lon="1.84174">
        <ele>184</ele>
        <time>2024-02-05T14:39:46.290+00:00</time>
      </trkpt>
      <trkpt lat="49.19121" lon="1.84178">
        <ele>184</ele>
        <time>2024-02-05T14:39:59.209+00:00</time>
      </trkpt>
      <trkpt lat="49.19118" lon="1.84184">
        <ele>184</ele>
        <time>2024-02-05T14:40:03.712+00:00</time>
      </trkpt>
      <trkpt lat="49.19119" lon="1.84185">
        <ele>184</ele>
        <time>2024-02-05T14:40:07.704+00:00</time>
      </trkpt>
      <trkpt lat="49.1912" lon="1.84185">
        <ele>184</ele>
        <time>2024-02-05T14:40:12.473+00:00</time>
      </trkpt>
      <trkpt lat="49.19124" lon="1.84188">
        <ele>184</ele>
        <time>2024-02-05T14:40:16.716+00:00</time>
      </trkpt>
      <trkpt lat="49.19127" lon="1.84195">
        <ele>186</ele>
        <time>2024-02-05T14:40:21.718+00:00</time>
      </trkpt>
      <trkpt lat="49.19131" lon="1.84202">
        <ele>186</ele>
        <time>2024-02-05T14:40:26.704+00:00</time>
      </trkpt>
      <trkpt lat="49.19135" lon="1.84207">
        <ele>186</ele>
        <time>2024-02-05T14:40:31.398+00:00</time>
      </trkpt>
      <trkpt lat="49.19137" lon="1.84214">
        <ele>186</ele>
        <time>2024-02-05T14:40:35.674+00:00</time>
      </trkpt>
      <trkpt lat="49.19138" lon="1.84222">
        <ele>186</ele>
        <time>2024-02-05T14:40:40.109+00:00</time>
      </trkpt>
      <trkpt lat="49.19138" lon="1.84229">
        <ele>186</ele>
        <time>2024-02-05T14:40:44.389+00:00</time>
      </trkpt>
      <trkpt lat="49.19141" lon="1.84237">
        <ele>185</ele>
        <time>2024-02-05T14:40:48.723+00:00</time>
      </trkpt>
      <trkpt lat="49.19143" lon="1.84243">
        <ele>185</ele>
        <time>2024-02-05T14:40:53.110+00:00</time>
      </trkpt>
      <trkpt lat="49.19145" lon="1.84249">
        <ele>185</ele>
        <time>2024-02-05T14:40:57.287+00:00</time>
      </trkpt>
      <trkpt lat="49.19146" lon="1.84255">
        <ele>185</ele>
        <time>2024-02-05T14:41:01.554+00:00</time>
      </trkpt>
      <trkpt lat="49.19148" lon="1.84262">
        <ele>185</ele>
        <time>2024-02-05T14:41:05.929+00:00</time>
      </trkpt>
      <trkpt lat="49.19152" lon="1.84267">
        <ele>186</ele>
        <time>2024-02-05T14:41:10.192+00:00</time>
      </trkpt>
      <trkpt lat="49.19154" lon="1.84274">
        <ele>186</ele>
        <time>2024-02-05T14:41:14.355+00:00</time>
      </trkpt>
      <trkpt lat="49.19157" lon="1.84279">
        <ele>186</ele>
        <time>2024-02-05T14:41:18.468+00:00</time>
      </trkpt>
      <trkpt lat="49.19159" lon="1.84287">
        <ele>186</ele>
        <time>2024-02-05T14:41:22.728+00:00</time>
      </trkpt>
      <trkpt lat="49.19162" lon="1.84292">
        <ele>186</ele>
        <time>2024-02-05T14:41:27.010+00:00</time>
      </trkpt>
      <trkpt lat="49.19165" lon="1.84297">
        <ele>186</ele>
        <time>2024-02-05T14:41:31.329+00:00</time>
      </trkpt>
      <trkpt lat="49.19167" lon="1.84301">
        <ele>186</ele>
        <time>2024-02-05T14:41:35.667+00:00</time>
      </trkpt>
      <trkpt lat="49.19169" lon="1.84307">
        <ele>186</ele>
        <time>2024-02-05T14:41:40.534+00:00</time>
      </trkpt>
      <trkpt lat="49.1917" lon="1.84315">
        <ele>186</ele>
        <time>2024-02-05T14:41:44.740+00:00</time>
      </trkpt>
      <trkpt lat="49.19176" lon="1.84334">
        <ele>185</ele>
        <time>2024-02-05T14:42:12.716+00:00</time>
      </trkpt>
      <trkpt lat="49.19176" lon="1.84334">
        <ele>185</ele>
        <time>2024-02-05T14:42:16.750+00:00</time>
      </trkpt>
      <trkpt lat="49.19177" lon="1.84335">
        <ele>185</ele>
        <time>2024-02-05T14:42:21.336+00:00</time>
      </trkpt>
      <trkpt lat="49.19177" lon="1.84336">
        <ele>185</ele>
        <time>2024-02-05T14:42:25.704+00:00</time>
      </trkpt>
      <trkpt lat="49.19171" lon="1.84347">
        <ele>185</ele>
        <time>2024-02-05T14:42:30.369+00:00</time>
      </trkpt>
      <trkpt lat="49.19169" lon="1.8436">
        <ele>185</ele>
        <time>2024-02-05T14:42:35.207+00:00</time>
      </trkpt>
      <trkpt lat="49.19166" lon="1.84371">
        <ele>185</ele>
        <time>2024-02-05T14:42:39.735+00:00</time>
      </trkpt>
      <trkpt lat="49.19163" lon="1.84381">
        <ele>183</ele>
        <time>2024-02-05T14:42:44.512+00:00</time>
      </trkpt>
      <trkpt lat="49.1916" lon="1.84391">
        <ele>183</ele>
        <time>2024-02-05T14:42:48.888+00:00</time>
      </trkpt>
      <trkpt lat="49.19157" lon="1.844">
        <ele>183</ele>
        <time>2024-02-05T14:42:53.595+00:00</time>
      </trkpt>
      <trkpt lat="49.19157" lon="1.84402">
        <ele>183</ele>
        <time>2024-02-05T14:42:57.733+00:00</time>
      </trkpt>
      <trkpt lat="49.19153" lon="1.84412">
        <ele>181</ele>
        <time>2024-02-05T14:43:02.154+00:00</time>
      </trkpt>
      <trkpt lat="49.19155" lon="1.84422">
        <ele>181</ele>
        <time>2024-02-05T14:43:06.172+00:00</time>
      </trkpt>
      <trkpt lat="49.19155" lon="1.84429">
        <ele>181</ele>
        <time>2024-02-05T14:43:10.702+00:00</time>
      </trkpt>
      <trkpt lat="49.19154" lon="1.8443">
        <ele>181</ele>
        <time>2024-02-05T14:43:15.710+00:00</time>
      </trkpt>
      <trkpt lat="49.19148" lon="1.84432">
        <ele>180</ele>
        <time>2024-02-05T14:43:20.617+00:00</time>
      </trkpt>
      <trkpt lat="49.19143" lon="1.84442">
        <ele>180</ele>
        <time>2024-02-05T14:43:25.069+00:00</time>
      </trkpt>
      <trkpt lat="49.19139" lon="1.8445">
        <ele>180</ele>
        <time>2024-02-05T14:43:29.701+00:00</time>
      </trkpt>
      <trkpt lat="49.1914" lon="1.8445">
        <ele>180</ele>
        <time>2024-02-05T14:43:34.198+00:00</time>
      </trkpt>
      <trkpt lat="49.1914" lon="1.8445">
        <ele>180</ele>
        <time>2024-02-05T14:43:38.217+00:00</time>
      </trkpt>
      <trkpt lat="49.19141" lon="1.84455">
        <ele>180</ele>
        <time>2024-02-05T14:43:42.717+00:00</time>
      </trkpt>
      <trkpt lat="49.19146" lon="1.84464">
        <ele>179</ele>
        <time>2024-02-05T14:43:47.208+00:00</time>
      </trkpt>
      <trkpt lat="49.19147" lon="1.84466">
        <ele>179</ele>
        <time>2024-02-05T14:43:51.723+00:00</time>
      </trkpt>
      <trkpt lat="49.19148" lon="1.84463">
        <ele>179</ele>
        <time>2024-02-05T14:43:56.514+00:00</time>
      </trkpt>
      <trkpt lat="49.19146" lon="1.84455">
        <ele>180</ele>
        <time>2024-02-05T14:44:00.612+00:00</time>
      </trkpt>
      <trkpt lat="49.19143" lon="1.84452">
        <ele>180</ele>
        <time>2024-02-05T14:44:04.700+00:00</time>
      </trkpt>
      <trkpt lat="49.19131" lon="1.84447">
        <ele>180</ele>
        <time>2024-02-05T14:44:58.718+00:00</time>
      </trkpt>
      <trkpt lat="49.19131" lon="1.84448">
        <ele>180</ele>
        <time>2024-02-05T14:45:03.237+00:00</time>
      </trkpt>
      <trkpt lat="49.1913" lon="1.84449">
        <ele>180</ele>
        <time>2024-02-05T14:45:07.705+00:00</time>
      </trkpt>
      <trkpt lat="49.19126" lon="1.84444">
        <ele>180</ele>
        <time>2024-02-05T14:45:12.613+00:00</time>
      </trkpt>
      <trkpt lat="49.1912" lon="1.84445">
        <ele>178</ele>
        <time>2024-02-05T14:45:16.958+00:00</time>
      </trkpt>
      <trkpt lat="49.19123" lon="1.84451">
        <ele>178</ele>
        <time>2024-02-05T14:45:21.193+00:00</time>
      </trkpt>
      <trkpt lat="49.19126" lon="1.84462">
        <ele>179</ele>
        <time>2024-02-05T14:45:25.707+00:00</time>
      </trkpt>
      <trkpt lat="49.19132" lon="1.8447">
        <ele>179</ele>
        <time>2024-02-05T14:45:30.717+00:00</time>
      </trkpt>
      <trkpt lat="49.19135" lon="1.84474">
        <ele>179</ele>
        <time>2024-02-05T14:45:35.235+00:00</time>
      </trkpt>
      <trkpt lat="49.19139" lon="1.84472">
        <ele>179</ele>
        <time>2024-02-05T14:45:39.712+00:00</time>
      </trkpt>
      <trkpt lat="49.19141" lon="1.84475">
        <ele>179</ele>
        <time>2024-02-05T14:45:44.029+00:00</time>
      </trkpt>
      <trkpt lat="49.19147" lon="1.84477">
        <ele>179</ele>
        <time>2024-02-05T14:45:48.168+00:00</time>
      </trkpt>
      <trkpt lat="49.19152" lon="1.84478">
        <ele>179</ele>
        <time>2024-02-05T14:45:52.416+00:00</time>
      </trkpt>
      <trkpt lat="49.19157" lon="1.8448">
        <ele>179</ele>
        <time>2024-02-05T14:45:56.652+00:00</time>
      </trkpt>
      <trkpt lat="49.19162" lon="1.84484">
        <ele>179</ele>
        <time>2024-02-05T14:46:00.897+00:00</time>
      </trkpt>
      <trkpt lat="49.19167" lon="1.84487">
        <ele>178</ele>
        <time>2024-02-05T14:46:05.152+00:00</time>
      </trkpt>
      <trkpt lat="49.19172" lon="1.84489">
        <ele>178</ele>
        <time>2024-02-05T14:46:09.628+00:00</time>
      </trkpt>
      <trkpt lat="49.19176" lon="1.84491">
        <ele>178</ele>
        <time>2024-02-05T14:46:13.718+00:00</time>
      </trkpt>
      <trkpt lat="49.19182" lon="1.84494">
        <ele>178</ele>
        <time>2024-02-05T14:46:18.337+00:00</time>
      </trkpt>
      <trkpt lat="49.19186" lon="1.84497">
        <ele>178</ele>
        <time>2024-02-05T14:46:22.477+00:00</time>
      </trkpt>
      <trkpt lat="49.19191" lon="1.84499">
        <ele>178</ele>
        <time>2024-02-05T14:46:26.590+00:00</time>
      </trkpt>
      <trkpt lat="49.19195" lon="1.84501">
        <ele>178</ele>
        <time>2024-02-05T14:46:30.930+00:00</time>
      </trkpt>
      <trkpt lat="49.19199" lon="1.84504">
        <ele>178</ele>
        <time>2024-02-05T14:46:35.633+00:00</time>
      </trkpt>
      <trkpt lat="49.19203" lon="1.84507">
        <ele>178</ele>
        <time>2024-02-05T14:46:40.037+00:00</time>
      </trkpt>
      <trkpt lat="49.19207" lon="1.84506">
        <ele>178</ele>
        <time>2024-02-05T14:46:44.702+00:00</time>
      </trkpt>
      <trkpt lat="49.19206" lon="1.84511">
        <ele>178</ele>
        <time>2024-02-05T14:47:11.277+00:00</time>
      </trkpt>
      <trkpt lat="49.19207" lon="1.8452">
        <ele>177</ele>
        <time>2024-02-05T14:47:15.710+00:00</time>
      </trkpt>
      <trkpt lat="49.19202" lon="1.8453">
        <ele>177</ele>
        <time>2024-02-05T14:47:20.718+00:00</time>
      </trkpt>
      <trkpt lat="49.19196" lon="1.84538">
        <ele>177</ele>
        <time>2024-02-05T14:47:25.516+00:00</time>
      </trkpt>
      <trkpt lat="49.19195" lon="1.84545">
        <ele>176</ele>
        <time>2024-02-05T14:47:29.710+00:00</time>
      </trkpt>
      <trkpt lat="49.19192" lon="1.84549">
        <ele>176</ele>
        <time>2024-02-05T14:47:34.331+00:00</time>
      </trkpt>
      <trkpt lat="49.19194" lon="1.84557">
        <ele>176</ele>
        <time>2024-02-05T14:47:38.437+00:00</time>
      </trkpt>
      <trkpt lat="49.19193" lon="1.84564">
        <ele>176</ele>
        <time>2024-02-05T14:47:42.630+00:00</time>
      </trkpt>
      <trkpt lat="49.19191" lon="1.84573">
        <ele>174</ele>
        <time>2024-02-05T14:47:46.998+00:00</time>
      </trkpt>
      <trkpt lat="49.19189" lon="1.8458">
        <ele>174</ele>
        <time>2024-02-05T14:47:51.494+00:00</time>
      </trkpt>
      <trkpt lat="49.19187" lon="1.84587">
        <ele>174</ele>
        <time>2024-02-05T14:47:55.875+00:00</time>
      </trkpt>
      <trkpt lat="49.19185" lon="1.84592">
        <ele>174</ele>
        <time>2024-02-05T14:47:59.913+00:00</time>
      </trkpt>
      <trkpt lat="49.19184" lon="1.84598">
        <ele>171</ele>
        <time>2024-02-05T14:48:04.032+00:00</time>
      </trkpt>
      <trkpt lat="49.19184" lon="1.84605">
        <ele>171</ele>
        <time>2024-02-05T14:48:08.180+00:00</time>
      </trkpt>
      <trkpt lat="49.19182" lon="1.84613">
        <ele>171</ele>
        <time>2024-02-05T14:48:12.731+00:00</time>
      </trkpt>
      <trkpt lat="49.1918" lon="1.84621">
        <ele>170</ele>
        <time>2024-02-05T14:48:17.291+00:00</time>
      </trkpt>
      <trkpt lat="49.19179" lon="1.84627">
        <ele>169</ele>
        <time>2024-02-05T14:48:21.395+00:00</time>
      </trkpt>
      <trkpt lat="49.19177" lon="1.84633">
        <ele>169</ele>
        <time>2024-02-05T14:48:25.459+00:00</time>
      </trkpt>
      <trkpt lat="49.19176" lon="1.84641">
        <ele>169</ele>
        <time>2024-02-05T14:48:30.126+00:00</time>
      </trkpt>
      <trkpt lat="49.19174" lon="1.84649">
        <ele>169</ele>
        <time>2024-02-05T14:48:34.751+00:00</time>
      </trkpt>
      <trkpt lat="49.19172" lon="1.84659">
        <ele>167</ele>
        <time>2024-02-05T14:48:39.354+00:00</time>
      </trkpt>
      <trkpt lat="49.1917" lon="1.84667">
        <ele>167</ele>
        <time>2024-02-05T14:48:43.910+00:00</time>
      </trkpt>
      <trkpt lat="49.19167" lon="1.84674">
        <ele>167</ele>
        <time>2024-02-05T14:48:48.457+00:00</time>
      </trkpt>
      <trkpt lat="49.19165" lon="1.8468">
        <ele>167</ele>
        <time>2024-02-05T14:48:52.465+00:00</time>
      </trkpt>
      <trkpt lat="49.19164" lon="1.84687">
        <ele>166</ele>
        <time>2024-02-05T14:48:56.572+00:00</time>
      </trkpt>
      <trkpt lat="49.19164" lon="1.84694">
        <ele>166</ele>
        <time>2024-02-05T14:49:00.612+00:00</time>
      </trkpt>
      <trkpt lat="49.19162" lon="1.84702">
        <ele>166</ele>
        <time>2024-02-05T14:49:04.712+00:00</time>
      </trkpt>
      <trkpt lat="49.1916" lon="1.8471">
        <ele>165</ele>
        <time>2024-02-05T14:49:09.236+00:00</time>
      </trkpt>
      <trkpt lat="49.1916" lon="1.84716">
        <ele>165</ele>
        <time>2024-02-05T14:49:13.219+00:00</time>
      </trkpt>
      <trkpt lat="49.19159" lon="1.84723">
        <ele>165</ele>
        <time>2024-02-05T14:49:17.489+00:00</time>
      </trkpt>
      <trkpt lat="49.19158" lon="1.84732">
        <ele>165</ele>
        <time>2024-02-05T14:49:21.749+00:00</time>
      </trkpt>
      <trkpt lat="49.19157" lon="1.84742">
        <ele>164</ele>
        <time>2024-02-05T14:49:26.293+00:00</time>
      </trkpt>
      <trkpt lat="49.19154" lon="1.84748">
        <ele>164</ele>
        <time>2024-02-05T14:49:30.355+00:00</time>
      </trkpt>
      <trkpt lat="49.19152" lon="1.84754">
        <ele>163</ele>
        <time>2024-02-05T14:49:34.458+00:00</time>
      </trkpt>
      <trkpt lat="49.19149" lon="1.84758">
        <ele>163</ele>
        <time>2024-02-05T14:49:38.715+00:00</time>
      </trkpt>
      <trkpt lat="49.19148" lon="1.84766">
        <ele>162</ele>
        <time>2024-02-05T14:49:42.973+00:00</time>
      </trkpt>
      <trkpt lat="49.19147" lon="1.84774">
        <ele>162</ele>
        <time>2024-02-05T14:49:47.034+00:00</time>
      </trkpt>
      <trkpt lat="49.19146" lon="1.84783">
        <ele>162</ele>
        <time>2024-02-05T14:49:51.749+00:00</time>
      </trkpt>
      <trkpt lat="49.19143" lon="1.8479">
        <ele>162</ele>
        <time>2024-02-05T14:49:56.095+00:00</time>
      </trkpt>
      <trkpt lat="49.19142" lon="1.84797">
        <ele>161</ele>
        <time>2024-02-05T14:50:00.671+00:00</time>
      </trkpt>
      <trkpt lat="49.19141" lon="1.84806">
        <ele>161</ele>
        <time>2024-02-05T14:50:05.233+00:00</time>
      </trkpt>
      <trkpt lat="49.1914" lon="1.84814">
        <ele>161</ele>
        <time>2024-02-05T14:50:09.372+00:00</time>
      </trkpt>
      <trkpt lat="49.19137" lon="1.84822">
        <ele>160</ele>
        <time>2024-02-05T14:50:13.831+00:00</time>
      </trkpt>
      <trkpt lat="49.19133" lon="1.8483">
        <ele>160</ele>
        <time>2024-02-05T14:50:18.371+00:00</time>
      </trkpt>
      <trkpt lat="49.19131" lon="1.84837">
        <ele>160</ele>
        <time>2024-02-05T14:50:22.418+00:00</time>
      </trkpt>
      <trkpt lat="49.19129" lon="1.84844">
        <ele>160</ele>
        <time>2024-02-05T14:50:26.750+00:00</time>
      </trkpt>
      <trkpt lat="49.19127" lon="1.84852">
        <ele>161</ele>
        <time>2024-02-05T14:50:31.074+00:00</time>
      </trkpt>
      <trkpt lat="49.19126" lon="1.84859">
        <ele>161</ele>
        <time>2024-02-05T14:50:35.176+00:00</time>
      </trkpt>
      <trkpt lat="49.19124" lon="1.84867">
        <ele>159</ele>
        <time>2024-02-05T14:50:39.768+00:00</time>
      </trkpt>
      <trkpt lat="49.19123" lon="1.84874">
        <ele>159</ele>
        <time>2024-02-05T14:50:44.179+00:00</time>
      </trkpt>
      <trkpt lat="49.19122" lon="1.84881">
        <ele>160</ele>
        <time>2024-02-05T14:50:48.309+00:00</time>
      </trkpt>
      <trkpt lat="49.1912" lon="1.84889">
        <ele>160</ele>
        <time>2024-02-05T14:50:52.612+00:00</time>
      </trkpt>
      <trkpt lat="49.19117" lon="1.84897">
        <ele>160</ele>
        <time>2024-02-05T14:50:57.291+00:00</time>
      </trkpt>
      <trkpt lat="49.19114" lon="1.84904">
        <ele>159</ele>
        <time>2024-02-05T14:51:01.359+00:00</time>
      </trkpt>
      <trkpt lat="49.19113" lon="1.84911">
        <ele>159</ele>
        <time>2024-02-05T14:51:06.178+00:00</time>
      </trkpt>
      <trkpt lat="49.19111" lon="1.84915">
        <ele>159</ele>
        <time>2024-02-05T14:51:10.195+00:00</time>
      </trkpt>
      <trkpt lat="49.1911" lon="1.84921">
        <ele>159</ele>
        <time>2024-02-05T14:51:14.635+00:00</time>
      </trkpt>
      <trkpt lat="49.19108" lon="1.84927">
        <ele>159</ele>
        <time>2024-02-05T14:51:18.672+00:00</time>
      </trkpt>
      <trkpt lat="49.19105" lon="1.84933">
        <ele>158</ele>
        <time>2024-02-05T14:51:22.727+00:00</time>
      </trkpt>
      <trkpt lat="49.19102" lon="1.8494">
        <ele>158</ele>
        <time>2024-02-05T14:51:27.309+00:00</time>
      </trkpt>
      <trkpt lat="49.191" lon="1.84948">
        <ele>158</ele>
        <time>2024-02-05T14:51:31.747+00:00</time>
      </trkpt>
      <trkpt lat="49.19097" lon="1.84956">
        <ele>155</ele>
        <time>2024-02-05T14:51:36.766+00:00</time>
      </trkpt>
      <trkpt lat="49.19093" lon="1.84961">
        <ele>154</ele>
        <time>2024-02-05T14:51:41.112+00:00</time>
      </trkpt>
      <trkpt lat="49.19089" lon="1.84966">
        <ele>154</ele>
        <time>2024-02-05T14:51:45.597+00:00</time>
      </trkpt>
      <trkpt lat="49.19086" lon="1.84972">
        <ele>154</ele>
        <time>2024-02-05T14:51:50.016+00:00</time>
      </trkpt>
      <trkpt lat="49.19083" lon="1.84977">
        <ele>154</ele>
        <time>2024-02-05T14:51:54.512+00:00</time>
      </trkpt>
      <trkpt lat="49.19079" lon="1.84983">
        <ele>154</ele>
        <time>2024-02-05T14:51:58.898+00:00</time>
      </trkpt>
      <trkpt lat="49.19073" lon="1.84989">
        <ele>153</ele>
        <time>2024-02-05T14:52:03.377+00:00</time>
      </trkpt>
      <trkpt lat="49.19069" lon="1.84996">
        <ele>151</ele>
        <time>2024-02-05T14:52:07.392+00:00</time>
      </trkpt>
      <trkpt lat="49.19064" lon="1.84999">
        <ele>151</ele>
        <time>2024-02-05T14:52:11.740+00:00</time>
      </trkpt>
      <trkpt lat="49.1906" lon="1.85004">
        <ele>151</ele>
        <time>2024-02-05T14:52:16.250+00:00</time>
      </trkpt>
      <trkpt lat="49.19054" lon="1.8501">
        <ele>151</ele>
        <time>2024-02-05T14:52:20.894+00:00</time>
      </trkpt>
      <trkpt lat="49.19049" lon="1.85015">
        <ele>151</ele>
        <time>2024-02-05T14:52:25.271+00:00</time>
      </trkpt>
      <trkpt lat="49.19045" lon="1.8502">
        <ele>151</ele>
        <time>2024-02-05T14:52:29.379+00:00</time>
      </trkpt>
      <trkpt lat="49.19039" lon="1.85026">
        <ele>149</ele>
        <time>2024-02-05T14:52:33.739+00:00</time>
      </trkpt>
      <trkpt lat="49.19034" lon="1.85029">
        <ele>149</ele>
        <time>2024-02-05T14:52:38.193+00:00</time>
      </trkpt>
      <trkpt lat="49.1903" lon="1.85034">
        <ele>149</ele>
        <time>2024-02-05T14:52:42.639+00:00</time>
      </trkpt>
      <trkpt lat="49.19025" lon="1.85038">
        <ele>149</ele>
        <time>2024-02-05T14:52:47.130+00:00</time>
      </trkpt>
      <trkpt lat="49.19018" lon="1.85045">
        <ele>149</ele>
        <time>2024-02-05T14:52:51.707+00:00</time>
      </trkpt>
      <trkpt lat="49.19015" lon="1.85048">
        <ele>149</ele>
        <time>2024-02-05T14:52:55.740+00:00</time>
      </trkpt>
      <trkpt lat="49.1901" lon="1.85052">
        <ele>147</ele>
        <time>2024-02-05T14:53:00.551+00:00</time>
      </trkpt>
      <trkpt lat="49.19007" lon="1.85055">
        <ele>147</ele>
        <time>2024-02-05T14:53:04.725+00:00</time>
      </trkpt>
      <trkpt lat="49.19002" lon="1.85062">
        <ele>147</ele>
        <time>2024-02-05T14:53:08.955+00:00</time>
      </trkpt>
      <trkpt lat="49.18998" lon="1.85066">
        <ele>147</ele>
        <time>2024-02-05T14:53:13.015+00:00</time>
      </trkpt>
      <trkpt lat="49.18993" lon="1.85071">
        <ele>147</ele>
        <time>2024-02-05T14:53:17.534+00:00</time>
      </trkpt>
      <trkpt lat="49.18988" lon="1.85076">
        <ele>147</ele>
        <time>2024-02-05T14:53:22.037+00:00</time>
      </trkpt>
      <trkpt lat="49.18983" lon="1.85081">
        <ele>146</ele>
        <time>2024-02-05T14:53:26.533+00:00</time>
      </trkpt>
      <trkpt lat="49.18978" lon="1.85086">
        <ele>146</ele>
        <time>2024-02-05T14:53:31.009+00:00</time>
      </trkpt>
      <trkpt lat="49.18973" lon="1.85089">
        <ele>146</ele>
        <time>2024-02-05T14:53:35.533+00:00</time>
      </trkpt>
      <trkpt lat="49.18969" lon="1.85094">
        <ele>146</ele>
        <time>2024-02-05T14:53:39.797+00:00</time>
      </trkpt>
      <trkpt lat="49.18965" lon="1.85098">
        <ele>146</ele>
        <time>2024-02-05T14:53:43.875+00:00</time>
      </trkpt>
      <trkpt lat="49.1896" lon="1.85102">
        <ele>146</ele>
        <time>2024-02-05T14:53:48.309+00:00</time>
      </trkpt>
      <trkpt lat="49.18955" lon="1.85107">
        <ele>146</ele>
        <time>2024-02-05T14:53:52.739+00:00</time>
      </trkpt>
      <trkpt lat="49.18951" lon="1.85112">
        <ele>146</ele>
        <time>2024-02-05T14:53:56.743+00:00</time>
      </trkpt>
      <trkpt lat="49.18947" lon="1.85115">
        <ele>146</ele>
        <time>2024-02-05T14:54:01.118+00:00</time>
      </trkpt>
      <trkpt lat="49.18942" lon="1.85118">
        <ele>146</ele>
        <time>2024-02-05T14:54:05.658+00:00</time>
      </trkpt>
      <trkpt lat="49.18937" lon="1.85124">
        <ele>146</ele>
        <time>2024-02-05T14:54:10.453+00:00</time>
      </trkpt>
      <trkpt lat="49.18932" lon="1.85131">
        <ele>146</ele>
        <time>2024-02-05T14:54:14.574+00:00</time>
      </trkpt>
      <trkpt lat="49.18928" lon="1.85136">
        <ele>145</ele>
        <time>2024-02-05T14:54:19.177+00:00</time>
      </trkpt>
      <trkpt lat="49.18922" lon="1.85141">
        <ele>145</ele>
        <time>2024-02-05T14:54:23.619+00:00</time>
      </trkpt>
      <trkpt lat="49.18918" lon="1.85144">
        <ele>145</ele>
        <time>2024-02-05T14:54:27.744+00:00</time>
      </trkpt>
      <trkpt lat="49.18913" lon="1.8515">
        <ele>145</ele>
        <time>2024-02-05T14:54:32.571+00:00</time>
      </trkpt>
      <trkpt lat="49.18908" lon="1.85154">
        <ele>145</ele>
        <time>2024-02-05T14:54:37.054+00:00</time>
      </trkpt>
      <trkpt lat="49.18904" lon="1.85157">
        <ele>145</ele>
        <time>2024-02-05T14:54:41.659+00:00</time>
      </trkpt>
      <trkpt lat="49.189" lon="1.85162">
        <ele>143</ele>
        <time>2024-02-05T14:54:46.217+00:00</time>
      </trkpt>
      <trkpt lat="49.18895" lon="1.85168">
        <ele>143</ele>
        <time>2024-02-05T14:54:50.413+00:00</time>
      </trkpt>
      <trkpt lat="49.18889" lon="1.85173">
        <ele>143</ele>
        <time>2024-02-05T14:54:55.736+00:00</time>
      </trkpt>
      <trkpt lat="49.18886" lon="1.85178">
        <ele>143</ele>
        <time>2024-02-05T14:55:00.242+00:00</time>
      </trkpt>
      <trkpt lat="49.18881" lon="1.85185">
        <ele>142</ele>
        <time>2024-02-05T14:55:04.742+00:00</time>
      </trkpt>
      <trkpt lat="49.18876" lon="1.8519">
        <ele>142</ele>
        <time>2024-02-05T14:55:09.313+00:00</time>
      </trkpt>
      <trkpt lat="49.18872" lon="1.85194">
        <ele>142</ele>
        <time>2024-02-05T14:55:13.379+00:00</time>
      </trkpt>
      <trkpt lat="49.18866" lon="1.85198">
        <ele>142</ele>
        <time>2024-02-05T14:55:17.730+00:00</time>
      </trkpt>
      <trkpt lat="49.1886" lon="1.85204">
        <ele>142</ele>
        <time>2024-02-05T14:55:22.235+00:00</time>
      </trkpt>
      <trkpt lat="49.18855" lon="1.85208">
        <ele>142</ele>
        <time>2024-02-05T14:55:26.728+00:00</time>
      </trkpt>
      <trkpt lat="49.1885" lon="1.85212">
        <ele>141</ele>
        <time>2024-02-05T14:55:30.727+00:00</time>
      </trkpt>
      <trkpt lat="49.18847" lon="1.85214">
        <ele>141</ele>
        <time>2024-02-05T14:55:34.879+00:00</time>
      </trkpt>
      <trkpt lat="49.18841" lon="1.85217">
        <ele>141</ele>
        <time>2024-02-05T14:55:39.450+00:00</time>
      </trkpt>
      <trkpt lat="49.18837" lon="1.85222">
        <ele>141</ele>
        <time>2024-02-05T14:55:43.480+00:00</time>
      </trkpt>
      <trkpt lat="49.18834" lon="1.85228">
        <ele>141</ele>
        <time>2024-02-05T14:55:47.537+00:00</time>
      </trkpt>
      <trkpt lat="49.18829" lon="1.8523">
        <ele>141</ele>
        <time>2024-02-05T14:55:51.749+00:00</time>
      </trkpt>
      <trkpt lat="49.18824" lon="1.85233">
        <ele>141</ele>
        <time>2024-02-05T14:55:56.194+00:00</time>
      </trkpt>
      <trkpt lat="49.18819" lon="1.85237">
        <ele>139</ele>
        <time>2024-02-05T14:56:00.721+00:00</time>
      </trkpt>
      <trkpt lat="49.18815" lon="1.85242">
        <ele>139</ele>
        <time>2024-02-05T14:56:05.195+00:00</time>
      </trkpt>
      <trkpt lat="49.18809" lon="1.85245">
        <ele>139</ele>
        <time>2024-02-05T14:56:09.231+00:00</time>
      </trkpt>
      <trkpt lat="49.18805" lon="1.85248">
        <ele>139</ele>
        <time>2024-02-05T14:56:13.258+00:00</time>
      </trkpt>
      <trkpt lat="49.188" lon="1.85252">
        <ele>139</ele>
        <time>2024-02-05T14:56:17.750+00:00</time>
      </trkpt>
      <trkpt lat="49.18796" lon="1.85256">
        <ele>139</ele>
        <time>2024-02-05T14:56:22.270+00:00</time>
      </trkpt>
      <trkpt lat="49.18792" lon="1.85261">
        <ele>139</ele>
        <time>2024-02-05T14:56:26.485+00:00</time>
      </trkpt>
      <trkpt lat="49.18787" lon="1.85267">
        <ele>138</ele>
        <time>2024-02-05T14:56:31.096+00:00</time>
      </trkpt>
      <trkpt lat="49.18782" lon="1.8527">
        <ele>138</ele>
        <time>2024-02-05T14:56:35.413+00:00</time>
      </trkpt>
      <trkpt lat="49.18778" lon="1.85273">
        <ele>138</ele>
        <time>2024-02-05T14:56:39.540+00:00</time>
      </trkpt>
      <trkpt lat="49.18774" lon="1.85276">
        <ele>138</ele>
        <time>2024-02-05T14:56:43.579+00:00</time>
      </trkpt>
      <trkpt lat="49.18769" lon="1.8528">
        <ele>138</ele>
        <time>2024-02-05T14:56:48.015+00:00</time>
      </trkpt>
      <trkpt lat="49.18765" lon="1.85283">
        <ele>138</ele>
        <time>2024-02-05T14:56:52.213+00:00</time>
      </trkpt>
      <trkpt lat="49.18761" lon="1.85283">
        <ele>137</ele>
        <time>2024-02-05T14:56:56.759+00:00</time>
      </trkpt>
      <trkpt lat="49.18757" lon="1.85287">
        <ele>137</ele>
        <time>2024-02-05T14:57:01.236+00:00</time>
      </trkpt>
      <trkpt lat="49.18752" lon="1.85292">
        <ele>137</ele>
        <time>2024-02-05T14:57:05.729+00:00</time>
      </trkpt>
      <trkpt lat="49.18747" lon="1.85297">
        <ele>137</ele>
        <time>2024-02-05T14:57:10.030+00:00</time>
      </trkpt>
      <trkpt lat="49.18743" lon="1.85302">
        <ele>137</ele>
        <time>2024-02-05T14:57:14.139+00:00</time>
      </trkpt>
      <trkpt lat="49.18739" lon="1.85306">
        <ele>137</ele>
        <time>2024-02-05T14:57:18.156+00:00</time>
      </trkpt>
      <trkpt lat="49.18735" lon="1.85308">
        <ele>137</ele>
        <time>2024-02-05T14:57:22.552+00:00</time>
      </trkpt>
      <trkpt lat="49.18731" lon="1.85311">
        <ele>137</ele>
        <time>2024-02-05T14:57:26.752+00:00</time>
      </trkpt>
      <trkpt lat="49.18728" lon="1.85315">
        <ele>137</ele>
        <time>2024-02-05T14:57:31.055+00:00</time>
      </trkpt>
      <trkpt lat="49.18722" lon="1.85318">
        <ele>137</ele>
        <time>2024-02-05T14:57:35.714+00:00</time>
      </trkpt>
      <trkpt lat="49.18719" lon="1.85321">
        <ele>137</ele>
        <time>2024-02-05T14:57:39.759+00:00</time>
      </trkpt>
      <trkpt lat="49.18714" lon="1.85324">
        <ele>137</ele>
        <time>2024-02-05T14:57:43.752+00:00</time>
      </trkpt>
      <trkpt lat="49.18709" lon="1.85328">
        <ele>137</ele>
        <time>2024-02-05T14:57:48.482+00:00</time>
      </trkpt>
      <trkpt lat="49.18704" lon="1.85332">
        <ele>137</ele>
        <time>2024-02-05T14:57:52.728+00:00</time>
      </trkpt>
      <trkpt lat="49.187" lon="1.85335">
        <ele>137</ele>
        <time>2024-02-05T14:57:56.977+00:00</time>
      </trkpt>
      <trkpt lat="49.18694" lon="1.8534">
        <ele>137</ele>
        <time>2024-02-05T14:58:01.572+00:00</time>
      </trkpt>
      <trkpt lat="49.1869" lon="1.85344">
        <ele>137</ele>
        <time>2024-02-05T14:58:05.737+00:00</time>
      </trkpt>
      <trkpt lat="49.18685" lon="1.85348">
        <ele>137</ele>
        <time>2024-02-05T14:58:10.740+00:00</time>
      </trkpt>
      <trkpt lat="49.18681" lon="1.85349">
        <ele>137</ele>
        <time>2024-02-05T14:58:15.371+00:00</time>
      </trkpt>
      <trkpt lat="49.18681" lon="1.85349">
        <ele>137</ele>
        <time>2024-02-05T14:58:34.289+00:00</time>
      </trkpt>
      <trkpt lat="49.18678" lon="1.85355">
        <ele>137</ele>
        <time>2024-02-05T14:58:38.755+00:00</time>
      </trkpt>
      <trkpt lat="49.18675" lon="1.85362">
        <ele>137</ele>
        <time>2024-02-05T14:58:43.237+00:00</time>
      </trkpt>
      <trkpt lat="49.1867" lon="1.85368">
        <ele>137</ele>
        <time>2024-02-05T14:58:47.789+00:00</time>
      </trkpt>
      <trkpt lat="49.18667" lon="1.85373">
        <ele>137</ele>
        <time>2024-02-05T14:58:52.598+00:00</time>
      </trkpt>
      <trkpt lat="49.18662" lon="1.85379">
        <ele>137</ele>
        <time>2024-02-05T14:58:57.634+00:00</time>
      </trkpt>
      <trkpt lat="49.18658" lon="1.85382">
        <ele>137</ele>
        <time>2024-02-05T14:59:01.713+00:00</time>
      </trkpt>
      <trkpt lat="49.18653" lon="1.85388">
        <ele>137</ele>
        <time>2024-02-05T14:59:06.356+00:00</time>
      </trkpt>
      <trkpt lat="49.18649" lon="1.85393">
        <ele>139</ele>
        <time>2024-02-05T14:59:10.754+00:00</time>
      </trkpt>
      <trkpt lat="49.18646" lon="1.85399">
        <ele>139</ele>
        <time>2024-02-05T14:59:14.767+00:00</time>
      </trkpt>
      <trkpt lat="49.18642" lon="1.85404">
        <ele>140</ele>
        <time>2024-02-05T14:59:19.451+00:00</time>
      </trkpt>
      <trkpt lat="49.18637" lon="1.85407">
        <ele>140</ele>
        <time>2024-02-05T14:59:23.562+00:00</time>
      </trkpt>
      <trkpt lat="49.18633" lon="1.85411">
        <ele>140</ele>
        <time>2024-02-05T14:59:27.746+00:00</time>
      </trkpt>
      <trkpt lat="49.18629" lon="1.85417">
        <ele>140</ele>
        <time>2024-02-05T14:59:31.746+00:00</time>
      </trkpt>
      <trkpt lat="49.18625" lon="1.8542">
        <ele>140</ele>
        <time>2024-02-05T14:59:36.354+00:00</time>
      </trkpt>
      <trkpt lat="49.18621" lon="1.85426">
        <ele>141</ele>
        <time>2024-02-05T14:59:40.570+00:00</time>
      </trkpt>
      <trkpt lat="49.18617" lon="1.85432">
        <ele>141</ele>
        <time>2024-02-05T14:59:44.615+00:00</time>
      </trkpt>
      <trkpt lat="49.18614" lon="1.85438">
        <ele>141</ele>
        <time>2024-02-05T14:59:48.737+00:00</time>
      </trkpt>
      <trkpt lat="49.1861" lon="1.85443">
        <ele>141</ele>
        <time>2024-02-05T14:59:53.037+00:00</time>
      </trkpt>
      <trkpt lat="49.18607" lon="1.85447">
        <ele>141</ele>
        <time>2024-02-05T14:59:57.593+00:00</time>
      </trkpt>
      <trkpt lat="49.18604" lon="1.85451">
        <ele>141</ele>
        <time>2024-02-05T15:00:01.858+00:00</time>
      </trkpt>
      <trkpt lat="49.18601" lon="1.85454">
        <ele>141</ele>
        <time>2024-02-05T15:00:06.393+00:00</time>
      </trkpt>
      <trkpt lat="49.18597" lon="1.85458">
        <ele>142</ele>
        <time>2024-02-05T15:00:10.738+00:00</time>
      </trkpt>
      <trkpt lat="49.18595" lon="1.85462">
        <ele>142</ele>
        <time>2024-02-05T15:00:14.792+00:00</time>
      </trkpt>
      <trkpt lat="49.1859" lon="1.85464">
        <ele>142</ele>
        <time>2024-02-05T15:00:19.766+00:00</time>
      </trkpt>
      <trkpt lat="49.18584" lon="1.85464">
        <ele>142</ele>
        <time>2024-02-05T15:00:24.744+00:00</time>
      </trkpt>
      <trkpt lat="49.1858" lon="1.85468">
        <ele>142</ele>
        <time>2024-02-05T15:00:29.333+00:00</time>
      </trkpt>
      <trkpt lat="49.18576" lon="1.85474">
        <ele>142</ele>
        <time>2024-02-05T15:00:33.478+00:00</time>
      </trkpt>
      <trkpt lat="49.18572" lon="1.85478">
        <ele>142</ele>
        <time>2024-02-05T15:00:37.756+00:00</time>
      </trkpt>
      <trkpt lat="49.18568" lon="1.85483">
        <ele>143</ele>
        <time>2024-02-05T15:00:42.575+00:00</time>
      </trkpt>
      <trkpt lat="49.18564" lon="1.85486">
        <ele>140</ele>
        <time>2024-02-05T15:00:46.752+00:00</time>
      </trkpt>
      <trkpt lat="49.18562" lon="1.85492">
        <ele>140</ele>
        <time>2024-02-05T15:00:50.979+00:00</time>
      </trkpt>
      <trkpt lat="49.18559" lon="1.85495">
        <ele>140</ele>
        <time>2024-02-05T15:00:55.254+00:00</time>
      </trkpt>
      <trkpt lat="49.18557" lon="1.85501">
        <ele>140</ele>
        <time>2024-02-05T15:00:59.519+00:00</time>
      </trkpt>
      <trkpt lat="49.18552" lon="1.85505">
        <ele>140</ele>
        <time>2024-02-05T15:01:03.730+00:00</time>
      </trkpt>
      <trkpt lat="49.18547" lon="1.8551">
        <ele>140</ele>
        <time>2024-02-05T15:01:08.292+00:00</time>
      </trkpt>
      <trkpt lat="49.18542" lon="1.85516">
        <ele>139</ele>
        <time>2024-02-05T15:01:12.766+00:00</time>
      </trkpt>
      <trkpt lat="49.18537" lon="1.85522">
        <ele>140</ele>
        <time>2024-02-05T15:01:17.356+00:00</time>
      </trkpt>
      <trkpt lat="49.18533" lon="1.85529">
        <ele>140</ele>
        <time>2024-02-05T15:01:21.780+00:00</time>
      </trkpt>
      <trkpt lat="49.18529" lon="1.85537">
        <ele>140</ele>
        <time>2024-02-05T15:01:26.397+00:00</time>
      </trkpt>
      <trkpt lat="49.18526" lon="1.85544">
        <ele>139</ele>
        <time>2024-02-05T15:01:30.738+00:00</time>
      </trkpt>
      <trkpt lat="49.18522" lon="1.8555">
        <ele>139</ele>
        <time>2024-02-05T15:01:34.839+00:00</time>
      </trkpt>
      <trkpt lat="49.1852" lon="1.85553">
        <ele>139</ele>
        <time>2024-02-05T15:01:39.414+00:00</time>
      </trkpt>
      <trkpt lat="49.18518" lon="1.85554">
        <ele>139</ele>
        <time>2024-02-05T15:01:43.765+00:00</time>
      </trkpt>
      <trkpt lat="49.18514" lon="1.85562">
        <ele>140</ele>
        <time>2024-02-05T15:01:48.133+00:00</time>
      </trkpt>
      <trkpt lat="49.18509" lon="1.85567">
        <ele>140</ele>
        <time>2024-02-05T15:01:52.169+00:00</time>
      </trkpt>
      <trkpt lat="49.18504" lon="1.85571">
        <ele>140</ele>
        <time>2024-02-05T15:01:56.567+00:00</time>
      </trkpt>
      <trkpt lat="49.185" lon="1.85577">
        <ele>140</ele>
        <time>2024-02-05T15:02:00.689+00:00</time>
      </trkpt>
      <trkpt lat="49.18496" lon="1.85585">
        <ele>140</ele>
        <time>2024-02-05T15:02:05.043+00:00</time>
      </trkpt>
      <trkpt lat="49.18492" lon="1.85591">
        <ele>140</ele>
        <time>2024-02-05T15:02:09.524+00:00</time>
      </trkpt>
      <trkpt lat="49.18486" lon="1.85595">
        <ele>141</ele>
        <time>2024-02-05T15:02:14.752+00:00</time>
      </trkpt>
      <trkpt lat="49.18483" lon="1.85601">
        <ele>140</ele>
        <time>2024-02-05T15:02:19.307+00:00</time>
      </trkpt>
      <trkpt lat="49.18481" lon="1.85606">
        <ele>140</ele>
        <time>2024-02-05T15:02:24.704+00:00</time>
      </trkpt>
      <trkpt lat="49.1848" lon="1.85608">
        <ele>140</ele>
        <time>2024-02-05T15:02:29.705+00:00</time>
      </trkpt>
      <trkpt lat="49.18478" lon="1.85608">
        <ele>140</ele>
        <time>2024-02-05T15:02:34.367+00:00</time>
      </trkpt>
      <trkpt lat="49.18472" lon="1.85603">
        <ele>140</ele>
        <time>2024-02-05T15:02:38.607+00:00</time>
      </trkpt>
      <trkpt lat="49.18468" lon="1.856">
        <ele>140</ele>
        <time>2024-02-05T15:02:42.670+00:00</time>
      </trkpt>
      <trkpt lat="49.18465" lon="1.85598">
        <ele>140</ele>
        <time>2024-02-05T15:02:46.683+00:00</time>
      </trkpt>
      <trkpt lat="49.18462" lon="1.85597">
        <ele>141</ele>
        <time>2024-02-05T15:02:50.702+00:00</time>
      </trkpt>
      <trkpt lat="49.18458" lon="1.85595">
        <ele>143</ele>
        <time>2024-02-05T15:02:55.124+00:00</time>
      </trkpt>
      <trkpt lat="49.18455" lon="1.85591">
        <ele>143</ele>
        <time>2024-02-05T15:02:59.628+00:00</time>
      </trkpt>
      <trkpt lat="49.1845" lon="1.85591">
        <ele>143</ele>
        <time>2024-02-05T15:03:04.714+00:00</time>
      </trkpt>
      <trkpt lat="49.18446" lon="1.85589">
        <ele>143</ele>
        <time>2024-02-05T15:03:08.706+00:00</time>
      </trkpt>
      <trkpt lat="49.18442" lon="1.85591">
        <ele>143</ele>
        <time>2024-02-05T15:03:13.101+00:00</time>
      </trkpt>
      <trkpt lat="49.18439" lon="1.85597">
        <ele>143</ele>
        <time>2024-02-05T15:03:17.229+00:00</time>
      </trkpt>
      <trkpt lat="49.18437" lon="1.85603">
        <ele>142</ele>
        <time>2024-02-05T15:03:21.322+00:00</time>
      </trkpt>
      <trkpt lat="49.18434" lon="1.85608">
        <ele>142</ele>
        <time>2024-02-05T15:03:25.684+00:00</time>
      </trkpt>
      <trkpt lat="49.18429" lon="1.85609">
        <ele>143</ele>
        <time>2024-02-05T15:03:30.610+00:00</time>
      </trkpt>
      <trkpt lat="49.18427" lon="1.85617">
        <ele>143</ele>
        <time>2024-02-05T15:03:34.709+00:00</time>
      </trkpt>
      <trkpt lat="49.18426" lon="1.85624">
        <ele>143</ele>
        <time>2024-02-05T15:03:39.244+00:00</time>
      </trkpt>
      <trkpt lat="49.18426" lon="1.85632">
        <ele>143</ele>
        <time>2024-02-05T15:03:43.365+00:00</time>
      </trkpt>
      <trkpt lat="49.18427" lon="1.85638">
        <ele>143</ele>
        <time>2024-02-05T15:03:47.664+00:00</time>
      </trkpt>
      <trkpt lat="49.18428" lon="1.85642">
        <ele>143</ele>
        <time>2024-02-05T15:03:51.715+00:00</time>
      </trkpt>
      <trkpt lat="49.18427" lon="1.85651">
        <ele>143</ele>
        <time>2024-02-05T15:03:55.924+00:00</time>
      </trkpt>
      <trkpt lat="49.18425" lon="1.85659">
        <ele>143</ele>
        <time>2024-02-05T15:04:00.263+00:00</time>
      </trkpt>
      <trkpt lat="49.18425" lon="1.85667">
        <ele>143</ele>
        <time>2024-02-05T15:04:04.343+00:00</time>
      </trkpt>
      <trkpt lat="49.18424" lon="1.85673">
        <ele>143</ele>
        <time>2024-02-05T15:04:08.713+00:00</time>
      </trkpt>
      <trkpt lat="49.18423" lon="1.85679">
        <ele>143</ele>
        <time>2024-02-05T15:04:13.321+00:00</time>
      </trkpt>
      <trkpt lat="49.1842" lon="1.85684">
        <ele>144</ele>
        <time>2024-02-05T15:04:17.708+00:00</time>
      </trkpt>
      <trkpt lat="49.18417" lon="1.8569">
        <ele>144</ele>
        <time>2024-02-05T15:04:22.703+00:00</time>
      </trkpt>
      <trkpt lat="49.18417" lon="1.85691">
        <ele>144</ele>
        <time>2024-02-05T15:04:27.709+00:00</time>
      </trkpt>
      <trkpt lat="49.18416" lon="1.85706">
        <ele>144</ele>
        <time>2024-02-05T15:04:32.712+00:00</time>
      </trkpt>
      <trkpt lat="49.18419" lon="1.85713">
        <ele>145</ele>
        <time>2024-02-05T15:04:36.941+00:00</time>
      </trkpt>
      <trkpt lat="49.18419" lon="1.8572">
        <ele>145</ele>
        <time>2024-02-05T15:04:41.719+00:00</time>
      </trkpt>
      <trkpt lat="49.18421" lon="1.85725">
        <ele>145</ele>
        <time>2024-02-05T15:04:46.149+00:00</time>
      </trkpt>
      <trkpt lat="49.18423" lon="1.85731">
        <ele>145</ele>
        <time>2024-02-05T15:04:50.682+00:00</time>
      </trkpt>
      <trkpt lat="49.18428" lon="1.85735">
        <ele>145</ele>
        <time>2024-02-05T15:04:55.718+00:00</time>
      </trkpt>
      <trkpt lat="49.1843" lon="1.8574">
        <ele>145</ele>
        <time>2024-02-05T15:05:00.425+00:00</time>
      </trkpt>
      <trkpt lat="49.18429" lon="1.8575">
        <ele>145</ele>
        <time>2024-02-05T15:05:05.220+00:00</time>
      </trkpt>
      <trkpt lat="49.18431" lon="1.85738">
        <ele>144</ele>
        <time>2024-02-05T15:06:00.707+00:00</time>
      </trkpt>
      <trkpt lat="49.18427" lon="1.85737">
        <ele>145</ele>
        <time>2024-02-05T15:06:04.910+00:00</time>
      </trkpt>
      <trkpt lat="49.1842" lon="1.85735">
        <ele>145</ele>
        <time>2024-02-05T15:06:09.522+00:00</time>
      </trkpt>
      <trkpt lat="49.18418" lon="1.8573">
        <ele>145</ele>
        <time>2024-02-05T15:06:13.735+00:00</time>
      </trkpt>
      <trkpt lat="49.18415" lon="1.85726">
        <ele>145</ele>
        <time>2024-02-05T15:06:18.248+00:00</time>
      </trkpt>
      <trkpt lat="49.18412" lon="1.85721">
        <ele>145</ele>
        <time>2024-02-05T15:06:22.326+00:00</time>
      </trkpt>
      <trkpt lat="49.18409" lon="1.85718">
        <ele>145</ele>
        <time>2024-02-05T15:06:26.735+00:00</time>
      </trkpt>
      <trkpt lat="49.18404" lon="1.85714">
        <ele>145</ele>
        <time>2024-02-05T15:06:31.733+00:00</time>
      </trkpt>
      <trkpt lat="49.184" lon="1.8571">
        <ele>144</ele>
        <time>2024-02-05T15:06:36.567+00:00</time>
      </trkpt>
      <trkpt lat="49.18395" lon="1.85708">
        <ele>144</ele>
        <time>2024-02-05T15:06:41.262+00:00</time>
      </trkpt>
      <trkpt lat="49.1839" lon="1.85706">
        <ele>144</ele>
        <time>2024-02-05T15:06:45.742+00:00</time>
      </trkpt>
      <trkpt lat="49.18387" lon="1.85706">
        <ele>144</ele>
        <time>2024-02-05T15:06:49.744+00:00</time>
      </trkpt>
      <trkpt lat="49.18382" lon="1.85706">
        <ele>144</ele>
        <time>2024-02-05T15:06:54.067+00:00</time>
      </trkpt>
      <trkpt lat="49.18379" lon="1.85711">
        <ele>144</ele>
        <time>2024-02-05T15:06:58.469+00:00</time>
      </trkpt>
      <trkpt lat="49.18376" lon="1.85716">
        <ele>144</ele>
        <time>2024-02-05T15:07:02.731+00:00</time>
      </trkpt>
      <trkpt lat="49.18373" lon="1.85714">
        <ele>144</ele>
        <time>2024-02-05T15:07:06.827+00:00</time>
      </trkpt>
      <trkpt lat="49.1837" lon="1.85713">
        <ele>144</ele>
        <time>2024-02-05T15:07:11.436+00:00</time>
      </trkpt>
      <trkpt lat="49.18365" lon="1.85712">
        <ele>144</ele>
        <time>2024-02-05T15:07:16.451+00:00</time>
      </trkpt>
      <trkpt lat="49.18359" lon="1.85712">
        <ele>144</ele>
        <time>2024-02-05T15:07:20.739+00:00</time>
      </trkpt>
      <trkpt lat="49.18355" lon="1.85712">
        <ele>144</ele>
        <time>2024-02-05T15:07:25.407+00:00</time>
      </trkpt>
      <trkpt lat="49.18349" lon="1.85712">
        <ele>144</ele>
        <time>2024-02-05T15:07:29.544+00:00</time>
      </trkpt>
      <trkpt lat="49.18344" lon="1.85711">
        <ele>144</ele>
        <time>2024-02-05T15:07:34.290+00:00</time>
      </trkpt>
      <trkpt lat="49.18339" lon="1.85712">
        <ele>144</ele>
        <time>2024-02-05T15:07:38.739+00:00</time>
      </trkpt>
      <trkpt lat="49.18334" lon="1.85711">
        <ele>144</ele>
        <time>2024-02-05T15:07:43.732+00:00</time>
      </trkpt>
      <trkpt lat="49.1833" lon="1.8571">
        <ele>144</ele>
        <time>2024-02-05T15:07:47.746+00:00</time>
      </trkpt>
      <trkpt lat="49.18326" lon="1.85712">
        <ele>144</ele>
        <time>2024-02-05T15:07:52.201+00:00</time>
      </trkpt>
      <trkpt lat="49.18322" lon="1.85713">
        <ele>144</ele>
        <time>2024-02-05T15:07:56.507+00:00</time>
      </trkpt>
      <trkpt lat="49.18318" lon="1.85712">
        <ele>145</ele>
        <time>2024-02-05T15:08:01.021+00:00</time>
      </trkpt>
      <trkpt lat="49.18313" lon="1.85716">
        <ele>145</ele>
        <time>2024-02-05T15:08:05.109+00:00</time>
      </trkpt>
      <trkpt lat="49.18308" lon="1.85719">
        <ele>145</ele>
        <time>2024-02-05T15:08:09.168+00:00</time>
      </trkpt>
      <trkpt lat="49.18304" lon="1.85722">
        <ele>145</ele>
        <time>2024-02-05T15:08:13.260+00:00</time>
      </trkpt>
      <trkpt lat="49.18299" lon="1.85724">
        <ele>145</ele>
        <time>2024-02-05T15:08:17.307+00:00</time>
      </trkpt>
      <trkpt lat="49.18294" lon="1.85725">
        <ele>145</ele>
        <time>2024-02-05T15:08:21.670+00:00</time>
      </trkpt>
      <trkpt lat="49.18285" lon="1.85727">
        <ele>144</ele>
        <time>2024-02-05T15:08:25.713+00:00</time>
      </trkpt>
      <trkpt lat="49.18285" lon="1.85727">
        <ele>144</ele>
        <time>2024-02-05T15:08:30.228+00:00</time>
      </trkpt>
      <trkpt lat="49.18279" lon="1.85733">
        <ele>144</ele>
        <time>2024-02-05T15:08:34.264+00:00</time>
      </trkpt>
      <trkpt lat="49.18273" lon="1.85733">
        <ele>144</ele>
        <time>2024-02-05T15:08:38.563+00:00</time>
      </trkpt>
      <trkpt lat="49.18267" lon="1.85737">
        <ele>144</ele>
        <time>2024-02-05T15:08:43.726+00:00</time>
      </trkpt>
      <trkpt lat="49.18262" lon="1.8574">
        <ele>142</ele>
        <time>2024-02-05T15:08:48.301+00:00</time>
      </trkpt>
      <trkpt lat="49.18257" lon="1.85743">
        <ele>142</ele>
        <time>2024-02-05T15:08:52.724+00:00</time>
      </trkpt>
      <trkpt lat="49.18252" lon="1.85745">
        <ele>142</ele>
        <time>2024-02-05T15:08:57.150+00:00</time>
      </trkpt>
      <trkpt lat="49.18246" lon="1.85748">
        <ele>142</ele>
        <time>2024-02-05T15:09:01.741+00:00</time>
      </trkpt>
      <trkpt lat="49.18241" lon="1.8575">
        <ele>142</ele>
        <time>2024-02-05T15:09:06.342+00:00</time>
      </trkpt>
      <trkpt lat="49.18234" lon="1.85752">
        <ele>139</ele>
        <time>2024-02-05T15:09:10.710+00:00</time>
      </trkpt>
      <trkpt lat="49.18229" lon="1.85755">
        <ele>139</ele>
        <time>2024-02-05T15:09:15.024+00:00</time>
      </trkpt>
      <trkpt lat="49.18223" lon="1.85758">
        <ele>139</ele>
        <time>2024-02-05T15:09:19.468+00:00</time>
      </trkpt>
      <trkpt lat="49.18217" lon="1.85759">
        <ele>139</ele>
        <time>2024-02-05T15:09:23.550+00:00</time>
      </trkpt>
      <trkpt lat="49.18211" lon="1.85761">
        <ele>139</ele>
        <time>2024-02-05T15:09:28.062+00:00</time>
      </trkpt>
      <trkpt lat="49.18205" lon="1.85763">
        <ele>137</ele>
        <time>2024-02-05T15:09:32.735+00:00</time>
      </trkpt>
      <trkpt lat="49.18199" lon="1.85764">
        <ele>137</ele>
        <time>2024-02-05T15:09:36.765+00:00</time>
      </trkpt>
      <trkpt lat="49.18194" lon="1.85764">
        <ele>138</ele>
        <time>2024-02-05T15:09:41.407+00:00</time>
      </trkpt>
      <trkpt lat="49.1819" lon="1.85769">
        <ele>138</ele>
        <time>2024-02-05T15:09:45.299+00:00</time>
      </trkpt>
      <trkpt lat="49.18185" lon="1.85772">
        <ele>138</ele>
        <time>2024-02-05T15:09:49.622+00:00</time>
      </trkpt>
      <trkpt lat="49.18179" lon="1.85774">
        <ele>137</ele>
        <time>2024-02-05T15:09:54.687+00:00</time>
      </trkpt>
      <trkpt lat="49.18173" lon="1.85776">
        <ele>137</ele>
        <time>2024-02-05T15:09:59.148+00:00</time>
      </trkpt>
      <trkpt lat="49.18168" lon="1.85777">
        <ele>137</ele>
        <time>2024-02-05T15:10:03.562+00:00</time>
      </trkpt>
      <trkpt lat="49.18164" lon="1.85778">
        <ele>137</ele>
        <time>2024-02-05T15:10:07.644+00:00</time>
      </trkpt>
      <trkpt lat="49.18159" lon="1.8578">
        <ele>137</ele>
        <time>2024-02-05T15:10:12.244+00:00</time>
      </trkpt>
      <trkpt lat="49.18155" lon="1.85781">
        <ele>137</ele>
        <time>2024-02-05T15:10:16.384+00:00</time>
      </trkpt>
      <trkpt lat="49.1815" lon="1.85782">
        <ele>137</ele>
        <time>2024-02-05T15:10:20.686+00:00</time>
      </trkpt>
      <trkpt lat="49.18145" lon="1.85786">
        <ele>137</ele>
        <time>2024-02-05T15:10:24.707+00:00</time>
      </trkpt>
      <trkpt lat="49.18141" lon="1.85788">
        <ele>137</ele>
        <time>2024-02-05T15:10:28.725+00:00</time>
      </trkpt>
      <trkpt lat="49.18134" lon="1.85786">
        <ele>137</ele>
        <time>2024-02-05T15:10:33.450+00:00</time>
      </trkpt>
      <trkpt lat="49.18131" lon="1.85783">
        <ele>137</ele>
        <time>2024-02-05T15:10:38.083+00:00</time>
      </trkpt>
      <trkpt lat="49.18129" lon="1.85774">
        <ele>137</ele>
        <time>2024-02-05T15:10:42.383+00:00</time>
      </trkpt>
      <trkpt lat="49.18125" lon="1.85768">
        <ele>137</ele>
        <time>2024-02-05T15:12:17.183+00:00</time>
      </trkpt>
      <trkpt lat="49.18125" lon="1.85773">
        <ele>137</ele>
        <time>2024-02-05T15:12:21.580+00:00</time>
      </trkpt>
      <trkpt lat="49.18127" lon="1.85778">
        <ele>137</ele>
        <time>2024-02-05T15:12:25.724+00:00</time>
      </trkpt>
      <trkpt lat="49.18129" lon="1.85784">
        <ele>137</ele>
        <time>2024-02-05T15:12:29.728+00:00</time>
      </trkpt>
      <trkpt lat="49.18129" lon="1.85786">
        <ele>137</ele>
        <time>2024-02-05T15:12:33.721+00:00</time>
      </trkpt>
      <trkpt lat="49.18131" lon="1.85786">
        <ele>137</ele>
        <time>2024-02-05T15:12:42.715+00:00</time>
      </trkpt>
      <trkpt lat="49.18131" lon="1.85787">
        <ele>137</ele>
        <time>2024-02-05T15:12:46.737+00:00</time>
      </trkpt>
      <trkpt lat="49.18131" lon="1.85789">
        <ele>137</ele>
        <time>2024-02-05T15:12:51.581+00:00</time>
      </trkpt>
      <trkpt lat="49.1813" lon="1.85795">
        <ele>138</ele>
        <time>2024-02-05T15:12:55.748+00:00</time>
      </trkpt>
      <trkpt lat="49.18126" lon="1.85797">
        <ele>138</ele>
        <time>2024-02-05T15:13:00.130+00:00</time>
      </trkpt>
      <trkpt lat="49.18122" lon="1.858">
        <ele>139</ele>
        <time>2024-02-05T15:13:04.483+00:00</time>
      </trkpt>
      <trkpt lat="49.18118" lon="1.85802">
        <ele>139</ele>
        <time>2024-02-05T15:13:08.703+00:00</time>
      </trkpt>
      <trkpt lat="49.18115" lon="1.85804">
        <ele>139</ele>
        <time>2024-02-05T15:13:12.749+00:00</time>
      </trkpt>
      <trkpt lat="49.18111" lon="1.85806">
        <ele>139</ele>
        <time>2024-02-05T15:13:16.949+00:00</time>
      </trkpt>
      <trkpt lat="49.18105" lon="1.85809">
        <ele>139</ele>
        <time>2024-02-05T15:13:21.129+00:00</time>
      </trkpt>
      <trkpt lat="49.18102" lon="1.85811">
        <ele>139</ele>
        <time>2024-02-05T15:13:25.226+00:00</time>
      </trkpt>
      <trkpt lat="49.18097" lon="1.85813">
        <ele>139</ele>
        <time>2024-02-05T15:13:29.424+00:00</time>
      </trkpt>
      <trkpt lat="49.18092" lon="1.85816">
        <ele>139</ele>
        <time>2024-02-05T15:13:33.664+00:00</time>
      </trkpt>
      <trkpt lat="49.18089" lon="1.85818">
        <ele>139</ele>
        <time>2024-02-05T15:13:37.715+00:00</time>
      </trkpt>
      <trkpt lat="49.18086" lon="1.85821">
        <ele>138</ele>
        <time>2024-02-05T15:13:42.321+00:00</time>
      </trkpt>
      <trkpt lat="49.18083" lon="1.85825">
        <ele>138</ele>
        <time>2024-02-05T15:13:46.752+00:00</time>
      </trkpt>
      <trkpt lat="49.18079" lon="1.8583">
        <ele>138</ele>
        <time>2024-02-05T15:13:51.210+00:00</time>
      </trkpt>
      <trkpt lat="49.18075" lon="1.85836">
        <ele>138</ele>
        <time>2024-02-05T15:13:55.547+00:00</time>
      </trkpt>
      <trkpt lat="49.18071" lon="1.85842">
        <ele>138</ele>
        <time>2024-02-05T15:14:00.185+00:00</time>
      </trkpt>
      <trkpt lat="49.18069" lon="1.85849">
        <ele>136</ele>
        <time>2024-02-05T15:14:04.672+00:00</time>
      </trkpt>
      <trkpt lat="49.18069" lon="1.85855">
        <ele>136</ele>
        <time>2024-02-05T15:14:08.757+00:00</time>
      </trkpt>
      <trkpt lat="49.18069" lon="1.85862">
        <ele>136</ele>
        <time>2024-02-05T15:14:13.529+00:00</time>
      </trkpt>
      <trkpt lat="49.1807" lon="1.85867">
        <ele>137</ele>
        <time>2024-02-05T15:14:17.581+00:00</time>
      </trkpt>
      <trkpt lat="49.18071" lon="1.85873">
        <ele>137</ele>
        <time>2024-02-05T15:14:22.030+00:00</time>
      </trkpt>
      <trkpt lat="49.18073" lon="1.85879">
        <ele>136</ele>
        <time>2024-02-05T15:14:26.244+00:00</time>
      </trkpt>
      <trkpt lat="49.18075" lon="1.85885">
        <ele>136</ele>
        <time>2024-02-05T15:14:30.738+00:00</time>
      </trkpt>
      <trkpt lat="49.18077" lon="1.8589">
        <ele>136</ele>
        <time>2024-02-05T15:14:35.090+00:00</time>
      </trkpt>
      <trkpt lat="49.18077" lon="1.85893">
        <ele>136</ele>
        <time>2024-02-05T15:14:39.683+00:00</time>
      </trkpt>
      <trkpt lat="49.18082" lon="1.85899">
        <ele>136</ele>
        <time>2024-02-05T15:14:44.131+00:00</time>
      </trkpt>
      <trkpt lat="49.18086" lon="1.85907">
        <ele>135</ele>
        <time>2024-02-05T15:14:48.288+00:00</time>
      </trkpt>
      <trkpt lat="49.18089" lon="1.85912">
        <ele>135</ele>
        <time>2024-02-05T15:14:52.761+00:00</time>
      </trkpt>
      <trkpt lat="49.18093" lon="1.85917">
        <ele>135</ele>
        <time>2024-02-05T15:14:57.460+00:00</time>
      </trkpt>
      <trkpt lat="49.18097" lon="1.85922">
        <ele>135</ele>
        <time>2024-02-05T15:15:01.542+00:00</time>
      </trkpt>
      <trkpt lat="49.181" lon="1.85928">
        <ele>136</ele>
        <time>2024-02-05T15:15:05.743+00:00</time>
      </trkpt>
      <trkpt lat="49.18103" lon="1.85933">
        <ele>135</ele>
        <time>2024-02-05T15:15:10.286+00:00</time>
      </trkpt>
      <trkpt lat="49.18106" lon="1.85938">
        <ele>135</ele>
        <time>2024-02-05T15:15:14.723+00:00</time>
      </trkpt>
      <trkpt lat="49.1811" lon="1.85942">
        <ele>135</ele>
        <time>2024-02-05T15:15:19.349+00:00</time>
      </trkpt>
      <trkpt lat="49.18114" lon="1.85945">
        <ele>135</ele>
        <time>2024-02-05T15:15:23.707+00:00</time>
      </trkpt>
      <trkpt lat="49.18117" lon="1.85946">
        <ele>135</ele>
        <time>2024-02-05T15:15:27.718+00:00</time>
      </trkpt>
      <trkpt lat="49.1812" lon="1.85952">
        <ele>135</ele>
        <time>2024-02-05T15:15:32.162+00:00</time>
      </trkpt>
      <trkpt lat="49.18123" lon="1.85957">
        <ele>135</ele>
        <time>2024-02-05T15:15:36.465+00:00</time>
      </trkpt>
      <trkpt lat="49.18125" lon="1.85962">
        <ele>135</ele>
        <time>2024-02-05T15:15:40.741+00:00</time>
      </trkpt>
      <trkpt lat="49.18129" lon="1.85966">
        <ele>135</ele>
        <time>2024-02-05T15:15:45.287+00:00</time>
      </trkpt>
      <trkpt lat="49.18134" lon="1.85969">
        <ele>135</ele>
        <time>2024-02-05T15:15:49.527+00:00</time>
      </trkpt>
      <trkpt lat="49.18138" lon="1.85975">
        <ele>135</ele>
        <time>2024-02-05T15:15:53.708+00:00</time>
      </trkpt>
      <trkpt lat="49.18141" lon="1.85979">
        <ele>135</ele>
        <time>2024-02-05T15:15:57.967+00:00</time>
      </trkpt>
      <trkpt lat="49.18145" lon="1.85984">
        <ele>135</ele>
        <time>2024-02-05T15:16:02.168+00:00</time>
      </trkpt>
      <trkpt lat="49.18148" lon="1.85989">
        <ele>134</ele>
        <time>2024-02-05T15:16:06.187+00:00</time>
      </trkpt>
      <trkpt lat="49.18151" lon="1.85994">
        <ele>134</ele>
        <time>2024-02-05T15:16:10.568+00:00</time>
      </trkpt>
      <trkpt lat="49.18155" lon="1.85999">
        <ele>135</ele>
        <time>2024-02-05T15:16:14.756+00:00</time>
      </trkpt>
      <trkpt lat="49.1816" lon="1.86004">
        <ele>135</ele>
        <time>2024-02-05T15:16:19.647+00:00</time>
      </trkpt>
      <trkpt lat="49.18164" lon="1.86009">
        <ele>135</ele>
        <time>2024-02-05T15:16:23.752+00:00</time>
      </trkpt>
      <trkpt lat="49.18166" lon="1.86013">
        <ele>135</ele>
        <time>2024-02-05T15:16:28.087+00:00</time>
      </trkpt>
      <trkpt lat="49.1817" lon="1.86018">
        <ele>134</ele>
        <time>2024-02-05T15:16:32.407+00:00</time>
      </trkpt>
      <trkpt lat="49.18173" lon="1.86021">
        <ele>134</ele>
        <time>2024-02-05T15:16:36.845+00:00</time>
      </trkpt>
      <trkpt lat="49.18177" lon="1.86026">
        <ele>134</ele>
        <time>2024-02-05T15:16:41.287+00:00</time>
      </trkpt>
      <trkpt lat="49.1818" lon="1.86031">
        <ele>134</ele>
        <time>2024-02-05T15:16:45.464+00:00</time>
      </trkpt>
      <trkpt lat="49.18184" lon="1.86035">
        <ele>136</ele>
        <time>2024-02-05T15:16:49.736+00:00</time>
      </trkpt>
      <trkpt lat="49.18187" lon="1.86041">
        <ele>136</ele>
        <time>2024-02-05T15:16:54.164+00:00</time>
      </trkpt>
      <trkpt lat="49.18191" lon="1.86046">
        <ele>134</ele>
        <time>2024-02-05T15:16:58.742+00:00</time>
      </trkpt>
      <trkpt lat="49.18195" lon="1.86048">
        <ele>134</ele>
        <time>2024-02-05T15:17:02.752+00:00</time>
      </trkpt>
      <trkpt lat="49.18199" lon="1.86053">
        <ele>134</ele>
        <time>2024-02-05T15:17:07.424+00:00</time>
      </trkpt>
      <trkpt lat="49.18203" lon="1.86058">
        <ele>134</ele>
        <time>2024-02-05T15:17:11.589+00:00</time>
      </trkpt>
      <trkpt lat="49.18206" lon="1.86062">
        <ele>134</ele>
        <time>2024-02-05T15:17:15.746+00:00</time>
      </trkpt>
      <trkpt lat="49.1821" lon="1.86067">
        <ele>135</ele>
        <time>2024-02-05T15:17:20.408+00:00</time>
      </trkpt>
      <trkpt lat="49.18214" lon="1.86072">
        <ele>133</ele>
        <time>2024-02-05T15:17:24.569+00:00</time>
      </trkpt>
      <trkpt lat="49.18218" lon="1.86077">
        <ele>133</ele>
        <time>2024-02-05T15:17:28.745+00:00</time>
      </trkpt>
      <trkpt lat="49.18221" lon="1.86081">
        <ele>133</ele>
        <time>2024-02-05T15:17:33.028+00:00</time>
      </trkpt>
      <trkpt lat="49.18225" lon="1.86086">
        <ele>133</ele>
        <time>2024-02-05T15:17:37.186+00:00</time>
      </trkpt>
      <trkpt lat="49.18228" lon="1.86091">
        <ele>133</ele>
        <time>2024-02-05T15:17:41.404+00:00</time>
      </trkpt>
      <trkpt lat="49.18231" lon="1.86097">
        <ele>131</ele>
        <time>2024-02-05T15:17:45.423+00:00</time>
      </trkpt>
      <trkpt lat="49.18235" lon="1.86102">
        <ele>131</ele>
        <time>2024-02-05T15:17:49.743+00:00</time>
      </trkpt>
      <trkpt lat="49.1824" lon="1.86107">
        <ele>131</ele>
        <time>2024-02-05T15:17:54.350+00:00</time>
      </trkpt>
      <trkpt lat="49.18245" lon="1.86111">
        <ele>131</ele>
        <time>2024-02-05T15:17:58.459+00:00</time>
      </trkpt>
      <trkpt lat="49.18249" lon="1.86116">
        <ele>131</ele>
        <time>2024-02-05T15:18:02.747+00:00</time>
      </trkpt>
      <trkpt lat="49.18253" lon="1.86121">
        <ele>131</ele>
        <time>2024-02-05T15:18:07.069+00:00</time>
      </trkpt>
      <trkpt lat="49.18257" lon="1.86126">
        <ele>130</ele>
        <time>2024-02-05T15:18:11.266+00:00</time>
      </trkpt>
      <trkpt lat="49.18261" lon="1.86131">
        <ele>130</ele>
        <time>2024-02-05T15:18:15.646+00:00</time>
      </trkpt>
      <trkpt lat="49.18265" lon="1.86136">
        <ele>131</ele>
        <time>2024-02-05T15:18:19.981+00:00</time>
      </trkpt>
      <trkpt lat="49.18269" lon="1.86141">
        <ele>131</ele>
        <time>2024-02-05T15:18:24.269+00:00</time>
      </trkpt>
      <trkpt lat="49.18273" lon="1.86146">
        <ele>131</ele>
        <time>2024-02-05T15:18:28.733+00:00</time>
      </trkpt>
      <trkpt lat="49.18278" lon="1.86151">
        <ele>131</ele>
        <time>2024-02-05T15:18:33.225+00:00</time>
      </trkpt>
      <trkpt lat="49.18282" lon="1.86156">
        <ele>130</ele>
        <time>2024-02-05T15:18:37.301+00:00</time>
      </trkpt>
      <trkpt lat="49.18285" lon="1.8616">
        <ele>130</ele>
        <time>2024-02-05T15:18:41.349+00:00</time>
      </trkpt>
      <trkpt lat="49.18289" lon="1.86165">
        <ele>130</ele>
        <time>2024-02-05T15:18:45.583+00:00</time>
      </trkpt>
      <trkpt lat="49.18293" lon="1.8617">
        <ele>130</ele>
        <time>2024-02-05T15:18:49.672+00:00</time>
      </trkpt>
      <trkpt lat="49.18297" lon="1.86175">
        <ele>130</ele>
        <time>2024-02-05T15:18:54.250+00:00</time>
      </trkpt>
      <trkpt lat="49.18301" lon="1.8618">
        <ele>130</ele>
        <time>2024-02-05T15:18:58.407+00:00</time>
      </trkpt>
      <trkpt lat="49.18306" lon="1.86186">
        <ele>129</ele>
        <time>2024-02-05T15:19:03.025+00:00</time>
      </trkpt>
      <trkpt lat="49.1831" lon="1.86191">
        <ele>129</ele>
        <time>2024-02-05T15:19:07.144+00:00</time>
      </trkpt>
      <trkpt lat="49.18314" lon="1.86196">
        <ele>129</ele>
        <time>2024-02-05T15:19:11.342+00:00</time>
      </trkpt>
      <trkpt lat="49.18317" lon="1.862">
        <ele>129</ele>
        <time>2024-02-05T15:19:15.430+00:00</time>
      </trkpt>
      <trkpt lat="49.18321" lon="1.86205">
        <ele>129</ele>
        <time>2024-02-05T15:19:19.570+00:00</time>
      </trkpt>
      <trkpt lat="49.18324" lon="1.86209">
        <ele>128</ele>
        <time>2024-02-05T15:19:23.642+00:00</time>
      </trkpt>
      <trkpt lat="49.18327" lon="1.86214">
        <ele>128</ele>
        <time>2024-02-05T15:19:27.755+00:00</time>
      </trkpt>
      <trkpt lat="49.18332" lon="1.86219">
        <ele>128</ele>
        <time>2024-02-05T15:19:32.389+00:00</time>
      </trkpt>
      <trkpt lat="49.18336" lon="1.86224">
        <ele>128</ele>
        <time>2024-02-05T15:19:36.541+00:00</time>
      </trkpt>
      <trkpt lat="49.1834" lon="1.8623">
        <ele>128</ele>
        <time>2024-02-05T15:19:40.664+00:00</time>
      </trkpt>
      <trkpt lat="49.18344" lon="1.86235">
        <ele>128</ele>
        <time>2024-02-05T15:19:44.730+00:00</time>
      </trkpt>
      <trkpt lat="49.18348" lon="1.86239">
        <ele>127</ele>
        <time>2024-02-05T15:19:48.970+00:00</time>
      </trkpt>
      <trkpt lat="49.18352" lon="1.86244">
        <ele>127</ele>
        <time>2024-02-05T15:19:53.409+00:00</time>
      </trkpt>
      <trkpt lat="49.18355" lon="1.86249">
        <ele>127</ele>
        <time>2024-02-05T15:19:57.421+00:00</time>
      </trkpt>
      <trkpt lat="49.18359" lon="1.86253">
        <ele>127</ele>
        <time>2024-02-05T15:20:01.581+00:00</time>
      </trkpt>
      <trkpt lat="49.18362" lon="1.86258">
        <ele>127</ele>
        <time>2024-02-05T15:20:06.023+00:00</time>
      </trkpt>
      <trkpt lat="49.18366" lon="1.86263">
        <ele>127</ele>
        <time>2024-02-05T15:20:10.545+00:00</time>
      </trkpt>
      <trkpt lat="49.1837" lon="1.86268">
        <ele>126</ele>
        <time>2024-02-05T15:20:14.623+00:00</time>
      </trkpt>
      <trkpt lat="49.18374" lon="1.86273">
        <ele>126</ele>
        <time>2024-02-05T15:20:19.201+00:00</time>
      </trkpt>
      <trkpt lat="49.18378" lon="1.86277">
        <ele>126</ele>
        <time>2024-02-05T15:20:23.378+00:00</time>
      </trkpt>
      <trkpt lat="49.18382" lon="1.86282">
        <ele>126</ele>
        <time>2024-02-05T15:20:27.943+00:00</time>
      </trkpt>
      <trkpt lat="49.18386" lon="1.86287">
        <ele>126</ele>
        <time>2024-02-05T15:20:32.330+00:00</time>
      </trkpt>
      <trkpt lat="49.18391" lon="1.86291">
        <ele>126</ele>
        <time>2024-02-05T15:20:36.362+00:00</time>
      </trkpt>
      <trkpt lat="49.18396" lon="1.86294">
        <ele>125</ele>
        <time>2024-02-05T15:20:40.403+00:00</time>
      </trkpt>
      <trkpt lat="49.184" lon="1.86299">
        <ele>125</ele>
        <time>2024-02-05T15:20:44.752+00:00</time>
      </trkpt>
      <trkpt lat="49.18404" lon="1.86303">
        <ele>125</ele>
        <time>2024-02-05T15:20:49.231+00:00</time>
      </trkpt>
      <trkpt lat="49.18408" lon="1.86307">
        <ele>125</ele>
        <time>2024-02-05T15:20:53.268+00:00</time>
      </trkpt>
      <trkpt lat="49.18412" lon="1.86311">
        <ele>125</ele>
        <time>2024-02-05T15:20:57.347+00:00</time>
      </trkpt>
      <trkpt lat="49.18416" lon="1.86315">
        <ele>125</ele>
        <time>2024-02-05T15:21:01.775+00:00</time>
      </trkpt>
      <trkpt lat="49.18419" lon="1.8632">
        <ele>125</ele>
        <time>2024-02-05T15:21:06.720+00:00</time>
      </trkpt>
      <trkpt lat="49.18423" lon="1.86325">
        <ele>125</ele>
        <time>2024-02-05T15:21:11.126+00:00</time>
      </trkpt>
      <trkpt lat="49.18427" lon="1.86329">
        <ele>125</ele>
        <time>2024-02-05T15:21:15.194+00:00</time>
      </trkpt>
      <trkpt lat="49.18431" lon="1.86329">
        <ele>126</ele>
        <time>2024-02-05T15:21:19.710+00:00</time>
      </trkpt>
      <trkpt lat="49.18438" lon="1.86337">
        <ele>126</ele>
        <time>2024-02-05T15:21:23.724+00:00</time>
      </trkpt>
      <trkpt lat="49.18443" lon="1.86338">
        <ele>126</ele>
        <time>2024-02-05T15:21:27.866+00:00</time>
      </trkpt>
      <trkpt lat="49.18446" lon="1.8634">
        <ele>126</ele>
        <time>2024-02-05T15:21:32.089+00:00</time>
      </trkpt>
      <trkpt lat="49.1845" lon="1.86341">
        <ele>126</ele>
        <time>2024-02-05T15:21:36.146+00:00</time>
      </trkpt>
      <trkpt lat="49.18455" lon="1.86344">
        <ele>126</ele>
        <time>2024-02-05T15:21:40.423+00:00</time>
      </trkpt>
      <trkpt lat="49.18459" lon="1.86347">
        <ele>127</ele>
        <time>2024-02-05T15:21:44.727+00:00</time>
      </trkpt>
      <trkpt lat="49.18465" lon="1.8635">
        <ele>126</ele>
        <time>2024-02-05T15:21:49.681+00:00</time>
      </trkpt>
      <trkpt lat="49.18469" lon="1.86353">
        <ele>126</ele>
        <time>2024-02-05T15:21:54.223+00:00</time>
      </trkpt>
      <trkpt lat="49.18474" lon="1.86356">
        <ele>126</ele>
        <time>2024-02-05T15:21:58.245+00:00</time>
      </trkpt>
      <trkpt lat="49.18479" lon="1.86357">
        <ele>126</ele>
        <time>2024-02-05T15:22:02.385+00:00</time>
      </trkpt>
      <trkpt lat="49.18484" lon="1.86359">
        <ele>126</ele>
        <time>2024-02-05T15:22:06.764+00:00</time>
      </trkpt>
      <trkpt lat="49.18489" lon="1.86361">
        <ele>126</ele>
        <time>2024-02-05T15:22:10.888+00:00</time>
      </trkpt>
      <trkpt lat="49.18494" lon="1.8636">
        <ele>126</ele>
        <time>2024-02-05T15:22:15.346+00:00</time>
      </trkpt>
      <trkpt lat="49.185" lon="1.86361">
        <ele>126</ele>
        <time>2024-02-05T15:22:19.728+00:00</time>
      </trkpt>
      <trkpt lat="49.18505" lon="1.86361">
        <ele>126</ele>
        <time>2024-02-05T15:22:23.744+00:00</time>
      </trkpt>
      <trkpt lat="49.18511" lon="1.86363">
        <ele>126</ele>
        <time>2024-02-05T15:22:28.281+00:00</time>
      </trkpt>
      <trkpt lat="49.18516" lon="1.86365">
        <ele>125</ele>
        <time>2024-02-05T15:22:32.360+00:00</time>
      </trkpt>
      <trkpt lat="49.1852" lon="1.86369">
        <ele>125</ele>
        <time>2024-02-05T15:22:36.491+00:00</time>
      </trkpt>
      <trkpt lat="49.18522" lon="1.86375">
        <ele>125</ele>
        <time>2024-02-05T15:22:40.611+00:00</time>
      </trkpt>
      <trkpt lat="49.18525" lon="1.86382">
        <ele>124</ele>
        <time>2024-02-05T15:22:44.749+00:00</time>
      </trkpt>
      <trkpt lat="49.18526" lon="1.86391">
        <ele>124</ele>
        <time>2024-02-05T15:22:49.485+00:00</time>
      </trkpt>
      <trkpt lat="49.18526" lon="1.86399">
        <ele>124</ele>
        <time>2024-02-05T15:22:53.504+00:00</time>
      </trkpt>
      <trkpt lat="49.18526" lon="1.86406">
        <ele>123</ele>
        <time>2024-02-05T15:22:57.744+00:00</time>
      </trkpt>
      <trkpt lat="49.18526" lon="1.86412">
        <ele>123</ele>
        <time>2024-02-05T15:23:02.046+00:00</time>
      </trkpt>
      <trkpt lat="49.18525" lon="1.86419">
        <ele>123</ele>
        <time>2024-02-05T15:23:06.447+00:00</time>
      </trkpt>
      <trkpt lat="49.18524" lon="1.86426">
        <ele>123</ele>
        <time>2024-02-05T15:23:10.526+00:00</time>
      </trkpt>
      <trkpt lat="49.18524" lon="1.86433">
        <ele>123</ele>
        <time>2024-02-05T15:23:14.759+00:00</time>
      </trkpt>
      <trkpt lat="49.18523" lon="1.86441">
        <ele>123</ele>
        <time>2024-02-05T15:23:19.206+00:00</time>
      </trkpt>
      <trkpt lat="49.18524" lon="1.86448">
        <ele>123</ele>
        <time>2024-02-05T15:23:23.266+00:00</time>
      </trkpt>
      <trkpt lat="49.18525" lon="1.86456">
        <ele>123</ele>
        <time>2024-02-05T15:23:27.567+00:00</time>
      </trkpt>
      <trkpt lat="49.18526" lon="1.86464">
        <ele>124</ele>
        <time>2024-02-05T15:23:31.731+00:00</time>
      </trkpt>
      <trkpt lat="49.18526" lon="1.86471">
        <ele>124</ele>
        <time>2024-02-05T15:23:36.187+00:00</time>
      </trkpt>
      <trkpt lat="49.18526" lon="1.86477">
        <ele>124</ele>
        <time>2024-02-05T15:23:40.735+00:00</time>
      </trkpt>
      <trkpt lat="49.18526" lon="1.86483">
        <ele>124</ele>
        <time>2024-02-05T15:23:45.228+00:00</time>
      </trkpt>
      <trkpt lat="49.18527" lon="1.8649">
        <ele>124</ele>
        <time>2024-02-05T15:23:49.487+00:00</time>
      </trkpt>
      <trkpt lat="49.18528" lon="1.86498">
        <ele>124</ele>
        <time>2024-02-05T15:23:53.629+00:00</time>
      </trkpt>
      <trkpt lat="49.18529" lon="1.86504">
        <ele>124</ele>
        <time>2024-02-05T15:23:57.743+00:00</time>
      </trkpt>
      <trkpt lat="49.18531" lon="1.86511">
        <ele>124</ele>
        <time>2024-02-05T15:24:01.889+00:00</time>
      </trkpt>
      <trkpt lat="49.18532" lon="1.86518">
        <ele>124</ele>
        <time>2024-02-05T15:24:06.106+00:00</time>
      </trkpt>
      <trkpt lat="49.18533" lon="1.86525">
        <ele>124</ele>
        <time>2024-02-05T15:24:10.347+00:00</time>
      </trkpt>
      <trkpt lat="49.18534" lon="1.86532">
        <ele>124</ele>
        <time>2024-02-05T15:24:14.547+00:00</time>
      </trkpt>
      <trkpt lat="49.18535" lon="1.8654">
        <ele>124</ele>
        <time>2024-02-05T15:24:18.647+00:00</time>
      </trkpt>
      <trkpt lat="49.18536" lon="1.86546">
        <ele>124</ele>
        <time>2024-02-05T15:24:22.755+00:00</time>
      </trkpt>
      <trkpt lat="49.18537" lon="1.86553">
        <ele>124</ele>
        <time>2024-02-05T15:24:27.048+00:00</time>
      </trkpt>
      <trkpt lat="49.18539" lon="1.86561">
        <ele>124</ele>
        <time>2024-02-05T15:24:31.488+00:00</time>
      </trkpt>
      <trkpt lat="49.18541" lon="1.86568">
        <ele>124</ele>
        <time>2024-02-05T15:24:35.628+00:00</time>
      </trkpt>
      <trkpt lat="49.18543" lon="1.86575">
        <ele>123</ele>
        <time>2024-02-05T15:24:39.765+00:00</time>
      </trkpt>
      <trkpt lat="49.18545" lon="1.86583">
        <ele>123</ele>
        <time>2024-02-05T15:24:44.525+00:00</time>
      </trkpt>
      <trkpt lat="49.18547" lon="1.8659">
        <ele>123</ele>
        <time>2024-02-05T15:24:48.757+00:00</time>
      </trkpt>
      <trkpt lat="49.18548" lon="1.86596">
        <ele>123</ele>
        <time>2024-02-05T15:24:52.871+00:00</time>
      </trkpt>
      <trkpt lat="49.1855" lon="1.86604">
        <ele>123</ele>
        <time>2024-02-05T15:24:57.067+00:00</time>
      </trkpt>
      <trkpt lat="49.18551" lon="1.86611">
        <ele>123</ele>
        <time>2024-02-05T15:25:01.166+00:00</time>
      </trkpt>
      <trkpt lat="49.18553" lon="1.86617">
        <ele>123</ele>
        <time>2024-02-05T15:25:05.437+00:00</time>
      </trkpt>
      <trkpt lat="49.18555" lon="1.86625">
        <ele>123</ele>
        <time>2024-02-05T15:25:09.604+00:00</time>
      </trkpt>
      <trkpt lat="49.18556" lon="1.8663">
        <ele>123</ele>
        <time>2024-02-05T15:25:13.611+00:00</time>
      </trkpt>
      <trkpt lat="49.18557" lon="1.86639">
        <ele>123</ele>
        <time>2024-02-05T15:25:18.163+00:00</time>
      </trkpt>
      <trkpt lat="49.18558" lon="1.86646">
        <ele>123</ele>
        <time>2024-02-05T15:25:22.303+00:00</time>
      </trkpt>
      <trkpt lat="49.18559" lon="1.86653">
        <ele>123</ele>
        <time>2024-02-05T15:25:26.753+00:00</time>
      </trkpt>
      <trkpt lat="49.18561" lon="1.86659">
        <ele>123</ele>
        <time>2024-02-05T15:25:31.103+00:00</time>
      </trkpt>
      <trkpt lat="49.18561" lon="1.86667">
        <ele>123</ele>
        <time>2024-02-05T15:25:35.343+00:00</time>
      </trkpt>
      <trkpt lat="49.18562" lon="1.86674">
        <ele>123</ele>
        <time>2024-02-05T15:25:39.460+00:00</time>
      </trkpt>
      <trkpt lat="49.18564" lon="1.86682">
        <ele>124</ele>
        <time>2024-02-05T15:25:43.581+00:00</time>
      </trkpt>
      <trkpt lat="49.18566" lon="1.86688">
        <ele>124</ele>
        <time>2024-02-05T15:25:47.727+00:00</time>
      </trkpt>
      <trkpt lat="49.18567" lon="1.86696">
        <ele>124</ele>
        <time>2024-02-05T15:25:52.041+00:00</time>
      </trkpt>
      <trkpt lat="49.18568" lon="1.86703">
        <ele>124</ele>
        <time>2024-02-05T15:25:56.312+00:00</time>
      </trkpt>
      <trkpt lat="49.18569" lon="1.86711">
        <ele>123</ele>
        <time>2024-02-05T15:26:00.511+00:00</time>
      </trkpt>
      <trkpt lat="49.18571" lon="1.86718">
        <ele>123</ele>
        <time>2024-02-05T15:26:04.669+00:00</time>
      </trkpt>
      <trkpt lat="49.18572" lon="1.86725">
        <ele>123</ele>
        <time>2024-02-05T15:26:08.903+00:00</time>
      </trkpt>
      <trkpt lat="49.18573" lon="1.86732">
        <ele>123</ele>
        <time>2024-02-05T15:26:13.143+00:00</time>
      </trkpt>
      <trkpt lat="49.18574" lon="1.8674">
        <ele>122</ele>
        <time>2024-02-05T15:26:17.385+00:00</time>
      </trkpt>
      <trkpt lat="49.18575" lon="1.86747">
        <ele>122</ele>
        <time>2024-02-05T15:26:21.683+00:00</time>
      </trkpt>
      <trkpt lat="49.18577" lon="1.86754">
        <ele>122</ele>
        <time>2024-02-05T15:26:25.760+00:00</time>
      </trkpt>
      <trkpt lat="49.18579" lon="1.86762">
        <ele>122</ele>
        <time>2024-02-05T15:26:30.167+00:00</time>
      </trkpt>
      <trkpt lat="49.1858" lon="1.8677">
        <ele>121</ele>
        <time>2024-02-05T15:26:34.428+00:00</time>
      </trkpt>
      <trkpt lat="49.18582" lon="1.86776">
        <ele>121</ele>
        <time>2024-02-05T15:26:38.586+00:00</time>
      </trkpt>
      <trkpt lat="49.18582" lon="1.86783">
        <ele>121</ele>
        <time>2024-02-05T15:26:42.862+00:00</time>
      </trkpt>
      <trkpt lat="49.18583" lon="1.86792">
        <ele>121</ele>
        <time>2024-02-05T15:26:47.685+00:00</time>
      </trkpt>
      <trkpt lat="49.18585" lon="1.86799">
        <ele>121</ele>
        <time>2024-02-05T15:26:51.767+00:00</time>
      </trkpt>
      <trkpt lat="49.18587" lon="1.86806">
        <ele>121</ele>
        <time>2024-02-05T15:26:56.010+00:00</time>
      </trkpt>
      <trkpt lat="49.18588" lon="1.86813">
        <ele>121</ele>
        <time>2024-02-05T15:27:00.185+00:00</time>
      </trkpt>
      <trkpt lat="49.18589" lon="1.86819">
        <ele>121</ele>
        <time>2024-02-05T15:27:04.261+00:00</time>
      </trkpt>
      <trkpt lat="49.1859" lon="1.86828">
        <ele>121</ele>
        <time>2024-02-05T15:27:08.763+00:00</time>
      </trkpt>
      <trkpt lat="49.18592" lon="1.86835">
        <ele>121</ele>
        <time>2024-02-05T15:27:13.248+00:00</time>
      </trkpt>
      <trkpt lat="49.18592" lon="1.86842">
        <ele>121</ele>
        <time>2024-02-05T15:27:17.388+00:00</time>
      </trkpt>
      <trkpt lat="49.18593" lon="1.8685">
        <ele>120</ele>
        <time>2024-02-05T15:27:21.647+00:00</time>
      </trkpt>
      <trkpt lat="49.18594" lon="1.86857">
        <ele>120</ele>
        <time>2024-02-05T15:27:25.741+00:00</time>
      </trkpt>
      <trkpt lat="49.18595" lon="1.86864">
        <ele>120</ele>
        <time>2024-02-05T15:27:30.065+00:00</time>
      </trkpt>
      <trkpt lat="49.18595" lon="1.86872">
        <ele>120</ele>
        <time>2024-02-05T15:27:34.202+00:00</time>
      </trkpt>
      <trkpt lat="49.18596" lon="1.8688">
        <ele>120</ele>
        <time>2024-02-05T15:27:38.362+00:00</time>
      </trkpt>
      <trkpt lat="49.18597" lon="1.86887">
        <ele>120</ele>
        <time>2024-02-05T15:27:42.471+00:00</time>
      </trkpt>
      <trkpt lat="49.18598" lon="1.86894">
        <ele>120</ele>
        <time>2024-02-05T15:27:46.589+00:00</time>
      </trkpt>
      <trkpt lat="49.18599" lon="1.86901">
        <ele>120</ele>
        <time>2024-02-05T15:27:50.740+00:00</time>
      </trkpt>
      <trkpt lat="49.18599" lon="1.86908">
        <ele>120</ele>
        <time>2024-02-05T15:27:55.047+00:00</time>
      </trkpt>
      <trkpt lat="49.186" lon="1.86915">
        <ele>120</ele>
        <time>2024-02-05T15:27:59.308+00:00</time>
      </trkpt>
      <trkpt lat="49.18601" lon="1.86923">
        <ele>120</ele>
        <time>2024-02-05T15:28:03.589+00:00</time>
      </trkpt>
      <trkpt lat="49.18601" lon="1.8693">
        <ele>120</ele>
        <time>2024-02-05T15:28:07.731+00:00</time>
      </trkpt>
      <trkpt lat="49.18602" lon="1.86938">
        <ele>120</ele>
        <time>2024-02-05T15:28:12.030+00:00</time>
      </trkpt>
      <trkpt lat="49.18603" lon="1.86945">
        <ele>120</ele>
        <time>2024-02-05T15:28:16.270+00:00</time>
      </trkpt>
      <trkpt lat="49.18603" lon="1.86954">
        <ele>120</ele>
        <time>2024-02-05T15:28:20.389+00:00</time>
      </trkpt>
      <trkpt lat="49.18604" lon="1.86961">
        <ele>119</ele>
        <time>2024-02-05T15:28:24.608+00:00</time>
      </trkpt>
      <trkpt lat="49.18605" lon="1.86969">
        <ele>119</ele>
        <time>2024-02-05T15:28:28.844+00:00</time>
      </trkpt>
      <trkpt lat="49.18606" lon="1.86977">
        <ele>119</ele>
        <time>2024-02-05T15:28:33.126+00:00</time>
      </trkpt>
      <trkpt lat="49.18607" lon="1.86985">
        <ele>119</ele>
        <time>2024-02-05T15:28:37.426+00:00</time>
      </trkpt>
      <trkpt lat="49.18608" lon="1.86992">
        <ele>119</ele>
        <time>2024-02-05T15:28:41.625+00:00</time>
      </trkpt>
      <trkpt lat="49.18607" lon="1.87">
        <ele>119</ele>
        <time>2024-02-05T15:28:45.770+00:00</time>
      </trkpt>
      <trkpt lat="49.18609" lon="1.87009">
        <ele>119</ele>
        <time>2024-02-05T15:28:50.202+00:00</time>
      </trkpt>
      <trkpt lat="49.18611" lon="1.87016">
        <ele>119</ele>
        <time>2024-02-05T15:28:54.609+00:00</time>
      </trkpt>
      <trkpt lat="49.18612" lon="1.87023">
        <ele>119</ele>
        <time>2024-02-05T15:28:58.869+00:00</time>
      </trkpt>
      <trkpt lat="49.18613" lon="1.87029">
        <ele>119</ele>
        <time>2024-02-05T15:29:03.308+00:00</time>
      </trkpt>
      <trkpt lat="49.18614" lon="1.87037">
        <ele>119</ele>
        <time>2024-02-05T15:29:07.760+00:00</time>
      </trkpt>
      <trkpt lat="49.18614" lon="1.87044">
        <ele>119</ele>
        <time>2024-02-05T15:29:12.106+00:00</time>
      </trkpt>
      <trkpt lat="49.18615" lon="1.87051">
        <ele>119</ele>
        <time>2024-02-05T15:29:16.344+00:00</time>
      </trkpt>
      <trkpt lat="49.18616" lon="1.87057">
        <ele>119</ele>
        <time>2024-02-05T15:29:20.451+00:00</time>
      </trkpt>
      <trkpt lat="49.18616" lon="1.87063">
        <ele>119</ele>
        <time>2024-02-05T15:29:24.620+00:00</time>
      </trkpt>
      <trkpt lat="49.18617" lon="1.87069">
        <ele>119</ele>
        <time>2024-02-05T15:29:28.748+00:00</time>
      </trkpt>
      <trkpt lat="49.18618" lon="1.87076">
        <ele>118</ele>
        <time>2024-02-05T15:29:33.171+00:00</time>
      </trkpt>
      <trkpt lat="49.18618" lon="1.87084">
        <ele>118</ele>
        <time>2024-02-05T15:29:37.250+00:00</time>
      </trkpt>
      <trkpt lat="49.1862" lon="1.87093">
        <ele>118</ele>
        <time>2024-02-05T15:29:41.309+00:00</time>
      </trkpt>
      <trkpt lat="49.18621" lon="1.871">
        <ele>118</ele>
        <time>2024-02-05T15:29:45.408+00:00</time>
      </trkpt>
      <trkpt lat="49.18622" lon="1.87107">
        <ele>118</ele>
        <time>2024-02-05T15:29:49.623+00:00</time>
      </trkpt>
      <trkpt lat="49.18624" lon="1.87114">
        <ele>118</ele>
        <time>2024-02-05T15:29:54.144+00:00</time>
      </trkpt>
      <trkpt lat="49.18625" lon="1.87122">
        <ele>118</ele>
        <time>2024-02-05T15:29:58.231+00:00</time>
      </trkpt>
      <trkpt lat="49.18625" lon="1.8713">
        <ele>117</ele>
        <time>2024-02-05T15:30:02.389+00:00</time>
      </trkpt>
      <trkpt lat="49.18627" lon="1.87137">
        <ele>117</ele>
        <time>2024-02-05T15:30:06.587+00:00</time>
      </trkpt>
      <trkpt lat="49.18628" lon="1.87145">
        <ele>117</ele>
        <time>2024-02-05T15:30:11.146+00:00</time>
      </trkpt>
      <trkpt lat="49.18629" lon="1.87154">
        <ele>117</ele>
        <time>2024-02-05T15:30:15.737+00:00</time>
      </trkpt>
      <trkpt lat="49.18631" lon="1.87163">
        <ele>117</ele>
        <time>2024-02-05T15:30:20.344+00:00</time>
      </trkpt>
      <trkpt lat="49.18632" lon="1.87172">
        <ele>117</ele>
        <time>2024-02-05T15:30:24.979+00:00</time>
      </trkpt>
      <trkpt lat="49.18634" lon="1.87178">
        <ele>117</ele>
        <time>2024-02-05T15:30:29.088+00:00</time>
      </trkpt>
      <trkpt lat="49.18636" lon="1.87186">
        <ele>117</ele>
        <time>2024-02-05T15:30:33.346+00:00</time>
      </trkpt>
      <trkpt lat="49.18637" lon="1.87194">
        <ele>117</ele>
        <time>2024-02-05T15:30:37.736+00:00</time>
      </trkpt>
      <trkpt lat="49.18638" lon="1.872">
        <ele>117</ele>
        <time>2024-02-05T15:30:41.864+00:00</time>
      </trkpt>
      <trkpt lat="49.1864" lon="1.87208">
        <ele>117</ele>
        <time>2024-02-05T15:30:46.531+00:00</time>
      </trkpt>
      <trkpt lat="49.18642" lon="1.87216">
        <ele>117</ele>
        <time>2024-02-05T15:30:50.628+00:00</time>
      </trkpt>
      <trkpt lat="49.18644" lon="1.87224">
        <ele>117</ele>
        <time>2024-02-05T15:30:54.757+00:00</time>
      </trkpt>
      <trkpt lat="49.18645" lon="1.87233">
        <ele>117</ele>
        <time>2024-02-05T15:30:59.226+00:00</time>
      </trkpt>
      <trkpt lat="49.18646" lon="1.8724">
        <ele>117</ele>
        <time>2024-02-05T15:31:03.304+00:00</time>
      </trkpt>
      <trkpt lat="49.18648" lon="1.87247">
        <ele>117</ele>
        <time>2024-02-05T15:31:07.342+00:00</time>
      </trkpt>
      <trkpt lat="49.1865" lon="1.87255">
        <ele>117</ele>
        <time>2024-02-05T15:31:11.458+00:00</time>
      </trkpt>
      <trkpt lat="49.1865" lon="1.87263">
        <ele>117</ele>
        <time>2024-02-05T15:31:15.511+00:00</time>
      </trkpt>
      <trkpt lat="49.18651" lon="1.8727">
        <ele>117</ele>
        <time>2024-02-05T15:31:19.549+00:00</time>
      </trkpt>
      <trkpt lat="49.18652" lon="1.87278">
        <ele>117</ele>
        <time>2024-02-05T15:31:23.608+00:00</time>
      </trkpt>
      <trkpt lat="49.18653" lon="1.87285">
        <ele>116</ele>
        <time>2024-02-05T15:31:27.764+00:00</time>
      </trkpt>
      <trkpt lat="49.18654" lon="1.87293">
        <ele>116</ele>
        <time>2024-02-05T15:31:32.385+00:00</time>
      </trkpt>
      <trkpt lat="49.18656" lon="1.87301">
        <ele>116</ele>
        <time>2024-02-05T15:31:36.757+00:00</time>
      </trkpt>
      <trkpt lat="49.18657" lon="1.87311">
        <ele>116</ele>
        <time>2024-02-05T15:31:41.474+00:00</time>
      </trkpt>
      <trkpt lat="49.18658" lon="1.8732">
        <ele>116</ele>
        <time>2024-02-05T15:31:45.982+00:00</time>
      </trkpt>
      <trkpt lat="49.18659" lon="1.87328">
        <ele>116</ele>
        <time>2024-02-05T15:31:50.498+00:00</time>
      </trkpt>
      <trkpt lat="49.18659" lon="1.87336">
        <ele>116</ele>
        <time>2024-02-05T15:31:54.649+00:00</time>
      </trkpt>
      <trkpt lat="49.1866" lon="1.87346">
        <ele>116</ele>
        <time>2024-02-05T15:31:59.148+00:00</time>
      </trkpt>
      <trkpt lat="49.18661" lon="1.87353">
        <ele>116</ele>
        <time>2024-02-05T15:32:03.229+00:00</time>
      </trkpt>
      <trkpt lat="49.18662" lon="1.8736">
        <ele>116</ele>
        <time>2024-02-05T15:32:07.321+00:00</time>
      </trkpt>
      <trkpt lat="49.18662" lon="1.87368">
        <ele>116</ele>
        <time>2024-02-05T15:32:11.473+00:00</time>
      </trkpt>
      <trkpt lat="49.18663" lon="1.87374">
        <ele>116</ele>
        <time>2024-02-05T15:32:15.539+00:00</time>
      </trkpt>
      <trkpt lat="49.18664" lon="1.87383">
        <ele>116</ele>
        <time>2024-02-05T15:32:19.683+00:00</time>
      </trkpt>
      <trkpt lat="49.18664" lon="1.87392">
        <ele>116</ele>
        <time>2024-02-05T15:32:24.405+00:00</time>
      </trkpt>
      <trkpt lat="49.18665" lon="1.874">
        <ele>116</ele>
        <time>2024-02-05T15:32:28.471+00:00</time>
      </trkpt>
      <trkpt lat="49.18664" lon="1.87408">
        <ele>116</ele>
        <time>2024-02-05T15:32:32.664+00:00</time>
      </trkpt>
      <trkpt lat="49.18665" lon="1.87417">
        <ele>116</ele>
        <time>2024-02-05T15:32:37.246+00:00</time>
      </trkpt>
      <trkpt lat="49.18665" lon="1.87425">
        <ele>116</ele>
        <time>2024-02-05T15:32:41.755+00:00</time>
      </trkpt>
      <trkpt lat="49.18666" lon="1.87434">
        <ele>115</ele>
        <time>2024-02-05T15:32:45.943+00:00</time>
      </trkpt>
      <trkpt lat="49.18666" lon="1.87441">
        <ele>115</ele>
        <time>2024-02-05T15:32:50.062+00:00</time>
      </trkpt>
      <trkpt lat="49.18666" lon="1.87448">
        <ele>115</ele>
        <time>2024-02-05T15:32:54.221+00:00</time>
      </trkpt>
      <trkpt lat="49.18667" lon="1.87456">
        <ele>115</ele>
        <time>2024-02-05T15:32:58.343+00:00</time>
      </trkpt>
      <trkpt lat="49.18667" lon="1.87464">
        <ele>116</ele>
        <time>2024-02-05T15:33:02.383+00:00</time>
      </trkpt>
      <trkpt lat="49.18667" lon="1.87472">
        <ele>116</ele>
        <time>2024-02-05T15:33:06.482+00:00</time>
      </trkpt>
      <trkpt lat="49.18667" lon="1.87479">
        <ele>116</ele>
        <time>2024-02-05T15:33:10.545+00:00</time>
      </trkpt>
      <trkpt lat="49.18668" lon="1.87487">
        <ele>115</ele>
        <time>2024-02-05T15:33:14.546+00:00</time>
      </trkpt>
      <trkpt lat="49.18668" lon="1.87496">
        <ele>115</ele>
        <time>2024-02-05T15:33:19.110+00:00</time>
      </trkpt>
      <trkpt lat="49.18668" lon="1.87505">
        <ele>115</ele>
        <time>2024-02-05T15:33:23.228+00:00</time>
      </trkpt>
      <trkpt lat="49.18669" lon="1.87512">
        <ele>115</ele>
        <time>2024-02-05T15:33:27.347+00:00</time>
      </trkpt>
      <trkpt lat="49.18669" lon="1.8752">
        <ele>114</ele>
        <time>2024-02-05T15:33:31.328+00:00</time>
      </trkpt>
      <trkpt lat="49.18669" lon="1.87528">
        <ele>114</ele>
        <time>2024-02-05T15:33:35.367+00:00</time>
      </trkpt>
      <trkpt lat="49.1867" lon="1.87536">
        <ele>114</ele>
        <time>2024-02-05T15:33:39.966+00:00</time>
      </trkpt>
      <trkpt lat="49.18671" lon="1.87544">
        <ele>114</ele>
        <time>2024-02-05T15:33:44.022+00:00</time>
      </trkpt>
      <trkpt lat="49.18671" lon="1.87551">
        <ele>114</ele>
        <time>2024-02-05T15:33:48.070+00:00</time>
      </trkpt>
      <trkpt lat="49.18672" lon="1.87558">
        <ele>114</ele>
        <time>2024-02-05T15:33:52.071+00:00</time>
      </trkpt>
      <trkpt lat="49.18672" lon="1.87568">
        <ele>114</ele>
        <time>2024-02-05T15:33:56.546+00:00</time>
      </trkpt>
      <trkpt lat="49.18672" lon="1.87575">
        <ele>114</ele>
        <time>2024-02-05T15:34:00.605+00:00</time>
      </trkpt>
      <trkpt lat="49.18673" lon="1.87585">
        <ele>114</ele>
        <time>2024-02-05T15:34:05.141+00:00</time>
      </trkpt>
      <trkpt lat="49.18674" lon="1.87594">
        <ele>114</ele>
        <time>2024-02-05T15:34:09.752+00:00</time>
      </trkpt>
      <trkpt lat="49.18675" lon="1.87601">
        <ele>113</ele>
        <time>2024-02-05T15:34:13.790+00:00</time>
      </trkpt>
      <trkpt lat="49.18675" lon="1.8761">
        <ele>113</ele>
        <time>2024-02-05T15:34:18.322+00:00</time>
      </trkpt>
      <trkpt lat="49.18676" lon="1.87617">
        <ele>113</ele>
        <time>2024-02-05T15:34:22.349+00:00</time>
      </trkpt>
      <trkpt lat="49.18678" lon="1.87625">
        <ele>113</ele>
        <time>2024-02-05T15:34:26.524+00:00</time>
      </trkpt>
      <trkpt lat="49.18678" lon="1.87633">
        <ele>113</ele>
        <time>2024-02-05T15:34:30.661+00:00</time>
      </trkpt>
      <trkpt lat="49.18679" lon="1.87641">
        <ele>113</ele>
        <time>2024-02-05T15:34:35.166+00:00</time>
      </trkpt>
      <trkpt lat="49.1868" lon="1.87648">
        <ele>113</ele>
        <time>2024-02-05T15:34:39.240+00:00</time>
      </trkpt>
      <trkpt lat="49.18681" lon="1.87656">
        <ele>113</ele>
        <time>2024-02-05T15:34:43.431+00:00</time>
      </trkpt>
      <trkpt lat="49.18682" lon="1.87664">
        <ele>113</ele>
        <time>2024-02-05T15:34:47.465+00:00</time>
      </trkpt>
      <trkpt lat="49.18684" lon="1.87673">
        <ele>113</ele>
        <time>2024-02-05T15:34:51.722+00:00</time>
      </trkpt>
      <trkpt lat="49.18685" lon="1.87681">
        <ele>113</ele>
        <time>2024-02-05T15:34:55.859+00:00</time>
      </trkpt>
      <trkpt lat="49.18687" lon="1.87689">
        <ele>113</ele>
        <time>2024-02-05T15:35:00.028+00:00</time>
      </trkpt>
      <trkpt lat="49.18688" lon="1.87697">
        <ele>113</ele>
        <time>2024-02-05T15:35:04.125+00:00</time>
      </trkpt>
      <trkpt lat="49.18688" lon="1.87704">
        <ele>113</ele>
        <time>2024-02-05T15:35:08.780+00:00</time>
      </trkpt>
      <trkpt lat="49.18688" lon="1.87712">
        <ele>113</ele>
        <time>2024-02-05T15:35:13.389+00:00</time>
      </trkpt>
      <trkpt lat="49.18689" lon="1.87721">
        <ele>113</ele>
        <time>2024-02-05T15:35:17.783+00:00</time>
      </trkpt>
      <trkpt lat="49.1869" lon="1.87729">
        <ele>113</ele>
        <time>2024-02-05T15:35:21.906+00:00</time>
      </trkpt>
      <trkpt lat="49.18692" lon="1.87737">
        <ele>112</ele>
        <time>2024-02-05T15:35:26.043+00:00</time>
      </trkpt>
      <trkpt lat="49.18692" lon="1.87746">
        <ele>112</ele>
        <time>2024-02-05T15:35:30.640+00:00</time>
      </trkpt>
      <trkpt lat="49.18693" lon="1.87753">
        <ele>112</ele>
        <time>2024-02-05T15:35:34.778+00:00</time>
      </trkpt>
      <trkpt lat="49.18695" lon="1.87762">
        <ele>112</ele>
        <time>2024-02-05T15:35:39.365+00:00</time>
      </trkpt>
      <trkpt lat="49.18697" lon="1.87768">
        <ele>112</ele>
        <time>2024-02-05T15:35:43.774+00:00</time>
      </trkpt>
      <trkpt lat="49.18697" lon="1.87769">
        <ele>112</ele>
        <time>2024-02-05T15:35:48.770+00:00</time>
      </trkpt>
      <trkpt lat="49.18698" lon="1.87773">
        <ele>112</ele>
        <time>2024-02-05T15:35:53.125+00:00</time>
      </trkpt>
      <trkpt lat="49.18699" lon="1.87781">
        <ele>112</ele>
        <time>2024-02-05T15:35:57.359+00:00</time>
      </trkpt>
      <trkpt lat="49.187" lon="1.87789">
        <ele>112</ele>
        <time>2024-02-05T15:36:01.606+00:00</time>
      </trkpt>
      <trkpt lat="49.18701" lon="1.87797">
        <ele>111</ele>
        <time>2024-02-05T15:36:05.841+00:00</time>
      </trkpt>
      <trkpt lat="49.18702" lon="1.87804">
        <ele>111</ele>
        <time>2024-02-05T15:36:10.210+00:00</time>
      </trkpt>
      <trkpt lat="49.18703" lon="1.87812">
        <ele>111</ele>
        <time>2024-02-05T15:36:14.508+00:00</time>
      </trkpt>
      <trkpt lat="49.18704" lon="1.87819">
        <ele>111</ele>
        <time>2024-02-05T15:36:18.625+00:00</time>
      </trkpt>
      <trkpt lat="49.18706" lon="1.87826">
        <ele>110</ele>
        <time>2024-02-05T15:36:22.759+00:00</time>
      </trkpt>
      <trkpt lat="49.18706" lon="1.87833">
        <ele>110</ele>
        <time>2024-02-05T15:36:26.758+00:00</time>
      </trkpt>
      <trkpt lat="49.18708" lon="1.87841">
        <ele>110</ele>
        <time>2024-02-05T15:36:31.148+00:00</time>
      </trkpt>
      <trkpt lat="49.18709" lon="1.87847">
        <ele>109</ele>
        <time>2024-02-05T15:36:35.477+00:00</time>
      </trkpt>
      <trkpt lat="49.18712" lon="1.87853">
        <ele>109</ele>
        <time>2024-02-05T15:36:39.769+00:00</time>
      </trkpt>
      <trkpt lat="49.18714" lon="1.87856">
        <ele>109</ele>
        <time>2024-02-05T15:36:44.266+00:00</time>
      </trkpt>
      <trkpt lat="49.18718" lon="1.87858">
        <ele>109</ele>
        <time>2024-02-05T15:36:48.660+00:00</time>
      </trkpt>
      <trkpt lat="49.18721" lon="1.87858">
        <ele>109</ele>
        <time>2024-02-05T15:36:52.748+00:00</time>
      </trkpt>
      <trkpt lat="49.18724" lon="1.87859">
        <ele>109</ele>
        <time>2024-02-05T15:36:57.224+00:00</time>
      </trkpt>
      <trkpt lat="49.18736" lon="1.87859">
        <ele>109</ele>
        <time>2024-02-05T15:37:15.786+00:00</time>
      </trkpt>
      <trkpt lat="49.18737" lon="1.87861">
        <ele>110</ele>
        <time>2024-02-05T15:37:20.770+00:00</time>
      </trkpt>
      <trkpt lat="49.18739" lon="1.87861">
        <ele>110</ele>
        <time>2024-02-05T15:37:25.745+00:00</time>
      </trkpt>
      <trkpt lat="49.18739" lon="1.87861">
        <ele>110</ele>
        <time>2024-02-05T15:37:29.744+00:00</time>
      </trkpt>
      <trkpt lat="49.1874" lon="1.87861">
        <ele>110</ele>
        <time>2024-02-05T15:37:34.775+00:00</time>
      </trkpt>
      <trkpt lat="49.18741" lon="1.87862">
        <ele>110</ele>
        <time>2024-02-05T15:37:39.773+00:00</time>
      </trkpt>
      <trkpt lat="49.18743" lon="1.87862">
        <ele>110</ele>
        <time>2024-02-05T15:37:44.760+00:00</time>
      </trkpt>
      <trkpt lat="49.18744" lon="1.87863">
        <ele>110</ele>
        <time>2024-02-05T15:37:48.771+00:00</time>
      </trkpt>
      <trkpt lat="49.18746" lon="1.87862">
        <ele>110</ele>
        <time>2024-02-05T15:37:53.216+00:00</time>
      </trkpt>
      <trkpt lat="49.18751" lon="1.87861">
        <ele>110</ele>
        <time>2024-02-05T15:37:57.243+00:00</time>
      </trkpt>
      <trkpt lat="49.18755" lon="1.87861">
        <ele>110</ele>
        <time>2024-02-05T15:38:01.363+00:00</time>
      </trkpt>
      <trkpt lat="49.1876" lon="1.87861">
        <ele>110</ele>
        <time>2024-02-05T15:38:05.641+00:00</time>
      </trkpt>
      <trkpt lat="49.18764" lon="1.87862">
        <ele>111</ele>
        <time>2024-02-05T15:38:09.700+00:00</time>
      </trkpt>
      <trkpt lat="49.18769" lon="1.87863">
        <ele>111</ele>
        <time>2024-02-05T15:38:13.765+00:00</time>
      </trkpt>
      <trkpt lat="49.18774" lon="1.87864">
        <ele>111</ele>
        <time>2024-02-05T15:38:18.366+00:00</time>
      </trkpt>
      <trkpt lat="49.18779" lon="1.87865">
        <ele>111</ele>
        <time>2024-02-05T15:38:22.523+00:00</time>
      </trkpt>
      <trkpt lat="49.18784" lon="1.87868">
        <ele>111</ele>
        <time>2024-02-05T15:38:27.083+00:00</time>
      </trkpt>
      <trkpt lat="49.18789" lon="1.8787">
        <ele>111</ele>
        <time>2024-02-05T15:38:31.141+00:00</time>
      </trkpt>
      <trkpt lat="49.18794" lon="1.87872">
        <ele>111</ele>
        <time>2024-02-05T15:38:35.370+00:00</time>
      </trkpt>
      <trkpt lat="49.18798" lon="1.87873">
        <ele>111</ele>
        <time>2024-02-05T15:38:39.411+00:00</time>
      </trkpt>
      <trkpt lat="49.18803" lon="1.87875">
        <ele>111</ele>
        <time>2024-02-05T15:38:43.590+00:00</time>
      </trkpt>
      <trkpt lat="49.18808" lon="1.87878">
        <ele>111</ele>
        <time>2024-02-05T15:38:47.688+00:00</time>
      </trkpt>
      <trkpt lat="49.18812" lon="1.8788">
        <ele>111</ele>
        <time>2024-02-05T15:38:51.763+00:00</time>
      </trkpt>
      <trkpt lat="49.18817" lon="1.87882">
        <ele>111</ele>
        <time>2024-02-05T15:38:56.046+00:00</time>
      </trkpt>
      <trkpt lat="49.18821" lon="1.87884">
        <ele>112</ele>
        <time>2024-02-05T15:39:00.209+00:00</time>
      </trkpt>
      <trkpt lat="49.18826" lon="1.87885">
        <ele>112</ele>
        <time>2024-02-05T15:39:04.366+00:00</time>
      </trkpt>
      <trkpt lat="49.18831" lon="1.87887">
        <ele>112</ele>
        <time>2024-02-05T15:39:08.784+00:00</time>
      </trkpt>
      <trkpt lat="49.18835" lon="1.87889">
        <ele>112</ele>
        <time>2024-02-05T15:39:13.101+00:00</time>
      </trkpt>
      <trkpt lat="49.1884" lon="1.8789">
        <ele>112</ele>
        <time>2024-02-05T15:39:17.341+00:00</time>
      </trkpt>
      <trkpt lat="49.18844" lon="1.87892">
        <ele>112</ele>
        <time>2024-02-05T15:39:21.423+00:00</time>
      </trkpt>
      <trkpt lat="49.18848" lon="1.87894">
        <ele>113</ele>
        <time>2024-02-05T15:39:25.648+00:00</time>
      </trkpt>
      <trkpt lat="49.18852" lon="1.87895">
        <ele>113</ele>
        <time>2024-02-05T15:39:29.641+00:00</time>
      </trkpt>
      <trkpt lat="49.18857" lon="1.87896">
        <ele>113</ele>
        <time>2024-02-05T15:39:33.751+00:00</time>
      </trkpt>
      <trkpt lat="49.18862" lon="1.87897">
        <ele>113</ele>
        <time>2024-02-05T15:39:37.751+00:00</time>
      </trkpt>
      <trkpt lat="49.18867" lon="1.879">
        <ele>113</ele>
        <time>2024-02-05T15:39:41.986+00:00</time>
      </trkpt>
      <trkpt lat="49.18872" lon="1.87903">
        <ele>114</ele>
        <time>2024-02-05T15:39:46.325+00:00</time>
      </trkpt>
      <trkpt lat="49.18877" lon="1.87905">
        <ele>113</ele>
        <time>2024-02-05T15:39:50.465+00:00</time>
      </trkpt>
      <trkpt lat="49.18882" lon="1.87908">
        <ele>113</ele>
        <time>2024-02-05T15:39:54.484+00:00</time>
      </trkpt>
      <trkpt lat="49.18885" lon="1.87912">
        <ele>113</ele>
        <time>2024-02-05T15:39:58.684+00:00</time>
      </trkpt>
      <trkpt lat="49.18889" lon="1.87916">
        <ele>113</ele>
        <time>2024-02-05T15:40:02.727+00:00</time>
      </trkpt>
      <trkpt lat="49.18894" lon="1.8792">
        <ele>113</ele>
        <time>2024-02-05T15:40:07.369+00:00</time>
      </trkpt>
      <trkpt lat="49.18899" lon="1.87923">
        <ele>113</ele>
        <time>2024-02-05T15:40:11.900+00:00</time>
      </trkpt>
      <trkpt lat="49.18903" lon="1.87927">
        <ele>111</ele>
        <time>2024-02-05T15:40:16.249+00:00</time>
      </trkpt>
      <trkpt lat="49.18908" lon="1.87931">
        <ele>112</ele>
        <time>2024-02-05T15:40:20.310+00:00</time>
      </trkpt>
      <trkpt lat="49.18913" lon="1.87935">
        <ele>112</ele>
        <time>2024-02-05T15:40:24.309+00:00</time>
      </trkpt>
      <trkpt lat="49.18918" lon="1.87938">
        <ele>112</ele>
        <time>2024-02-05T15:40:28.504+00:00</time>
      </trkpt>
      <trkpt lat="49.18922" lon="1.87941">
        <ele>112</ele>
        <time>2024-02-05T15:40:32.563+00:00</time>
      </trkpt>
      <trkpt lat="49.18926" lon="1.87945">
        <ele>112</ele>
        <time>2024-02-05T15:40:36.764+00:00</time>
      </trkpt>
      <trkpt lat="49.18929" lon="1.87951">
        <ele>112</ele>
        <time>2024-02-05T15:40:41.149+00:00</time>
      </trkpt>
      <trkpt lat="49.18932" lon="1.87956">
        <ele>111</ele>
        <time>2024-02-05T15:40:45.227+00:00</time>
      </trkpt>
      <trkpt lat="49.18935" lon="1.87961">
        <ele>111</ele>
        <time>2024-02-05T15:40:49.347+00:00</time>
      </trkpt>
      <trkpt lat="49.18938" lon="1.87966">
        <ele>111</ele>
        <time>2024-02-05T15:40:53.476+00:00</time>
      </trkpt>
      <trkpt lat="49.18942" lon="1.8797">
        <ele>111</ele>
        <time>2024-02-05T15:40:58.026+00:00</time>
      </trkpt>
      <trkpt lat="49.18944" lon="1.87974">
        <ele>111</ele>
        <time>2024-02-05T15:41:02.143+00:00</time>
      </trkpt>
      <trkpt lat="49.18948" lon="1.87979">
        <ele>111</ele>
        <time>2024-02-05T15:41:06.581+00:00</time>
      </trkpt>
      <trkpt lat="49.18952" lon="1.87984">
        <ele>111</ele>
        <time>2024-02-05T15:41:10.670+00:00</time>
      </trkpt>
      <trkpt lat="49.18956" lon="1.87988">
        <ele>110</ele>
        <time>2024-02-05T15:41:14.740+00:00</time>
      </trkpt>
      <trkpt lat="49.1896" lon="1.8799">
        <ele>110</ele>
        <time>2024-02-05T15:41:18.870+00:00</time>
      </trkpt>
      <trkpt lat="49.18966" lon="1.87995">
        <ele>110</ele>
        <time>2024-02-05T15:41:23.480+00:00</time>
      </trkpt>
      <trkpt lat="49.1897" lon="1.87999">
        <ele>110</ele>
        <time>2024-02-05T15:41:27.583+00:00</time>
      </trkpt>
      <trkpt lat="49.18975" lon="1.88004">
        <ele>110</ele>
        <time>2024-02-05T15:41:32.025+00:00</time>
      </trkpt>
      <trkpt lat="49.18979" lon="1.88008">
        <ele>110</ele>
        <time>2024-02-05T15:41:36.109+00:00</time>
      </trkpt>
      <trkpt lat="49.18983" lon="1.88014">
        <ele>109</ele>
        <time>2024-02-05T15:41:40.569+00:00</time>
      </trkpt>
      <trkpt lat="49.18987" lon="1.88019">
        <ele>109</ele>
        <time>2024-02-05T15:41:44.760+00:00</time>
      </trkpt>
      <trkpt lat="49.18992" lon="1.88025">
        <ele>109</ele>
        <time>2024-02-05T15:41:49.345+00:00</time>
      </trkpt>
      <trkpt lat="49.18995" lon="1.8803">
        <ele>109</ele>
        <time>2024-02-05T15:41:53.386+00:00</time>
      </trkpt>
      <trkpt lat="49.18998" lon="1.88036">
        <ele>109</ele>
        <time>2024-02-05T15:41:57.465+00:00</time>
      </trkpt>
      <trkpt lat="49.19" lon="1.88042">
        <ele>109</ele>
        <time>2024-02-05T15:42:01.569+00:00</time>
      </trkpt>
      <trkpt lat="49.19004" lon="1.88048">
        <ele>109</ele>
        <time>2024-02-05T15:42:06.160+00:00</time>
      </trkpt>
      <trkpt lat="49.19007" lon="1.88055">
        <ele>109</ele>
        <time>2024-02-05T15:42:10.183+00:00</time>
      </trkpt>
      <trkpt lat="49.1901" lon="1.8806">
        <ele>109</ele>
        <time>2024-02-05T15:42:14.347+00:00</time>
      </trkpt>
      <trkpt lat="49.19015" lon="1.88067">
        <ele>109</ele>
        <time>2024-02-05T15:42:19.546+00:00</time>
      </trkpt>
      <trkpt lat="49.19018" lon="1.88073">
        <ele>109</ele>
        <time>2024-02-05T15:42:23.684+00:00</time>
      </trkpt>
      <trkpt lat="49.19022" lon="1.88079">
        <ele>109</ele>
        <time>2024-02-05T15:42:27.775+00:00</time>
      </trkpt>
      <trkpt lat="49.19026" lon="1.88083">
        <ele>109</ele>
        <time>2024-02-05T15:42:32.040+00:00</time>
      </trkpt>
      <trkpt lat="49.1903" lon="1.88088">
        <ele>109</ele>
        <time>2024-02-05T15:42:36.222+00:00</time>
      </trkpt>
      <trkpt lat="49.19032" lon="1.88094">
        <ele>109</ele>
        <time>2024-02-05T15:42:40.771+00:00</time>
      </trkpt>
      <trkpt lat="49.19034" lon="1.88099">
        <ele>109</ele>
        <time>2024-02-05T15:42:45.304+00:00</time>
      </trkpt>
      <trkpt lat="49.19033" lon="1.88107">
        <ele>109</ele>
        <time>2024-02-05T15:43:24.751+00:00</time>
      </trkpt>
      <trkpt lat="49.19035" lon="1.88113">
        <ele>109</ele>
        <time>2024-02-05T15:43:29.291+00:00</time>
      </trkpt>
      <trkpt lat="49.19034" lon="1.88121">
        <ele>109</ele>
        <time>2024-02-05T15:43:33.745+00:00</time>
      </trkpt>
      <trkpt lat="49.1903" lon="1.88126">
        <ele>110</ele>
        <time>2024-02-05T15:43:38.752+00:00</time>
      </trkpt>
      <trkpt lat="49.19026" lon="1.88133">
        <ele>110</ele>
        <time>2024-02-05T15:43:43.585+00:00</time>
      </trkpt>
      <trkpt lat="49.19022" lon="1.88137">
        <ele>110</ele>
        <time>2024-02-05T15:43:47.783+00:00</time>
      </trkpt>
      <trkpt lat="49.19019" lon="1.88142">
        <ele>110</ele>
        <time>2024-02-05T15:43:52.004+00:00</time>
      </trkpt>
      <trkpt lat="49.19017" lon="1.88148">
        <ele>110</ele>
        <time>2024-02-05T15:43:56.122+00:00</time>
      </trkpt>
      <trkpt lat="49.19013" lon="1.88153">
        <ele>110</ele>
        <time>2024-02-05T15:44:00.568+00:00</time>
      </trkpt>
      <trkpt lat="49.19008" lon="1.88159">
        <ele>110</ele>
        <time>2024-02-05T15:44:05.107+00:00</time>
      </trkpt>
      <trkpt lat="49.19004" lon="1.88164">
        <ele>110</ele>
        <time>2024-02-05T15:44:09.687+00:00</time>
      </trkpt>
      <trkpt lat="49.18999" lon="1.8817">
        <ele>110</ele>
        <time>2024-02-05T15:44:14.246+00:00</time>
      </trkpt>
      <trkpt lat="49.18996" lon="1.88177">
        <ele>110</ele>
        <time>2024-02-05T15:44:18.785+00:00</time>
      </trkpt>
      <trkpt lat="49.18993" lon="1.88184">
        <ele>109</ele>
        <time>2024-02-05T15:44:23.288+00:00</time>
      </trkpt>
      <trkpt lat="49.18988" lon="1.88187">
        <ele>109</ele>
        <time>2024-02-05T15:44:27.727+00:00</time>
      </trkpt>
      <trkpt lat="49.18985" lon="1.88194">
        <ele>108</ele>
        <time>2024-02-05T15:44:31.731+00:00</time>
      </trkpt>
      <trkpt lat="49.18985" lon="1.88202">
        <ele>108</ele>
        <time>2024-02-05T15:44:36.520+00:00</time>
      </trkpt>
      <trkpt lat="49.18982" lon="1.88205">
        <ele>108</ele>
        <time>2024-02-05T15:44:50.718+00:00</time>
      </trkpt>
      <trkpt lat="49.18981" lon="1.88207">
        <ele>108</ele>
        <time>2024-02-05T15:44:54.725+00:00</time>
      </trkpt>
      <trkpt lat="49.1898" lon="1.88208">
        <ele>108</ele>
        <time>2024-02-05T15:44:59.506+00:00</time>
      </trkpt>
      <trkpt lat="49.1898" lon="1.88209">
        <ele>107</ele>
        <time>2024-02-05T15:45:03.731+00:00</time>
      </trkpt>
      <trkpt lat="49.18976" lon="1.88209">
        <ele>107</ele>
        <time>2024-02-05T15:45:08.726+00:00</time>
      </trkpt>
      <trkpt lat="49.18971" lon="1.88215">
        <ele>107</ele>
        <time>2024-02-05T15:45:13.026+00:00</time>
      </trkpt>
      <trkpt lat="49.18967" lon="1.88221">
        <ele>107</ele>
        <time>2024-02-05T15:45:17.363+00:00</time>
      </trkpt>
      <trkpt lat="49.18967" lon="1.88227">
        <ele>107</ele>
        <time>2024-02-05T15:45:21.441+00:00</time>
      </trkpt>
      <trkpt lat="49.18969" lon="1.88229">
        <ele>107</ele>
        <time>2024-02-05T15:45:25.546+00:00</time>
      </trkpt>
      <trkpt lat="49.18973" lon="1.88229">
        <ele>107</ele>
        <time>2024-02-05T15:45:34.404+00:00</time>
      </trkpt>
      <trkpt lat="49.18973" lon="1.88229">
        <ele>107</ele>
        <time>2024-02-05T15:45:38.718+00:00</time>
      </trkpt>
      <trkpt lat="49.18975" lon="1.88227">
        <ele>107</ele>
        <time>2024-02-05T15:45:43.649+00:00</time>
      </trkpt>
      <trkpt lat="49.18978" lon="1.88222">
        <ele>107</ele>
        <time>2024-02-05T15:45:47.724+00:00</time>
      </trkpt>
      <trkpt lat="49.1898" lon="1.88219">
        <ele>107</ele>
        <time>2024-02-05T15:45:52.481+00:00</time>
      </trkpt>
      <trkpt lat="49.18991" lon="1.88222">
        <ele>108</ele>
        <time>2024-02-05T15:46:10.048+00:00</time>
      </trkpt>
      <trkpt lat="49.1899" lon="1.88226">
        <ele>108</ele>
        <time>2024-02-05T15:46:14.285+00:00</time>
      </trkpt>
      <trkpt lat="49.18988" lon="1.88228">
        <ele>108</ele>
        <time>2024-02-05T15:46:18.717+00:00</time>
      </trkpt>
      <trkpt lat="49.18989" lon="1.88231">
        <ele>108</ele>
        <time>2024-02-05T15:46:23.724+00:00</time>
      </trkpt>
      <trkpt lat="49.1899" lon="1.88231">
        <ele>108</ele>
        <time>2024-02-05T15:46:27.717+00:00</time>
      </trkpt>
      <trkpt lat="49.1899" lon="1.88225">
        <ele>108</ele>
        <time>2024-02-05T15:48:20.187+00:00</time>
      </trkpt>
      <trkpt lat="49.18995" lon="1.88228">
        <ele>108</ele>
        <time>2024-02-05T15:48:24.497+00:00</time>
      </trkpt>
      <trkpt lat="49.18996" lon="1.88228">
        <ele>108</ele>
        <time>2024-02-05T15:48:28.723+00:00</time>
      </trkpt>
      <trkpt lat="49.18997" lon="1.88232">
        <ele>108</ele>
        <time>2024-02-05T15:48:33.303+00:00</time>
      </trkpt>
      <trkpt lat="49.19001" lon="1.88236">
        <ele>108</ele>
        <time>2024-02-05T15:48:37.736+00:00</time>
      </trkpt>
      <trkpt lat="49.19004" lon="1.8824">
        <ele>108</ele>
        <time>2024-02-05T15:48:42.724+00:00</time>
      </trkpt>
      <trkpt lat="49.19004" lon="1.88242">
        <ele>108</ele>
        <time>2024-02-05T15:48:47.643+00:00</time>
      </trkpt>
      <trkpt lat="49.19" lon="1.88242">
        <ele>108</ele>
        <time>2024-02-05T15:48:51.727+00:00</time>
      </trkpt>
      <trkpt lat="49.18996" lon="1.88238">
        <ele>108</ele>
        <time>2024-02-05T15:48:56.266+00:00</time>
      </trkpt>
      <trkpt lat="49.18993" lon="1.88234">
        <ele>108</ele>
        <time>2024-02-05T15:48:59.583+00:00</time>
      </trkpt>
    </trkseg>
  </trk>
</gpx>